<?xml version="1.0" encoding="UTF-8" standalone="no" ?>
<gpx xmlns="http://www.topografix.com/GPX/1/1" xmlns:xsi="http://www.w3.org/2001/XMLSchema-instance" xsi:schemaLocation="http://www.topografix.com/GPX/1/1 http://www.topografix.com/GPX/1/1/gpx.xsd" version="1.1" creator="VisuGPX - https://www.visugpx.com">
  <metadata>
    <name>Bigreen 2011</name>
    <desc><![CDATA[Parcours Rouge]]></desc>
  </metadata>
  <trk>
    <name><![CDATA[Bigreen 2011]]></name>
    <cmt><![CDATA[Avec Olivier, Guillaume et Gérald]]></cmt>
    <trkseg>
      <trkpt lat="43.6894" lon="6.7128">
        <ele>762.33184814453</ele>
        <time>2011-03-06T08:11:33Z</time>
      </trkpt>
      <trkpt lat="43.68932" lon="6.71291">
        <ele>760.21752929688</ele>
        <time>2011-03-06T08:11:39Z</time>
      </trkpt>
      <trkpt lat="43.68925" lon="6.713">
        <ele>758.53814697266</ele>
        <time>2011-03-06T08:11:41Z</time>
      </trkpt>
      <trkpt lat="43.68919" lon="6.7133">
        <ele>755.58843994141</ele>
        <time>2011-03-06T08:11:46Z</time>
      </trkpt>
      <trkpt lat="43.68918" lon="6.71341">
        <ele>754.83428955078</ele>
        <time>2011-03-06T08:11:48Z</time>
      </trkpt>
      <trkpt lat="43.68928" lon="6.71357">
        <ele>755.509765625</ele>
        <time>2011-03-06T08:11:55Z</time>
      </trkpt>
      <trkpt lat="43.68937" lon="6.71366">
        <ele>756.57983398438</ele>
        <time>2011-03-06T08:12:00Z</time>
      </trkpt>
      <trkpt lat="43.68939" lon="6.71367">
        <ele>756.83581542969</ele>
        <time>2011-03-06T08:12:01Z</time>
      </trkpt>
      <trkpt lat="43.6895" lon="6.71378">
        <ele>758.13775634766</ele>
        <time>2011-03-06T08:12:08Z</time>
      </trkpt>
      <trkpt lat="43.68957" lon="6.71384">
        <ele>758.88049316406</ele>
        <time>2011-03-06T08:12:14Z</time>
      </trkpt>
      <trkpt lat="43.68959" lon="6.71385">
        <ele>759.24700927734</ele>
        <time>2011-03-06T08:12:19Z</time>
      </trkpt>
      <trkpt lat="43.6897" lon="6.71397">
        <ele>760.35723876953</ele>
        <time>2011-03-06T08:12:25Z</time>
      </trkpt>
      <trkpt lat="43.68983" lon="6.71411">
        <ele>761.64630126953</ele>
        <time>2011-03-06T08:12:28Z</time>
      </trkpt>
      <trkpt lat="43.69006" lon="6.71426">
        <ele>763.67614746094</ele>
        <time>2011-03-06T08:12:32Z</time>
      </trkpt>
      <trkpt lat="43.69013" lon="6.71438">
        <ele>763.17272949219</ele>
        <time>2011-03-06T08:12:37Z</time>
      </trkpt>
      <trkpt lat="43.69021" lon="6.71439">
        <ele>763.83673095703</ele>
        <time>2011-03-06T08:12:40Z</time>
      </trkpt>
      <trkpt lat="43.69056" lon="6.71438">
        <ele>767.14678955078</ele>
        <time>2011-03-06T08:12:46Z</time>
      </trkpt>
      <trkpt lat="43.69075" lon="6.71435">
        <ele>769.26110839844</ele>
        <time>2011-03-06T08:12:50Z</time>
      </trkpt>
      <trkpt lat="43.69111" lon="6.71454">
        <ele>770.33685302734</ele>
        <time>2011-03-06T08:12:56Z</time>
      </trkpt>
      <trkpt lat="43.69133" lon="6.71473">
        <ele>769.85589599609</ele>
        <time>2011-03-06T08:13:00Z</time>
      </trkpt>
      <trkpt lat="43.69145" lon="6.71479">
        <ele>770.08062744141</ele>
        <time>2011-03-06T08:13:02Z</time>
      </trkpt>
      <trkpt lat="43.69154" lon="6.71488">
        <ele>769.59167480469</ele>
        <time>2011-03-06T08:13:04Z</time>
      </trkpt>
      <trkpt lat="43.69179" lon="6.71505">
        <ele>769.40460205078</ele>
        <time>2011-03-06T08:13:09Z</time>
      </trkpt>
      <trkpt lat="43.69182" lon="6.71505">
        <ele>769.61859130859</ele>
        <time>2011-03-06T08:13:10Z</time>
      </trkpt>
      <trkpt lat="43.69194" lon="6.71501">
        <ele>770.86364746094</ele>
        <time>2011-03-06T08:13:14Z</time>
      </trkpt>
      <trkpt lat="43.69207" lon="6.715">
        <ele>771.84753417969</ele>
        <time>2011-03-06T08:13:19Z</time>
      </trkpt>
      <trkpt lat="43.6922" lon="6.71493">
        <ele>774.01110839844</ele>
        <time>2011-03-06T08:13:25Z</time>
      </trkpt>
      <trkpt lat="43.69221" lon="6.71492">
        <ele>774.38598632812</ele>
        <time>2011-03-06T08:13:26Z</time>
      </trkpt>
      <trkpt lat="43.69233" lon="6.71499">
        <ele>773.85852050781</ele>
        <time>2011-03-06T08:13:31Z</time>
      </trkpt>
      <trkpt lat="43.69242" lon="6.71512">
        <ele>773.33935546875</ele>
        <time>2011-03-06T08:13:36Z</time>
      </trkpt>
      <trkpt lat="43.6923" lon="6.71518">
        <ele>771.97015380859</ele>
        <time>2011-03-06T08:13:40Z</time>
      </trkpt>
      <trkpt lat="43.69225" lon="6.71522">
        <ele>771.20574951172</ele>
        <time>2011-03-06T08:13:41Z</time>
      </trkpt>
      <trkpt lat="43.69213" lon="6.7155">
        <ele>767.66888427734</ele>
        <time>2011-03-06T08:13:46Z</time>
      </trkpt>
      <trkpt lat="43.69211" lon="6.71555">
        <ele>766.94482421875</ele>
        <time>2011-03-06T08:13:47Z</time>
      </trkpt>
      <trkpt lat="43.69207" lon="6.71562">
        <ele>765.92083740234</ele>
        <time>2011-03-06T08:13:49Z</time>
      </trkpt>
      <trkpt lat="43.69199" lon="6.71571">
        <ele>764.33038330078</ele>
        <time>2011-03-06T08:13:52Z</time>
      </trkpt>
      <trkpt lat="43.69182" lon="6.71581">
        <ele>761.66412353516</ele>
        <time>2011-03-06T08:13:57Z</time>
      </trkpt>
      <trkpt lat="43.69168" lon="6.71591">
        <ele>759.60125732422</ele>
        <time>2011-03-06T08:14:00Z</time>
      </trkpt>
      <trkpt lat="43.69159" lon="6.71599">
        <ele>758.18225097656</ele>
        <time>2011-03-06T08:14:05Z</time>
      </trkpt>
      <trkpt lat="43.69156" lon="6.71601">
        <ele>757.62835693359</ele>
        <time>2011-03-06T08:14:10Z</time>
      </trkpt>
      <trkpt lat="43.69154" lon="6.716">
        <ele>757.52893066406</ele>
        <time>2011-03-06T08:14:12Z</time>
      </trkpt>
      <trkpt lat="43.6916" lon="6.71586">
        <ele>759.23217773438</ele>
        <time>2011-03-06T08:14:16Z</time>
      </trkpt>
      <trkpt lat="43.69162" lon="6.7158">
        <ele>759.94537353516</ele>
        <time>2011-03-06T08:14:17Z</time>
      </trkpt>
      <trkpt lat="43.69165" lon="6.71573">
        <ele>761.02612304688</ele>
        <time>2011-03-06T08:14:19Z</time>
      </trkpt>
      <trkpt lat="43.6916" lon="6.71573">
        <ele>760.50775146484</ele>
        <time>2011-03-06T08:14:22Z</time>
      </trkpt>
      <trkpt lat="43.69142" lon="6.71584">
        <ele>757.86505126953</ele>
        <time>2011-03-06T08:14:27Z</time>
      </trkpt>
      <trkpt lat="43.69111" lon="6.71608">
        <ele>752.57220458984</ele>
        <time>2011-03-06T08:14:33Z</time>
      </trkpt>
      <trkpt lat="43.69085" lon="6.71628">
        <ele>747.35894775391</ele>
        <time>2011-03-06T08:14:38Z</time>
      </trkpt>
      <trkpt lat="43.69073" lon="6.71639">
        <ele>744.15936279297</ele>
        <time>2011-03-06T08:14:40Z</time>
      </trkpt>
      <trkpt lat="43.69041" lon="6.71675">
        <ele>734.86120605469</ele>
        <time>2011-03-06T08:14:46Z</time>
      </trkpt>
      <trkpt lat="43.69038" lon="6.71679">
        <ele>734.26440429688</ele>
        <time>2011-03-06T08:14:47Z</time>
      </trkpt>
      <trkpt lat="43.69027" lon="6.71693">
        <ele>731.80725097656</ele>
        <time>2011-03-06T08:14:52Z</time>
      </trkpt>
      <trkpt lat="43.69021" lon="6.71699">
        <ele>730.52630615234</ele>
        <time>2011-03-06T08:14:54Z</time>
      </trkpt>
      <trkpt lat="43.69" lon="6.71718">
        <ele>725.60034179688</ele>
        <time>2011-03-06T08:14:59Z</time>
      </trkpt>
      <trkpt lat="43.68997" lon="6.71723">
        <ele>724.75622558594</ele>
        <time>2011-03-06T08:15:00Z</time>
      </trkpt>
      <trkpt lat="43.68974" lon="6.71743">
        <ele>718.52709960938</ele>
        <time>2011-03-06T08:15:05Z</time>
      </trkpt>
      <trkpt lat="43.68957" lon="6.7175">
        <ele>714.26336669922</ele>
        <time>2011-03-06T08:15:08Z</time>
      </trkpt>
      <trkpt lat="43.68926" lon="6.71765">
        <ele>708.11657714844</ele>
        <time>2011-03-06T08:15:13Z</time>
      </trkpt>
      <trkpt lat="43.68911" lon="6.71773">
        <ele>704.88531494141</ele>
        <time>2011-03-06T08:15:16Z</time>
      </trkpt>
      <trkpt lat="43.689" lon="6.71782">
        <ele>702.58258056641</ele>
        <time>2011-03-06T08:15:19Z</time>
      </trkpt>
      <trkpt lat="43.68898" lon="6.71787">
        <ele>702.34124755859</ele>
        <time>2011-03-06T08:15:26Z</time>
      </trkpt>
      <trkpt lat="43.68899" lon="6.71788">
        <ele>702.45349121094</ele>
        <time>2011-03-06T08:15:29Z</time>
      </trkpt>
      <trkpt lat="43.6889" lon="6.71794">
        <ele>700.52490234375</ele>
        <time>2011-03-06T08:15:33Z</time>
      </trkpt>
      <trkpt lat="43.68878" lon="6.71808">
        <ele>697.72839355469</ele>
        <time>2011-03-06T08:15:36Z</time>
      </trkpt>
      <trkpt lat="43.68863" lon="6.71825">
        <ele>694.30847167969</ele>
        <time>2011-03-06T08:15:39Z</time>
      </trkpt>
      <trkpt lat="43.68847" lon="6.71842">
        <ele>691.55249023438</ele>
        <time>2011-03-06T08:15:43Z</time>
      </trkpt>
      <trkpt lat="43.68837" lon="6.71854">
        <ele>691.15869140625</ele>
        <time>2011-03-06T08:15:46Z</time>
      </trkpt>
      <trkpt lat="43.68827" lon="6.71866">
        <ele>690.76867675781</ele>
        <time>2011-03-06T08:15:49Z</time>
      </trkpt>
      <trkpt lat="43.68815" lon="6.71881">
        <ele>690.46807861328</ele>
        <time>2011-03-06T08:15:54Z</time>
      </trkpt>
      <trkpt lat="43.68798" lon="6.71903">
        <ele>690.93872070312</ele>
        <time>2011-03-06T08:16:00Z</time>
      </trkpt>
      <trkpt lat="43.68784" lon="6.71921">
        <ele>691.64776611328</ele>
        <time>2011-03-06T08:16:06Z</time>
      </trkpt>
      <trkpt lat="43.68773" lon="6.71933">
        <ele>690.70941162109</ele>
        <time>2011-03-06T08:16:11Z</time>
      </trkpt>
      <trkpt lat="43.68762" lon="6.71951">
        <ele>690.62030029297</ele>
        <time>2011-03-06T08:16:16Z</time>
      </trkpt>
      <trkpt lat="43.6875" lon="6.71977">
        <ele>691.7587890625</ele>
        <time>2011-03-06T08:16:21Z</time>
      </trkpt>
      <trkpt lat="43.68746" lon="6.71992">
        <ele>692.96649169922</ele>
        <time>2011-03-06T08:16:25Z</time>
      </trkpt>
      <trkpt lat="43.68741" lon="6.72007">
        <ele>692.49572753906</ele>
        <time>2011-03-06T08:16:29Z</time>
      </trkpt>
      <trkpt lat="43.68741" lon="6.72008">
        <ele>692.4169921875</ele>
        <time>2011-03-06T08:16:30Z</time>
      </trkpt>
      <trkpt lat="43.68737" lon="6.72016">
        <ele>690.99926757812</ele>
        <time>2011-03-06T08:16:35Z</time>
      </trkpt>
      <trkpt lat="43.68735" lon="6.72012">
        <ele>690.72448730469</ele>
        <time>2011-03-06T08:16:38Z</time>
      </trkpt>
      <trkpt lat="43.68733" lon="6.72008">
        <ele>690.67864990234</ele>
        <time>2011-03-06T08:16:40Z</time>
      </trkpt>
      <trkpt lat="43.68731" lon="6.72003">
        <ele>690.69537353516</ele>
        <time>2011-03-06T08:16:42Z</time>
      </trkpt>
      <trkpt lat="43.6873" lon="6.71999">
        <ele>690.51837158203</ele>
        <time>2011-03-06T08:16:43Z</time>
      </trkpt>
      <trkpt lat="43.68725" lon="6.71978">
        <ele>686.19165039062</ele>
        <time>2011-03-06T08:16:48Z</time>
      </trkpt>
      <trkpt lat="43.68723" lon="6.71959">
        <ele>682.67016601562</ele>
        <time>2011-03-06T08:16:53Z</time>
      </trkpt>
      <trkpt lat="43.68725" lon="6.71944">
        <ele>680.81030273438</ele>
        <time>2011-03-06T08:16:59Z</time>
      </trkpt>
      <trkpt lat="43.68726" lon="6.71942">
        <ele>680.49041748047</ele>
        <time>2011-03-06T08:17:00Z</time>
      </trkpt>
      <trkpt lat="43.68723" lon="6.71938">
        <ele>679.29864501953</ele>
        <time>2011-03-06T08:17:05Z</time>
      </trkpt>
      <trkpt lat="43.68718" lon="6.71943">
        <ele>678.81030273438</ele>
        <time>2011-03-06T08:17:10Z</time>
      </trkpt>
      <trkpt lat="43.68712" lon="6.71952">
        <ele>678.77923583984</ele>
        <time>2011-03-06T08:17:15Z</time>
      </trkpt>
      <trkpt lat="43.68705" lon="6.71966">
        <ele>679.50518798828</ele>
        <time>2011-03-06T08:17:20Z</time>
      </trkpt>
      <trkpt lat="43.68699" lon="6.71986">
        <ele>681.48779296875</ele>
        <time>2011-03-06T08:17:25Z</time>
      </trkpt>
      <trkpt lat="43.68696" lon="6.71999">
        <ele>683.12042236328</ele>
        <time>2011-03-06T08:17:28Z</time>
      </trkpt>
      <trkpt lat="43.68691" lon="6.71997">
        <ele>681.73889160156</ele>
        <time>2011-03-06T08:17:32Z</time>
      </trkpt>
      <trkpt lat="43.68686" lon="6.71978">
        <ele>677.21209716797</ele>
        <time>2011-03-06T08:17:36Z</time>
      </trkpt>
      <trkpt lat="43.68681" lon="6.71962">
        <ele>673.14202880859</ele>
        <time>2011-03-06T08:17:40Z</time>
      </trkpt>
      <trkpt lat="43.68674" lon="6.7197">
        <ele>672.85260009766</ele>
        <time>2011-03-06T08:17:45Z</time>
      </trkpt>
      <trkpt lat="43.68673" lon="6.71974">
        <ele>673.36627197266</ele>
        <time>2011-03-06T08:17:46Z</time>
      </trkpt>
      <trkpt lat="43.68668" lon="6.71955">
        <ele>668.74621582031</ele>
        <time>2011-03-06T08:17:52Z</time>
      </trkpt>
      <trkpt lat="43.68665" lon="6.71938">
        <ele>664.84191894531</ele>
        <time>2011-03-06T08:17:55Z</time>
      </trkpt>
      <trkpt lat="43.68658" lon="6.71937">
        <ele>663.27026367188</ele>
        <time>2011-03-06T08:17:59Z</time>
      </trkpt>
      <trkpt lat="43.68654" lon="6.71945">
        <ele>663.93365478516</ele>
        <time>2011-03-06T08:18:03Z</time>
      </trkpt>
      <trkpt lat="43.68653" lon="6.71949">
        <ele>664.40008544922</ele>
        <time>2011-03-06T08:18:04Z</time>
      </trkpt>
      <trkpt lat="43.68645" lon="6.71983">
        <ele>668.90954589844</ele>
        <time>2011-03-06T08:18:10Z</time>
      </trkpt>
      <trkpt lat="43.68641" lon="6.72005">
        <ele>669.98767089844</ele>
        <time>2011-03-06T08:18:13Z</time>
      </trkpt>
      <trkpt lat="43.68637" lon="6.72017">
        <ele>667.24725341797</ele>
        <time>2011-03-06T08:18:15Z</time>
      </trkpt>
      <trkpt lat="43.68637" lon="6.72038">
        <ele>663.68658447266</ele>
        <time>2011-03-06T08:18:19Z</time>
      </trkpt>
      <trkpt lat="43.68637" lon="6.72042">
        <ele>663.18304443359</ele>
        <time>2011-03-06T08:18:20Z</time>
      </trkpt>
      <trkpt lat="43.68637" lon="6.72048">
        <ele>662.17999267578</ele>
        <time>2011-03-06T08:18:24Z</time>
      </trkpt>
      <trkpt lat="43.68637" lon="6.72046">
        <ele>662.42584228516</ele>
        <time>2011-03-06T08:18:28Z</time>
      </trkpt>
      <trkpt lat="43.68636" lon="6.72046">
        <ele>662.16949462891</ele>
        <time>2011-03-06T08:18:29Z</time>
      </trkpt>
      <trkpt lat="43.68634" lon="6.72058">
        <ele>659.61029052734</ele>
        <time>2011-03-06T08:18:34Z</time>
      </trkpt>
      <trkpt lat="43.68635" lon="6.72077">
        <ele>656.90679931641</ele>
        <time>2011-03-06T08:18:39Z</time>
      </trkpt>
      <trkpt lat="43.68638" lon="6.72095">
        <ele>653.99432373047</ele>
        <time>2011-03-06T08:18:43Z</time>
      </trkpt>
      <trkpt lat="43.68645" lon="6.72114">
        <ele>651.60705566406</ele>
        <time>2011-03-06T08:18:47Z</time>
      </trkpt>
      <trkpt lat="43.68649" lon="6.72141">
        <ele>646.10595703125</ele>
        <time>2011-03-06T08:18:53Z</time>
      </trkpt>
      <trkpt lat="43.68649" lon="6.72159">
        <ele>641.60357666016</ele>
        <time>2011-03-06T08:18:57Z</time>
      </trkpt>
      <trkpt lat="43.68657" lon="6.72169">
        <ele>641.20526123047</ele>
        <time>2011-03-06T08:19:07Z</time>
      </trkpt>
      <trkpt lat="43.68656" lon="6.7218">
        <ele>640.95770263672</ele>
        <time>2011-03-06T08:19:18Z</time>
      </trkpt>
      <trkpt lat="43.68656" lon="6.72193">
        <ele>641.0068359375</ele>
        <time>2011-03-06T08:19:22Z</time>
      </trkpt>
      <trkpt lat="43.68659" lon="6.72208">
        <ele>641.51568603516</ele>
        <time>2011-03-06T08:19:25Z</time>
      </trkpt>
      <trkpt lat="43.68661" lon="6.72226">
        <ele>641.73950195312</ele>
        <time>2011-03-06T08:19:28Z</time>
      </trkpt>
      <trkpt lat="43.68661" lon="6.72231">
        <ele>641.71429443359</ele>
        <time>2011-03-06T08:19:29Z</time>
      </trkpt>
      <trkpt lat="43.68659" lon="6.7224">
        <ele>641.44250488281</ele>
        <time>2011-03-06T08:19:34Z</time>
      </trkpt>
      <trkpt lat="43.6866" lon="6.72243">
        <ele>641.56610107422</ele>
        <time>2011-03-06T08:19:41Z</time>
      </trkpt>
      <trkpt lat="43.6866" lon="6.72244">
        <ele>641.5634765625</ele>
        <time>2011-03-06T08:19:51Z</time>
      </trkpt>
      <trkpt lat="43.68662" lon="6.72245">
        <ele>641.68005371094</ele>
        <time>2011-03-06T08:20:07Z</time>
      </trkpt>
      <trkpt lat="43.6866" lon="6.72248">
        <ele>641.55084228516</ele>
        <time>2011-03-06T08:20:13Z</time>
      </trkpt>
      <trkpt lat="43.68657" lon="6.7225">
        <ele>641.34436035156</ele>
        <time>2011-03-06T08:20:23Z</time>
      </trkpt>
      <trkpt lat="43.68653" lon="6.72252">
        <ele>641.28649902344</ele>
        <time>2011-03-06T08:20:28Z</time>
      </trkpt>
      <trkpt lat="43.68646" lon="6.72247">
        <ele>640.44757080078</ele>
        <time>2011-03-06T08:20:32Z</time>
      </trkpt>
      <trkpt lat="43.68641" lon="6.72237">
        <ele>639.77807617188</ele>
        <time>2011-03-06T08:20:37Z</time>
      </trkpt>
      <trkpt lat="43.68639" lon="6.72234">
        <ele>639.55548095703</ele>
        <time>2011-03-06T08:20:40Z</time>
      </trkpt>
      <trkpt lat="43.68633" lon="6.72231">
        <ele>638.90826416016</ele>
        <time>2011-03-06T08:20:44Z</time>
      </trkpt>
      <trkpt lat="43.68628" lon="6.72229">
        <ele>638.31628417969</ele>
        <time>2011-03-06T08:20:46Z</time>
      </trkpt>
      <trkpt lat="43.68621" lon="6.72225">
        <ele>637.31805419922</ele>
        <time>2011-03-06T08:20:51Z</time>
      </trkpt>
      <trkpt lat="43.68619" lon="6.72224">
        <ele>637.09881591797</ele>
        <time>2011-03-06T08:20:57Z</time>
      </trkpt>
      <trkpt lat="43.68615" lon="6.72222">
        <ele>636.59143066406</ele>
        <time>2011-03-06T08:21:02Z</time>
      </trkpt>
      <trkpt lat="43.68609" lon="6.72223">
        <ele>635.93572998047</ele>
        <time>2011-03-06T08:21:08Z</time>
      </trkpt>
      <trkpt lat="43.68603" lon="6.72224">
        <ele>635.30938720703</ele>
        <time>2011-03-06T08:21:15Z</time>
      </trkpt>
      <trkpt lat="43.686" lon="6.72223">
        <ele>634.99499511719</ele>
        <time>2011-03-06T08:21:17Z</time>
      </trkpt>
      <trkpt lat="43.68589" lon="6.72216">
        <ele>633.03692626953</ele>
        <time>2011-03-06T08:21:23Z</time>
      </trkpt>
      <trkpt lat="43.68583" lon="6.72208">
        <ele>631.36987304688</ele>
        <time>2011-03-06T08:21:26Z</time>
      </trkpt>
      <trkpt lat="43.68571" lon="6.72205">
        <ele>629.87097167969</ele>
        <time>2011-03-06T08:21:31Z</time>
      </trkpt>
      <trkpt lat="43.68567" lon="6.72206">
        <ele>629.5068359375</ele>
        <time>2011-03-06T08:21:35Z</time>
      </trkpt>
      <trkpt lat="43.68554" lon="6.72208">
        <ele>628.29327392578</ele>
        <time>2011-03-06T08:21:42Z</time>
      </trkpt>
      <trkpt lat="43.68548" lon="6.72207">
        <ele>627.53967285156</ele>
        <time>2011-03-06T08:21:44Z</time>
      </trkpt>
      <trkpt lat="43.68526" lon="6.722">
        <ele>624.38189697266</ele>
        <time>2011-03-06T08:21:50Z</time>
      </trkpt>
      <trkpt lat="43.6851" lon="6.72196">
        <ele>622.06787109375</ele>
        <time>2011-03-06T08:21:55Z</time>
      </trkpt>
      <trkpt lat="43.68497" lon="6.72195">
        <ele>620.38494873047</ele>
        <time>2011-03-06T08:22:01Z</time>
      </trkpt>
      <trkpt lat="43.68488" lon="6.72198">
        <ele>619.62341308594</ele>
        <time>2011-03-06T08:22:07Z</time>
      </trkpt>
      <trkpt lat="43.6848" lon="6.72203">
        <ele>619.38000488281</ele>
        <time>2011-03-06T08:22:13Z</time>
      </trkpt>
      <trkpt lat="43.68467" lon="6.72212">
        <ele>619.21917724609</ele>
        <time>2011-03-06T08:22:21Z</time>
      </trkpt>
      <trkpt lat="43.68451" lon="6.72222">
        <ele>619.2587890625</ele>
        <time>2011-03-06T08:22:27Z</time>
      </trkpt>
      <trkpt lat="43.6843" lon="6.72239">
        <ele>620.64233398438</ele>
        <time>2011-03-06T08:22:33Z</time>
      </trkpt>
      <trkpt lat="43.68406" lon="6.72259">
        <ele>622.37670898438</ele>
        <time>2011-03-06T08:22:41Z</time>
      </trkpt>
      <trkpt lat="43.68388" lon="6.72275">
        <ele>623.08911132812</ele>
        <time>2011-03-06T08:22:47Z</time>
      </trkpt>
      <trkpt lat="43.68376" lon="6.72287">
        <ele>623.84210205078</ele>
        <time>2011-03-06T08:22:52Z</time>
      </trkpt>
      <trkpt lat="43.68375" lon="6.72287">
        <ele>623.86114501953</ele>
        <time>2011-03-06T08:22:57Z</time>
      </trkpt>
      <trkpt lat="43.6837" lon="6.72292">
        <ele>624.14343261719</ele>
        <time>2011-03-06T08:23:04Z</time>
      </trkpt>
      <trkpt lat="43.68356" lon="6.72301">
        <ele>624.50769042969</ele>
        <time>2011-03-06T08:23:08Z</time>
      </trkpt>
      <trkpt lat="43.68333" lon="6.72321">
        <ele>625.98492431641</ele>
        <time>2011-03-06T08:23:14Z</time>
      </trkpt>
      <trkpt lat="43.6832" lon="6.72331">
        <ele>627.05529785156</ele>
        <time>2011-03-06T08:23:17Z</time>
      </trkpt>
      <trkpt lat="43.68295" lon="6.72364">
        <ele>629.48260498047</ele>
        <time>2011-03-06T08:23:23Z</time>
      </trkpt>
      <trkpt lat="43.68287" lon="6.72377">
        <ele>630.42901611328</ele>
        <time>2011-03-06T08:23:26Z</time>
      </trkpt>
      <trkpt lat="43.68276" lon="6.72395">
        <ele>631.90185546875</ele>
        <time>2011-03-06T08:23:32Z</time>
      </trkpt>
      <trkpt lat="43.68275" lon="6.72398">
        <ele>632.19427490234</ele>
        <time>2011-03-06T08:23:36Z</time>
      </trkpt>
      <trkpt lat="43.68269" lon="6.72411">
        <ele>633.28204345703</ele>
        <time>2011-03-06T08:23:40Z</time>
      </trkpt>
      <trkpt lat="43.68259" lon="6.72432">
        <ele>634.72546386719</ele>
        <time>2011-03-06T08:23:45Z</time>
      </trkpt>
      <trkpt lat="43.68241" lon="6.72455">
        <ele>635.61071777344</ele>
        <time>2011-03-06T08:23:50Z</time>
      </trkpt>
      <trkpt lat="43.68218" lon="6.72489">
        <ele>636.82666015625</ele>
        <time>2011-03-06T08:23:55Z</time>
      </trkpt>
      <trkpt lat="43.68192" lon="6.72531">
        <ele>637.70977783203</ele>
        <time>2011-03-06T08:24:01Z</time>
      </trkpt>
      <trkpt lat="43.68182" lon="6.72548">
        <ele>637.94207763672</ele>
        <time>2011-03-06T08:24:04Z</time>
      </trkpt>
      <trkpt lat="43.68175" lon="6.72556">
        <ele>637.95983886719</ele>
        <time>2011-03-06T08:24:06Z</time>
      </trkpt>
      <trkpt lat="43.68167" lon="6.72562">
        <ele>637.78131103516</ele>
        <time>2011-03-06T08:24:08Z</time>
      </trkpt>
      <trkpt lat="43.6816" lon="6.72569">
        <ele>637.50335693359</ele>
        <time>2011-03-06T08:24:10Z</time>
      </trkpt>
      <trkpt lat="43.68153" lon="6.72578">
        <ele>637.35052490234</ele>
        <time>2011-03-06T08:24:12Z</time>
      </trkpt>
      <trkpt lat="43.6815" lon="6.72583">
        <ele>637.34240722656</ele>
        <time>2011-03-06T08:24:13Z</time>
      </trkpt>
      <trkpt lat="43.68139" lon="6.726">
        <ele>636.97247314453</ele>
        <time>2011-03-06T08:24:16Z</time>
      </trkpt>
      <trkpt lat="43.6813" lon="6.72616">
        <ele>636.61657714844</ele>
        <time>2011-03-06T08:24:19Z</time>
      </trkpt>
      <trkpt lat="43.68127" lon="6.72621">
        <ele>636.564453125</ele>
        <time>2011-03-06T08:24:20Z</time>
      </trkpt>
      <trkpt lat="43.68108" lon="6.72661">
        <ele>636.17022705078</ele>
        <time>2011-03-06T08:24:27Z</time>
      </trkpt>
      <trkpt lat="43.68105" lon="6.72666">
        <ele>636.08898925781</ele>
        <time>2011-03-06T08:24:28Z</time>
      </trkpt>
      <trkpt lat="43.68087" lon="6.72698">
        <ele>635.45666503906</ele>
        <time>2011-03-06T08:24:34Z</time>
      </trkpt>
      <trkpt lat="43.68074" lon="6.72718">
        <ele>635.06701660156</ele>
        <time>2011-03-06T08:24:38Z</time>
      </trkpt>
      <trkpt lat="43.68057" lon="6.72757">
        <ele>635.04730224609</ele>
        <time>2011-03-06T08:24:45Z</time>
      </trkpt>
      <trkpt lat="43.6804" lon="6.72799">
        <ele>634.87109375</ele>
        <time>2011-03-06T08:24:52Z</time>
      </trkpt>
      <trkpt lat="43.68031" lon="6.7282">
        <ele>634.55926513672</ele>
        <time>2011-03-06T08:24:56Z</time>
      </trkpt>
      <trkpt lat="43.68013" lon="6.72836">
        <ele>633.31402587891</ele>
        <time>2011-03-06T08:25:01Z</time>
      </trkpt>
      <trkpt lat="43.67988" lon="6.72855">
        <ele>631.13360595703</ele>
        <time>2011-03-06T08:25:07Z</time>
      </trkpt>
      <trkpt lat="43.67956" lon="6.72874">
        <ele>628.50921630859</ele>
        <time>2011-03-06T08:25:13Z</time>
      </trkpt>
      <trkpt lat="43.67925" lon="6.72884">
        <ele>625.95196533203</ele>
        <time>2011-03-06T08:25:17Z</time>
      </trkpt>
      <trkpt lat="43.67912" lon="6.7289">
        <ele>624.69091796875</ele>
        <time>2011-03-06T08:25:19Z</time>
      </trkpt>
      <trkpt lat="43.67895" lon="6.72905">
        <ele>622.88165283203</ele>
        <time>2011-03-06T08:25:22Z</time>
      </trkpt>
      <trkpt lat="43.67882" lon="6.72905">
        <ele>621.10894775391</ele>
        <time>2011-03-06T08:25:26Z</time>
      </trkpt>
      <trkpt lat="43.6788" lon="6.72899">
        <ele>620.77819824219</ele>
        <time>2011-03-06T08:25:27Z</time>
      </trkpt>
      <trkpt lat="43.67876" lon="6.72881">
        <ele>619.78942871094</ele>
        <time>2011-03-06T08:25:30Z</time>
      </trkpt>
      <trkpt lat="43.67873" lon="6.72865">
        <ele>619.04559326172</ele>
        <time>2011-03-06T08:25:32Z</time>
      </trkpt>
      <trkpt lat="43.67871" lon="6.72855">
        <ele>618.56604003906</ele>
        <time>2011-03-06T08:25:33Z</time>
      </trkpt>
      <trkpt lat="43.67871" lon="6.72829">
        <ele>617.85949707031</ele>
        <time>2011-03-06T08:25:36Z</time>
      </trkpt>
      <trkpt lat="43.67876" lon="6.72795">
        <ele>617.45257568359</ele>
        <time>2011-03-06T08:25:41Z</time>
      </trkpt>
      <trkpt lat="43.67878" lon="6.72776">
        <ele>617.20880126953</ele>
        <time>2011-03-06T08:25:44Z</time>
      </trkpt>
      <trkpt lat="43.6788" lon="6.72766">
        <ele>617.21734619141</ele>
        <time>2011-03-06T08:25:46Z</time>
      </trkpt>
      <trkpt lat="43.67885" lon="6.72744">
        <ele>617.28894042969</ele>
        <time>2011-03-06T08:25:52Z</time>
      </trkpt>
      <trkpt lat="43.67888" lon="6.72724">
        <ele>617.12023925781</ele>
        <time>2011-03-06T08:25:58Z</time>
      </trkpt>
      <trkpt lat="43.67885" lon="6.72706">
        <ele>616.20196533203</ele>
        <time>2011-03-06T08:26:03Z</time>
      </trkpt>
      <trkpt lat="43.67883" lon="6.72698">
        <ele>615.71044921875</ele>
        <time>2011-03-06T08:26:05Z</time>
      </trkpt>
      <trkpt lat="43.67879" lon="6.72678">
        <ele>614.46221923828</ele>
        <time>2011-03-06T08:26:09Z</time>
      </trkpt>
      <trkpt lat="43.67879" lon="6.72661">
        <ele>613.94183349609</ele>
        <time>2011-03-06T08:26:11Z</time>
      </trkpt>
      <trkpt lat="43.67886" lon="6.72634">
        <ele>614.36297607422</ele>
        <time>2011-03-06T08:26:15Z</time>
      </trkpt>
      <trkpt lat="43.67893" lon="6.72615">
        <ele>615.05419921875</ele>
        <time>2011-03-06T08:26:19Z</time>
      </trkpt>
      <trkpt lat="43.67896" lon="6.72603">
        <ele>615.28533935547</ele>
        <time>2011-03-06T08:26:22Z</time>
      </trkpt>
      <trkpt lat="43.67897" lon="6.72592">
        <ele>615.14343261719</ele>
        <time>2011-03-06T08:26:26Z</time>
      </trkpt>
      <trkpt lat="43.67893" lon="6.72588">
        <ele>614.38812255859</ele>
        <time>2011-03-06T08:26:28Z</time>
      </trkpt>
      <trkpt lat="43.67889" lon="6.72585">
        <ele>613.66833496094</ele>
        <time>2011-03-06T08:26:29Z</time>
      </trkpt>
      <trkpt lat="43.67881" lon="6.72579">
        <ele>612.35919189453</ele>
        <time>2011-03-06T08:26:31Z</time>
      </trkpt>
      <trkpt lat="43.67877" lon="6.72567">
        <ele>611.27471923828</ele>
        <time>2011-03-06T08:26:34Z</time>
      </trkpt>
      <trkpt lat="43.67882" lon="6.7255">
        <ele>611.42388916016</ele>
        <time>2011-03-06T08:26:39Z</time>
      </trkpt>
      <trkpt lat="43.67883" lon="6.72529">
        <ele>610.83239746094</ele>
        <time>2011-03-06T08:26:43Z</time>
      </trkpt>
      <trkpt lat="43.67883" lon="6.72519">
        <ele>610.63165283203</ele>
        <time>2011-03-06T08:26:45Z</time>
      </trkpt>
      <trkpt lat="43.67871" lon="6.72505">
        <ele>607.97534179688</ele>
        <time>2011-03-06T08:26:49Z</time>
      </trkpt>
      <trkpt lat="43.67862" lon="6.72496">
        <ele>605.90985107422</ele>
        <time>2011-03-06T08:26:51Z</time>
      </trkpt>
      <trkpt lat="43.67852" lon="6.72496">
        <ele>604.20092773438</ele>
        <time>2011-03-06T08:26:55Z</time>
      </trkpt>
      <trkpt lat="43.67841" lon="6.72488">
        <ele>601.92803955078</ele>
        <time>2011-03-06T08:26:59Z</time>
      </trkpt>
      <trkpt lat="43.67824" lon="6.7249">
        <ele>597.88446044922</ele>
        <time>2011-03-06T08:27:03Z</time>
      </trkpt>
      <trkpt lat="43.67817" lon="6.72497">
        <ele>596.06158447266</ele>
        <time>2011-03-06T08:27:05Z</time>
      </trkpt>
      <trkpt lat="43.67799" lon="6.7252">
        <ele>592.18383789062</ele>
        <time>2011-03-06T08:27:11Z</time>
      </trkpt>
      <trkpt lat="43.67793" lon="6.72521">
        <ele>590.47863769531</ele>
        <time>2011-03-06T08:27:15Z</time>
      </trkpt>
      <trkpt lat="43.67794" lon="6.72514">
        <ele>590.25207519531</ele>
        <time>2011-03-06T08:27:20Z</time>
      </trkpt>
      <trkpt lat="43.67799" lon="6.72496">
        <ele>591.06823730469</ele>
        <time>2011-03-06T08:27:26Z</time>
      </trkpt>
      <trkpt lat="43.67802" lon="6.72484">
        <ele>591.44537353516</ele>
        <time>2011-03-06T08:27:29Z</time>
      </trkpt>
      <trkpt lat="43.67808" lon="6.72473">
        <ele>592.67962646484</ele>
        <time>2011-03-06T08:27:32Z</time>
      </trkpt>
      <trkpt lat="43.67811" lon="6.72469">
        <ele>593.30743408203</ele>
        <time>2011-03-06T08:27:34Z</time>
      </trkpt>
      <trkpt lat="43.67811" lon="6.72469">
        <ele>593.29620361328</ele>
        <time>2011-03-06T08:27:35Z</time>
      </trkpt>
      <trkpt lat="43.67809" lon="6.72468">
        <ele>592.69500732422</ele>
        <time>2011-03-06T08:27:39Z</time>
      </trkpt>
      <trkpt lat="43.67798" lon="6.72461">
        <ele>589.30505371094</ele>
        <time>2011-03-06T08:27:45Z</time>
      </trkpt>
      <trkpt lat="43.67794" lon="6.7246">
        <ele>587.88366699219</ele>
        <time>2011-03-06T08:27:47Z</time>
      </trkpt>
      <trkpt lat="43.6779" lon="6.72458">
        <ele>586.70031738281</ele>
        <time>2011-03-06T08:27:49Z</time>
      </trkpt>
      <trkpt lat="43.67784" lon="6.72452">
        <ele>584.76092529297</ele>
        <time>2011-03-06T08:27:54Z</time>
      </trkpt>
      <trkpt lat="43.67776" lon="6.72446">
        <ele>582.25189208984</ele>
        <time>2011-03-06T08:27:59Z</time>
      </trkpt>
      <trkpt lat="43.67759" lon="6.7243">
        <ele>576.28485107422</ele>
        <time>2011-03-06T08:28:03Z</time>
      </trkpt>
      <trkpt lat="43.67746" lon="6.72423">
        <ele>572.58258056641</ele>
        <time>2011-03-06T08:28:05Z</time>
      </trkpt>
      <trkpt lat="43.67736" lon="6.72417">
        <ele>570.42651367188</ele>
        <time>2011-03-06T08:28:07Z</time>
      </trkpt>
      <trkpt lat="43.67728" lon="6.72396">
        <ele>568.12463378906</ele>
        <time>2011-03-06T08:28:11Z</time>
      </trkpt>
      <trkpt lat="43.67742" lon="6.72352">
        <ele>568.96673583984</ele>
        <time>2011-03-06T08:28:17Z</time>
      </trkpt>
      <trkpt lat="43.67754" lon="6.72315">
        <ele>570.17309570312</ele>
        <time>2011-03-06T08:28:21Z</time>
      </trkpt>
      <trkpt lat="43.67757" lon="6.72305">
        <ele>570.33880615234</ele>
        <time>2011-03-06T08:28:22Z</time>
      </trkpt>
      <trkpt lat="43.67763" lon="6.72252">
        <ele>568.74365234375</ele>
        <time>2011-03-06T08:28:27Z</time>
      </trkpt>
      <trkpt lat="43.67762" lon="6.72242">
        <ele>566.83746337891</ele>
        <time>2011-03-06T08:28:28Z</time>
      </trkpt>
      <trkpt lat="43.67743" lon="6.72171">
        <ele>547.82434082031</ele>
        <time>2011-03-06T08:28:36Z</time>
      </trkpt>
      <trkpt lat="43.67739" lon="6.72155">
        <ele>542.64300537109</ele>
        <time>2011-03-06T08:28:39Z</time>
      </trkpt>
      <trkpt lat="43.67738" lon="6.72152">
        <ele>541.78277587891</ele>
        <time>2011-03-06T08:28:40Z</time>
      </trkpt>
      <trkpt lat="43.67738" lon="6.72151">
        <ele>541.61102294922</ele>
        <time>2011-03-06T08:28:43Z</time>
      </trkpt>
      <trkpt lat="43.67738" lon="6.72151">
        <ele>541.63586425781</ele>
        <time>2011-03-06T08:28:44Z</time>
      </trkpt>
      <trkpt lat="43.67735" lon="6.72149">
        <ele>539.96978759766</ele>
        <time>2011-03-06T08:28:52Z</time>
      </trkpt>
      <trkpt lat="43.67734" lon="6.72148">
        <ele>539.41369628906</ele>
        <time>2011-03-06T08:28:53Z</time>
      </trkpt>
      <trkpt lat="43.67723" lon="6.72152">
        <ele>537.24047851562</ele>
        <time>2011-03-06T08:28:58Z</time>
      </trkpt>
      <trkpt lat="43.67722" lon="6.72153">
        <ele>537.21356201172</ele>
        <time>2011-03-06T08:28:59Z</time>
      </trkpt>
      <trkpt lat="43.67715" lon="6.72157">
        <ele>536.04388427734</ele>
        <time>2011-03-06T08:29:05Z</time>
      </trkpt>
      <trkpt lat="43.67715" lon="6.7216">
        <ele>537.02282714844</ele>
        <time>2011-03-06T08:29:18Z</time>
      </trkpt>
      <trkpt lat="43.67714" lon="6.72162">
        <ele>537.45404052734</ele>
        <time>2011-03-06T08:29:29Z</time>
      </trkpt>
      <trkpt lat="43.67706" lon="6.72167">
        <ele>536.25207519531</ele>
        <time>2011-03-06T08:29:35Z</time>
      </trkpt>
      <trkpt lat="43.67705" lon="6.72167">
        <ele>536.11474609375</ele>
        <time>2011-03-06T08:29:37Z</time>
      </trkpt>
      <trkpt lat="43.67704" lon="6.72167">
        <ele>535.75769042969</ele>
        <time>2011-03-06T08:29:41Z</time>
      </trkpt>
      <trkpt lat="43.67704" lon="6.72167">
        <ele>535.77600097656</ele>
        <time>2011-03-06T08:29:43Z</time>
      </trkpt>
      <trkpt lat="43.67704" lon="6.72167">
        <ele>535.79431152344</ele>
        <time>2011-03-06T08:29:44Z</time>
      </trkpt>
      <trkpt lat="43.67703" lon="6.72167">
        <ele>535.69360351562</ele>
        <time>2011-03-06T08:29:53Z</time>
      </trkpt>
      <trkpt lat="43.67704" lon="6.72169">
        <ele>536.078125</ele>
        <time>2011-03-06T08:30:02Z</time>
      </trkpt>
      <trkpt lat="43.67699" lon="6.72174">
        <ele>535.82177734375</ele>
        <time>2011-03-06T08:30:05Z</time>
      </trkpt>
      <trkpt lat="43.67699" lon="6.72171">
        <ele>535.31823730469</ele>
        <time>2011-03-06T08:30:12Z</time>
      </trkpt>
      <trkpt lat="43.677" lon="6.72169">
        <ele>535.06188964844</ele>
        <time>2011-03-06T08:30:20Z</time>
      </trkpt>
      <trkpt lat="43.677" lon="6.72168">
        <ele>534.9794921875</ele>
        <time>2011-03-06T08:30:22Z</time>
      </trkpt>
      <trkpt lat="43.677" lon="6.72168">
        <ele>534.95202636719</ele>
        <time>2011-03-06T08:30:23Z</time>
      </trkpt>
      <trkpt lat="43.677" lon="6.72168">
        <ele>534.95202636719</ele>
        <time>2011-03-06T08:30:58Z</time>
      </trkpt>
      <trkpt lat="43.67698" lon="6.72171">
        <ele>534.93371582031</ele>
        <time>2011-03-06T08:31:04Z</time>
      </trkpt>
      <trkpt lat="43.67695" lon="6.72175">
        <ele>534.62243652344</ele>
        <time>2011-03-06T08:31:12Z</time>
      </trkpt>
      <trkpt lat="43.67695" lon="6.72174">
        <ele>534.43017578125</ele>
        <time>2011-03-06T08:31:25Z</time>
      </trkpt>
      <trkpt lat="43.67694" lon="6.72173">
        <ele>534.27453613281</ele>
        <time>2011-03-06T08:31:31Z</time>
      </trkpt>
      <trkpt lat="43.67694" lon="6.72173">
        <ele>534.29284667969</ele>
        <time>2011-03-06T08:31:32Z</time>
      </trkpt>
      <trkpt lat="43.67693" lon="6.7217">
        <ele>533.18505859375</ele>
        <time>2011-03-06T08:32:03Z</time>
      </trkpt>
      <trkpt lat="43.67692" lon="6.72172">
        <ele>533.34069824219</ele>
        <time>2011-03-06T08:32:43Z</time>
      </trkpt>
      <trkpt lat="43.6769" lon="6.72176">
        <ele>533.48718261719</ele>
        <time>2011-03-06T08:32:50Z</time>
      </trkpt>
      <trkpt lat="43.67682" lon="6.72189">
        <ele>533.53295898438</ele>
        <time>2011-03-06T08:32:57Z</time>
      </trkpt>
      <trkpt lat="43.67679" lon="6.72193">
        <ele>533.72521972656</ele>
        <time>2011-03-06T08:33:02Z</time>
      </trkpt>
      <trkpt lat="43.67674" lon="6.72199">
        <ele>533.35900878906</ele>
        <time>2011-03-06T08:33:07Z</time>
      </trkpt>
      <trkpt lat="43.67677" lon="6.72199">
        <ele>534.3203125</ele>
        <time>2011-03-06T08:33:30Z</time>
      </trkpt>
      <trkpt lat="43.67668" lon="6.72211">
        <ele>533.75268554688</ele>
        <time>2011-03-06T08:33:35Z</time>
      </trkpt>
      <trkpt lat="43.67656" lon="6.72222">
        <ele>532.54974365234</ele>
        <time>2011-03-06T08:33:40Z</time>
      </trkpt>
      <trkpt lat="43.67655" lon="6.72222">
        <ele>532.15191650391</ele>
        <time>2011-03-06T08:33:46Z</time>
      </trkpt>
      <trkpt lat="43.67654" lon="6.72225">
        <ele>532.30133056641</ele>
        <time>2011-03-06T08:33:56Z</time>
      </trkpt>
      <trkpt lat="43.67652" lon="6.72232">
        <ele>533.23809814453</ele>
        <time>2011-03-06T08:34:16Z</time>
      </trkpt>
      <trkpt lat="43.67651" lon="6.72233">
        <ele>533.45922851562</ele>
        <time>2011-03-06T08:34:17Z</time>
      </trkpt>
      <trkpt lat="43.67648" lon="6.72253">
        <ele>536.55249023438</ele>
        <time>2011-03-06T08:34:23Z</time>
      </trkpt>
      <trkpt lat="43.67648" lon="6.72256">
        <ele>536.89758300781</ele>
        <time>2011-03-06T08:34:27Z</time>
      </trkpt>
      <trkpt lat="43.67649" lon="6.7226">
        <ele>537.69293212891</ele>
        <time>2011-03-06T08:34:37Z</time>
      </trkpt>
      <trkpt lat="43.67647" lon="6.72272">
        <ele>538.81066894531</ele>
        <time>2011-03-06T08:34:42Z</time>
      </trkpt>
      <trkpt lat="43.67645" lon="6.72283">
        <ele>539.82922363281</ele>
        <time>2011-03-06T08:34:46Z</time>
      </trkpt>
      <trkpt lat="43.67645" lon="6.72287">
        <ele>540.40942382812</ele>
        <time>2011-03-06T08:34:53Z</time>
      </trkpt>
      <trkpt lat="43.67642" lon="6.72298">
        <ele>541.15203857422</ele>
        <time>2011-03-06T08:34:58Z</time>
      </trkpt>
      <trkpt lat="43.6764" lon="6.72317">
        <ele>543.17028808594</ele>
        <time>2011-03-06T08:35:03Z</time>
      </trkpt>
      <trkpt lat="43.67633" lon="6.72337">
        <ele>544.13555908203</ele>
        <time>2011-03-06T08:35:09Z</time>
      </trkpt>
      <trkpt lat="43.67626" lon="6.72352">
        <ele>543.66864013672</ele>
        <time>2011-03-06T08:35:14Z</time>
      </trkpt>
      <trkpt lat="43.67615" lon="6.72369">
        <ele>542.37780761719</ele>
        <time>2011-03-06T08:35:19Z</time>
      </trkpt>
      <trkpt lat="43.67596" lon="6.72373">
        <ele>538.24719238281</ele>
        <time>2011-03-06T08:35:22Z</time>
      </trkpt>
      <trkpt lat="43.67578" lon="6.72373">
        <ele>534.42718505859</ele>
        <time>2011-03-06T08:35:24Z</time>
      </trkpt>
      <trkpt lat="43.67546" lon="6.72387">
        <ele>530.39874267578</ele>
        <time>2011-03-06T08:35:28Z</time>
      </trkpt>
      <trkpt lat="43.67539" lon="6.72393">
        <ele>529.72406005859</ele>
        <time>2011-03-06T08:35:29Z</time>
      </trkpt>
      <trkpt lat="43.67524" lon="6.72408">
        <ele>528.76275634766</ele>
        <time>2011-03-06T08:35:32Z</time>
      </trkpt>
      <trkpt lat="43.67513" lon="6.72414">
        <ele>527.7998046875</ele>
        <time>2011-03-06T08:35:35Z</time>
      </trkpt>
      <trkpt lat="43.67504" lon="6.72416">
        <ele>526.57354736328</ele>
        <time>2011-03-06T08:35:39Z</time>
      </trkpt>
      <trkpt lat="43.67504" lon="6.72417">
        <ele>526.61590576172</ele>
        <time>2011-03-06T08:35:46Z</time>
      </trkpt>
      <trkpt lat="43.67504" lon="6.72417">
        <ele>526.64678955078</ele>
        <time>2011-03-06T08:35:53Z</time>
      </trkpt>
      <trkpt lat="43.67502" lon="6.72413">
        <ele>525.94445800781</ele>
        <time>2011-03-06T08:36:04Z</time>
      </trkpt>
      <trkpt lat="43.67501" lon="6.72412">
        <ele>525.61071777344</ele>
        <time>2011-03-06T08:36:15Z</time>
      </trkpt>
      <trkpt lat="43.67499" lon="6.72411">
        <ele>525.23565673828</ele>
        <time>2011-03-06T08:36:21Z</time>
      </trkpt>
      <trkpt lat="43.67498" lon="6.7241">
        <ele>524.91223144531</ele>
        <time>2011-03-06T08:36:23Z</time>
      </trkpt>
      <trkpt lat="43.67496" lon="6.72411">
        <ele>524.74670410156</ele>
        <time>2011-03-06T08:36:24Z</time>
      </trkpt>
      <trkpt lat="43.67492" lon="6.72411">
        <ele>523.91394042969</ele>
        <time>2011-03-06T08:36:28Z</time>
      </trkpt>
      <trkpt lat="43.6749" lon="6.72411">
        <ele>523.56512451172</ele>
        <time>2011-03-06T08:36:30Z</time>
      </trkpt>
      <trkpt lat="43.67486" lon="6.72411">
        <ele>522.89001464844</ele>
        <time>2011-03-06T08:36:36Z</time>
      </trkpt>
      <trkpt lat="43.67483" lon="6.72409">
        <ele>522.09100341797</ele>
        <time>2011-03-06T08:36:47Z</time>
      </trkpt>
      <trkpt lat="43.67477" lon="6.72406">
        <ele>520.67163085938</ele>
        <time>2011-03-06T08:36:53Z</time>
      </trkpt>
      <trkpt lat="43.67472" lon="6.72404">
        <ele>519.30847167969</ele>
        <time>2011-03-06T08:36:56Z</time>
      </trkpt>
      <trkpt lat="43.6747" lon="6.72403">
        <ele>518.94091796875</ele>
        <time>2011-03-06T08:36:57Z</time>
      </trkpt>
      <trkpt lat="43.67467" lon="6.72403">
        <ele>518.41369628906</ele>
        <time>2011-03-06T08:36:58Z</time>
      </trkpt>
      <trkpt lat="43.6746" lon="6.72399">
        <ele>516.28485107422</ele>
        <time>2011-03-06T08:37:03Z</time>
      </trkpt>
      <trkpt lat="43.67455" lon="6.724">
        <ele>515.3857421875</ele>
        <time>2011-03-06T08:37:22Z</time>
      </trkpt>
      <trkpt lat="43.67451" lon="6.724">
        <ele>514.61297607422</ele>
        <time>2011-03-06T08:37:24Z</time>
      </trkpt>
      <trkpt lat="43.67446" lon="6.72396">
        <ele>512.88684082031</ele>
        <time>2011-03-06T08:37:30Z</time>
      </trkpt>
      <trkpt lat="43.67445" lon="6.72395">
        <ele>512.52648925781</ele>
        <time>2011-03-06T08:37:31Z</time>
      </trkpt>
      <trkpt lat="43.67438" lon="6.72392">
        <ele>510.46188354492</ele>
        <time>2011-03-06T08:37:37Z</time>
      </trkpt>
      <trkpt lat="43.67433" lon="6.7239">
        <ele>509.00433349609</ele>
        <time>2011-03-06T08:37:42Z</time>
      </trkpt>
      <trkpt lat="43.67432" lon="6.72386">
        <ele>508.0846862793</ele>
        <time>2011-03-06T08:37:47Z</time>
      </trkpt>
      <trkpt lat="43.67433" lon="6.72374">
        <ele>505.53894042969</ele>
        <time>2011-03-06T08:37:53Z</time>
      </trkpt>
      <trkpt lat="43.67444" lon="6.72347">
        <ele>502.93746948242</ele>
        <time>2011-03-06T08:37:58Z</time>
      </trkpt>
      <trkpt lat="43.67455" lon="6.72327">
        <ele>500.92044067383</ele>
        <time>2011-03-06T08:38:02Z</time>
      </trkpt>
      <trkpt lat="43.67462" lon="6.72312">
        <ele>497.49713134766</ele>
        <time>2011-03-06T08:38:06Z</time>
      </trkpt>
      <trkpt lat="43.67475" lon="6.7229">
        <ele>494.11447143555</ele>
        <time>2011-03-06T08:38:12Z</time>
      </trkpt>
      <trkpt lat="43.67478" lon="6.72267">
        <ele>487.62231445312</ele>
        <time>2011-03-06T08:38:17Z</time>
      </trkpt>
      <trkpt lat="43.67479" lon="6.72263">
        <ele>486.76123046875</ele>
        <time>2011-03-06T08:38:18Z</time>
      </trkpt>
      <trkpt lat="43.67475" lon="6.72249">
        <ele>480.20306396484</ele>
        <time>2011-03-06T08:38:22Z</time>
      </trkpt>
      <trkpt lat="43.67476" lon="6.72217">
        <ele>471.10006713867</ele>
        <time>2011-03-06T08:38:28Z</time>
      </trkpt>
      <trkpt lat="43.67481" lon="6.7219">
        <ele>465.07586669922</ele>
        <time>2011-03-06T08:38:32Z</time>
      </trkpt>
      <trkpt lat="43.67487" lon="6.72166">
        <ele>459.32833862305</ele>
        <time>2011-03-06T08:38:37Z</time>
      </trkpt>
      <trkpt lat="43.67491" lon="6.72137">
        <ele>458.10858154297</ele>
        <time>2011-03-06T08:38:41Z</time>
      </trkpt>
      <trkpt lat="43.67504" lon="6.72103">
        <ele>456.9638671875</ele>
        <time>2011-03-06T08:38:47Z</time>
      </trkpt>
      <trkpt lat="43.67505" lon="6.72098">
        <ele>456.82620239258</ele>
        <time>2011-03-06T08:38:48Z</time>
      </trkpt>
      <trkpt lat="43.67508" lon="6.72091">
        <ele>456.49249267578</ele>
        <time>2011-03-06T08:38:50Z</time>
      </trkpt>
      <trkpt lat="43.6751" lon="6.72087">
        <ele>456.43295288086</ele>
        <time>2011-03-06T08:38:55Z</time>
      </trkpt>
      <trkpt lat="43.67516" lon="6.72078">
        <ele>457.44488525391</ele>
        <time>2011-03-06T08:38:59Z</time>
      </trkpt>
      <trkpt lat="43.67523" lon="6.72058">
        <ele>459.39678955078</ele>
        <time>2011-03-06T08:39:04Z</time>
      </trkpt>
      <trkpt lat="43.67529" lon="6.72043">
        <ele>460.52972412109</ele>
        <time>2011-03-06T08:39:08Z</time>
      </trkpt>
      <trkpt lat="43.67535" lon="6.72024">
        <ele>461.33258056641</ele>
        <time>2011-03-06T08:39:13Z</time>
      </trkpt>
      <trkpt lat="43.67536" lon="6.72022">
        <ele>461.38479614258</ele>
        <time>2011-03-06T08:39:17Z</time>
      </trkpt>
      <trkpt lat="43.67537" lon="6.72012">
        <ele>461.49450683594</ele>
        <time>2011-03-06T08:39:23Z</time>
      </trkpt>
      <trkpt lat="43.6754" lon="6.71992">
        <ele>462.1760559082</ele>
        <time>2011-03-06T08:39:27Z</time>
      </trkpt>
      <trkpt lat="43.67547" lon="6.71964">
        <ele>463.78842163086</ele>
        <time>2011-03-06T08:39:32Z</time>
      </trkpt>
      <trkpt lat="43.67552" lon="6.71944">
        <ele>464.47747802734</ele>
        <time>2011-03-06T08:39:38Z</time>
      </trkpt>
      <trkpt lat="43.67556" lon="6.71938">
        <ele>464.30520629883</ele>
        <time>2011-03-06T08:39:40Z</time>
      </trkpt>
      <trkpt lat="43.67558" lon="6.71935">
        <ele>464.15997314453</ele>
        <time>2011-03-06T08:39:41Z</time>
      </trkpt>
      <trkpt lat="43.67559" lon="6.71932">
        <ele>464.12097167969</ele>
        <time>2011-03-06T08:39:44Z</time>
      </trkpt>
      <trkpt lat="43.6756" lon="6.71927">
        <ele>464.11935424805</ele>
        <time>2011-03-06T08:40:14Z</time>
      </trkpt>
      <trkpt lat="43.67565" lon="6.71926">
        <ele>463.24688720703</ele>
        <time>2011-03-06T08:40:18Z</time>
      </trkpt>
      <trkpt lat="43.67568" lon="6.71925">
        <ele>462.80001831055</ele>
        <time>2011-03-06T08:40:22Z</time>
      </trkpt>
      <trkpt lat="43.67568" lon="6.71925">
        <ele>462.79180908203</ele>
        <time>2011-03-06T08:40:24Z</time>
      </trkpt>
      <trkpt lat="43.67568" lon="6.71926">
        <ele>462.78668212891</ele>
        <time>2011-03-06T08:40:25Z</time>
      </trkpt>
      <trkpt lat="43.6757" lon="6.71926">
        <ele>462.45620727539</ele>
        <time>2011-03-06T08:40:32Z</time>
      </trkpt>
      <trkpt lat="43.67571" lon="6.71925">
        <ele>462.20407104492</ele>
        <time>2011-03-06T08:40:33Z</time>
      </trkpt>
      <trkpt lat="43.67582" lon="6.7192">
        <ele>460.29425048828</ele>
        <time>2011-03-06T08:40:39Z</time>
      </trkpt>
      <trkpt lat="43.67587" lon="6.71916">
        <ele>460.08779907227</ele>
        <time>2011-03-06T08:40:43Z</time>
      </trkpt>
      <trkpt lat="43.67587" lon="6.71915">
        <ele>460.14135742188</ele>
        <time>2011-03-06T08:40:44Z</time>
      </trkpt>
      <trkpt lat="43.67591" lon="6.71912">
        <ele>460.43862915039</ele>
        <time>2011-03-06T08:40:49Z</time>
      </trkpt>
      <trkpt lat="43.67596" lon="6.71909">
        <ele>460.70315551758</ele>
        <time>2011-03-06T08:40:52Z</time>
      </trkpt>
      <trkpt lat="43.67601" lon="6.71903">
        <ele>461.07028198242</ele>
        <time>2011-03-06T08:40:57Z</time>
      </trkpt>
      <trkpt lat="43.67596" lon="6.71903">
        <ele>461.0725402832</ele>
        <time>2011-03-06T08:41:01Z</time>
      </trkpt>
      <trkpt lat="43.67594" lon="6.71904">
        <ele>461.03411865234</ele>
        <time>2011-03-06T08:41:02Z</time>
      </trkpt>
      <trkpt lat="43.67569" lon="6.71901">
        <ele>464.47598266602</ele>
        <time>2011-03-06T08:41:07Z</time>
      </trkpt>
      <trkpt lat="43.67563" lon="6.719">
        <ele>465.82244873047</ele>
        <time>2011-03-06T08:41:08Z</time>
      </trkpt>
      <trkpt lat="43.67567" lon="6.71891">
        <ele>465.93548583984</ele>
        <time>2011-03-06T08:41:11Z</time>
      </trkpt>
      <trkpt lat="43.67583" lon="6.71892">
        <ele>462.09588623047</ele>
        <time>2011-03-06T08:41:14Z</time>
      </trkpt>
      <trkpt lat="43.67623" lon="6.71871">
        <ele>462.24633789062</ele>
        <time>2011-03-06T08:41:20Z</time>
      </trkpt>
      <trkpt lat="43.67648" lon="6.71846">
        <ele>461.42172241211</ele>
        <time>2011-03-06T08:41:24Z</time>
      </trkpt>
      <trkpt lat="43.67684" lon="6.71828">
        <ele>460.78244018555</ele>
        <time>2011-03-06T08:41:29Z</time>
      </trkpt>
      <trkpt lat="43.67702" lon="6.7181">
        <ele>462.48126220703</ele>
        <time>2011-03-06T08:41:33Z</time>
      </trkpt>
      <trkpt lat="43.67703" lon="6.71808">
        <ele>462.54931640625</ele>
        <time>2011-03-06T08:41:36Z</time>
      </trkpt>
      <trkpt lat="43.67703" lon="6.71807">
        <ele>462.65823364258</ele>
        <time>2011-03-06T08:42:02Z</time>
      </trkpt>
      <trkpt lat="43.67685" lon="6.71789">
        <ele>465.05157470703</ele>
        <time>2011-03-06T08:42:08Z</time>
      </trkpt>
      <trkpt lat="43.67669" lon="6.71792">
        <ele>465.39920043945</ele>
        <time>2011-03-06T08:42:12Z</time>
      </trkpt>
      <trkpt lat="43.67647" lon="6.71801">
        <ele>466.67840576172</ele>
        <time>2011-03-06T08:42:18Z</time>
      </trkpt>
      <trkpt lat="43.67622" lon="6.71808">
        <ele>468.63415527344</ele>
        <time>2011-03-06T08:42:25Z</time>
      </trkpt>
      <trkpt lat="43.67596" lon="6.71815">
        <ele>470.09133911133</ele>
        <time>2011-03-06T08:42:31Z</time>
      </trkpt>
      <trkpt lat="43.67577" lon="6.71813">
        <ele>473.8515625</ele>
        <time>2011-03-06T08:42:36Z</time>
      </trkpt>
      <trkpt lat="43.67569" lon="6.71808">
        <ele>477.00897216797</ele>
        <time>2011-03-06T08:42:38Z</time>
      </trkpt>
      <trkpt lat="43.67566" lon="6.71805">
        <ele>478.74676513672</ele>
        <time>2011-03-06T08:42:39Z</time>
      </trkpt>
      <trkpt lat="43.67562" lon="6.71802">
        <ele>480.47406005859</ele>
        <time>2011-03-06T08:42:40Z</time>
      </trkpt>
      <trkpt lat="43.67544" lon="6.718">
        <ele>486.01895141602</ele>
        <time>2011-03-06T08:42:45Z</time>
      </trkpt>
      <trkpt lat="43.67531" lon="6.71812">
        <ele>487.43472290039</ele>
        <time>2011-03-06T08:42:50Z</time>
      </trkpt>
      <trkpt lat="43.67517" lon="6.71825">
        <ele>489.18109130859</ele>
        <time>2011-03-06T08:42:56Z</time>
      </trkpt>
      <trkpt lat="43.67506" lon="6.71841">
        <ele>489.73657226562</ele>
        <time>2011-03-06T08:43:01Z</time>
      </trkpt>
      <trkpt lat="43.67489" lon="6.71868">
        <ele>488.99633789062</ele>
        <time>2011-03-06T08:43:09Z</time>
      </trkpt>
      <trkpt lat="43.67476" lon="6.71887">
        <ele>489.3212890625</ele>
        <time>2011-03-06T08:43:15Z</time>
      </trkpt>
      <trkpt lat="43.67467" lon="6.71908">
        <ele>488.13439941406</ele>
        <time>2011-03-06T08:43:21Z</time>
      </trkpt>
      <trkpt lat="43.67458" lon="6.7193">
        <ele>487.14199829102</ele>
        <time>2011-03-06T08:43:27Z</time>
      </trkpt>
      <trkpt lat="43.67446" lon="6.71953">
        <ele>486.65444946289</ele>
        <time>2011-03-06T08:43:34Z</time>
      </trkpt>
      <trkpt lat="43.67435" lon="6.71966">
        <ele>487.49301147461</ele>
        <time>2011-03-06T08:43:40Z</time>
      </trkpt>
      <trkpt lat="43.67427" lon="6.71979">
        <ele>487.25299072266</ele>
        <time>2011-03-06T08:43:45Z</time>
      </trkpt>
      <trkpt lat="43.67413" lon="6.71996">
        <ele>487.85345458984</ele>
        <time>2011-03-06T08:43:52Z</time>
      </trkpt>
      <trkpt lat="43.67394" lon="6.72013">
        <ele>486.49884033203</ele>
        <time>2011-03-06T08:44:00Z</time>
      </trkpt>
      <trkpt lat="43.67377" lon="6.7203">
        <ele>485.52206420898</ele>
        <time>2011-03-06T08:44:07Z</time>
      </trkpt>
      <trkpt lat="43.67361" lon="6.72033">
        <ele>489.32138061523</ele>
        <time>2011-03-06T08:44:13Z</time>
      </trkpt>
      <trkpt lat="43.6734" lon="6.72038">
        <ele>494.2890625</ele>
        <time>2011-03-06T08:44:21Z</time>
      </trkpt>
      <trkpt lat="43.67324" lon="6.7205">
        <ele>495.10171508789</ele>
        <time>2011-03-06T08:44:27Z</time>
      </trkpt>
      <trkpt lat="43.67302" lon="6.72065">
        <ele>495.81454467773</ele>
        <time>2011-03-06T08:44:34Z</time>
      </trkpt>
      <trkpt lat="43.67279" lon="6.72063">
        <ele>500.32852172852</ele>
        <time>2011-03-06T08:44:41Z</time>
      </trkpt>
      <trkpt lat="43.67253" lon="6.72056">
        <ele>506.31634521484</ele>
        <time>2011-03-06T08:44:49Z</time>
      </trkpt>
      <trkpt lat="43.67225" lon="6.72043">
        <ele>510.04937744141</ele>
        <time>2011-03-06T08:44:58Z</time>
      </trkpt>
      <trkpt lat="43.672" lon="6.72033">
        <ele>512.59228515625</ele>
        <time>2011-03-06T08:45:06Z</time>
      </trkpt>
      <trkpt lat="43.67181" lon="6.72035">
        <ele>513.21936035156</ele>
        <time>2011-03-06T08:45:12Z</time>
      </trkpt>
      <trkpt lat="43.67159" lon="6.72048">
        <ele>512.36590576172</ele>
        <time>2011-03-06T08:45:19Z</time>
      </trkpt>
      <trkpt lat="43.67139" lon="6.72056">
        <ele>511.72387695312</ele>
        <time>2011-03-06T08:45:26Z</time>
      </trkpt>
      <trkpt lat="43.67118" lon="6.72061">
        <ele>511.57559204102</ele>
        <time>2011-03-06T08:45:34Z</time>
      </trkpt>
      <trkpt lat="43.67101" lon="6.72063">
        <ele>511.70352172852</ele>
        <time>2011-03-06T08:45:41Z</time>
      </trkpt>
      <trkpt lat="43.67083" lon="6.72058">
        <ele>512.99481201172</ele>
        <time>2011-03-06T08:45:48Z</time>
      </trkpt>
      <trkpt lat="43.67075" lon="6.72053">
        <ele>514.06500244141</ele>
        <time>2011-03-06T08:45:51Z</time>
      </trkpt>
      <trkpt lat="43.67072" lon="6.72052">
        <ele>514.39758300781</ele>
        <time>2011-03-06T08:45:52Z</time>
      </trkpt>
      <trkpt lat="43.67057" lon="6.72039">
        <ele>516.77239990234</ele>
        <time>2011-03-06T08:45:59Z</time>
      </trkpt>
      <trkpt lat="43.67043" lon="6.72027">
        <ele>518.71990966797</ele>
        <time>2011-03-06T08:46:05Z</time>
      </trkpt>
      <trkpt lat="43.67027" lon="6.72007">
        <ele>521.28118896484</ele>
        <time>2011-03-06T08:46:12Z</time>
      </trkpt>
      <trkpt lat="43.67012" lon="6.71984">
        <ele>523.86181640625</ele>
        <time>2011-03-06T08:46:20Z</time>
      </trkpt>
      <trkpt lat="43.67" lon="6.71957">
        <ele>526.62017822266</ele>
        <time>2011-03-06T08:46:28Z</time>
      </trkpt>
      <trkpt lat="43.66993" lon="6.71934">
        <ele>529.58544921875</ele>
        <time>2011-03-06T08:46:34Z</time>
      </trkpt>
      <trkpt lat="43.6699" lon="6.71923">
        <ele>530.88439941406</ele>
        <time>2011-03-06T08:46:37Z</time>
      </trkpt>
      <trkpt lat="43.66989" lon="6.7192">
        <ele>531.25775146484</ele>
        <time>2011-03-06T08:46:38Z</time>
      </trkpt>
      <trkpt lat="43.66988" lon="6.71916">
        <ele>531.634765625</ele>
        <time>2011-03-06T08:46:39Z</time>
      </trkpt>
      <trkpt lat="43.6698" lon="6.71895">
        <ele>534.12152099609</ele>
        <time>2011-03-06T08:46:46Z</time>
      </trkpt>
      <trkpt lat="43.66974" lon="6.71882">
        <ele>535.51312255859</ele>
        <time>2011-03-06T08:46:51Z</time>
      </trkpt>
      <trkpt lat="43.66964" lon="6.71861">
        <ele>537.38433837891</ele>
        <time>2011-03-06T08:46:57Z</time>
      </trkpt>
      <trkpt lat="43.66952" lon="6.71843">
        <ele>538.59313964844</ele>
        <time>2011-03-06T08:47:01Z</time>
      </trkpt>
      <trkpt lat="43.6694" lon="6.71826">
        <ele>539.62115478516</ele>
        <time>2011-03-06T08:47:05Z</time>
      </trkpt>
      <trkpt lat="43.6693" lon="6.71806">
        <ele>541.23413085938</ele>
        <time>2011-03-06T08:47:10Z</time>
      </trkpt>
      <trkpt lat="43.66901" lon="6.71775">
        <ele>542.44140625</ele>
        <time>2011-03-06T08:47:19Z</time>
      </trkpt>
      <trkpt lat="43.66898" lon="6.71772">
        <ele>542.55029296875</ele>
        <time>2011-03-06T08:47:20Z</time>
      </trkpt>
      <trkpt lat="43.66875" lon="6.71749">
        <ele>543.11340332031</ele>
        <time>2011-03-06T08:47:26Z</time>
      </trkpt>
      <trkpt lat="43.66864" lon="6.71737">
        <ele>543.53393554688</ele>
        <time>2011-03-06T08:47:29Z</time>
      </trkpt>
      <trkpt lat="43.66845" lon="6.71726">
        <ele>543.18542480469</ele>
        <time>2011-03-06T08:47:34Z</time>
      </trkpt>
      <trkpt lat="43.66841" lon="6.71724">
        <ele>543.06207275391</ele>
        <time>2011-03-06T08:47:35Z</time>
      </trkpt>
      <trkpt lat="43.66811" lon="6.71714">
        <ele>544.26025390625</ele>
        <time>2011-03-06T08:47:43Z</time>
      </trkpt>
      <trkpt lat="43.66793" lon="6.71706">
        <ele>545.52484130859</ele>
        <time>2011-03-06T08:47:48Z</time>
      </trkpt>
      <trkpt lat="43.6679" lon="6.71705">
        <ele>545.76916503906</ele>
        <time>2011-03-06T08:47:49Z</time>
      </trkpt>
      <trkpt lat="43.66757" lon="6.71693">
        <ele>547.76409912109</ele>
        <time>2011-03-06T08:47:58Z</time>
      </trkpt>
      <trkpt lat="43.66731" lon="6.71682">
        <ele>550.33032226562</ele>
        <time>2011-03-06T08:48:05Z</time>
      </trkpt>
      <trkpt lat="43.66703" lon="6.71668">
        <ele>553.51123046875</ele>
        <time>2011-03-06T08:48:13Z</time>
      </trkpt>
      <trkpt lat="43.66699" lon="6.71667">
        <ele>553.87799072266</ele>
        <time>2011-03-06T08:48:14Z</time>
      </trkpt>
      <trkpt lat="43.66683" lon="6.71657">
        <ele>555.60290527344</ele>
        <time>2011-03-06T08:48:19Z</time>
      </trkpt>
      <trkpt lat="43.66679" lon="6.71656">
        <ele>555.95397949219</ele>
        <time>2011-03-06T08:48:20Z</time>
      </trkpt>
      <trkpt lat="43.66664" lon="6.71647">
        <ele>557.12756347656</ele>
        <time>2011-03-06T08:48:26Z</time>
      </trkpt>
      <trkpt lat="43.6665" lon="6.71643">
        <ele>556.68756103516</ele>
        <time>2011-03-06T08:48:32Z</time>
      </trkpt>
      <trkpt lat="43.66646" lon="6.71641">
        <ele>556.55419921875</ele>
        <time>2011-03-06T08:48:34Z</time>
      </trkpt>
      <trkpt lat="43.66643" lon="6.7165">
        <ele>556.33508300781</ele>
        <time>2011-03-06T08:48:38Z</time>
      </trkpt>
      <trkpt lat="43.66643" lon="6.7167">
        <ele>556.09881591797</ele>
        <time>2011-03-06T08:48:42Z</time>
      </trkpt>
      <trkpt lat="43.66645" lon="6.71675">
        <ele>556.07568359375</ele>
        <time>2011-03-06T08:48:43Z</time>
      </trkpt>
      <trkpt lat="43.66655" lon="6.71709">
        <ele>555.99481201172</ele>
        <time>2011-03-06T08:48:48Z</time>
      </trkpt>
      <trkpt lat="43.66658" lon="6.71715">
        <ele>556.06463623047</ele>
        <time>2011-03-06T08:48:49Z</time>
      </trkpt>
      <trkpt lat="43.66676" lon="6.71734">
        <ele>555.16632080078</ele>
        <time>2011-03-06T08:48:54Z</time>
      </trkpt>
      <trkpt lat="43.66678" lon="6.71738">
        <ele>554.79315185547</ele>
        <time>2011-03-06T08:48:55Z</time>
      </trkpt>
      <trkpt lat="43.66692" lon="6.7175">
        <ele>552.96954345703</ele>
        <time>2011-03-06T08:48:59Z</time>
      </trkpt>
      <trkpt lat="43.66709" lon="6.71761">
        <ele>550.70190429688</ele>
        <time>2011-03-06T08:49:04Z</time>
      </trkpt>
      <trkpt lat="43.66718" lon="6.71763">
        <ele>549.59710693359</ele>
        <time>2011-03-06T08:49:06Z</time>
      </trkpt>
      <trkpt lat="43.66726" lon="6.71769">
        <ele>548.45837402344</ele>
        <time>2011-03-06T08:49:08Z</time>
      </trkpt>
      <trkpt lat="43.66745" lon="6.71774">
        <ele>546.00244140625</ele>
        <time>2011-03-06T08:49:12Z</time>
      </trkpt>
      <trkpt lat="43.66761" lon="6.7178">
        <ele>544.60607910156</ele>
        <time>2011-03-06T08:49:16Z</time>
      </trkpt>
      <trkpt lat="43.66786" lon="6.7178">
        <ele>543.12750244141</ele>
        <time>2011-03-06T08:49:20Z</time>
      </trkpt>
      <trkpt lat="43.66802" lon="6.71781">
        <ele>542.11926269531</ele>
        <time>2011-03-06T08:49:23Z</time>
      </trkpt>
      <trkpt lat="43.66832" lon="6.71796">
        <ele>539.99755859375</ele>
        <time>2011-03-06T08:49:28Z</time>
      </trkpt>
      <trkpt lat="43.6686" lon="6.71813">
        <ele>539.55017089844</ele>
        <time>2011-03-06T08:49:33Z</time>
      </trkpt>
      <trkpt lat="43.66871" lon="6.7182">
        <ele>539.22637939453</ele>
        <time>2011-03-06T08:49:35Z</time>
      </trkpt>
      <trkpt lat="43.66883" lon="6.71831">
        <ele>538.53643798828</ele>
        <time>2011-03-06T08:49:38Z</time>
      </trkpt>
      <trkpt lat="43.66893" lon="6.71841">
        <ele>538.11987304688</ele>
        <time>2011-03-06T08:49:41Z</time>
      </trkpt>
      <trkpt lat="43.66909" lon="6.71867">
        <ele>537.02667236328</ele>
        <time>2011-03-06T08:49:47Z</time>
      </trkpt>
      <trkpt lat="43.6691" lon="6.71872">
        <ele>536.83227539062</ele>
        <time>2011-03-06T08:49:48Z</time>
      </trkpt>
      <trkpt lat="43.66911" lon="6.71876">
        <ele>536.66735839844</ele>
        <time>2011-03-06T08:49:49Z</time>
      </trkpt>
      <trkpt lat="43.66916" lon="6.71912">
        <ele>535.20056152344</ele>
        <time>2011-03-06T08:49:56Z</time>
      </trkpt>
      <trkpt lat="43.66921" lon="6.71935">
        <ele>534.26904296875</ele>
        <time>2011-03-06T08:50:01Z</time>
      </trkpt>
      <trkpt lat="43.66923" lon="6.7194">
        <ele>534.00012207031</ele>
        <time>2011-03-06T08:50:02Z</time>
      </trkpt>
      <trkpt lat="43.66924" lon="6.71946">
        <ele>533.76416015625</ele>
        <time>2011-03-06T08:50:03Z</time>
      </trkpt>
      <trkpt lat="43.66925" lon="6.71972">
        <ele>532.76135253906</ele>
        <time>2011-03-06T08:50:07Z</time>
      </trkpt>
      <trkpt lat="43.66925" lon="6.72002">
        <ele>531.82543945312</ele>
        <time>2011-03-06T08:50:12Z</time>
      </trkpt>
      <trkpt lat="43.66924" lon="6.72041">
        <ele>530.83758544922</ele>
        <time>2011-03-06T08:50:20Z</time>
      </trkpt>
      <trkpt lat="43.66924" lon="6.72056">
        <ele>530.48675537109</ele>
        <time>2011-03-06T08:50:24Z</time>
      </trkpt>
      <trkpt lat="43.66925" lon="6.72077">
        <ele>529.59411621094</ele>
        <time>2011-03-06T08:50:29Z</time>
      </trkpt>
      <trkpt lat="43.66925" lon="6.72095">
        <ele>528.71997070312</ele>
        <time>2011-03-06T08:50:34Z</time>
      </trkpt>
      <trkpt lat="43.66926" lon="6.72109">
        <ele>527.84655761719</ele>
        <time>2011-03-06T08:50:40Z</time>
      </trkpt>
      <trkpt lat="43.66925" lon="6.72129">
        <ele>527.12817382812</ele>
        <time>2011-03-06T08:50:47Z</time>
      </trkpt>
      <trkpt lat="43.66924" lon="6.72132">
        <ele>527.13848876953</ele>
        <time>2011-03-06T08:50:48Z</time>
      </trkpt>
      <trkpt lat="43.66915" lon="6.7215">
        <ele>528.08459472656</ele>
        <time>2011-03-06T08:50:56Z</time>
      </trkpt>
      <trkpt lat="43.66906" lon="6.72163">
        <ele>529.43334960938</ele>
        <time>2011-03-06T08:51:00Z</time>
      </trkpt>
      <trkpt lat="43.669" lon="6.72171">
        <ele>529.90856933594</ele>
        <time>2011-03-06T08:51:04Z</time>
      </trkpt>
      <trkpt lat="43.66891" lon="6.72186">
        <ele>530.24395751953</ele>
        <time>2011-03-06T08:51:09Z</time>
      </trkpt>
      <trkpt lat="43.66877" lon="6.72203">
        <ele>531.32678222656</ele>
        <time>2011-03-06T08:51:14Z</time>
      </trkpt>
      <trkpt lat="43.66867" lon="6.72223">
        <ele>531.56164550781</ele>
        <time>2011-03-06T08:51:19Z</time>
      </trkpt>
      <trkpt lat="43.66861" lon="6.72233">
        <ele>531.73095703125</ele>
        <time>2011-03-06T08:51:25Z</time>
      </trkpt>
      <trkpt lat="43.66853" lon="6.7225">
        <ele>531.63452148438</ele>
        <time>2011-03-06T08:51:30Z</time>
      </trkpt>
      <trkpt lat="43.66843" lon="6.72272">
        <ele>529.91296386719</ele>
        <time>2011-03-06T08:51:35Z</time>
      </trkpt>
      <trkpt lat="43.66833" lon="6.72293">
        <ele>528.22967529297</ele>
        <time>2011-03-06T08:51:40Z</time>
      </trkpt>
      <trkpt lat="43.66828" lon="6.72315">
        <ele>525.31878662109</ele>
        <time>2011-03-06T08:51:44Z</time>
      </trkpt>
      <trkpt lat="43.66826" lon="6.7233">
        <ele>523.20446777344</ele>
        <time>2011-03-06T08:51:47Z</time>
      </trkpt>
      <trkpt lat="43.66826" lon="6.72342">
        <ele>521.01049804688</ele>
        <time>2011-03-06T08:51:52Z</time>
      </trkpt>
      <trkpt lat="43.66826" lon="6.72371">
        <ele>515.63555908203</ele>
        <time>2011-03-06T08:51:58Z</time>
      </trkpt>
      <trkpt lat="43.66823" lon="6.72396">
        <ele>511.65441894531</ele>
        <time>2011-03-06T08:52:03Z</time>
      </trkpt>
      <trkpt lat="43.6683" lon="6.72415">
        <ele>506.17913818359</ele>
        <time>2011-03-06T08:52:07Z</time>
      </trkpt>
      <trkpt lat="43.6684" lon="6.72442">
        <ele>496.38311767578</ele>
        <time>2011-03-06T08:52:13Z</time>
      </trkpt>
      <trkpt lat="43.66848" lon="6.72469">
        <ele>485.60723876953</ele>
        <time>2011-03-06T08:52:18Z</time>
      </trkpt>
      <trkpt lat="43.66849" lon="6.72475">
        <ele>483.18792724609</ele>
        <time>2011-03-06T08:52:19Z</time>
      </trkpt>
      <trkpt lat="43.66849" lon="6.72509">
        <ele>473.13955688477</ele>
        <time>2011-03-06T08:52:24Z</time>
      </trkpt>
      <trkpt lat="43.66846" lon="6.72542">
        <ele>466.5231628418</ele>
        <time>2011-03-06T08:52:29Z</time>
      </trkpt>
      <trkpt lat="43.66845" lon="6.72548">
        <ele>465.80847167969</ele>
        <time>2011-03-06T08:52:30Z</time>
      </trkpt>
      <trkpt lat="43.66838" lon="6.72574">
        <ele>463.06149291992</ele>
        <time>2011-03-06T08:52:34Z</time>
      </trkpt>
      <trkpt lat="43.66827" lon="6.72617">
        <ele>461.35916137695</ele>
        <time>2011-03-06T08:52:40Z</time>
      </trkpt>
      <trkpt lat="43.66824" lon="6.72627">
        <ele>461.71817016602</ele>
        <time>2011-03-06T08:52:44Z</time>
      </trkpt>
      <trkpt lat="43.66824" lon="6.72632">
        <ele>461.20098876953</ele>
        <time>2011-03-06T08:52:52Z</time>
      </trkpt>
      <trkpt lat="43.66822" lon="6.72636">
        <ele>461.77172851562</ele>
        <time>2011-03-06T08:52:59Z</time>
      </trkpt>
      <trkpt lat="43.66819" lon="6.72637">
        <ele>463.42514038086</ele>
        <time>2011-03-06T08:53:09Z</time>
      </trkpt>
      <trkpt lat="43.66817" lon="6.72638">
        <ele>464.78317260742</ele>
        <time>2011-03-06T08:53:17Z</time>
      </trkpt>
      <trkpt lat="43.66817" lon="6.72643">
        <ele>463.57049560547</ele>
        <time>2011-03-06T08:53:36Z</time>
      </trkpt>
      <trkpt lat="43.66816" lon="6.72639">
        <ele>465.41256713867</ele>
        <time>2011-03-06T08:53:52Z</time>
      </trkpt>
      <trkpt lat="43.66814" lon="6.7264">
        <ele>466.3034362793</ele>
        <time>2011-03-06T08:53:54Z</time>
      </trkpt>
      <trkpt lat="43.66813" lon="6.72641">
        <ele>466.61126708984</ele>
        <time>2011-03-06T08:53:56Z</time>
      </trkpt>
      <trkpt lat="43.66813" lon="6.72642">
        <ele>466.44198608398</ele>
        <time>2011-03-06T08:54:04Z</time>
      </trkpt>
      <trkpt lat="43.66814" lon="6.72646">
        <ele>465.6789855957</ele>
        <time>2011-03-06T08:54:08Z</time>
      </trkpt>
      <trkpt lat="43.66813" lon="6.72648">
        <ele>465.92611694336</ele>
        <time>2011-03-06T08:54:09Z</time>
      </trkpt>
      <trkpt lat="43.66815" lon="6.72649">
        <ele>464.44668579102</ele>
        <time>2011-03-06T08:54:13Z</time>
      </trkpt>
      <trkpt lat="43.66819" lon="6.72651">
        <ele>461.51702880859</ele>
        <time>2011-03-06T08:54:47Z</time>
      </trkpt>
      <trkpt lat="43.66816" lon="6.72653">
        <ele>462.84201049805</ele>
        <time>2011-03-06T08:55:07Z</time>
      </trkpt>
      <trkpt lat="43.66816" lon="6.72661">
        <ele>461.8798828125</ele>
        <time>2011-03-06T08:55:19Z</time>
      </trkpt>
      <trkpt lat="43.66815" lon="6.72666">
        <ele>461.97500610352</ele>
        <time>2011-03-06T08:55:26Z</time>
      </trkpt>
      <trkpt lat="43.66811" lon="6.72674">
        <ele>463.40628051758</ele>
        <time>2011-03-06T08:55:38Z</time>
      </trkpt>
      <trkpt lat="43.6681" lon="6.72678">
        <ele>463.67150878906</ele>
        <time>2011-03-06T08:55:45Z</time>
      </trkpt>
      <trkpt lat="43.66809" lon="6.72682">
        <ele>464.26284790039</ele>
        <time>2011-03-06T08:55:51Z</time>
      </trkpt>
      <trkpt lat="43.66808" lon="6.72682">
        <ele>464.75738525391</ele>
        <time>2011-03-06T08:55:57Z</time>
      </trkpt>
      <trkpt lat="43.66806" lon="6.72693">
        <ele>464.57925415039</ele>
        <time>2011-03-06T08:56:13Z</time>
      </trkpt>
      <trkpt lat="43.66806" lon="6.72697">
        <ele>464.36535644531</ele>
        <time>2011-03-06T08:56:14Z</time>
      </trkpt>
      <trkpt lat="43.66797" lon="6.72711">
        <ele>469.39926147461</ele>
        <time>2011-03-06T08:56:20Z</time>
      </trkpt>
      <trkpt lat="43.66796" lon="6.72714">
        <ele>469.85131835938</ele>
        <time>2011-03-06T08:56:24Z</time>
      </trkpt>
      <trkpt lat="43.66796" lon="6.72717">
        <ele>469.58013916016</ele>
        <time>2011-03-06T08:56:29Z</time>
      </trkpt>
      <trkpt lat="43.668" lon="6.7272">
        <ele>466.0715637207</ele>
        <time>2011-03-06T08:56:35Z</time>
      </trkpt>
      <trkpt lat="43.668" lon="6.72722">
        <ele>465.91235351562</ele>
        <time>2011-03-06T08:56:36Z</time>
      </trkpt>
      <trkpt lat="43.668" lon="6.72723">
        <ele>465.52407836914</ele>
        <time>2011-03-06T08:56:37Z</time>
      </trkpt>
      <trkpt lat="43.66801" lon="6.72724">
        <ele>465.10211181641</ele>
        <time>2011-03-06T08:56:38Z</time>
      </trkpt>
      <trkpt lat="43.66801" lon="6.72725">
        <ele>464.99166870117</ele>
        <time>2011-03-06T08:56:39Z</time>
      </trkpt>
      <trkpt lat="43.66801" lon="6.72725">
        <ele>464.64611816406</ele>
        <time>2011-03-06T08:56:40Z</time>
      </trkpt>
      <trkpt lat="43.66801" lon="6.72726">
        <ele>464.30020141602</ele>
        <time>2011-03-06T08:56:42Z</time>
      </trkpt>
      <trkpt lat="43.66802" lon="6.72726">
        <ele>463.96508789062</ele>
        <time>2011-03-06T08:56:44Z</time>
      </trkpt>
      <trkpt lat="43.66803" lon="6.72726">
        <ele>463.09280395508</ele>
        <time>2011-03-06T08:56:47Z</time>
      </trkpt>
      <trkpt lat="43.66803" lon="6.72727">
        <ele>463.07595825195</ele>
        <time>2011-03-06T08:56:49Z</time>
      </trkpt>
      <trkpt lat="43.66803" lon="6.72727">
        <ele>463.04788208008</ele>
        <time>2011-03-06T08:56:50Z</time>
      </trkpt>
      <trkpt lat="43.66802" lon="6.72728">
        <ele>463.42864990234</ele>
        <time>2011-03-06T08:57:03Z</time>
      </trkpt>
      <trkpt lat="43.66799" lon="6.72729">
        <ele>465.94683837891</ele>
        <time>2011-03-06T08:57:11Z</time>
      </trkpt>
      <trkpt lat="43.66799" lon="6.72727">
        <ele>466.10467529297</ele>
        <time>2011-03-06T08:57:32Z</time>
      </trkpt>
      <trkpt lat="43.66795" lon="6.72736">
        <ele>467.67794799805</ele>
        <time>2011-03-06T08:57:36Z</time>
      </trkpt>
      <trkpt lat="43.66795" lon="6.72749">
        <ele>466.85308837891</ele>
        <time>2011-03-06T08:57:40Z</time>
      </trkpt>
      <trkpt lat="43.66794" lon="6.72765">
        <ele>465.25051879883</ele>
        <time>2011-03-06T08:57:44Z</time>
      </trkpt>
      <trkpt lat="43.66791" lon="6.7278">
        <ele>465.47064208984</ele>
        <time>2011-03-06T08:57:49Z</time>
      </trkpt>
      <trkpt lat="43.66792" lon="6.72798">
        <ele>462.82946777344</ele>
        <time>2011-03-06T08:57:54Z</time>
      </trkpt>
      <trkpt lat="43.66791" lon="6.72816">
        <ele>460.77017211914</ele>
        <time>2011-03-06T08:57:59Z</time>
      </trkpt>
      <trkpt lat="43.66793" lon="6.72838">
        <ele>455.90234375</ele>
        <time>2011-03-06T08:58:05Z</time>
      </trkpt>
      <trkpt lat="43.66794" lon="6.72848">
        <ele>453.09857177734</ele>
        <time>2011-03-06T08:58:10Z</time>
      </trkpt>
      <trkpt lat="43.6679" lon="6.7285">
        <ele>456.27349853516</ele>
        <time>2011-03-06T08:58:35Z</time>
      </trkpt>
      <trkpt lat="43.66785" lon="6.7286">
        <ele>459.26388549805</ele>
        <time>2011-03-06T08:58:41Z</time>
      </trkpt>
      <trkpt lat="43.66784" lon="6.7286">
        <ele>459.44494628906</ele>
        <time>2011-03-06T08:58:42Z</time>
      </trkpt>
      <trkpt lat="43.66784" lon="6.72865">
        <ele>458.55184936523</ele>
        <time>2011-03-06T08:58:51Z</time>
      </trkpt>
      <trkpt lat="43.66782" lon="6.72871">
        <ele>459.0234375</ele>
        <time>2011-03-06T08:58:58Z</time>
      </trkpt>
      <trkpt lat="43.66778" lon="6.72877">
        <ele>461.68371582031</ele>
        <time>2011-03-06T08:59:04Z</time>
      </trkpt>
      <trkpt lat="43.66777" lon="6.72877">
        <ele>462.67858886719</ele>
        <time>2011-03-06T08:59:07Z</time>
      </trkpt>
      <trkpt lat="43.66771" lon="6.7288">
        <ele>467.72073364258</ele>
        <time>2011-03-06T08:59:15Z</time>
      </trkpt>
      <trkpt lat="43.66768" lon="6.72881">
        <ele>469.49237060547</ele>
        <time>2011-03-06T08:59:21Z</time>
      </trkpt>
      <trkpt lat="43.66766" lon="6.72878">
        <ele>471.71047973633</ele>
        <time>2011-03-06T08:59:27Z</time>
      </trkpt>
      <trkpt lat="43.66765" lon="6.72879">
        <ele>472.53527832031</ele>
        <time>2011-03-06T08:59:31Z</time>
      </trkpt>
      <trkpt lat="43.66764" lon="6.7288">
        <ele>473.28369140625</ele>
        <time>2011-03-06T08:59:33Z</time>
      </trkpt>
      <trkpt lat="43.66764" lon="6.7288">
        <ele>473.52032470703</ele>
        <time>2011-03-06T08:59:34Z</time>
      </trkpt>
      <trkpt lat="43.66758" lon="6.7289">
        <ele>476.31945800781</ele>
        <time>2011-03-06T08:59:41Z</time>
      </trkpt>
      <trkpt lat="43.66754" lon="6.72891">
        <ele>479.74124145508</ele>
        <time>2011-03-06T08:59:44Z</time>
      </trkpt>
      <trkpt lat="43.66752" lon="6.72891">
        <ele>481.63961791992</ele>
        <time>2011-03-06T08:59:45Z</time>
      </trkpt>
      <trkpt lat="43.66742" lon="6.72886">
        <ele>487.49771118164</ele>
        <time>2011-03-06T08:59:49Z</time>
      </trkpt>
      <trkpt lat="43.66729" lon="6.72889">
        <ele>492.72009277344</ele>
        <time>2011-03-06T08:59:54Z</time>
      </trkpt>
      <trkpt lat="43.66716" lon="6.72894">
        <ele>497.2373046875</ele>
        <time>2011-03-06T08:59:58Z</time>
      </trkpt>
      <trkpt lat="43.66702" lon="6.72894">
        <ele>503.44192504883</ele>
        <time>2011-03-06T09:00:02Z</time>
      </trkpt>
      <trkpt lat="43.66697" lon="6.72895">
        <ele>505.10534667969</ele>
        <time>2011-03-06T09:00:03Z</time>
      </trkpt>
      <trkpt lat="43.66688" lon="6.72906">
        <ele>507.99588012695</ele>
        <time>2011-03-06T09:00:07Z</time>
      </trkpt>
      <trkpt lat="43.66677" lon="6.72923">
        <ele>511.19534301758</ele>
        <time>2011-03-06T09:00:12Z</time>
      </trkpt>
      <trkpt lat="43.66675" lon="6.72927">
        <ele>511.65185546875</ele>
        <time>2011-03-06T09:00:16Z</time>
      </trkpt>
      <trkpt lat="43.66669" lon="6.72944">
        <ele>512.43835449219</ele>
        <time>2011-03-06T09:00:21Z</time>
      </trkpt>
      <trkpt lat="43.66656" lon="6.72961">
        <ele>512.81805419922</ele>
        <time>2011-03-06T09:00:26Z</time>
      </trkpt>
      <trkpt lat="43.66649" lon="6.72968">
        <ele>512.60400390625</ele>
        <time>2011-03-06T09:00:30Z</time>
      </trkpt>
      <trkpt lat="43.66646" lon="6.7297">
        <ele>512.56378173828</ele>
        <time>2011-03-06T09:00:34Z</time>
      </trkpt>
      <trkpt lat="43.66641" lon="6.72973">
        <ele>512.65551757812</ele>
        <time>2011-03-06T09:00:43Z</time>
      </trkpt>
      <trkpt lat="43.66638" lon="6.72975">
        <ele>512.66833496094</ele>
        <time>2011-03-06T09:00:51Z</time>
      </trkpt>
      <trkpt lat="43.66637" lon="6.72978">
        <ele>512.55364990234</ele>
        <time>2011-03-06T09:00:56Z</time>
      </trkpt>
      <trkpt lat="43.66635" lon="6.7298">
        <ele>512.44561767578</ele>
        <time>2011-03-06T09:01:08Z</time>
      </trkpt>
      <trkpt lat="43.66634" lon="6.72982">
        <ele>512.29858398438</ele>
        <time>2011-03-06T09:01:13Z</time>
      </trkpt>
      <trkpt lat="43.66633" lon="6.72987">
        <ele>511.92181396484</ele>
        <time>2011-03-06T09:01:19Z</time>
      </trkpt>
      <trkpt lat="43.66631" lon="6.72996">
        <ele>511.35345458984</ele>
        <time>2011-03-06T09:01:26Z</time>
      </trkpt>
      <trkpt lat="43.66628" lon="6.73001">
        <ele>511.06015014648</ele>
        <time>2011-03-06T09:01:32Z</time>
      </trkpt>
      <trkpt lat="43.66621" lon="6.73015">
        <ele>509.60098266602</ele>
        <time>2011-03-06T09:01:37Z</time>
      </trkpt>
      <trkpt lat="43.66608" lon="6.7304">
        <ele>507.93713378906</ele>
        <time>2011-03-06T09:01:43Z</time>
      </trkpt>
      <trkpt lat="43.66595" lon="6.73062">
        <ele>507.45028686523</ele>
        <time>2011-03-06T09:01:49Z</time>
      </trkpt>
      <trkpt lat="43.66583" lon="6.7307">
        <ele>509.14178466797</ele>
        <time>2011-03-06T09:01:53Z</time>
      </trkpt>
      <trkpt lat="43.66571" lon="6.73064">
        <ele>509.33465576172</ele>
        <time>2011-03-06T09:01:57Z</time>
      </trkpt>
      <trkpt lat="43.66558" lon="6.73057">
        <ele>509.40908813477</ele>
        <time>2011-03-06T09:02:01Z</time>
      </trkpt>
      <trkpt lat="43.66544" lon="6.73057">
        <ele>508.99530029297</ele>
        <time>2011-03-06T09:02:05Z</time>
      </trkpt>
      <trkpt lat="43.66529" lon="6.73073">
        <ele>507.79293823242</ele>
        <time>2011-03-06T09:02:09Z</time>
      </trkpt>
      <trkpt lat="43.66522" lon="6.73081">
        <ele>507.37298583984</ele>
        <time>2011-03-06T09:02:11Z</time>
      </trkpt>
      <trkpt lat="43.66513" lon="6.73088">
        <ele>507.01931762695</ele>
        <time>2011-03-06T09:02:13Z</time>
      </trkpt>
      <trkpt lat="43.66499" lon="6.73094">
        <ele>506.73156738281</ele>
        <time>2011-03-06T09:02:16Z</time>
      </trkpt>
      <trkpt lat="43.66484" lon="6.73096">
        <ele>506.53128051758</ele>
        <time>2011-03-06T09:02:19Z</time>
      </trkpt>
      <trkpt lat="43.66471" lon="6.73086">
        <ele>506.60107421875</ele>
        <time>2011-03-06T09:02:22Z</time>
      </trkpt>
      <trkpt lat="43.66456" lon="6.73064">
        <ele>506.81439208984</ele>
        <time>2011-03-06T09:02:26Z</time>
      </trkpt>
      <trkpt lat="43.66438" lon="6.73043">
        <ele>506.85751342773</ele>
        <time>2011-03-06T09:02:31Z</time>
      </trkpt>
      <trkpt lat="43.66431" lon="6.73026">
        <ele>506.98175048828</ele>
        <time>2011-03-06T09:02:34Z</time>
      </trkpt>
      <trkpt lat="43.66419" lon="6.72985">
        <ele>507.59149169922</ele>
        <time>2011-03-06T09:02:40Z</time>
      </trkpt>
      <trkpt lat="43.66412" lon="6.72963">
        <ele>508.0869140625</ele>
        <time>2011-03-06T09:02:43Z</time>
      </trkpt>
      <trkpt lat="43.66408" lon="6.72944">
        <ele>508.6565246582</ele>
        <time>2011-03-06T09:02:46Z</time>
      </trkpt>
      <trkpt lat="43.66407" lon="6.72917">
        <ele>509.6520690918</ele>
        <time>2011-03-06T09:02:50Z</time>
      </trkpt>
      <trkpt lat="43.66396" lon="6.72877">
        <ele>510.56756591797</ele>
        <time>2011-03-06T09:02:55Z</time>
      </trkpt>
      <trkpt lat="43.66394" lon="6.72864">
        <ele>510.96884155273</ele>
        <time>2011-03-06T09:02:58Z</time>
      </trkpt>
      <trkpt lat="43.66396" lon="6.72853">
        <ele>511.35372924805</ele>
        <time>2011-03-06T09:03:00Z</time>
      </trkpt>
      <trkpt lat="43.66399" lon="6.72838">
        <ele>511.8479309082</ele>
        <time>2011-03-06T09:03:03Z</time>
      </trkpt>
      <trkpt lat="43.66399" lon="6.72822">
        <ele>512.36004638672</ele>
        <time>2011-03-06T09:03:08Z</time>
      </trkpt>
      <trkpt lat="43.66398" lon="6.72816">
        <ele>512.54211425781</ele>
        <time>2011-03-06T09:03:10Z</time>
      </trkpt>
      <trkpt lat="43.66385" lon="6.72801">
        <ele>513.21209716797</ele>
        <time>2011-03-06T09:03:15Z</time>
      </trkpt>
      <trkpt lat="43.66378" lon="6.72792">
        <ele>513.69152832031</ele>
        <time>2011-03-06T09:03:18Z</time>
      </trkpt>
      <trkpt lat="43.66372" lon="6.72774">
        <ele>514.58160400391</ele>
        <time>2011-03-06T09:03:24Z</time>
      </trkpt>
      <trkpt lat="43.66362" lon="6.72756">
        <ele>515.66619873047</ele>
        <time>2011-03-06T09:03:28Z</time>
      </trkpt>
      <trkpt lat="43.66345" lon="6.72737">
        <ele>517.30358886719</ele>
        <time>2011-03-06T09:03:33Z</time>
      </trkpt>
      <trkpt lat="43.66336" lon="6.7273">
        <ele>518.10955810547</ele>
        <time>2011-03-06T09:03:37Z</time>
      </trkpt>
      <trkpt lat="43.66325" lon="6.72728">
        <ele>519.70452880859</ele>
        <time>2011-03-06T09:03:43Z</time>
      </trkpt>
      <trkpt lat="43.66322" lon="6.7273">
        <ele>519.98541259766</ele>
        <time>2011-03-06T09:03:44Z</time>
      </trkpt>
      <trkpt lat="43.66314" lon="6.7274">
        <ele>520.59765625</ele>
        <time>2011-03-06T09:03:49Z</time>
      </trkpt>
      <trkpt lat="43.66307" lon="6.72754">
        <ele>520.81188964844</ele>
        <time>2011-03-06T09:03:55Z</time>
      </trkpt>
      <trkpt lat="43.66306" lon="6.72758">
        <ele>520.78295898438</ele>
        <time>2011-03-06T09:03:56Z</time>
      </trkpt>
      <trkpt lat="43.66298" lon="6.72773">
        <ele>520.84735107422</ele>
        <time>2011-03-06T09:03:59Z</time>
      </trkpt>
      <trkpt lat="43.66294" lon="6.72778">
        <ele>520.93792724609</ele>
        <time>2011-03-06T09:04:00Z</time>
      </trkpt>
      <trkpt lat="43.66281" lon="6.72798">
        <ele>521.27142333984</ele>
        <time>2011-03-06T09:04:04Z</time>
      </trkpt>
      <trkpt lat="43.66253" lon="6.72842">
        <ele>520.89099121094</ele>
        <time>2011-03-06T09:04:09Z</time>
      </trkpt>
      <trkpt lat="43.66222" lon="6.72902">
        <ele>517.06231689453</ele>
        <time>2011-03-06T09:04:15Z</time>
      </trkpt>
      <trkpt lat="43.66218" lon="6.7291">
        <ele>516.29553222656</ele>
        <time>2011-03-06T09:04:16Z</time>
      </trkpt>
      <trkpt lat="43.66206" lon="6.72938">
        <ele>514.20623779297</ele>
        <time>2011-03-06T09:04:20Z</time>
      </trkpt>
      <trkpt lat="43.66192" lon="6.72965">
        <ele>512.31005859375</ele>
        <time>2011-03-06T09:04:25Z</time>
      </trkpt>
      <trkpt lat="43.66172" lon="6.7298">
        <ele>511.70822143555</ele>
        <time>2011-03-06T09:04:31Z</time>
      </trkpt>
      <trkpt lat="43.66168" lon="6.7298">
        <ele>511.82577514648</ele>
        <time>2011-03-06T09:04:32Z</time>
      </trkpt>
      <trkpt lat="43.66151" lon="6.7298">
        <ele>512.81201171875</ele>
        <time>2011-03-06T09:04:38Z</time>
      </trkpt>
      <trkpt lat="43.66134" lon="6.72978">
        <ele>513.84509277344</ele>
        <time>2011-03-06T09:04:44Z</time>
      </trkpt>
      <trkpt lat="43.66124" lon="6.72978">
        <ele>514.37811279297</ele>
        <time>2011-03-06T09:04:49Z</time>
      </trkpt>
      <trkpt lat="43.66121" lon="6.72978">
        <ele>514.58489990234</ele>
        <time>2011-03-06T09:04:53Z</time>
      </trkpt>
      <trkpt lat="43.66119" lon="6.72978">
        <ele>514.68389892578</ele>
        <time>2011-03-06T09:05:00Z</time>
      </trkpt>
      <trkpt lat="43.66117" lon="6.7298">
        <ele>514.63537597656</ele>
        <time>2011-03-06T09:05:07Z</time>
      </trkpt>
      <trkpt lat="43.66115" lon="6.7298">
        <ele>514.67163085938</ele>
        <time>2011-03-06T09:05:14Z</time>
      </trkpt>
      <trkpt lat="43.66113" lon="6.72976">
        <ele>515.17340087891</ele>
        <time>2011-03-06T09:05:39Z</time>
      </trkpt>
      <trkpt lat="43.66108" lon="6.72978">
        <ele>515.29742431641</ele>
        <time>2011-03-06T09:05:49Z</time>
      </trkpt>
      <trkpt lat="43.66104" lon="6.72972">
        <ele>515.90545654297</ele>
        <time>2011-03-06T09:05:58Z</time>
      </trkpt>
      <trkpt lat="43.66103" lon="6.72974">
        <ele>515.82434082031</ele>
        <time>2011-03-06T09:06:05Z</time>
      </trkpt>
      <trkpt lat="43.661" lon="6.72979">
        <ele>515.62738037109</ele>
        <time>2011-03-06T09:06:13Z</time>
      </trkpt>
      <trkpt lat="43.66098" lon="6.72976">
        <ele>515.95263671875</ele>
        <time>2011-03-06T09:06:21Z</time>
      </trkpt>
      <trkpt lat="43.66098" lon="6.72974">
        <ele>516.05041503906</ele>
        <time>2011-03-06T09:06:27Z</time>
      </trkpt>
      <trkpt lat="43.66093" lon="6.72974">
        <ele>516.32922363281</ele>
        <time>2011-03-06T09:06:45Z</time>
      </trkpt>
      <trkpt lat="43.6609" lon="6.72976">
        <ele>516.42767333984</ele>
        <time>2011-03-06T09:06:52Z</time>
      </trkpt>
      <trkpt lat="43.66085" lon="6.72976">
        <ele>516.63848876953</ele>
        <time>2011-03-06T09:06:57Z</time>
      </trkpt>
      <trkpt lat="43.66077" lon="6.72975">
        <ele>517.29925537109</ele>
        <time>2011-03-06T09:07:04Z</time>
      </trkpt>
      <trkpt lat="43.66075" lon="6.72977">
        <ele>517.36889648438</ele>
        <time>2011-03-06T09:07:06Z</time>
      </trkpt>
      <trkpt lat="43.66074" lon="6.72984">
        <ele>516.99975585938</ele>
        <time>2011-03-06T09:07:10Z</time>
      </trkpt>
      <trkpt lat="43.66069" lon="6.72988">
        <ele>517.04437255859</ele>
        <time>2011-03-06T09:07:15Z</time>
      </trkpt>
      <trkpt lat="43.66067" lon="6.72989">
        <ele>517.18811035156</ele>
        <time>2011-03-06T09:07:21Z</time>
      </trkpt>
      <trkpt lat="43.66068" lon="6.72993">
        <ele>516.86779785156</ele>
        <time>2011-03-06T09:07:26Z</time>
      </trkpt>
      <trkpt lat="43.6607" lon="6.73004">
        <ele>515.92199707031</ele>
        <time>2011-03-06T09:07:31Z</time>
      </trkpt>
      <trkpt lat="43.6607" lon="6.73007">
        <ele>515.76330566406</ele>
        <time>2011-03-06T09:07:33Z</time>
      </trkpt>
      <trkpt lat="43.66069" lon="6.73014">
        <ele>515.47064208984</ele>
        <time>2011-03-06T09:07:37Z</time>
      </trkpt>
      <trkpt lat="43.66069" lon="6.73031">
        <ele>514.642578125</ele>
        <time>2011-03-06T09:07:43Z</time>
      </trkpt>
      <trkpt lat="43.66067" lon="6.73043">
        <ele>514.23834228516</ele>
        <time>2011-03-06T09:07:46Z</time>
      </trkpt>
      <trkpt lat="43.66063" lon="6.73065">
        <ele>513.37249755859</ele>
        <time>2011-03-06T09:07:52Z</time>
      </trkpt>
      <trkpt lat="43.66063" lon="6.73068">
        <ele>513.25433349609</ele>
        <time>2011-03-06T09:07:53Z</time>
      </trkpt>
      <trkpt lat="43.66056" lon="6.7308">
        <ele>513.158203125</ele>
        <time>2011-03-06T09:07:59Z</time>
      </trkpt>
      <trkpt lat="43.66054" lon="6.73081">
        <ele>513.25445556641</ele>
        <time>2011-03-06T09:08:01Z</time>
      </trkpt>
      <trkpt lat="43.66051" lon="6.73082">
        <ele>513.39483642578</ele>
        <time>2011-03-06T09:08:03Z</time>
      </trkpt>
      <trkpt lat="43.66041" lon="6.73087">
        <ele>513.96990966797</ele>
        <time>2011-03-06T09:08:10Z</time>
      </trkpt>
      <trkpt lat="43.66037" lon="6.73088">
        <ele>514.19921875</ele>
        <time>2011-03-06T09:08:12Z</time>
      </trkpt>
      <trkpt lat="43.66026" lon="6.73095">
        <ele>514.92431640625</ele>
        <time>2011-03-06T09:08:18Z</time>
      </trkpt>
      <trkpt lat="43.6602" lon="6.73101">
        <ele>515.33435058594</ele>
        <time>2011-03-06T09:08:22Z</time>
      </trkpt>
      <trkpt lat="43.66009" lon="6.73113">
        <ele>516.18792724609</ele>
        <time>2011-03-06T09:08:28Z</time>
      </trkpt>
      <trkpt lat="43.66002" lon="6.73116">
        <ele>516.82781982422</ele>
        <time>2011-03-06T09:08:32Z</time>
      </trkpt>
      <trkpt lat="43.65996" lon="6.73121">
        <ele>517.10620117188</ele>
        <time>2011-03-06T09:08:35Z</time>
      </trkpt>
      <trkpt lat="43.6599" lon="6.73124">
        <ele>517.232421875</ele>
        <time>2011-03-06T09:08:39Z</time>
      </trkpt>
      <trkpt lat="43.65984" lon="6.73125">
        <ele>517.37799072266</ele>
        <time>2011-03-06T09:08:43Z</time>
      </trkpt>
      <trkpt lat="43.65979" lon="6.73126">
        <ele>517.49798583984</ele>
        <time>2011-03-06T09:08:48Z</time>
      </trkpt>
      <trkpt lat="43.65974" lon="6.73129">
        <ele>517.58544921875</ele>
        <time>2011-03-06T09:08:53Z</time>
      </trkpt>
      <trkpt lat="43.65966" lon="6.73134">
        <ele>517.72534179688</ele>
        <time>2011-03-06T09:08:59Z</time>
      </trkpt>
      <trkpt lat="43.65956" lon="6.73135">
        <ele>517.9287109375</ele>
        <time>2011-03-06T09:09:03Z</time>
      </trkpt>
      <trkpt lat="43.6594" lon="6.73143">
        <ele>518.12463378906</ele>
        <time>2011-03-06T09:09:08Z</time>
      </trkpt>
      <trkpt lat="43.65919" lon="6.7315">
        <ele>518.365234375</ele>
        <time>2011-03-06T09:09:13Z</time>
      </trkpt>
      <trkpt lat="43.65894" lon="6.73146">
        <ele>517.32873535156</ele>
        <time>2011-03-06T09:09:18Z</time>
      </trkpt>
      <trkpt lat="43.65888" lon="6.73144">
        <ele>517.10870361328</ele>
        <time>2011-03-06T09:09:19Z</time>
      </trkpt>
      <trkpt lat="43.65856" lon="6.73141">
        <ele>515.8076171875</ele>
        <time>2011-03-06T09:09:25Z</time>
      </trkpt>
      <trkpt lat="43.65833" lon="6.73141">
        <ele>514.74163818359</ele>
        <time>2011-03-06T09:09:30Z</time>
      </trkpt>
      <trkpt lat="43.65812" lon="6.73146">
        <ele>514.54675292969</ele>
        <time>2011-03-06T09:09:35Z</time>
      </trkpt>
      <trkpt lat="43.65798" lon="6.73148">
        <ele>514.57958984375</ele>
        <time>2011-03-06T09:09:38Z</time>
      </trkpt>
      <trkpt lat="43.6577" lon="6.7315">
        <ele>514.76110839844</ele>
        <time>2011-03-06T09:09:43Z</time>
      </trkpt>
      <trkpt lat="43.65741" lon="6.73142">
        <ele>516.25415039062</ele>
        <time>2011-03-06T09:09:48Z</time>
      </trkpt>
      <trkpt lat="43.65736" lon="6.73142">
        <ele>516.35827636719</ele>
        <time>2011-03-06T09:09:49Z</time>
      </trkpt>
      <trkpt lat="43.65715" lon="6.7315">
        <ele>516.08569335938</ele>
        <time>2011-03-06T09:09:53Z</time>
      </trkpt>
      <trkpt lat="43.65691" lon="6.7317">
        <ele>514.68896484375</ele>
        <time>2011-03-06T09:09:58Z</time>
      </trkpt>
      <trkpt lat="43.6568" lon="6.73184">
        <ele>513.58276367188</ele>
        <time>2011-03-06T09:10:03Z</time>
      </trkpt>
      <trkpt lat="43.6567" lon="6.73197">
        <ele>512.54125976562</ele>
        <time>2011-03-06T09:10:08Z</time>
      </trkpt>
      <trkpt lat="43.65657" lon="6.73218">
        <ele>509.99249267578</ele>
        <time>2011-03-06T09:10:12Z</time>
      </trkpt>
      <trkpt lat="43.6564" lon="6.73232">
        <ele>507.9482421875</ele>
        <time>2011-03-06T09:10:16Z</time>
      </trkpt>
      <trkpt lat="43.65623" lon="6.73245">
        <ele>506.31585693359</ele>
        <time>2011-03-06T09:10:20Z</time>
      </trkpt>
      <trkpt lat="43.65618" lon="6.73249">
        <ele>505.90084838867</ele>
        <time>2011-03-06T09:10:21Z</time>
      </trkpt>
      <trkpt lat="43.65609" lon="6.73258">
        <ele>505.04440307617</ele>
        <time>2011-03-06T09:10:23Z</time>
      </trkpt>
      <trkpt lat="43.65583" lon="6.7328">
        <ele>503.19140625</ele>
        <time>2011-03-06T09:10:28Z</time>
      </trkpt>
      <trkpt lat="43.65572" lon="6.73288">
        <ele>502.19046020508</ele>
        <time>2011-03-06T09:10:30Z</time>
      </trkpt>
      <trkpt lat="43.65545" lon="6.73297">
        <ele>500.69995117188</ele>
        <time>2011-03-06T09:10:35Z</time>
      </trkpt>
      <trkpt lat="43.65534" lon="6.73298">
        <ele>500.28021240234</ele>
        <time>2011-03-06T09:10:37Z</time>
      </trkpt>
      <trkpt lat="43.65501" lon="6.73302">
        <ele>499.02212524414</ele>
        <time>2011-03-06T09:10:43Z</time>
      </trkpt>
      <trkpt lat="43.65479" lon="6.73306">
        <ele>497.06262207031</ele>
        <time>2011-03-06T09:10:47Z</time>
      </trkpt>
      <trkpt lat="43.65469" lon="6.73311">
        <ele>496.16275024414</ele>
        <time>2011-03-06T09:10:49Z</time>
      </trkpt>
      <trkpt lat="43.65448" lon="6.73309">
        <ele>494.23544311523</ele>
        <time>2011-03-06T09:10:53Z</time>
      </trkpt>
      <trkpt lat="43.65405" lon="6.73308">
        <ele>490.26257324219</ele>
        <time>2011-03-06T09:10:59Z</time>
      </trkpt>
      <trkpt lat="43.6539" lon="6.73312">
        <ele>488.80297851562</ele>
        <time>2011-03-06T09:11:02Z</time>
      </trkpt>
      <trkpt lat="43.65386" lon="6.73313">
        <ele>488.50741577148</ele>
        <time>2011-03-06T09:11:03Z</time>
      </trkpt>
      <trkpt lat="43.65379" lon="6.73318">
        <ele>487.94088745117</ele>
        <time>2011-03-06T09:11:05Z</time>
      </trkpt>
      <trkpt lat="43.65368" lon="6.73332">
        <ele>487.24154663086</ele>
        <time>2011-03-06T09:11:10Z</time>
      </trkpt>
      <trkpt lat="43.65365" lon="6.73333">
        <ele>487.03787231445</ele>
        <time>2011-03-06T09:11:11Z</time>
      </trkpt>
      <trkpt lat="43.65363" lon="6.73336">
        <ele>486.9206237793</ele>
        <time>2011-03-06T09:11:20Z</time>
      </trkpt>
      <trkpt lat="43.65361" lon="6.73335">
        <ele>486.7096862793</ele>
        <time>2011-03-06T09:11:41Z</time>
      </trkpt>
      <trkpt lat="43.65345" lon="6.73328">
        <ele>484.97952270508</ele>
        <time>2011-03-06T09:11:45Z</time>
      </trkpt>
      <trkpt lat="43.65322" lon="6.73317">
        <ele>482.236328125</ele>
        <time>2011-03-06T09:11:49Z</time>
      </trkpt>
      <trkpt lat="43.65287" lon="6.73292">
        <ele>477.20425415039</ele>
        <time>2011-03-06T09:11:54Z</time>
      </trkpt>
      <trkpt lat="43.65272" lon="6.73284">
        <ele>475.02487182617</ele>
        <time>2011-03-06T09:11:56Z</time>
      </trkpt>
      <trkpt lat="43.65235" lon="6.73262">
        <ele>469.56585693359</ele>
        <time>2011-03-06T09:12:01Z</time>
      </trkpt>
      <trkpt lat="43.65229" lon="6.73259">
        <ele>468.82281494141</ele>
        <time>2011-03-06T09:12:02Z</time>
      </trkpt>
      <trkpt lat="43.65213" lon="6.7325">
        <ele>466.89645385742</ele>
        <time>2011-03-06T09:12:05Z</time>
      </trkpt>
      <trkpt lat="43.65182" lon="6.73239">
        <ele>463.7102355957</ele>
        <time>2011-03-06T09:12:11Z</time>
      </trkpt>
      <trkpt lat="43.65149" lon="6.73233">
        <ele>460.24893188477</ele>
        <time>2011-03-06T09:12:16Z</time>
      </trkpt>
      <trkpt lat="43.65128" lon="6.73231">
        <ele>457.94638061523</ele>
        <time>2011-03-06T09:12:19Z</time>
      </trkpt>
      <trkpt lat="43.65097" lon="6.73228">
        <ele>454.47653198242</ele>
        <time>2011-03-06T09:12:24Z</time>
      </trkpt>
      <trkpt lat="43.65088" lon="6.73228">
        <ele>453.38247680664</ele>
        <time>2011-03-06T09:12:26Z</time>
      </trkpt>
      <trkpt lat="43.65067" lon="6.73225">
        <ele>451.50900268555</ele>
        <time>2011-03-06T09:12:30Z</time>
      </trkpt>
      <trkpt lat="43.65035" lon="6.73226">
        <ele>448.92565917969</ele>
        <time>2011-03-06T09:12:36Z</time>
      </trkpt>
      <trkpt lat="43.65015" lon="6.73224">
        <ele>447.24584960938</ele>
        <time>2011-03-06T09:12:40Z</time>
      </trkpt>
      <trkpt lat="43.64986" lon="6.73222">
        <ele>445.10140991211</ele>
        <time>2011-03-06T09:12:46Z</time>
      </trkpt>
      <trkpt lat="43.64951" lon="6.73226">
        <ele>442.97143554688</ele>
        <time>2011-03-06T09:12:51Z</time>
      </trkpt>
      <trkpt lat="43.64902" lon="6.73234">
        <ele>440.66540527344</ele>
        <time>2011-03-06T09:12:57Z</time>
      </trkpt>
      <trkpt lat="43.64873" lon="6.7325">
        <ele>440.47103881836</ele>
        <time>2011-03-06T09:13:01Z</time>
      </trkpt>
      <trkpt lat="43.6487" lon="6.73253">
        <ele>440.47354125977</ele>
        <time>2011-03-06T09:13:02Z</time>
      </trkpt>
      <trkpt lat="43.64856" lon="6.73264">
        <ele>440.37026977539</ele>
        <time>2011-03-06T09:13:06Z</time>
      </trkpt>
      <trkpt lat="43.64845" lon="6.73266">
        <ele>440.19860839844</ele>
        <time>2011-03-06T09:13:09Z</time>
      </trkpt>
      <trkpt lat="43.64823" lon="6.73275">
        <ele>440</ele>
        <time>2011-03-06T09:13:14Z</time>
      </trkpt>
      <trkpt lat="43.64808" lon="6.73281">
        <ele>440</ele>
        <time>2011-03-06T09:13:19Z</time>
      </trkpt>
      <trkpt lat="43.64791" lon="6.73286">
        <ele>440</ele>
        <time>2011-03-06T09:13:25Z</time>
      </trkpt>
      <trkpt lat="43.64772" lon="6.73289">
        <ele>440</ele>
        <time>2011-03-06T09:13:31Z</time>
      </trkpt>
      <trkpt lat="43.64752" lon="6.73292">
        <ele>440</ele>
        <time>2011-03-06T09:13:36Z</time>
      </trkpt>
      <trkpt lat="43.64729" lon="6.73296">
        <ele>438.85406494141</ele>
        <time>2011-03-06T09:13:41Z</time>
      </trkpt>
      <trkpt lat="43.647" lon="6.73301">
        <ele>437.34603881836</ele>
        <time>2011-03-06T09:13:46Z</time>
      </trkpt>
      <trkpt lat="43.64677" lon="6.73307">
        <ele>436.20028686523</ele>
        <time>2011-03-06T09:13:50Z</time>
      </trkpt>
      <trkpt lat="43.64672" lon="6.73308">
        <ele>435.95944213867</ele>
        <time>2011-03-06T09:13:51Z</time>
      </trkpt>
      <trkpt lat="43.64641" lon="6.73317">
        <ele>433.32733154297</ele>
        <time>2011-03-06T09:13:57Z</time>
      </trkpt>
      <trkpt lat="43.64615" lon="6.73323">
        <ele>430.94467163086</ele>
        <time>2011-03-06T09:14:02Z</time>
      </trkpt>
      <trkpt lat="43.646" lon="6.73325">
        <ele>429.46551513672</ele>
        <time>2011-03-06T09:14:05Z</time>
      </trkpt>
      <trkpt lat="43.64571" lon="6.73327">
        <ele>426.90936279297</ele>
        <time>2011-03-06T09:14:10Z</time>
      </trkpt>
      <trkpt lat="43.64536" lon="6.73329">
        <ele>423.99203491211</ele>
        <time>2011-03-06T09:14:15Z</time>
      </trkpt>
      <trkpt lat="43.64503" lon="6.73326">
        <ele>421.36801147461</ele>
        <time>2011-03-06T09:14:20Z</time>
      </trkpt>
      <trkpt lat="43.64491" lon="6.73325">
        <ele>420.98880004883</ele>
        <time>2011-03-06T09:14:22Z</time>
      </trkpt>
      <trkpt lat="43.64468" lon="6.73323">
        <ele>420.73474121094</ele>
        <time>2011-03-06T09:14:26Z</time>
      </trkpt>
      <trkpt lat="43.64451" lon="6.73331">
        <ele>420.44119262695</ele>
        <time>2011-03-06T09:14:31Z</time>
      </trkpt>
      <trkpt lat="43.64436" lon="6.73341">
        <ele>420.10800170898</ele>
        <time>2011-03-06T09:14:37Z</time>
      </trkpt>
      <trkpt lat="43.64423" lon="6.73349">
        <ele>419.73345947266</ele>
        <time>2011-03-06T09:14:42Z</time>
      </trkpt>
      <trkpt lat="43.64414" lon="6.73358">
        <ele>419.22265625</ele>
        <time>2011-03-06T09:14:47Z</time>
      </trkpt>
      <trkpt lat="43.64401" lon="6.73368">
        <ele>418.01580810547</ele>
        <time>2011-03-06T09:14:53Z</time>
      </trkpt>
      <trkpt lat="43.64397" lon="6.73378">
        <ele>417.34170532227</ele>
        <time>2011-03-06T09:14:55Z</time>
      </trkpt>
      <trkpt lat="43.64382" lon="6.73384">
        <ele>415.84896850586</ele>
        <time>2011-03-06T09:15:00Z</time>
      </trkpt>
      <trkpt lat="43.64381" lon="6.73385">
        <ele>415.70291137695</ele>
        <time>2011-03-06T09:15:01Z</time>
      </trkpt>
      <trkpt lat="43.64377" lon="6.73386">
        <ele>415.353515625</ele>
        <time>2011-03-06T09:15:06Z</time>
      </trkpt>
      <trkpt lat="43.64365" lon="6.73386">
        <ele>414.30670166016</ele>
        <time>2011-03-06T09:15:11Z</time>
      </trkpt>
      <trkpt lat="43.64343" lon="6.73387">
        <ele>412.32266235352</ele>
        <time>2011-03-06T09:15:17Z</time>
      </trkpt>
      <trkpt lat="43.64324" lon="6.73392">
        <ele>410.72134399414</ele>
        <time>2011-03-06T09:15:22Z</time>
      </trkpt>
      <trkpt lat="43.64305" lon="6.73397">
        <ele>409.70205688477</ele>
        <time>2011-03-06T09:15:27Z</time>
      </trkpt>
      <trkpt lat="43.64285" lon="6.73401">
        <ele>408.69271850586</ele>
        <time>2011-03-06T09:15:33Z</time>
      </trkpt>
      <trkpt lat="43.64268" lon="6.73396">
        <ele>408.61557006836</ele>
        <time>2011-03-06T09:15:37Z</time>
      </trkpt>
      <trkpt lat="43.64244" lon="6.73391">
        <ele>408.05606079102</ele>
        <time>2011-03-06T09:15:41Z</time>
      </trkpt>
      <trkpt lat="43.64225" lon="6.73391">
        <ele>406.69464111328</ele>
        <time>2011-03-06T09:15:45Z</time>
      </trkpt>
      <trkpt lat="43.64208" lon="6.734">
        <ele>404.79830932617</ele>
        <time>2011-03-06T09:15:48Z</time>
      </trkpt>
      <trkpt lat="43.6417" lon="6.73427">
        <ele>400.96405029297</ele>
        <time>2011-03-06T09:15:54Z</time>
      </trkpt>
      <trkpt lat="43.64151" lon="6.73436">
        <ele>399.36334228516</ele>
        <time>2011-03-06T09:15:58Z</time>
      </trkpt>
      <trkpt lat="43.64148" lon="6.73436">
        <ele>399.06945800781</ele>
        <time>2011-03-06T09:15:59Z</time>
      </trkpt>
      <trkpt lat="43.64139" lon="6.7344">
        <ele>398.24499511719</ele>
        <time>2011-03-06T09:16:02Z</time>
      </trkpt>
      <trkpt lat="43.64128" lon="6.73447">
        <ele>397.13394165039</ele>
        <time>2011-03-06T09:16:07Z</time>
      </trkpt>
      <trkpt lat="43.64102" lon="6.7346">
        <ele>394.47702026367</ele>
        <time>2011-03-06T09:16:14Z</time>
      </trkpt>
      <trkpt lat="43.64085" lon="6.73463">
        <ele>392.93643188477</ele>
        <time>2011-03-06T09:16:17Z</time>
      </trkpt>
      <trkpt lat="43.64066" lon="6.73469">
        <ele>391.13549804688</ele>
        <time>2011-03-06T09:16:21Z</time>
      </trkpt>
      <trkpt lat="43.64052" lon="6.73475">
        <ele>389.62979125977</ele>
        <time>2011-03-06T09:16:24Z</time>
      </trkpt>
      <trkpt lat="43.64035" lon="6.73486">
        <ele>387.4407043457</ele>
        <time>2011-03-06T09:16:27Z</time>
      </trkpt>
      <trkpt lat="43.64029" lon="6.73489">
        <ele>386.61218261719</ele>
        <time>2011-03-06T09:16:28Z</time>
      </trkpt>
      <trkpt lat="43.63996" lon="6.73498">
        <ele>383.04104614258</ele>
        <time>2011-03-06T09:16:34Z</time>
      </trkpt>
      <trkpt lat="43.63979" lon="6.73503">
        <ele>382.25622558594</ele>
        <time>2011-03-06T09:16:37Z</time>
      </trkpt>
      <trkpt lat="43.63945" lon="6.73516">
        <ele>381.02026367188</ele>
        <time>2011-03-06T09:16:44Z</time>
      </trkpt>
      <trkpt lat="43.63935" lon="6.7352">
        <ele>380.64947509766</ele>
        <time>2011-03-06T09:16:46Z</time>
      </trkpt>
      <trkpt lat="43.63905" lon="6.73539">
        <ele>379.28396606445</ele>
        <time>2011-03-06T09:16:51Z</time>
      </trkpt>
      <trkpt lat="43.63891" lon="6.73552">
        <ele>378.03656005859</ele>
        <time>2011-03-06T09:16:53Z</time>
      </trkpt>
      <trkpt lat="43.63883" lon="6.73557">
        <ele>377.27484130859</ele>
        <time>2011-03-06T09:16:54Z</time>
      </trkpt>
      <trkpt lat="43.63848" lon="6.73588">
        <ele>372.56546020508</ele>
        <time>2011-03-06T09:16:59Z</time>
      </trkpt>
      <trkpt lat="43.63837" lon="6.73601">
        <ele>371.45300292969</ele>
        <time>2011-03-06T09:17:01Z</time>
      </trkpt>
      <trkpt lat="43.63839" lon="6.73621">
        <ele>371.63787841797</ele>
        <time>2011-03-06T09:17:04Z</time>
      </trkpt>
      <trkpt lat="43.63845" lon="6.73655">
        <ele>372.34262084961</ele>
        <time>2011-03-06T09:17:08Z</time>
      </trkpt>
      <trkpt lat="43.63845" lon="6.73663">
        <ele>372.40069580078</ele>
        <time>2011-03-06T09:17:09Z</time>
      </trkpt>
      <trkpt lat="43.63845" lon="6.73684">
        <ele>373.56024169922</ele>
        <time>2011-03-06T09:17:12Z</time>
      </trkpt>
      <trkpt lat="43.63848" lon="6.73699">
        <ele>374.89205932617</ele>
        <time>2011-03-06T09:17:15Z</time>
      </trkpt>
      <trkpt lat="43.63849" lon="6.73715">
        <ele>375.92190551758</ele>
        <time>2011-03-06T09:17:18Z</time>
      </trkpt>
      <trkpt lat="43.6384" lon="6.73734">
        <ele>376.36840820312</ele>
        <time>2011-03-06T09:17:24Z</time>
      </trkpt>
      <trkpt lat="43.63833" lon="6.7374">
        <ele>376.25607299805</ele>
        <time>2011-03-06T09:17:29Z</time>
      </trkpt>
      <trkpt lat="43.63828" lon="6.73745">
        <ele>376.08428955078</ele>
        <time>2011-03-06T09:17:33Z</time>
      </trkpt>
      <trkpt lat="43.63826" lon="6.73747">
        <ele>375.95431518555</ele>
        <time>2011-03-06T09:17:34Z</time>
      </trkpt>
      <trkpt lat="43.63814" lon="6.73762">
        <ele>375.18756103516</ele>
        <time>2011-03-06T09:17:38Z</time>
      </trkpt>
      <trkpt lat="43.63792" lon="6.7377">
        <ele>373.00860595703</ele>
        <time>2011-03-06T09:17:43Z</time>
      </trkpt>
      <trkpt lat="43.63781" lon="6.73771">
        <ele>371.88366699219</ele>
        <time>2011-03-06T09:17:45Z</time>
      </trkpt>
      <trkpt lat="43.63768" lon="6.73792">
        <ele>370.99444580078</ele>
        <time>2011-03-06T09:17:50Z</time>
      </trkpt>
      <trkpt lat="43.63767" lon="6.73797">
        <ele>370.95324707031</ele>
        <time>2011-03-06T09:17:51Z</time>
      </trkpt>
      <trkpt lat="43.63768" lon="6.73845">
        <ele>371.81829833984</ele>
        <time>2011-03-06T09:17:58Z</time>
      </trkpt>
      <trkpt lat="43.63768" lon="6.73852">
        <ele>371.71841430664</ele>
        <time>2011-03-06T09:17:59Z</time>
      </trkpt>
      <trkpt lat="43.63769" lon="6.73864">
        <ele>371.57144165039</ele>
        <time>2011-03-06T09:18:01Z</time>
      </trkpt>
      <trkpt lat="43.6377" lon="6.73891">
        <ele>371.29010009766</ele>
        <time>2011-03-06T09:18:06Z</time>
      </trkpt>
      <trkpt lat="43.63768" lon="6.73907">
        <ele>370.90960693359</ele>
        <time>2011-03-06T09:18:09Z</time>
      </trkpt>
      <trkpt lat="43.63765" lon="6.73925">
        <ele>370.32409667969</ele>
        <time>2011-03-06T09:18:12Z</time>
      </trkpt>
      <trkpt lat="43.63764" lon="6.73942">
        <ele>370.00930786133</ele>
        <time>2011-03-06T09:18:15Z</time>
      </trkpt>
      <trkpt lat="43.63767" lon="6.73958">
        <ele>370.0495300293</ele>
        <time>2011-03-06T09:18:18Z</time>
      </trkpt>
      <trkpt lat="43.63767" lon="6.7398">
        <ele>369.70010375977</ele>
        <time>2011-03-06T09:18:22Z</time>
      </trkpt>
      <trkpt lat="43.63762" lon="6.73995">
        <ele>369.06155395508</ele>
        <time>2011-03-06T09:18:25Z</time>
      </trkpt>
      <trkpt lat="43.63759" lon="6.74008">
        <ele>368.81936645508</ele>
        <time>2011-03-06T09:18:27Z</time>
      </trkpt>
      <trkpt lat="43.63756" lon="6.74019">
        <ele>368.6784362793</ele>
        <time>2011-03-06T09:18:29Z</time>
      </trkpt>
      <trkpt lat="43.63751" lon="6.74026">
        <ele>368.37973022461</ele>
        <time>2011-03-06T09:18:31Z</time>
      </trkpt>
      <trkpt lat="43.63743" lon="6.74045">
        <ele>367.93450927734</ele>
        <time>2011-03-06T09:18:35Z</time>
      </trkpt>
      <trkpt lat="43.63728" lon="6.74074">
        <ele>367.03350830078</ele>
        <time>2011-03-06T09:18:40Z</time>
      </trkpt>
      <trkpt lat="43.63711" lon="6.74102">
        <ele>366.16128540039</ele>
        <time>2011-03-06T09:18:45Z</time>
      </trkpt>
      <trkpt lat="43.6371" lon="6.74121">
        <ele>366.54006958008</ele>
        <time>2011-03-06T09:18:48Z</time>
      </trkpt>
      <trkpt lat="43.63713" lon="6.74132">
        <ele>367.02758789062</ele>
        <time>2011-03-06T09:18:50Z</time>
      </trkpt>
      <trkpt lat="43.6371" lon="6.74142">
        <ele>367.07223510742</ele>
        <time>2011-03-06T09:18:52Z</time>
      </trkpt>
      <trkpt lat="43.63701" lon="6.74187">
        <ele>367.39608764648</ele>
        <time>2011-03-06T09:18:57Z</time>
      </trkpt>
      <trkpt lat="43.63701" lon="6.74199">
        <ele>367.67190551758</ele>
        <time>2011-03-06T09:19:00Z</time>
      </trkpt>
      <trkpt lat="43.63703" lon="6.74207">
        <ele>368.03811645508</ele>
        <time>2011-03-06T09:19:02Z</time>
      </trkpt>
      <trkpt lat="43.63703" lon="6.74214">
        <ele>368.20291137695</ele>
        <time>2011-03-06T09:19:07Z</time>
      </trkpt>
      <trkpt lat="43.63702" lon="6.74217">
        <ele>368.14682006836</ele>
        <time>2011-03-06T09:19:11Z</time>
      </trkpt>
      <trkpt lat="43.63699" lon="6.74232">
        <ele>368.28643798828</ele>
        <time>2011-03-06T09:19:16Z</time>
      </trkpt>
      <trkpt lat="43.63696" lon="6.74252">
        <ele>368.48135375977</ele>
        <time>2011-03-06T09:19:23Z</time>
      </trkpt>
      <trkpt lat="43.63695" lon="6.74254">
        <ele>368.49060058594</ele>
        <time>2011-03-06T09:19:24Z</time>
      </trkpt>
      <trkpt lat="43.63688" lon="6.74269">
        <ele>368.38323974609</ele>
        <time>2011-03-06T09:19:30Z</time>
      </trkpt>
      <trkpt lat="43.63675" lon="6.74282">
        <ele>367.84228515625</ele>
        <time>2011-03-06T09:19:35Z</time>
      </trkpt>
      <trkpt lat="43.63669" lon="6.74294">
        <ele>367.75469970703</ele>
        <time>2011-03-06T09:19:39Z</time>
      </trkpt>
      <trkpt lat="43.63667" lon="6.743">
        <ele>367.80575561523</ele>
        <time>2011-03-06T09:19:41Z</time>
      </trkpt>
      <trkpt lat="43.63662" lon="6.74309">
        <ele>368.73974609375</ele>
        <time>2011-03-06T09:19:46Z</time>
      </trkpt>
      <trkpt lat="43.63655" lon="6.74324">
        <ele>370.2829284668</ele>
        <time>2011-03-06T09:19:51Z</time>
      </trkpt>
      <trkpt lat="43.63646" lon="6.74345">
        <ele>371.99111938477</ele>
        <time>2011-03-06T09:19:56Z</time>
      </trkpt>
      <trkpt lat="43.63646" lon="6.7435">
        <ele>372.13473510742</ele>
        <time>2011-03-06T09:19:57Z</time>
      </trkpt>
      <trkpt lat="43.63643" lon="6.74365">
        <ele>372.78793334961</ele>
        <time>2011-03-06T09:20:02Z</time>
      </trkpt>
      <trkpt lat="43.63647" lon="6.74378">
        <ele>372.53283691406</ele>
        <time>2011-03-06T09:20:06Z</time>
      </trkpt>
      <trkpt lat="43.63653" lon="6.74394">
        <ele>372.12094116211</ele>
        <time>2011-03-06T09:20:15Z</time>
      </trkpt>
      <trkpt lat="43.63655" lon="6.74402">
        <ele>372.05307006836</ele>
        <time>2011-03-06T09:20:22Z</time>
      </trkpt>
      <trkpt lat="43.63656" lon="6.74406">
        <ele>372.00659179688</ele>
        <time>2011-03-06T09:20:33Z</time>
      </trkpt>
      <trkpt lat="43.63658" lon="6.74409">
        <ele>371.90124511719</ele>
        <time>2011-03-06T09:20:41Z</time>
      </trkpt>
      <trkpt lat="43.63659" lon="6.74417">
        <ele>371.98480224609</ele>
        <time>2011-03-06T09:20:49Z</time>
      </trkpt>
      <trkpt lat="43.63659" lon="6.74422">
        <ele>372.10147094727</ele>
        <time>2011-03-06T09:20:59Z</time>
      </trkpt>
      <trkpt lat="43.63659" lon="6.74427">
        <ele>372.1071472168</ele>
        <time>2011-03-06T09:21:06Z</time>
      </trkpt>
      <trkpt lat="43.63661" lon="6.74434">
        <ele>372.04849243164</ele>
        <time>2011-03-06T09:21:11Z</time>
      </trkpt>
      <trkpt lat="43.63661" lon="6.7444">
        <ele>372.22854614258</ele>
        <time>2011-03-06T09:21:19Z</time>
      </trkpt>
      <trkpt lat="43.63662" lon="6.74445">
        <ele>372.2048034668</ele>
        <time>2011-03-06T09:21:25Z</time>
      </trkpt>
      <trkpt lat="43.63663" lon="6.7445">
        <ele>372.24264526367</ele>
        <time>2011-03-06T09:21:30Z</time>
      </trkpt>
      <trkpt lat="43.63661" lon="6.74458">
        <ele>372.57348632812</ele>
        <time>2011-03-06T09:21:36Z</time>
      </trkpt>
      <trkpt lat="43.6366" lon="6.74463">
        <ele>372.81851196289</ele>
        <time>2011-03-06T09:21:41Z</time>
      </trkpt>
      <trkpt lat="43.6366" lon="6.74469">
        <ele>372.90594482422</ele>
        <time>2011-03-06T09:21:47Z</time>
      </trkpt>
      <trkpt lat="43.6366" lon="6.74475">
        <ele>373.08505249023</ele>
        <time>2011-03-06T09:21:53Z</time>
      </trkpt>
      <trkpt lat="43.63659" lon="6.74483">
        <ele>373.37747192383</ele>
        <time>2011-03-06T09:22:00Z</time>
      </trkpt>
      <trkpt lat="43.63658" lon="6.74489">
        <ele>373.61044311523</ele>
        <time>2011-03-06T09:22:03Z</time>
      </trkpt>
      <trkpt lat="43.63657" lon="6.74509">
        <ele>374.13494873047</ele>
        <time>2011-03-06T09:22:09Z</time>
      </trkpt>
      <trkpt lat="43.63657" lon="6.7453">
        <ele>374.56890869141</ele>
        <time>2011-03-06T09:22:13Z</time>
      </trkpt>
      <trkpt lat="43.63656" lon="6.74557">
        <ele>375.30810546875</ele>
        <time>2011-03-06T09:22:18Z</time>
      </trkpt>
      <trkpt lat="43.63662" lon="6.74578">
        <ele>375.31466674805</ele>
        <time>2011-03-06T09:22:22Z</time>
      </trkpt>
      <trkpt lat="43.63667" lon="6.74604">
        <ele>375.55743408203</ele>
        <time>2011-03-06T09:22:27Z</time>
      </trkpt>
      <trkpt lat="43.63668" lon="6.74615">
        <ele>375.91839599609</ele>
        <time>2011-03-06T09:22:29Z</time>
      </trkpt>
      <trkpt lat="43.63668" lon="6.74632">
        <ele>376.32437133789</ele>
        <time>2011-03-06T09:22:33Z</time>
      </trkpt>
      <trkpt lat="43.63659" lon="6.74646">
        <ele>376.85180664062</ele>
        <time>2011-03-06T09:22:38Z</time>
      </trkpt>
      <trkpt lat="43.63656" lon="6.74651">
        <ele>377.11260986328</ele>
        <time>2011-03-06T09:22:40Z</time>
      </trkpt>
      <trkpt lat="43.63649" lon="6.74662">
        <ele>377.58309936523</ele>
        <time>2011-03-06T09:22:46Z</time>
      </trkpt>
      <trkpt lat="43.63647" lon="6.74667">
        <ele>377.70550537109</ele>
        <time>2011-03-06T09:22:50Z</time>
      </trkpt>
      <trkpt lat="43.63646" lon="6.74677">
        <ele>377.91439819336</ele>
        <time>2011-03-06T09:22:57Z</time>
      </trkpt>
      <trkpt lat="43.6364" lon="6.74697">
        <ele>378.34204101562</ele>
        <time>2011-03-06T09:23:03Z</time>
      </trkpt>
      <trkpt lat="43.63637" lon="6.74713">
        <ele>378.58514404297</ele>
        <time>2011-03-06T09:23:08Z</time>
      </trkpt>
      <trkpt lat="43.63629" lon="6.74731">
        <ele>378.85629272461</ele>
        <time>2011-03-06T09:23:14Z</time>
      </trkpt>
      <trkpt lat="43.63614" lon="6.74739">
        <ele>378.98861694336</ele>
        <time>2011-03-06T09:23:19Z</time>
      </trkpt>
      <trkpt lat="43.63602" lon="6.74749">
        <ele>379.00360107422</ele>
        <time>2011-03-06T09:23:24Z</time>
      </trkpt>
      <trkpt lat="43.63596" lon="6.74761">
        <ele>379.29635620117</ele>
        <time>2011-03-06T09:23:31Z</time>
      </trkpt>
      <trkpt lat="43.63596" lon="6.74761">
        <ele>379.3161315918</ele>
        <time>2011-03-06T09:23:32Z</time>
      </trkpt>
      <trkpt lat="43.63592" lon="6.74768">
        <ele>379.46807861328</ele>
        <time>2011-03-06T09:23:36Z</time>
      </trkpt>
      <trkpt lat="43.6359" lon="6.74773">
        <ele>379.60699462891</ele>
        <time>2011-03-06T09:23:38Z</time>
      </trkpt>
      <trkpt lat="43.63592" lon="6.74785">
        <ele>379.92868041992</ele>
        <time>2011-03-06T09:23:44Z</time>
      </trkpt>
      <trkpt lat="43.63596" lon="6.74787">
        <ele>380.00662231445</ele>
        <time>2011-03-06T09:23:46Z</time>
      </trkpt>
      <trkpt lat="43.63601" lon="6.74791">
        <ele>380.20877075195</ele>
        <time>2011-03-06T09:23:51Z</time>
      </trkpt>
      <trkpt lat="43.63609" lon="6.74803">
        <ele>380.67065429688</ele>
        <time>2011-03-06T09:23:56Z</time>
      </trkpt>
      <trkpt lat="43.63618" lon="6.74805">
        <ele>380.88583374023</ele>
        <time>2011-03-06T09:24:01Z</time>
      </trkpt>
      <trkpt lat="43.6362" lon="6.74806">
        <ele>380.92733764648</ele>
        <time>2011-03-06T09:24:02Z</time>
      </trkpt>
      <trkpt lat="43.63637" lon="6.74806">
        <ele>381.18997192383</ele>
        <time>2011-03-06T09:24:08Z</time>
      </trkpt>
      <trkpt lat="43.63656" lon="6.74801">
        <ele>381.29843139648</ele>
        <time>2011-03-06T09:24:14Z</time>
      </trkpt>
      <trkpt lat="43.63675" lon="6.74797">
        <ele>382.23168945312</ele>
        <time>2011-03-06T09:24:20Z</time>
      </trkpt>
      <trkpt lat="43.63696" lon="6.74792">
        <ele>384.48159790039</ele>
        <time>2011-03-06T09:24:26Z</time>
      </trkpt>
      <trkpt lat="43.63717" lon="6.74788">
        <ele>386.8528137207</ele>
        <time>2011-03-06T09:24:32Z</time>
      </trkpt>
      <trkpt lat="43.63738" lon="6.74785">
        <ele>389.21716308594</ele>
        <time>2011-03-06T09:24:38Z</time>
      </trkpt>
      <trkpt lat="43.63754" lon="6.74785">
        <ele>390.71173095703</ele>
        <time>2011-03-06T09:24:43Z</time>
      </trkpt>
      <trkpt lat="43.63758" lon="6.74786">
        <ele>390.80557250977</ele>
        <time>2011-03-06T09:24:48Z</time>
      </trkpt>
      <trkpt lat="43.63765" lon="6.74787">
        <ele>390.88000488281</ele>
        <time>2011-03-06T09:25:17Z</time>
      </trkpt>
      <trkpt lat="43.63769" lon="6.74786">
        <ele>390.83410644531</ele>
        <time>2011-03-06T09:25:37Z</time>
      </trkpt>
      <trkpt lat="43.6379" lon="6.74781">
        <ele>390.76892089844</ele>
        <time>2011-03-06T09:25:44Z</time>
      </trkpt>
      <trkpt lat="43.63807" lon="6.74781">
        <ele>390.92880249023</ele>
        <time>2011-03-06T09:25:49Z</time>
      </trkpt>
      <trkpt lat="43.6381" lon="6.74785">
        <ele>391.07943725586</ele>
        <time>2011-03-06T09:25:50Z</time>
      </trkpt>
      <trkpt lat="43.63818" lon="6.74798">
        <ele>391.65396118164</ele>
        <time>2011-03-06T09:25:55Z</time>
      </trkpt>
      <trkpt lat="43.63828" lon="6.74806">
        <ele>391.99368286133</ele>
        <time>2011-03-06T09:25:59Z</time>
      </trkpt>
      <trkpt lat="43.63848" lon="6.74816">
        <ele>392.05142211914</ele>
        <time>2011-03-06T09:26:06Z</time>
      </trkpt>
      <trkpt lat="43.63852" lon="6.74821">
        <ele>392.1637878418</ele>
        <time>2011-03-06T09:26:11Z</time>
      </trkpt>
      <trkpt lat="43.63858" lon="6.74832">
        <ele>392.38269042969</ele>
        <time>2011-03-06T09:26:16Z</time>
      </trkpt>
      <trkpt lat="43.63871" lon="6.74847">
        <ele>392.42123413086</ele>
        <time>2011-03-06T09:26:21Z</time>
      </trkpt>
      <trkpt lat="43.63883" lon="6.74867">
        <ele>392.62036132812</ele>
        <time>2011-03-06T09:26:26Z</time>
      </trkpt>
      <trkpt lat="43.63875" lon="6.74887">
        <ele>393.28756713867</ele>
        <time>2011-03-06T09:26:30Z</time>
      </trkpt>
      <trkpt lat="43.6387" lon="6.74913">
        <ele>394.04287719727</ele>
        <time>2011-03-06T09:26:35Z</time>
      </trkpt>
      <trkpt lat="43.63877" lon="6.7493">
        <ele>394.29006958008</ele>
        <time>2011-03-06T09:26:39Z</time>
      </trkpt>
      <trkpt lat="43.63886" lon="6.74946">
        <ele>394.44454956055</ele>
        <time>2011-03-06T09:26:44Z</time>
      </trkpt>
      <trkpt lat="43.63898" lon="6.74962">
        <ele>394.53839111328</ele>
        <time>2011-03-06T09:26:48Z</time>
      </trkpt>
      <trkpt lat="43.63918" lon="6.7498">
        <ele>394.47186279297</ele>
        <time>2011-03-06T09:26:54Z</time>
      </trkpt>
      <trkpt lat="43.63922" lon="6.74983">
        <ele>394.46203613281</ele>
        <time>2011-03-06T09:26:55Z</time>
      </trkpt>
      <trkpt lat="43.63945" lon="6.74996">
        <ele>394.19125366211</ele>
        <time>2011-03-06T09:27:01Z</time>
      </trkpt>
      <trkpt lat="43.63956" lon="6.75001">
        <ele>394.10067749023</ele>
        <time>2011-03-06T09:27:06Z</time>
      </trkpt>
      <trkpt lat="43.63957" lon="6.75002">
        <ele>394.08865356445</ele>
        <time>2011-03-06T09:27:07Z</time>
      </trkpt>
      <trkpt lat="43.63964" lon="6.75007">
        <ele>394.10983276367</ele>
        <time>2011-03-06T09:27:11Z</time>
      </trkpt>
      <trkpt lat="43.63968" lon="6.75009">
        <ele>394.10525512695</ele>
        <time>2011-03-06T09:27:14Z</time>
      </trkpt>
      <trkpt lat="43.63971" lon="6.7501">
        <ele>394.0520324707</ele>
        <time>2011-03-06T09:27:19Z</time>
      </trkpt>
      <trkpt lat="43.63974" lon="6.75015">
        <ele>394.15444946289</ele>
        <time>2011-03-06T09:27:23Z</time>
      </trkpt>
      <trkpt lat="43.63978" lon="6.7502">
        <ele>394.24084472656</ele>
        <time>2011-03-06T09:27:26Z</time>
      </trkpt>
      <trkpt lat="43.63984" lon="6.75035">
        <ele>394.65686035156</ele>
        <time>2011-03-06T09:27:31Z</time>
      </trkpt>
      <trkpt lat="43.63985" lon="6.7504">
        <ele>394.80218505859</ele>
        <time>2011-03-06T09:27:33Z</time>
      </trkpt>
      <trkpt lat="43.63995" lon="6.75051">
        <ele>394.96469116211</ele>
        <time>2011-03-06T09:27:38Z</time>
      </trkpt>
      <trkpt lat="43.64003" lon="6.75062">
        <ele>395.21286010742</ele>
        <time>2011-03-06T09:27:44Z</time>
      </trkpt>
      <trkpt lat="43.64015" lon="6.75064">
        <ele>395.12646484375</ele>
        <time>2011-03-06T09:27:49Z</time>
      </trkpt>
      <trkpt lat="43.64019" lon="6.75066">
        <ele>395.15966796875</ele>
        <time>2011-03-06T09:27:50Z</time>
      </trkpt>
      <trkpt lat="43.64031" lon="6.7508">
        <ele>395.50354003906</ele>
        <time>2011-03-06T09:27:54Z</time>
      </trkpt>
      <trkpt lat="43.6404" lon="6.7508">
        <ele>395.39770507812</ele>
        <time>2011-03-06T09:27:59Z</time>
      </trkpt>
      <trkpt lat="43.64046" lon="6.75083">
        <ele>395.44119262695</ele>
        <time>2011-03-06T09:28:02Z</time>
      </trkpt>
      <trkpt lat="43.64058" lon="6.75094">
        <ele>395.81161499023</ele>
        <time>2011-03-06T09:28:07Z</time>
      </trkpt>
      <trkpt lat="43.64071" lon="6.75105">
        <ele>396.18240356445</ele>
        <time>2011-03-06T09:28:12Z</time>
      </trkpt>
      <trkpt lat="43.64083" lon="6.75118">
        <ele>396.68365478516</ele>
        <time>2011-03-06T09:28:17Z</time>
      </trkpt>
      <trkpt lat="43.64095" lon="6.75135">
        <ele>397.36212158203</ele>
        <time>2011-03-06T09:28:21Z</time>
      </trkpt>
      <trkpt lat="43.6411" lon="6.7516">
        <ele>398.13067626953</ele>
        <time>2011-03-06T09:28:26Z</time>
      </trkpt>
      <trkpt lat="43.64124" lon="6.75168">
        <ele>398.06744384766</ele>
        <time>2011-03-06T09:28:30Z</time>
      </trkpt>
      <trkpt lat="43.64127" lon="6.7517">
        <ele>398.02563476562</ele>
        <time>2011-03-06T09:28:31Z</time>
      </trkpt>
      <trkpt lat="43.64148" lon="6.75184">
        <ele>397.76525878906</ele>
        <time>2011-03-06T09:28:38Z</time>
      </trkpt>
      <trkpt lat="43.6415" lon="6.75186">
        <ele>397.72927856445</ele>
        <time>2011-03-06T09:28:39Z</time>
      </trkpt>
      <trkpt lat="43.64165" lon="6.75203">
        <ele>397.4833984375</ele>
        <time>2011-03-06T09:28:46Z</time>
      </trkpt>
      <trkpt lat="43.64181" lon="6.75217">
        <ele>397.91674804688</ele>
        <time>2011-03-06T09:28:53Z</time>
      </trkpt>
      <trkpt lat="43.64193" lon="6.75238">
        <ele>398.26049804688</ele>
        <time>2011-03-06T09:28:58Z</time>
      </trkpt>
      <trkpt lat="43.64205" lon="6.75265">
        <ele>398.55718994141</ele>
        <time>2011-03-06T09:29:03Z</time>
      </trkpt>
      <trkpt lat="43.64219" lon="6.75303">
        <ele>398.86764526367</ele>
        <time>2011-03-06T09:29:10Z</time>
      </trkpt>
      <trkpt lat="43.64232" lon="6.75338">
        <ele>398.98849487305</ele>
        <time>2011-03-06T09:29:15Z</time>
      </trkpt>
      <trkpt lat="43.64248" lon="6.75371">
        <ele>398.98849487305</ele>
        <time>2011-03-06T09:29:20Z</time>
      </trkpt>
      <trkpt lat="43.64266" lon="6.7541">
        <ele>399.19445800781</ele>
        <time>2011-03-06T09:29:25Z</time>
      </trkpt>
      <trkpt lat="43.64285" lon="6.75428">
        <ele>399.42333984375</ele>
        <time>2011-03-06T09:29:29Z</time>
      </trkpt>
      <trkpt lat="43.64298" lon="6.75428">
        <ele>399.57897949219</ele>
        <time>2011-03-06T09:29:31Z</time>
      </trkpt>
      <trkpt lat="43.64311" lon="6.75429">
        <ele>399.73461914062</ele>
        <time>2011-03-06T09:29:33Z</time>
      </trkpt>
      <trkpt lat="43.64334" lon="6.75441">
        <ele>400</ele>
        <time>2011-03-06T09:29:37Z</time>
      </trkpt>
      <trkpt lat="43.64364" lon="6.75483">
        <ele>400</ele>
        <time>2011-03-06T09:29:43Z</time>
      </trkpt>
      <trkpt lat="43.64373" lon="6.75498">
        <ele>400</ele>
        <time>2011-03-06T09:29:45Z</time>
      </trkpt>
      <trkpt lat="43.64383" lon="6.7552">
        <ele>400</ele>
        <time>2011-03-06T09:29:48Z</time>
      </trkpt>
      <trkpt lat="43.64386" lon="6.75534">
        <ele>400</ele>
        <time>2011-03-06T09:29:50Z</time>
      </trkpt>
      <trkpt lat="43.64391" lon="6.75563">
        <ele>400</ele>
        <time>2011-03-06T09:29:55Z</time>
      </trkpt>
      <trkpt lat="43.64398" lon="6.75582">
        <ele>400</ele>
        <time>2011-03-06T09:29:58Z</time>
      </trkpt>
      <trkpt lat="43.64415" lon="6.7563">
        <ele>400</ele>
        <time>2011-03-06T09:30:05Z</time>
      </trkpt>
      <trkpt lat="43.64418" lon="6.75637">
        <ele>400.01177978516</ele>
        <time>2011-03-06T09:30:06Z</time>
      </trkpt>
      <trkpt lat="43.64424" lon="6.75649">
        <ele>400.08502197266</ele>
        <time>2011-03-06T09:30:08Z</time>
      </trkpt>
      <trkpt lat="43.64433" lon="6.75669">
        <ele>400.19030761719</ele>
        <time>2011-03-06T09:30:13Z</time>
      </trkpt>
      <trkpt lat="43.64436" lon="6.7568">
        <ele>400.23150634766</ele>
        <time>2011-03-06T09:30:18Z</time>
      </trkpt>
      <trkpt lat="43.64437" lon="6.75684">
        <ele>400.24523925781</ele>
        <time>2011-03-06T09:30:28Z</time>
      </trkpt>
      <trkpt lat="43.64438" lon="6.75686">
        <ele>400.25897216797</ele>
        <time>2011-03-06T09:30:42Z</time>
      </trkpt>
      <trkpt lat="43.64439" lon="6.75688">
        <ele>400.27270507812</ele>
        <time>2011-03-06T09:30:50Z</time>
      </trkpt>
      <trkpt lat="43.64438" lon="6.75693">
        <ele>400.25439453125</ele>
        <time>2011-03-06T09:30:57Z</time>
      </trkpt>
      <trkpt lat="43.64437" lon="6.75695">
        <ele>400.24066162109</ele>
        <time>2011-03-06T09:31:09Z</time>
      </trkpt>
      <trkpt lat="43.64437" lon="6.75698">
        <ele>400.24066162109</ele>
        <time>2011-03-06T09:31:25Z</time>
      </trkpt>
      <trkpt lat="43.64437" lon="6.75703">
        <ele>400.24981689453</ele>
        <time>2011-03-06T09:31:48Z</time>
      </trkpt>
      <trkpt lat="43.64439" lon="6.75702">
        <ele>400.26354980469</ele>
        <time>2011-03-06T09:32:14Z</time>
      </trkpt>
      <trkpt lat="43.64438" lon="6.75704">
        <ele>400.25897216797</ele>
        <time>2011-03-06T09:32:19Z</time>
      </trkpt>
      <trkpt lat="43.64437" lon="6.75706">
        <ele>400.24523925781</ele>
        <time>2011-03-06T09:32:26Z</time>
      </trkpt>
      <trkpt lat="43.64436" lon="6.7571">
        <ele>400.23150634766</ele>
        <time>2011-03-06T09:32:35Z</time>
      </trkpt>
      <trkpt lat="43.64435" lon="6.75718">
        <ele>400.2177734375</ele>
        <time>2011-03-06T09:32:41Z</time>
      </trkpt>
      <trkpt lat="43.64434" lon="6.75719">
        <ele>400.21319580078</ele>
        <time>2011-03-06T09:32:42Z</time>
      </trkpt>
      <trkpt lat="43.64434" lon="6.75727">
        <ele>400.20404052734</ele>
        <time>2011-03-06T09:32:46Z</time>
      </trkpt>
      <trkpt lat="43.64431" lon="6.75744">
        <ele>400.17199707031</ele>
        <time>2011-03-06T09:32:52Z</time>
      </trkpt>
      <trkpt lat="43.64428" lon="6.75763">
        <ele>400.13079833984</ele>
        <time>2011-03-06T09:32:57Z</time>
      </trkpt>
      <trkpt lat="43.64428" lon="6.75771">
        <ele>400.13537597656</ele>
        <time>2011-03-06T09:33:01Z</time>
      </trkpt>
      <trkpt lat="43.64427" lon="6.75774">
        <ele>400.12622070312</ele>
        <time>2011-03-06T09:33:11Z</time>
      </trkpt>
      <trkpt lat="43.64426" lon="6.75779">
        <ele>400.11248779297</ele>
        <time>2011-03-06T09:33:25Z</time>
      </trkpt>
      <trkpt lat="43.64426" lon="6.75782">
        <ele>400.11706542969</ele>
        <time>2011-03-06T09:33:34Z</time>
      </trkpt>
      <trkpt lat="43.64426" lon="6.75784">
        <ele>400.11706542969</ele>
        <time>2011-03-06T09:33:40Z</time>
      </trkpt>
      <trkpt lat="43.6442" lon="6.7579">
        <ele>400.04382324219</ele>
        <time>2011-03-06T09:33:45Z</time>
      </trkpt>
      <trkpt lat="43.64416" lon="6.75791">
        <ele>400</ele>
        <time>2011-03-06T09:33:50Z</time>
      </trkpt>
      <trkpt lat="43.64412" lon="6.75792">
        <ele>400</ele>
        <time>2011-03-06T09:33:56Z</time>
      </trkpt>
      <trkpt lat="43.64409" lon="6.75795">
        <ele>400</ele>
        <time>2011-03-06T09:34:03Z</time>
      </trkpt>
      <trkpt lat="43.64408" lon="6.75804">
        <ele>400</ele>
        <time>2011-03-06T09:34:09Z</time>
      </trkpt>
      <trkpt lat="43.64409" lon="6.75809">
        <ele>400</ele>
        <time>2011-03-06T09:34:12Z</time>
      </trkpt>
      <trkpt lat="43.64408" lon="6.75819">
        <ele>400</ele>
        <time>2011-03-06T09:34:19Z</time>
      </trkpt>
      <trkpt lat="43.64405" lon="6.75832">
        <ele>400</ele>
        <time>2011-03-06T09:34:25Z</time>
      </trkpt>
      <trkpt lat="43.64405" lon="6.75842">
        <ele>400</ele>
        <time>2011-03-06T09:34:28Z</time>
      </trkpt>
      <trkpt lat="43.64408" lon="6.75859">
        <ele>400</ele>
        <time>2011-03-06T09:34:34Z</time>
      </trkpt>
      <trkpt lat="43.64416" lon="6.75876">
        <ele>400</ele>
        <time>2011-03-06T09:34:40Z</time>
      </trkpt>
      <trkpt lat="43.64424" lon="6.75891">
        <ele>400.15203857422</ele>
        <time>2011-03-06T09:34:46Z</time>
      </trkpt>
      <trkpt lat="43.64436" lon="6.75895">
        <ele>400.40393066406</ele>
        <time>2011-03-06T09:34:51Z</time>
      </trkpt>
      <trkpt lat="43.64456" lon="6.75899">
        <ele>400.84817504883</ele>
        <time>2011-03-06T09:34:58Z</time>
      </trkpt>
      <trkpt lat="43.64473" lon="6.75899">
        <ele>401.20336914062</ele>
        <time>2011-03-06T09:35:04Z</time>
      </trkpt>
      <trkpt lat="43.64479" lon="6.75902">
        <ele>401.36026000977</ele>
        <time>2011-03-06T09:35:10Z</time>
      </trkpt>
      <trkpt lat="43.64484" lon="6.75903">
        <ele>401.47503662109</ele>
        <time>2011-03-06T09:35:15Z</time>
      </trkpt>
      <trkpt lat="43.64485" lon="6.75903">
        <ele>401.50442504883</ele>
        <time>2011-03-06T09:35:21Z</time>
      </trkpt>
      <trkpt lat="43.64484" lon="6.759">
        <ele>401.46252441406</ele>
        <time>2011-03-06T09:35:36Z</time>
      </trkpt>
      <trkpt lat="43.64488" lon="6.759">
        <ele>401.53958129883</ele>
        <time>2011-03-06T09:35:47Z</time>
      </trkpt>
      <trkpt lat="43.64491" lon="6.75905">
        <ele>401.64904785156</ele>
        <time>2011-03-06T09:35:51Z</time>
      </trkpt>
      <trkpt lat="43.64491" lon="6.75907">
        <ele>401.67391967773</ele>
        <time>2011-03-06T09:35:52Z</time>
      </trkpt>
      <trkpt lat="43.64493" lon="6.7592">
        <ele>401.87680053711</ele>
        <time>2011-03-06T09:35:58Z</time>
      </trkpt>
      <trkpt lat="43.64495" lon="6.75925">
        <ele>401.98382568359</ele>
        <time>2011-03-06T09:36:03Z</time>
      </trkpt>
      <trkpt lat="43.64496" lon="6.75927">
        <ele>402.01571655273</ele>
        <time>2011-03-06T09:36:09Z</time>
      </trkpt>
      <trkpt lat="43.64496" lon="6.75932">
        <ele>402.07659912109</ele>
        <time>2011-03-06T09:36:18Z</time>
      </trkpt>
      <trkpt lat="43.64498" lon="6.75937">
        <ele>402.18063354492</ele>
        <time>2011-03-06T09:36:23Z</time>
      </trkpt>
      <trkpt lat="43.64502" lon="6.75938">
        <ele>402.44964599609</ele>
        <time>2011-03-06T09:36:29Z</time>
      </trkpt>
      <trkpt lat="43.64509" lon="6.75936">
        <ele>402.97378540039</ele>
        <time>2011-03-06T09:36:35Z</time>
      </trkpt>
      <trkpt lat="43.64512" lon="6.75944">
        <ele>403.35314941406</ele>
        <time>2011-03-06T09:36:40Z</time>
      </trkpt>
      <trkpt lat="43.64516" lon="6.75951">
        <ele>403.7336730957</ele>
        <time>2011-03-06T09:36:43Z</time>
      </trkpt>
      <trkpt lat="43.64527" lon="6.75959">
        <ele>404.7590637207</ele>
        <time>2011-03-06T09:36:48Z</time>
      </trkpt>
      <trkpt lat="43.64524" lon="6.75976">
        <ele>404.70413208008</ele>
        <time>2011-03-06T09:36:54Z</time>
      </trkpt>
      <trkpt lat="43.6452" lon="6.75984">
        <ele>404.44436645508</ele>
        <time>2011-03-06T09:36:57Z</time>
      </trkpt>
      <trkpt lat="43.64518" lon="6.75993">
        <ele>404.46322631836</ele>
        <time>2011-03-06T09:37:00Z</time>
      </trkpt>
      <trkpt lat="43.64524" lon="6.76007">
        <ele>405.01486206055</ele>
        <time>2011-03-06T09:37:05Z</time>
      </trkpt>
      <trkpt lat="43.64522" lon="6.76013">
        <ele>404.87078857422</ele>
        <time>2011-03-06T09:37:07Z</time>
      </trkpt>
      <trkpt lat="43.64526" lon="6.76033">
        <ele>405.34075927734</ele>
        <time>2011-03-06T09:37:12Z</time>
      </trkpt>
      <trkpt lat="43.64531" lon="6.76049">
        <ele>405.81790161133</ele>
        <time>2011-03-06T09:37:17Z</time>
      </trkpt>
      <trkpt lat="43.64533" lon="6.76049">
        <ele>406.02746582031</ele>
        <time>2011-03-06T09:37:18Z</time>
      </trkpt>
      <trkpt lat="43.64561" lon="6.76044">
        <ele>408.4807434082</ele>
        <time>2011-03-06T09:37:27Z</time>
      </trkpt>
      <trkpt lat="43.64584" lon="6.76041">
        <ele>410.54928588867</ele>
        <time>2011-03-06T09:37:34Z</time>
      </trkpt>
      <trkpt lat="43.64602" lon="6.76042">
        <ele>412.05996704102</ele>
        <time>2011-03-06T09:37:39Z</time>
      </trkpt>
      <trkpt lat="43.64617" lon="6.76053">
        <ele>413.36572265625</ele>
        <time>2011-03-06T09:37:44Z</time>
      </trkpt>
      <trkpt lat="43.64628" lon="6.7606">
        <ele>414.25387573242</ele>
        <time>2011-03-06T09:37:49Z</time>
      </trkpt>
      <trkpt lat="43.64642" lon="6.76068">
        <ele>415.26550292969</ele>
        <time>2011-03-06T09:37:55Z</time>
      </trkpt>
      <trkpt lat="43.64652" lon="6.76081">
        <ele>415.9557800293</ele>
        <time>2011-03-06T09:38:00Z</time>
      </trkpt>
      <trkpt lat="43.64663" lon="6.76097">
        <ele>417.06713867188</ele>
        <time>2011-03-06T09:38:06Z</time>
      </trkpt>
      <trkpt lat="43.64669" lon="6.76107">
        <ele>417.83441162109</ele>
        <time>2011-03-06T09:38:11Z</time>
      </trkpt>
      <trkpt lat="43.64672" lon="6.76123">
        <ele>418.68682861328</ele>
        <time>2011-03-06T09:38:18Z</time>
      </trkpt>
      <trkpt lat="43.64672" lon="6.76123">
        <ele>418.70690917969</ele>
        <time>2011-03-06T09:38:24Z</time>
      </trkpt>
      <trkpt lat="43.64672" lon="6.76125">
        <ele>418.80328369141</ele>
        <time>2011-03-06T09:38:27Z</time>
      </trkpt>
      <trkpt lat="43.6467" lon="6.76142">
        <ele>418.84164428711</ele>
        <time>2011-03-06T09:38:32Z</time>
      </trkpt>
      <trkpt lat="43.64671" lon="6.76168">
        <ele>419.701171875</ele>
        <time>2011-03-06T09:38:38Z</time>
      </trkpt>
      <trkpt lat="43.64674" lon="6.76186">
        <ele>421.02182006836</ele>
        <time>2011-03-06T09:38:43Z</time>
      </trkpt>
      <trkpt lat="43.64682" lon="6.76206">
        <ele>423.07717895508</ele>
        <time>2011-03-06T09:38:49Z</time>
      </trkpt>
      <trkpt lat="43.64692" lon="6.76219">
        <ele>425.10049438477</ele>
        <time>2011-03-06T09:38:55Z</time>
      </trkpt>
      <trkpt lat="43.64704" lon="6.76229">
        <ele>427.4030456543</ele>
        <time>2011-03-06T09:39:01Z</time>
      </trkpt>
      <trkpt lat="43.64716" lon="6.76238">
        <ele>429.46755981445</ele>
        <time>2011-03-06T09:39:07Z</time>
      </trkpt>
      <trkpt lat="43.64725" lon="6.76252">
        <ele>431.47943115234</ele>
        <time>2011-03-06T09:39:13Z</time>
      </trkpt>
      <trkpt lat="43.64726" lon="6.76271">
        <ele>432.5803527832</ele>
        <time>2011-03-06T09:39:20Z</time>
      </trkpt>
      <trkpt lat="43.64726" lon="6.76286">
        <ele>433.33108520508</ele>
        <time>2011-03-06T09:39:26Z</time>
      </trkpt>
      <trkpt lat="43.64725" lon="6.76305">
        <ele>433.9833984375</ele>
        <time>2011-03-06T09:39:33Z</time>
      </trkpt>
      <trkpt lat="43.64722" lon="6.76326">
        <ele>434.66546630859</ele>
        <time>2011-03-06T09:39:41Z</time>
      </trkpt>
      <trkpt lat="43.64719" lon="6.76345">
        <ele>435.33337402344</ele>
        <time>2011-03-06T09:39:48Z</time>
      </trkpt>
      <trkpt lat="43.64711" lon="6.76368">
        <ele>435.41418457031</ele>
        <time>2011-03-06T09:39:56Z</time>
      </trkpt>
      <trkpt lat="43.64704" lon="6.76382">
        <ele>435.19125366211</ele>
        <time>2011-03-06T09:40:01Z</time>
      </trkpt>
      <trkpt lat="43.64699" lon="6.76395">
        <ele>435.18035888672</ele>
        <time>2011-03-06T09:40:06Z</time>
      </trkpt>
      <trkpt lat="43.64696" lon="6.76415">
        <ele>435.78305053711</ele>
        <time>2011-03-06T09:40:12Z</time>
      </trkpt>
      <trkpt lat="43.64696" lon="6.7644">
        <ele>437.06439208984</ele>
        <time>2011-03-06T09:40:19Z</time>
      </trkpt>
      <trkpt lat="43.64693" lon="6.76469">
        <ele>437.84576416016</ele>
        <time>2011-03-06T09:40:28Z</time>
      </trkpt>
      <trkpt lat="43.64685" lon="6.76492">
        <ele>437.45690917969</ele>
        <time>2011-03-06T09:40:35Z</time>
      </trkpt>
      <trkpt lat="43.64676" lon="6.76517">
        <ele>436.55914306641</ele>
        <time>2011-03-06T09:40:43Z</time>
      </trkpt>
      <trkpt lat="43.64671" lon="6.76543">
        <ele>436.37716674805</ele>
        <time>2011-03-06T09:40:51Z</time>
      </trkpt>
      <trkpt lat="43.64668" lon="6.76563">
        <ele>436.43688964844</ele>
        <time>2011-03-06T09:40:57Z</time>
      </trkpt>
      <trkpt lat="43.64664" lon="6.76588">
        <ele>436.70581054688</ele>
        <time>2011-03-06T09:41:03Z</time>
      </trkpt>
      <trkpt lat="43.64663" lon="6.76613">
        <ele>437.32723999023</ele>
        <time>2011-03-06T09:41:08Z</time>
      </trkpt>
      <trkpt lat="43.64665" lon="6.76642">
        <ele>438.8395690918</ele>
        <time>2011-03-06T09:41:13Z</time>
      </trkpt>
      <trkpt lat="43.64681" lon="6.7666">
        <ele>442.01440429688</ele>
        <time>2011-03-06T09:41:18Z</time>
      </trkpt>
      <trkpt lat="43.64704" lon="6.76682">
        <ele>445.98291015625</ele>
        <time>2011-03-06T09:41:24Z</time>
      </trkpt>
      <trkpt lat="43.64727" lon="6.76702">
        <ele>449.70446777344</ele>
        <time>2011-03-06T09:41:31Z</time>
      </trkpt>
      <trkpt lat="43.64744" lon="6.76712">
        <ele>452.11529541016</ele>
        <time>2011-03-06T09:41:36Z</time>
      </trkpt>
      <trkpt lat="43.64761" lon="6.76722">
        <ele>454.84484863281</ele>
        <time>2011-03-06T09:41:41Z</time>
      </trkpt>
      <trkpt lat="43.64765" lon="6.76733">
        <ele>455.47454833984</ele>
        <time>2011-03-06T09:41:45Z</time>
      </trkpt>
      <trkpt lat="43.64768" lon="6.76759">
        <ele>455.8639831543</ele>
        <time>2011-03-06T09:41:50Z</time>
      </trkpt>
      <trkpt lat="43.64775" lon="6.76784">
        <ele>457.25567626953</ele>
        <time>2011-03-06T09:41:56Z</time>
      </trkpt>
      <trkpt lat="43.64782" lon="6.76799">
        <ele>458.34677124023</ele>
        <time>2011-03-06T09:42:01Z</time>
      </trkpt>
      <trkpt lat="43.64786" lon="6.76818">
        <ele>459.04202270508</ele>
        <time>2011-03-06T09:42:07Z</time>
      </trkpt>
      <trkpt lat="43.64788" lon="6.76834">
        <ele>459.48568725586</ele>
        <time>2011-03-06T09:42:13Z</time>
      </trkpt>
      <trkpt lat="43.64795" lon="6.76854">
        <ele>460.9231262207</ele>
        <time>2011-03-06T09:42:19Z</time>
      </trkpt>
      <trkpt lat="43.64806" lon="6.76876">
        <ele>463.20266723633</ele>
        <time>2011-03-06T09:42:26Z</time>
      </trkpt>
      <trkpt lat="43.64819" lon="6.76889">
        <ele>465.76519775391</ele>
        <time>2011-03-06T09:42:32Z</time>
      </trkpt>
      <trkpt lat="43.64821" lon="6.76891">
        <ele>466.12316894531</ele>
        <time>2011-03-06T09:42:33Z</time>
      </trkpt>
      <trkpt lat="43.64833" lon="6.7689">
        <ele>467.92761230469</ele>
        <time>2011-03-06T09:42:38Z</time>
      </trkpt>
      <trkpt lat="43.64841" lon="6.76888">
        <ele>469.28179931641</ele>
        <time>2011-03-06T09:42:42Z</time>
      </trkpt>
      <trkpt lat="43.64853" lon="6.76883">
        <ele>470.9016418457</ele>
        <time>2011-03-06T09:42:48Z</time>
      </trkpt>
      <trkpt lat="43.64864" lon="6.76877">
        <ele>472.54064941406</ele>
        <time>2011-03-06T09:42:55Z</time>
      </trkpt>
      <trkpt lat="43.64873" lon="6.76875">
        <ele>473.89886474609</ele>
        <time>2011-03-06T09:42:59Z</time>
      </trkpt>
      <trkpt lat="43.64874" lon="6.76881">
        <ele>474.39184570312</ele>
        <time>2011-03-06T09:43:03Z</time>
      </trkpt>
      <trkpt lat="43.64873" lon="6.76883">
        <ele>474.22872924805</ele>
        <time>2011-03-06T09:43:04Z</time>
      </trkpt>
      <trkpt lat="43.64862" lon="6.76904">
        <ele>473.24142456055</ele>
        <time>2011-03-06T09:43:10Z</time>
      </trkpt>
      <trkpt lat="43.64854" lon="6.76923">
        <ele>472.63760375977</ele>
        <time>2011-03-06T09:43:14Z</time>
      </trkpt>
      <trkpt lat="43.6484" lon="6.76945">
        <ele>470.79913330078</ele>
        <time>2011-03-06T09:43:19Z</time>
      </trkpt>
      <trkpt lat="43.64821" lon="6.76968">
        <ele>468.12216186523</ele>
        <time>2011-03-06T09:43:24Z</time>
      </trkpt>
      <trkpt lat="43.64802" lon="6.76985">
        <ele>465.10394287109</ele>
        <time>2011-03-06T09:43:28Z</time>
      </trkpt>
      <trkpt lat="43.64788" lon="6.77007">
        <ele>462.9853515625</ele>
        <time>2011-03-06T09:43:32Z</time>
      </trkpt>
      <trkpt lat="43.64783" lon="6.77041">
        <ele>462.1696472168</ele>
        <time>2011-03-06T09:43:38Z</time>
      </trkpt>
      <trkpt lat="43.64782" lon="6.77046">
        <ele>462.1276550293</ele>
        <time>2011-03-06T09:43:39Z</time>
      </trkpt>
      <trkpt lat="43.64782" lon="6.77057">
        <ele>462.20028686523</ele>
        <time>2011-03-06T09:43:41Z</time>
      </trkpt>
      <trkpt lat="43.64783" lon="6.77089">
        <ele>462.4294128418</ele>
        <time>2011-03-06T09:43:47Z</time>
      </trkpt>
      <trkpt lat="43.64783" lon="6.77093">
        <ele>462.40777587891</ele>
        <time>2011-03-06T09:43:48Z</time>
      </trkpt>
      <trkpt lat="43.64785" lon="6.77125">
        <ele>462.72506713867</ele>
        <time>2011-03-06T09:43:53Z</time>
      </trkpt>
      <trkpt lat="43.64788" lon="6.77164">
        <ele>463.40307617188</ele>
        <time>2011-03-06T09:43:58Z</time>
      </trkpt>
      <trkpt lat="43.64791" lon="6.772">
        <ele>464.53207397461</ele>
        <time>2011-03-06T09:44:03Z</time>
      </trkpt>
      <trkpt lat="43.64795" lon="6.77222">
        <ele>465.73858642578</ele>
        <time>2011-03-06T09:44:06Z</time>
      </trkpt>
      <trkpt lat="43.64799" lon="6.7724">
        <ele>467.51977539062</ele>
        <time>2011-03-06T09:44:09Z</time>
      </trkpt>
      <trkpt lat="43.64803" lon="6.7726">
        <ele>468.7744140625</ele>
        <time>2011-03-06T09:44:13Z</time>
      </trkpt>
      <trkpt lat="43.64807" lon="6.77292">
        <ele>470.22366333008</ele>
        <time>2011-03-06T09:44:19Z</time>
      </trkpt>
      <trkpt lat="43.64809" lon="6.7731">
        <ele>470.78884887695</ele>
        <time>2011-03-06T09:44:23Z</time>
      </trkpt>
      <trkpt lat="43.64804" lon="6.77327">
        <ele>469.12042236328</ele>
        <time>2011-03-06T09:44:27Z</time>
      </trkpt>
      <trkpt lat="43.64799" lon="6.77351">
        <ele>466.59097290039</ele>
        <time>2011-03-06T09:44:31Z</time>
      </trkpt>
      <trkpt lat="43.64796" lon="6.77363">
        <ele>465.08862304688</ele>
        <time>2011-03-06T09:44:33Z</time>
      </trkpt>
      <trkpt lat="43.64786" lon="6.77402">
        <ele>460.44107055664</ele>
        <time>2011-03-06T09:44:39Z</time>
      </trkpt>
      <trkpt lat="43.64784" lon="6.77409">
        <ele>459.56002807617</ele>
        <time>2011-03-06T09:44:40Z</time>
      </trkpt>
      <trkpt lat="43.64775" lon="6.77452">
        <ele>454.48733520508</ele>
        <time>2011-03-06T09:44:45Z</time>
      </trkpt>
      <trkpt lat="43.64768" lon="6.77472">
        <ele>451.27569580078</ele>
        <time>2011-03-06T09:44:47Z</time>
      </trkpt>
      <trkpt lat="43.64761" lon="6.77505">
        <ele>447.62121582031</ele>
        <time>2011-03-06T09:44:50Z</time>
      </trkpt>
      <trkpt lat="43.64762" lon="6.7754">
        <ele>446.37619018555</ele>
        <time>2011-03-06T09:44:53Z</time>
      </trkpt>
      <trkpt lat="43.64764" lon="6.776">
        <ele>444.81149291992</ele>
        <time>2011-03-06T09:44:58Z</time>
      </trkpt>
      <trkpt lat="43.64769" lon="6.77656">
        <ele>443.89794921875</ele>
        <time>2011-03-06T09:45:03Z</time>
      </trkpt>
      <trkpt lat="43.64769" lon="6.77668">
        <ele>443.50692749023</ele>
        <time>2011-03-06T09:45:04Z</time>
      </trkpt>
      <trkpt lat="43.64762" lon="6.77734">
        <ele>437.82159423828</ele>
        <time>2011-03-06T09:45:10Z</time>
      </trkpt>
      <trkpt lat="43.6475" lon="6.7779">
        <ele>428.34524536133</ele>
        <time>2011-03-06T09:45:15Z</time>
      </trkpt>
      <trkpt lat="43.64739" lon="6.77843">
        <ele>419.62359619141</ele>
        <time>2011-03-06T09:45:20Z</time>
      </trkpt>
      <trkpt lat="43.64737" lon="6.77852">
        <ele>417.51147460938</ele>
        <time>2011-03-06T09:45:21Z</time>
      </trkpt>
      <trkpt lat="43.64734" lon="6.77874">
        <ele>412.78341674805</ele>
        <time>2011-03-06T09:45:23Z</time>
      </trkpt>
      <trkpt lat="43.64737" lon="6.77904">
        <ele>405.36154174805</ele>
        <time>2011-03-06T09:45:26Z</time>
      </trkpt>
      <trkpt lat="43.6473" lon="6.77924">
        <ele>401.32315063477</ele>
        <time>2011-03-06T09:45:30Z</time>
      </trkpt>
      <trkpt lat="43.64721" lon="6.77916">
        <ele>405.59326171875</ele>
        <time>2011-03-06T09:45:33Z</time>
      </trkpt>
      <trkpt lat="43.64711" lon="6.77913">
        <ele>408.10134887695</ele>
        <time>2011-03-06T09:45:36Z</time>
      </trkpt>
      <trkpt lat="43.64706" lon="6.77913">
        <ele>409.02157592773</ele>
        <time>2011-03-06T09:45:40Z</time>
      </trkpt>
      <trkpt lat="43.64706" lon="6.77911">
        <ele>409.2900390625</ele>
        <time>2011-03-06T09:45:53Z</time>
      </trkpt>
      <trkpt lat="43.64702" lon="6.7791">
        <ele>410.1259765625</ele>
        <time>2011-03-06T09:46:00Z</time>
      </trkpt>
      <trkpt lat="43.647" lon="6.7791">
        <ele>410.55017089844</ele>
        <time>2011-03-06T09:46:07Z</time>
      </trkpt>
      <trkpt lat="43.64701" lon="6.77912">
        <ele>410.12118530273</ele>
        <time>2011-03-06T09:46:23Z</time>
      </trkpt>
      <trkpt lat="43.64705" lon="6.77922">
        <ele>407.07272338867</ele>
        <time>2011-03-06T09:49:46Z</time>
      </trkpt>
      <trkpt lat="43.64709" lon="6.77924">
        <ele>405.50219726562</ele>
        <time>2011-03-06T09:50:14Z</time>
      </trkpt>
      <trkpt lat="43.64707" lon="6.77926">
        <ele>405.17153930664</ele>
        <time>2011-03-06T09:50:26Z</time>
      </trkpt>
      <trkpt lat="43.64707" lon="6.77923">
        <ele>406.25567626953</ele>
        <time>2011-03-06T09:50:32Z</time>
      </trkpt>
      <trkpt lat="43.64696" lon="6.77916">
        <ele>410.40100097656</ele>
        <time>2011-03-06T09:50:37Z</time>
      </trkpt>
      <trkpt lat="43.64694" lon="6.77902">
        <ele>412.52136230469</ele>
        <time>2011-03-06T09:50:41Z</time>
      </trkpt>
      <trkpt lat="43.64692" lon="6.77885">
        <ele>415.02233886719</ele>
        <time>2011-03-06T09:50:48Z</time>
      </trkpt>
      <trkpt lat="43.64691" lon="6.77867">
        <ele>417.33505249023</ele>
        <time>2011-03-06T09:50:55Z</time>
      </trkpt>
      <trkpt lat="43.64683" lon="6.77855">
        <ele>419.06506347656</ele>
        <time>2011-03-06T09:51:00Z</time>
      </trkpt>
      <trkpt lat="43.6467" lon="6.77836">
        <ele>420.85015869141</ele>
        <time>2011-03-06T09:51:04Z</time>
      </trkpt>
      <trkpt lat="43.64651" lon="6.7781">
        <ele>421.07662963867</ele>
        <time>2011-03-06T09:51:08Z</time>
      </trkpt>
      <trkpt lat="43.64647" lon="6.77804">
        <ele>421.01849365234</ele>
        <time>2011-03-06T09:51:09Z</time>
      </trkpt>
      <trkpt lat="43.64639" lon="6.77796">
        <ele>420.85064697266</ele>
        <time>2011-03-06T09:51:13Z</time>
      </trkpt>
      <trkpt lat="43.64638" lon="6.77795">
        <ele>420.82998657227</ele>
        <time>2011-03-06T09:51:14Z</time>
      </trkpt>
      <trkpt lat="43.64631" lon="6.77786">
        <ele>420.58444213867</ele>
        <time>2011-03-06T09:51:20Z</time>
      </trkpt>
      <trkpt lat="43.64619" lon="6.77782">
        <ele>420.20718383789</ele>
        <time>2011-03-06T09:51:24Z</time>
      </trkpt>
      <trkpt lat="43.64616" lon="6.77782">
        <ele>420.10220336914</ele>
        <time>2011-03-06T09:51:25Z</time>
      </trkpt>
      <trkpt lat="43.64598" lon="6.77787">
        <ele>419.72613525391</ele>
        <time>2011-03-06T09:51:30Z</time>
      </trkpt>
      <trkpt lat="43.64587" lon="6.77795">
        <ele>419.69476318359</ele>
        <time>2011-03-06T09:51:36Z</time>
      </trkpt>
      <trkpt lat="43.64581" lon="6.77803">
        <ele>419.57104492188</ele>
        <time>2011-03-06T09:51:40Z</time>
      </trkpt>
      <trkpt lat="43.64574" lon="6.77806">
        <ele>418.53659057617</ele>
        <time>2011-03-06T09:51:43Z</time>
      </trkpt>
      <trkpt lat="43.64562" lon="6.77813">
        <ele>416.93032836914</ele>
        <time>2011-03-06T09:51:49Z</time>
      </trkpt>
      <trkpt lat="43.64552" lon="6.77817">
        <ele>415.49938964844</ele>
        <time>2011-03-06T09:51:52Z</time>
      </trkpt>
      <trkpt lat="43.64536" lon="6.77835">
        <ele>413.71493530273</ele>
        <time>2011-03-06T09:51:57Z</time>
      </trkpt>
      <trkpt lat="43.64519" lon="6.77852">
        <ele>411.78067016602</ele>
        <time>2011-03-06T09:52:01Z</time>
      </trkpt>
      <trkpt lat="43.64506" lon="6.77865">
        <ele>410.68850708008</ele>
        <time>2011-03-06T09:52:05Z</time>
      </trkpt>
      <trkpt lat="43.64489" lon="6.77884">
        <ele>409.58084106445</ele>
        <time>2011-03-06T09:52:10Z</time>
      </trkpt>
      <trkpt lat="43.64475" lon="6.7789">
        <ele>407.94467163086</ele>
        <time>2011-03-06T09:52:14Z</time>
      </trkpt>
      <trkpt lat="43.64466" lon="6.77889">
        <ele>406.79397583008</ele>
        <time>2011-03-06T09:52:19Z</time>
      </trkpt>
      <trkpt lat="43.64464" lon="6.77891">
        <ele>406.51931762695</ele>
        <time>2011-03-06T09:52:20Z</time>
      </trkpt>
      <trkpt lat="43.64447" lon="6.77901">
        <ele>404.39358520508</ele>
        <time>2011-03-06T09:52:25Z</time>
      </trkpt>
      <trkpt lat="43.64435" lon="6.77902">
        <ele>402.64169311523</ele>
        <time>2011-03-06T09:52:29Z</time>
      </trkpt>
      <trkpt lat="43.64417" lon="6.7791">
        <ele>400.03298950195</ele>
        <time>2011-03-06T09:52:34Z</time>
      </trkpt>
      <trkpt lat="43.64405" lon="6.77919">
        <ele>399.74905395508</ele>
        <time>2011-03-06T09:52:37Z</time>
      </trkpt>
      <trkpt lat="43.64391" lon="6.77921">
        <ele>399.4069519043</ele>
        <time>2011-03-06T09:52:40Z</time>
      </trkpt>
      <trkpt lat="43.64371" lon="6.77916">
        <ele>398.91577148438</ele>
        <time>2011-03-06T09:52:45Z</time>
      </trkpt>
      <trkpt lat="43.64363" lon="6.77913">
        <ele>398.72351074219</ele>
        <time>2011-03-06T09:52:49Z</time>
      </trkpt>
      <trkpt lat="43.64356" lon="6.77922">
        <ele>398.55758666992</ele>
        <time>2011-03-06T09:52:54Z</time>
      </trkpt>
      <trkpt lat="43.64354" lon="6.77926">
        <ele>398.53131103516</ele>
        <time>2011-03-06T09:52:55Z</time>
      </trkpt>
      <trkpt lat="43.64346" lon="6.77958">
        <ele>398.37808227539</ele>
        <time>2011-03-06T09:53:00Z</time>
      </trkpt>
      <trkpt lat="43.64343" lon="6.77978">
        <ele>398.32635498047</ele>
        <time>2011-03-06T09:53:03Z</time>
      </trkpt>
      <trkpt lat="43.64341" lon="6.78">
        <ele>398.28875732422</ele>
        <time>2011-03-06T09:53:07Z</time>
      </trkpt>
      <trkpt lat="43.64342" lon="6.78025">
        <ele>398.31622314453</ele>
        <time>2011-03-06T09:53:11Z</time>
      </trkpt>
      <trkpt lat="43.64342" lon="6.78037">
        <ele>398.31622314453</ele>
        <time>2011-03-06T09:53:13Z</time>
      </trkpt>
      <trkpt lat="43.64342" lon="6.78048">
        <ele>398.30249023438</ele>
        <time>2011-03-06T09:53:15Z</time>
      </trkpt>
      <trkpt lat="43.64342" lon="6.78081">
        <ele>398.30249023438</ele>
        <time>2011-03-06T09:53:20Z</time>
      </trkpt>
      <trkpt lat="43.6434" lon="6.78092">
        <ele>398.13836669922</ele>
        <time>2011-03-06T09:53:22Z</time>
      </trkpt>
      <trkpt lat="43.6434" lon="6.78103">
        <ele>397.99591064453</ele>
        <time>2011-03-06T09:53:24Z</time>
      </trkpt>
      <trkpt lat="43.64337" lon="6.78118">
        <ele>397.7160949707</ele>
        <time>2011-03-06T09:53:27Z</time>
      </trkpt>
      <trkpt lat="43.64331" lon="6.78137">
        <ele>397.29824829102</ele>
        <time>2011-03-06T09:53:32Z</time>
      </trkpt>
      <trkpt lat="43.64325" lon="6.78151">
        <ele>396.97341918945</ele>
        <time>2011-03-06T09:53:36Z</time>
      </trkpt>
      <trkpt lat="43.64315" lon="6.78171">
        <ele>396.10778808594</ele>
        <time>2011-03-06T09:53:41Z</time>
      </trkpt>
      <trkpt lat="43.64308" lon="6.78196">
        <ele>393.71560668945</ele>
        <time>2011-03-06T09:53:46Z</time>
      </trkpt>
      <trkpt lat="43.64307" lon="6.78206">
        <ele>392.87286376953</ele>
        <time>2011-03-06T09:53:49Z</time>
      </trkpt>
      <trkpt lat="43.64308" lon="6.78212">
        <ele>392.33978271484</ele>
        <time>2011-03-06T09:53:53Z</time>
      </trkpt>
      <trkpt lat="43.64308" lon="6.78226">
        <ele>391.05078125</ele>
        <time>2011-03-06T09:54:01Z</time>
      </trkpt>
      <trkpt lat="43.64309" lon="6.78241">
        <ele>389.71697998047</ele>
        <time>2011-03-06T09:54:06Z</time>
      </trkpt>
      <trkpt lat="43.64309" lon="6.78246">
        <ele>389.25164794922</ele>
        <time>2011-03-06T09:54:08Z</time>
      </trkpt>
      <trkpt lat="43.64305" lon="6.78261">
        <ele>387.06814575195</ele>
        <time>2011-03-06T09:54:13Z</time>
      </trkpt>
      <trkpt lat="43.64299" lon="6.78277">
        <ele>384.8352355957</ele>
        <time>2011-03-06T09:54:18Z</time>
      </trkpt>
      <trkpt lat="43.64293" lon="6.78296">
        <ele>382.20562744141</ele>
        <time>2011-03-06T09:54:24Z</time>
      </trkpt>
      <trkpt lat="43.6429" lon="6.78312">
        <ele>379.95327758789</ele>
        <time>2011-03-06T09:54:29Z</time>
      </trkpt>
      <trkpt lat="43.64281" lon="6.78321">
        <ele>379.9026184082</ele>
        <time>2011-03-06T09:54:34Z</time>
      </trkpt>
      <trkpt lat="43.64269" lon="6.78324">
        <ele>381.11734008789</ele>
        <time>2011-03-06T09:54:40Z</time>
      </trkpt>
      <trkpt lat="43.64258" lon="6.78332">
        <ele>381.81976318359</ele>
        <time>2011-03-06T09:54:44Z</time>
      </trkpt>
      <trkpt lat="43.64244" lon="6.78338">
        <ele>382.52163696289</ele>
        <time>2011-03-06T09:54:49Z</time>
      </trkpt>
      <trkpt lat="43.64223" lon="6.78347">
        <ele>382.24566650391</ele>
        <time>2011-03-06T09:54:55Z</time>
      </trkpt>
      <trkpt lat="43.64204" lon="6.78355">
        <ele>382.38702392578</ele>
        <time>2011-03-06T09:55:00Z</time>
      </trkpt>
      <trkpt lat="43.64191" lon="6.78363">
        <ele>382.66098022461</ele>
        <time>2011-03-06T09:55:05Z</time>
      </trkpt>
      <trkpt lat="43.64174" lon="6.78369">
        <ele>383.62106323242</ele>
        <time>2011-03-06T09:55:12Z</time>
      </trkpt>
      <trkpt lat="43.6416" lon="6.78376">
        <ele>383.94033813477</ele>
        <time>2011-03-06T09:55:16Z</time>
      </trkpt>
      <trkpt lat="43.64143" lon="6.78388">
        <ele>383.45974731445</ele>
        <time>2011-03-06T09:55:20Z</time>
      </trkpt>
      <trkpt lat="43.64138" lon="6.78392">
        <ele>383.32879638672</ele>
        <time>2011-03-06T09:55:21Z</time>
      </trkpt>
      <trkpt lat="43.64109" lon="6.78403">
        <ele>383.12683105469</ele>
        <time>2011-03-06T09:55:26Z</time>
      </trkpt>
      <trkpt lat="43.64096" lon="6.78409">
        <ele>383.05764770508</ele>
        <time>2011-03-06T09:55:28Z</time>
      </trkpt>
      <trkpt lat="43.64053" lon="6.78429">
        <ele>382.16891479492</ele>
        <time>2011-03-06T09:55:34Z</time>
      </trkpt>
      <trkpt lat="43.64046" lon="6.7843">
        <ele>382.0419921875</ele>
        <time>2011-03-06T09:55:35Z</time>
      </trkpt>
      <trkpt lat="43.64034" lon="6.78437">
        <ele>381.71646118164</ele>
        <time>2011-03-06T09:55:39Z</time>
      </trkpt>
      <trkpt lat="43.64032" lon="6.78441">
        <ele>381.56774902344</ele>
        <time>2011-03-06T09:55:44Z</time>
      </trkpt>
      <trkpt lat="43.64031" lon="6.78444">
        <ele>381.48059082031</ele>
        <time>2011-03-06T09:55:49Z</time>
      </trkpt>
      <trkpt lat="43.64035" lon="6.78454">
        <ele>381.14501953125</ele>
        <time>2011-03-06T09:56:00Z</time>
      </trkpt>
      <trkpt lat="43.64035" lon="6.78454">
        <ele>381.14923095703</ele>
        <time>2011-03-06T09:56:13Z</time>
      </trkpt>
      <trkpt lat="43.64036" lon="6.78453">
        <ele>381.18734741211</ele>
        <time>2011-03-06T09:56:32Z</time>
      </trkpt>
      <trkpt lat="43.64037" lon="6.78456">
        <ele>381.08700561523</ele>
        <time>2011-03-06T09:56:50Z</time>
      </trkpt>
      <trkpt lat="43.64042" lon="6.7846">
        <ele>380.92520141602</ele>
        <time>2011-03-06T09:57:03Z</time>
      </trkpt>
      <trkpt lat="43.64042" lon="6.78465">
        <ele>380.76696777344</ele>
        <time>2011-03-06T09:57:16Z</time>
      </trkpt>
      <trkpt lat="43.64038" lon="6.7846">
        <ele>380.94229125977</ele>
        <time>2011-03-06T09:57:29Z</time>
      </trkpt>
      <trkpt lat="43.64036" lon="6.78457">
        <ele>381.04989624023</ele>
        <time>2011-03-06T09:57:56Z</time>
      </trkpt>
      <trkpt lat="43.6404" lon="6.78464">
        <ele>380.80838012695</ele>
        <time>2011-03-06T09:58:07Z</time>
      </trkpt>
      <trkpt lat="43.6404" lon="6.78464">
        <ele>380.80270385742</ele>
        <time>2011-03-06T09:58:14Z</time>
      </trkpt>
      <trkpt lat="43.64038" lon="6.78462">
        <ele>380.85531616211</ele>
        <time>2011-03-06T09:58:28Z</time>
      </trkpt>
      <trkpt lat="43.64038" lon="6.78462">
        <ele>380.88116455078</ele>
        <time>2011-03-06T09:58:35Z</time>
      </trkpt>
      <trkpt lat="43.64036" lon="6.78459">
        <ele>380.97457885742</ele>
        <time>2011-03-06T09:58:45Z</time>
      </trkpt>
      <trkpt lat="43.64037" lon="6.78461">
        <ele>380.92129516602</ele>
        <time>2011-03-06T09:58:54Z</time>
      </trkpt>
      <trkpt lat="43.64041" lon="6.78467">
        <ele>380.67538452148</ele>
        <time>2011-03-06T09:59:07Z</time>
      </trkpt>
      <trkpt lat="43.64043" lon="6.78474">
        <ele>380.43334960938</ele>
        <time>2011-03-06T09:59:17Z</time>
      </trkpt>
      <trkpt lat="43.64043" lon="6.78476">
        <ele>380.36724853516</ele>
        <time>2011-03-06T09:59:26Z</time>
      </trkpt>
      <trkpt lat="43.64042" lon="6.78472">
        <ele>380.49694824219</ele>
        <time>2011-03-06T09:59:38Z</time>
      </trkpt>
      <trkpt lat="43.64041" lon="6.7847">
        <ele>380.58206176758</ele>
        <time>2011-03-06T09:59:49Z</time>
      </trkpt>
      <trkpt lat="43.64043" lon="6.7847">
        <ele>380.57348632812</ele>
        <time>2011-03-06T10:00:02Z</time>
      </trkpt>
      <trkpt lat="43.64043" lon="6.7847">
        <ele>380.58560180664</ele>
        <time>2011-03-06T10:00:14Z</time>
      </trkpt>
      <trkpt lat="43.64041" lon="6.78467">
        <ele>380.68731689453</ele>
        <time>2011-03-06T10:00:25Z</time>
      </trkpt>
      <trkpt lat="43.64043" lon="6.7847">
        <ele>380.56872558594</ele>
        <time>2011-03-06T10:00:36Z</time>
      </trkpt>
      <trkpt lat="43.64043" lon="6.7847">
        <ele>380.5700378418</ele>
        <time>2011-03-06T10:00:47Z</time>
      </trkpt>
      <trkpt lat="43.64042" lon="6.78469">
        <ele>380.63223266602</ele>
        <time>2011-03-06T10:01:00Z</time>
      </trkpt>
      <trkpt lat="43.64042" lon="6.78469">
        <ele>380.6276550293</ele>
        <time>2011-03-06T10:01:28Z</time>
      </trkpt>
      <trkpt lat="43.64042" lon="6.78467">
        <ele>380.67483520508</ele>
        <time>2011-03-06T10:02:30Z</time>
      </trkpt>
      <trkpt lat="43.64043" lon="6.78469">
        <ele>380.60345458984</ele>
        <time>2011-03-06T10:02:44Z</time>
      </trkpt>
      <trkpt lat="43.64045" lon="6.78473">
        <ele>380.45300292969</ele>
        <time>2011-03-06T10:02:56Z</time>
      </trkpt>
      <trkpt lat="43.64041" lon="6.78467">
        <ele>380.68975830078</ele>
        <time>2011-03-06T10:03:12Z</time>
      </trkpt>
      <trkpt lat="43.64041" lon="6.78467">
        <ele>380.68292236328</ele>
        <time>2011-03-06T10:03:29Z</time>
      </trkpt>
      <trkpt lat="43.64042" lon="6.78468">
        <ele>380.66653442383</ele>
        <time>2011-03-06T10:03:38Z</time>
      </trkpt>
      <trkpt lat="43.64042" lon="6.78468">
        <ele>380.64831542969</ele>
        <time>2011-03-06T10:03:48Z</time>
      </trkpt>
      <trkpt lat="43.6404" lon="6.78465">
        <ele>380.76715087891</ele>
        <time>2011-03-06T10:04:14Z</time>
      </trkpt>
      <trkpt lat="43.6404" lon="6.78465">
        <ele>380.76132202148</ele>
        <time>2011-03-06T10:04:22Z</time>
      </trkpt>
      <trkpt lat="43.6404" lon="6.78465">
        <ele>380.78070068359</ele>
        <time>2011-03-06T10:04:36Z</time>
      </trkpt>
      <trkpt lat="43.6404" lon="6.78464">
        <ele>380.80163574219</ele>
        <time>2011-03-06T10:04:48Z</time>
      </trkpt>
      <trkpt lat="43.6404" lon="6.78464">
        <ele>380.81115722656</ele>
        <time>2011-03-06T10:05:20Z</time>
      </trkpt>
      <trkpt lat="43.6404" lon="6.78464">
        <ele>380.79190063477</ele>
        <time>2011-03-06T10:05:43Z</time>
      </trkpt>
      <trkpt lat="43.6404" lon="6.78464">
        <ele>380.80209350586</ele>
        <time>2011-03-06T10:06:02Z</time>
      </trkpt>
      <trkpt lat="43.64038" lon="6.7846">
        <ele>380.94598388672</ele>
        <time>2011-03-06T10:06:07Z</time>
      </trkpt>
      <trkpt lat="43.64036" lon="6.78459">
        <ele>380.98934936523</ele>
        <time>2011-03-06T10:06:08Z</time>
      </trkpt>
      <trkpt lat="43.64016" lon="6.7846">
        <ele>380.94595336914</ele>
        <time>2011-03-06T10:06:13Z</time>
      </trkpt>
      <trkpt lat="43.63996" lon="6.78463">
        <ele>380.61740112305</ele>
        <time>2011-03-06T10:06:17Z</time>
      </trkpt>
      <trkpt lat="43.63985" lon="6.78467">
        <ele>379.70071411133</ele>
        <time>2011-03-06T10:06:19Z</time>
      </trkpt>
      <trkpt lat="43.63955" lon="6.78474">
        <ele>377.33981323242</ele>
        <time>2011-03-06T10:06:24Z</time>
      </trkpt>
      <trkpt lat="43.63937" lon="6.78479">
        <ele>375.94134521484</ele>
        <time>2011-03-06T10:06:27Z</time>
      </trkpt>
      <trkpt lat="43.63929" lon="6.78476">
        <ele>375.42864990234</ele>
        <time>2011-03-06T10:06:30Z</time>
      </trkpt>
      <trkpt lat="43.63926" lon="6.78459">
        <ele>375.64492797852</ele>
        <time>2011-03-06T10:06:34Z</time>
      </trkpt>
      <trkpt lat="43.63927" lon="6.78454">
        <ele>375.84405517578</ele>
        <time>2011-03-06T10:06:35Z</time>
      </trkpt>
      <trkpt lat="43.6393" lon="6.78428">
        <ele>376.68063354492</ele>
        <time>2011-03-06T10:06:41Z</time>
      </trkpt>
      <trkpt lat="43.6393" lon="6.78411">
        <ele>377.05639648438</ele>
        <time>2011-03-06T10:06:45Z</time>
      </trkpt>
      <trkpt lat="43.63919" lon="6.78393">
        <ele>376.73870849609</ele>
        <time>2011-03-06T10:06:51Z</time>
      </trkpt>
      <trkpt lat="43.63908" lon="6.78387">
        <ele>376.44580078125</ele>
        <time>2011-03-06T10:06:54Z</time>
      </trkpt>
      <trkpt lat="43.63899" lon="6.78361">
        <ele>377.04272460938</ele>
        <time>2011-03-06T10:06:59Z</time>
      </trkpt>
      <trkpt lat="43.63897" lon="6.78352">
        <ele>377.34420776367</ele>
        <time>2011-03-06T10:07:01Z</time>
      </trkpt>
      <trkpt lat="43.63889" lon="6.78337">
        <ele>377.84848022461</ele>
        <time>2011-03-06T10:07:06Z</time>
      </trkpt>
      <trkpt lat="43.63876" lon="6.78334">
        <ele>377.96621704102</ele>
        <time>2011-03-06T10:07:11Z</time>
      </trkpt>
      <trkpt lat="43.63862" lon="6.78339">
        <ele>377.65832519531</ele>
        <time>2011-03-06T10:07:16Z</time>
      </trkpt>
      <trkpt lat="43.63852" lon="6.78349">
        <ele>377.05960083008</ele>
        <time>2011-03-06T10:07:19Z</time>
      </trkpt>
      <trkpt lat="43.63822" lon="6.78349">
        <ele>376.8923034668</ele>
        <time>2011-03-06T10:07:26Z</time>
      </trkpt>
      <trkpt lat="43.63793" lon="6.78357">
        <ele>375.99951171875</ele>
        <time>2011-03-06T10:07:34Z</time>
      </trkpt>
      <trkpt lat="43.63771" lon="6.78355">
        <ele>376.0637512207</ele>
        <time>2011-03-06T10:07:40Z</time>
      </trkpt>
      <trkpt lat="43.63762" lon="6.78347">
        <ele>377.04678344727</ele>
        <time>2011-03-06T10:07:44Z</time>
      </trkpt>
      <trkpt lat="43.63749" lon="6.78341">
        <ele>377.88421630859</ele>
        <time>2011-03-06T10:07:49Z</time>
      </trkpt>
      <trkpt lat="43.63733" lon="6.78332">
        <ele>378.64584350586</ele>
        <time>2011-03-06T10:07:55Z</time>
      </trkpt>
      <trkpt lat="43.6372" lon="6.78322">
        <ele>378.80862426758</ele>
        <time>2011-03-06T10:08:00Z</time>
      </trkpt>
      <trkpt lat="43.637" lon="6.78311">
        <ele>379.11169433594</ele>
        <time>2011-03-06T10:08:07Z</time>
      </trkpt>
      <trkpt lat="43.63681" lon="6.78297">
        <ele>379.70736694336</ele>
        <time>2011-03-06T10:08:14Z</time>
      </trkpt>
      <trkpt lat="43.6366" lon="6.78281">
        <ele>380.51873779297</ele>
        <time>2011-03-06T10:08:21Z</time>
      </trkpt>
      <trkpt lat="43.63644" lon="6.7827">
        <ele>380.56759643555</ele>
        <time>2011-03-06T10:08:26Z</time>
      </trkpt>
      <trkpt lat="43.63626" lon="6.78259">
        <ele>380.40853881836</ele>
        <time>2011-03-06T10:08:31Z</time>
      </trkpt>
      <trkpt lat="43.63616" lon="6.78256">
        <ele>380.21688842773</ele>
        <time>2011-03-06T10:08:33Z</time>
      </trkpt>
      <trkpt lat="43.63601" lon="6.78246">
        <ele>380.06292724609</ele>
        <time>2011-03-06T10:08:36Z</time>
      </trkpt>
      <trkpt lat="43.63588" lon="6.78239">
        <ele>379.87280273438</ele>
        <time>2011-03-06T10:08:39Z</time>
      </trkpt>
      <trkpt lat="43.63575" lon="6.78233">
        <ele>380.20248413086</ele>
        <time>2011-03-06T10:08:43Z</time>
      </trkpt>
      <trkpt lat="43.63549" lon="6.78224">
        <ele>381.41555786133</ele>
        <time>2011-03-06T10:08:50Z</time>
      </trkpt>
      <trkpt lat="43.63529" lon="6.78216">
        <ele>382.3522644043</ele>
        <time>2011-03-06T10:08:55Z</time>
      </trkpt>
      <trkpt lat="43.63522" lon="6.78211">
        <ele>382.80944824219</ele>
        <time>2011-03-06T10:08:57Z</time>
      </trkpt>
      <trkpt lat="43.635" lon="6.78208">
        <ele>383.54244995117</ele>
        <time>2011-03-06T10:09:03Z</time>
      </trkpt>
      <trkpt lat="43.63485" lon="6.78211">
        <ele>384.87637329102</ele>
        <time>2011-03-06T10:09:08Z</time>
      </trkpt>
      <trkpt lat="43.63465" lon="6.78211">
        <ele>386.92300415039</ele>
        <time>2011-03-06T10:09:14Z</time>
      </trkpt>
      <trkpt lat="43.63442" lon="6.7821">
        <ele>389.29794311523</ele>
        <time>2011-03-06T10:09:21Z</time>
      </trkpt>
      <trkpt lat="43.63425" lon="6.78208">
        <ele>391.19088745117</ele>
        <time>2011-03-06T10:09:27Z</time>
      </trkpt>
      <trkpt lat="43.63409" lon="6.78206">
        <ele>391.85989379883</ele>
        <time>2011-03-06T10:09:32Z</time>
      </trkpt>
      <trkpt lat="43.6339" lon="6.78207">
        <ele>391.27084350586</ele>
        <time>2011-03-06T10:09:38Z</time>
      </trkpt>
      <trkpt lat="43.63372" lon="6.78207">
        <ele>390.71435546875</ele>
        <time>2011-03-06T10:09:44Z</time>
      </trkpt>
      <trkpt lat="43.63349" lon="6.78208">
        <ele>389.99029541016</ele>
        <time>2011-03-06T10:09:50Z</time>
      </trkpt>
      <trkpt lat="43.63329" lon="6.78208">
        <ele>389.14663696289</ele>
        <time>2011-03-06T10:09:54Z</time>
      </trkpt>
      <trkpt lat="43.63322" lon="6.78207">
        <ele>388.70129394531</ele>
        <time>2011-03-06T10:09:55Z</time>
      </trkpt>
      <trkpt lat="43.63294" lon="6.78193">
        <ele>386.91198730469</ele>
        <time>2011-03-06T10:10:00Z</time>
      </trkpt>
      <trkpt lat="43.63281" lon="6.78181">
        <ele>386.19528198242</ele>
        <time>2011-03-06T10:10:03Z</time>
      </trkpt>
      <trkpt lat="43.63266" lon="6.78164">
        <ele>385.4084777832</ele>
        <time>2011-03-06T10:10:07Z</time>
      </trkpt>
      <trkpt lat="43.63243" lon="6.7816">
        <ele>383.95736694336</ele>
        <time>2011-03-06T10:10:12Z</time>
      </trkpt>
      <trkpt lat="43.63205" lon="6.78155">
        <ele>382.90859985352</ele>
        <time>2011-03-06T10:10:18Z</time>
      </trkpt>
      <trkpt lat="43.63188" lon="6.78136">
        <ele>382.16458129883</ele>
        <time>2011-03-06T10:10:22Z</time>
      </trkpt>
      <trkpt lat="43.63185" lon="6.78132">
        <ele>381.96139526367</ele>
        <time>2011-03-06T10:10:23Z</time>
      </trkpt>
      <trkpt lat="43.63158" lon="6.78111">
        <ele>380.18121337891</ele>
        <time>2011-03-06T10:10:28Z</time>
      </trkpt>
      <trkpt lat="43.63148" lon="6.78099">
        <ele>379.16638183594</ele>
        <time>2011-03-06T10:10:30Z</time>
      </trkpt>
      <trkpt lat="43.63131" lon="6.78063">
        <ele>377.03625488281</ele>
        <time>2011-03-06T10:10:34Z</time>
      </trkpt>
      <trkpt lat="43.63117" lon="6.78035">
        <ele>375.62341308594</ele>
        <time>2011-03-06T10:10:37Z</time>
      </trkpt>
      <trkpt lat="43.63099" lon="6.78012">
        <ele>374.10046386719</ele>
        <time>2011-03-06T10:10:40Z</time>
      </trkpt>
      <trkpt lat="43.63071" lon="6.78002">
        <ele>372.25549316406</ele>
        <time>2011-03-06T10:10:44Z</time>
      </trkpt>
      <trkpt lat="43.63041" lon="6.78013">
        <ele>370.34829711914</ele>
        <time>2011-03-06T10:10:48Z</time>
      </trkpt>
      <trkpt lat="43.63" lon="6.78037">
        <ele>367.12298583984</ele>
        <time>2011-03-06T10:10:54Z</time>
      </trkpt>
      <trkpt lat="43.6298" lon="6.78042">
        <ele>366.00192260742</ele>
        <time>2011-03-06T10:10:57Z</time>
      </trkpt>
      <trkpt lat="43.62958" lon="6.78052">
        <ele>364.74307250977</ele>
        <time>2011-03-06T10:11:00Z</time>
      </trkpt>
      <trkpt lat="43.62938" lon="6.78078">
        <ele>363.15805053711</ele>
        <time>2011-03-06T10:11:04Z</time>
      </trkpt>
      <trkpt lat="43.62928" lon="6.78092">
        <ele>362.1789855957</ele>
        <time>2011-03-06T10:11:06Z</time>
      </trkpt>
      <trkpt lat="43.62907" lon="6.78114">
        <ele>360.57403564453</ele>
        <time>2011-03-06T10:11:10Z</time>
      </trkpt>
      <trkpt lat="43.62899" lon="6.78143">
        <ele>359.30603027344</ele>
        <time>2011-03-06T10:11:14Z</time>
      </trkpt>
      <trkpt lat="43.62873" lon="6.78174">
        <ele>357.48248291016</ele>
        <time>2011-03-06T10:11:19Z</time>
      </trkpt>
      <trkpt lat="43.62849" lon="6.78203">
        <ele>353.68978881836</ele>
        <time>2011-03-06T10:11:24Z</time>
      </trkpt>
      <trkpt lat="43.62829" lon="6.78226">
        <ele>350.74609375</ele>
        <time>2011-03-06T10:11:28Z</time>
      </trkpt>
      <trkpt lat="43.62801" lon="6.78253">
        <ele>349.14251708984</ele>
        <time>2011-03-06T10:11:33Z</time>
      </trkpt>
      <trkpt lat="43.6278" lon="6.78274">
        <ele>348.16589355469</ele>
        <time>2011-03-06T10:11:37Z</time>
      </trkpt>
      <trkpt lat="43.62759" lon="6.78286">
        <ele>348.70977783203</ele>
        <time>2011-03-06T10:11:41Z</time>
      </trkpt>
      <trkpt lat="43.62738" lon="6.78304">
        <ele>347.90240478516</ele>
        <time>2011-03-06T10:11:46Z</time>
      </trkpt>
      <trkpt lat="43.62724" lon="6.78317">
        <ele>346.767578125</ele>
        <time>2011-03-06T10:11:49Z</time>
      </trkpt>
      <trkpt lat="43.62717" lon="6.78331">
        <ele>345.17193603516</ele>
        <time>2011-03-06T10:11:51Z</time>
      </trkpt>
      <trkpt lat="43.62706" lon="6.78358">
        <ele>341.24865722656</ele>
        <time>2011-03-06T10:11:55Z</time>
      </trkpt>
      <trkpt lat="43.627" lon="6.78384">
        <ele>337.6985168457</ele>
        <time>2011-03-06T10:11:59Z</time>
      </trkpt>
      <trkpt lat="43.62681" lon="6.78403">
        <ele>336.38616943359</ele>
        <time>2011-03-06T10:12:04Z</time>
      </trkpt>
      <trkpt lat="43.62676" lon="6.78406">
        <ele>336.47015380859</ele>
        <time>2011-03-06T10:12:05Z</time>
      </trkpt>
      <trkpt lat="43.62668" lon="6.7841">
        <ele>336.71627807617</ele>
        <time>2011-03-06T10:12:07Z</time>
      </trkpt>
      <trkpt lat="43.62654" lon="6.78417">
        <ele>337.1721496582</ele>
        <time>2011-03-06T10:12:12Z</time>
      </trkpt>
      <trkpt lat="43.62632" lon="6.78415">
        <ele>339.45922851562</ele>
        <time>2011-03-06T10:12:17Z</time>
      </trkpt>
      <trkpt lat="43.6262" lon="6.78407">
        <ele>341.35098266602</ele>
        <time>2011-03-06T10:12:20Z</time>
      </trkpt>
      <trkpt lat="43.62603" lon="6.78405">
        <ele>342.90866088867</ele>
        <time>2011-03-06T10:12:25Z</time>
      </trkpt>
      <trkpt lat="43.62601" lon="6.78407">
        <ele>342.97805786133</ele>
        <time>2011-03-06T10:12:27Z</time>
      </trkpt>
      <trkpt lat="43.62601" lon="6.78414">
        <ele>342.49563598633</ele>
        <time>2011-03-06T10:12:31Z</time>
      </trkpt>
      <trkpt lat="43.62608" lon="6.78429">
        <ele>342.99011230469</ele>
        <time>2011-03-06T10:12:39Z</time>
      </trkpt>
      <trkpt lat="43.62613" lon="6.78444">
        <ele>343.99853515625</ele>
        <time>2011-03-06T10:12:44Z</time>
      </trkpt>
      <trkpt lat="43.62622" lon="6.78463">
        <ele>344.60601806641</ele>
        <time>2011-03-06T10:12:51Z</time>
      </trkpt>
      <trkpt lat="43.62624" lon="6.78478">
        <ele>345.65869140625</ele>
        <time>2011-03-06T10:12:56Z</time>
      </trkpt>
      <trkpt lat="43.62626" lon="6.78494">
        <ele>346.73049926758</ele>
        <time>2011-03-06T10:13:00Z</time>
      </trkpt>
      <trkpt lat="43.62627" lon="6.78511">
        <ele>348.3258972168</ele>
        <time>2011-03-06T10:13:04Z</time>
      </trkpt>
      <trkpt lat="43.6263" lon="6.78533">
        <ele>350.25326538086</ele>
        <time>2011-03-06T10:13:09Z</time>
      </trkpt>
      <trkpt lat="43.62637" lon="6.78554">
        <ele>351.18048095703</ele>
        <time>2011-03-06T10:13:14Z</time>
      </trkpt>
      <trkpt lat="43.6264" lon="6.78573">
        <ele>352.61383056641</ele>
        <time>2011-03-06T10:13:19Z</time>
      </trkpt>
      <trkpt lat="43.62641" lon="6.7858">
        <ele>353.1457824707</ele>
        <time>2011-03-06T10:13:21Z</time>
      </trkpt>
      <trkpt lat="43.62644" lon="6.78593">
        <ele>353.43725585938</ele>
        <time>2011-03-06T10:13:26Z</time>
      </trkpt>
      <trkpt lat="43.62646" lon="6.78604">
        <ele>353.5495300293</ele>
        <time>2011-03-06T10:13:30Z</time>
      </trkpt>
      <trkpt lat="43.62659" lon="6.78634">
        <ele>352.12698364258</ele>
        <time>2011-03-06T10:13:37Z</time>
      </trkpt>
      <trkpt lat="43.62669" lon="6.78648">
        <ele>351.19250488281</ele>
        <time>2011-03-06T10:13:41Z</time>
      </trkpt>
      <trkpt lat="43.6268" lon="6.78659">
        <ele>352.15396118164</ele>
        <time>2011-03-06T10:13:45Z</time>
      </trkpt>
      <trkpt lat="43.62686" lon="6.78675">
        <ele>353.26940917969</ele>
        <time>2011-03-06T10:13:50Z</time>
      </trkpt>
      <trkpt lat="43.6269" lon="6.7869">
        <ele>354.04919433594</ele>
        <time>2011-03-06T10:13:55Z</time>
      </trkpt>
      <trkpt lat="43.62696" lon="6.78707">
        <ele>355.03225708008</ele>
        <time>2011-03-06T10:14:01Z</time>
      </trkpt>
      <trkpt lat="43.62697" lon="6.7871">
        <ele>355.20739746094</ele>
        <time>2011-03-06T10:14:02Z</time>
      </trkpt>
      <trkpt lat="43.627" lon="6.78723">
        <ele>355.93121337891</ele>
        <time>2011-03-06T10:14:08Z</time>
      </trkpt>
      <trkpt lat="43.627" lon="6.78729">
        <ele>356.17852783203</ele>
        <time>2011-03-06T10:14:10Z</time>
      </trkpt>
      <trkpt lat="43.627" lon="6.78736">
        <ele>356.41931152344</ele>
        <time>2011-03-06T10:14:12Z</time>
      </trkpt>
      <trkpt lat="43.627" lon="6.78758">
        <ele>357.14193725586</ele>
        <time>2011-03-06T10:14:19Z</time>
      </trkpt>
      <trkpt lat="43.62698" lon="6.78768">
        <ele>357.26602172852</ele>
        <time>2011-03-06T10:14:23Z</time>
      </trkpt>
      <trkpt lat="43.627" lon="6.78784">
        <ele>357.70877075195</ele>
        <time>2011-03-06T10:14:29Z</time>
      </trkpt>
      <trkpt lat="43.627" lon="6.78802">
        <ele>358.11215209961</ele>
        <time>2011-03-06T10:14:35Z</time>
      </trkpt>
      <trkpt lat="43.62696" lon="6.78814">
        <ele>358.24938964844</ele>
        <time>2011-03-06T10:14:40Z</time>
      </trkpt>
      <trkpt lat="43.62695" lon="6.78819">
        <ele>358.34298706055</ele>
        <time>2011-03-06T10:14:41Z</time>
      </trkpt>
      <trkpt lat="43.6269" lon="6.78827">
        <ele>358.38613891602</ele>
        <time>2011-03-06T10:14:46Z</time>
      </trkpt>
      <trkpt lat="43.62683" lon="6.78827">
        <ele>358.2080078125</ele>
        <time>2011-03-06T10:14:51Z</time>
      </trkpt>
      <trkpt lat="43.62682" lon="6.78826">
        <ele>358.15286254883</ele>
        <time>2011-03-06T10:14:52Z</time>
      </trkpt>
      <trkpt lat="43.62679" lon="6.78825">
        <ele>358.02578735352</ele>
        <time>2011-03-06T10:14:55Z</time>
      </trkpt>
      <trkpt lat="43.62674" lon="6.78834">
        <ele>358.19692993164</ele>
        <time>2011-03-06T10:15:00Z</time>
      </trkpt>
      <trkpt lat="43.62669" lon="6.78864">
        <ele>358.78244018555</ele>
        <time>2011-03-06T10:15:07Z</time>
      </trkpt>
      <trkpt lat="43.62658" lon="6.78889">
        <ele>360.66317749023</ele>
        <time>2011-03-06T10:15:13Z</time>
      </trkpt>
      <trkpt lat="43.62647" lon="6.78911">
        <ele>362.77536010742</ele>
        <time>2011-03-06T10:15:19Z</time>
      </trkpt>
      <trkpt lat="43.62639" lon="6.78929">
        <ele>363.99951171875</ele>
        <time>2011-03-06T10:15:24Z</time>
      </trkpt>
      <trkpt lat="43.6263" lon="6.78951">
        <ele>365.31838989258</ele>
        <time>2011-03-06T10:15:30Z</time>
      </trkpt>
      <trkpt lat="43.62627" lon="6.78974">
        <ele>365.69256591797</ele>
        <time>2011-03-06T10:15:35Z</time>
      </trkpt>
      <trkpt lat="43.62627" lon="6.78995">
        <ele>365.79971313477</ele>
        <time>2011-03-06T10:15:40Z</time>
      </trkpt>
      <trkpt lat="43.62616" lon="6.79013">
        <ele>366.85446166992</ele>
        <time>2011-03-06T10:15:45Z</time>
      </trkpt>
      <trkpt lat="43.62615" lon="6.79016">
        <ele>366.98428344727</ele>
        <time>2011-03-06T10:15:46Z</time>
      </trkpt>
      <trkpt lat="43.62602" lon="6.79031">
        <ele>368.14889526367</ele>
        <time>2011-03-06T10:15:52Z</time>
      </trkpt>
      <trkpt lat="43.626" lon="6.79033">
        <ele>368.32681274414</ele>
        <time>2011-03-06T10:15:53Z</time>
      </trkpt>
      <trkpt lat="43.62593" lon="6.79048">
        <ele>368.81198120117</ele>
        <time>2011-03-06T10:15:58Z</time>
      </trkpt>
      <trkpt lat="43.62585" lon="6.79062">
        <ele>369.30627441406</ele>
        <time>2011-03-06T10:16:03Z</time>
      </trkpt>
      <trkpt lat="43.62581" lon="6.79064">
        <ele>369.66986083984</ele>
        <time>2011-03-06T10:16:05Z</time>
      </trkpt>
      <trkpt lat="43.62564" lon="6.79072">
        <ele>370.88369750977</ele>
        <time>2011-03-06T10:16:12Z</time>
      </trkpt>
      <trkpt lat="43.62548" lon="6.79084">
        <ele>371.94711303711</ele>
        <time>2011-03-06T10:16:20Z</time>
      </trkpt>
      <trkpt lat="43.62534" lon="6.79095">
        <ele>372.5817565918</ele>
        <time>2011-03-06T10:16:27Z</time>
      </trkpt>
      <trkpt lat="43.62515" lon="6.7911">
        <ele>373.04959106445</ele>
        <time>2011-03-06T10:16:35Z</time>
      </trkpt>
      <trkpt lat="43.62499" lon="6.79116">
        <ele>373.75241088867</ele>
        <time>2011-03-06T10:16:42Z</time>
      </trkpt>
      <trkpt lat="43.62485" lon="6.79115">
        <ele>374.60888671875</ele>
        <time>2011-03-06T10:16:49Z</time>
      </trkpt>
      <trkpt lat="43.62474" lon="6.79113">
        <ele>375.39761352539</ele>
        <time>2011-03-06T10:16:55Z</time>
      </trkpt>
      <trkpt lat="43.62464" lon="6.79113">
        <ele>376.01742553711</ele>
        <time>2011-03-06T10:17:01Z</time>
      </trkpt>
      <trkpt lat="43.62454" lon="6.79114">
        <ele>376.61273193359</ele>
        <time>2011-03-06T10:17:07Z</time>
      </trkpt>
      <trkpt lat="43.62446" lon="6.79112">
        <ele>377.208984375</ele>
        <time>2011-03-06T10:17:12Z</time>
      </trkpt>
      <trkpt lat="43.62437" lon="6.79108">
        <ele>377.92663574219</ele>
        <time>2011-03-06T10:17:17Z</time>
      </trkpt>
      <trkpt lat="43.62427" lon="6.79102">
        <ele>378.75085449219</ele>
        <time>2011-03-06T10:17:23Z</time>
      </trkpt>
      <trkpt lat="43.62418" lon="6.791">
        <ele>379.31024169922</ele>
        <time>2011-03-06T10:17:28Z</time>
      </trkpt>
      <trkpt lat="43.62407" lon="6.79095">
        <ele>379.6357421875</ele>
        <time>2011-03-06T10:17:34Z</time>
      </trkpt>
      <trkpt lat="43.62395" lon="6.79088">
        <ele>379.87365722656</ele>
        <time>2011-03-06T10:17:40Z</time>
      </trkpt>
      <trkpt lat="43.62391" lon="6.79086">
        <ele>379.92138671875</ele>
        <time>2011-03-06T10:17:43Z</time>
      </trkpt>
      <trkpt lat="43.62379" lon="6.79088">
        <ele>379.89996337891</ele>
        <time>2011-03-06T10:17:49Z</time>
      </trkpt>
      <trkpt lat="43.62364" lon="6.79086">
        <ele>379.95849609375</ele>
        <time>2011-03-06T10:17:56Z</time>
      </trkpt>
      <trkpt lat="43.6235" lon="6.79083">
        <ele>379.99954223633</ele>
        <time>2011-03-06T10:18:02Z</time>
      </trkpt>
      <trkpt lat="43.62339" lon="6.79083">
        <ele>380</ele>
        <time>2011-03-06T10:18:07Z</time>
      </trkpt>
      <trkpt lat="43.62333" lon="6.79087">
        <ele>379.9817199707</ele>
        <time>2011-03-06T10:18:10Z</time>
      </trkpt>
      <trkpt lat="43.62323" lon="6.79106">
        <ele>379.81158447266</ele>
        <time>2011-03-06T10:18:16Z</time>
      </trkpt>
      <trkpt lat="43.62315" lon="6.79124">
        <ele>379.78085327148</ele>
        <time>2011-03-06T10:18:21Z</time>
      </trkpt>
      <trkpt lat="43.62304" lon="6.79147">
        <ele>379.83630371094</ele>
        <time>2011-03-06T10:18:26Z</time>
      </trkpt>
      <trkpt lat="43.62297" lon="6.79169">
        <ele>379.98428344727</ele>
        <time>2011-03-06T10:18:30Z</time>
      </trkpt>
      <trkpt lat="43.62294" lon="6.7918">
        <ele>379.91381835938</ele>
        <time>2011-03-06T10:18:32Z</time>
      </trkpt>
      <trkpt lat="43.6228" lon="6.79204">
        <ele>379.84100341797</ele>
        <time>2011-03-06T10:18:37Z</time>
      </trkpt>
      <trkpt lat="43.62264" lon="6.79214">
        <ele>379.90216064453</ele>
        <time>2011-03-06T10:18:42Z</time>
      </trkpt>
      <trkpt lat="43.62255" lon="6.79217">
        <ele>379.96612548828</ele>
        <time>2011-03-06T10:18:45Z</time>
      </trkpt>
      <trkpt lat="43.62235" lon="6.79241">
        <ele>378.18542480469</ele>
        <time>2011-03-06T10:18:52Z</time>
      </trkpt>
      <trkpt lat="43.62228" lon="6.79257">
        <ele>377.07864379883</ele>
        <time>2011-03-06T10:18:55Z</time>
      </trkpt>
      <trkpt lat="43.62216" lon="6.79278">
        <ele>374.99969482422</ele>
        <time>2011-03-06T10:18:59Z</time>
      </trkpt>
      <trkpt lat="43.62201" lon="6.793">
        <ele>372.78091430664</ele>
        <time>2011-03-06T10:19:04Z</time>
      </trkpt>
      <trkpt lat="43.62198" lon="6.79305">
        <ele>372.37100219727</ele>
        <time>2011-03-06T10:19:05Z</time>
      </trkpt>
      <trkpt lat="43.6218" lon="6.79349">
        <ele>369.16998291016</ele>
        <time>2011-03-06T10:19:11Z</time>
      </trkpt>
      <trkpt lat="43.62168" lon="6.79347">
        <ele>368.43594360352</ele>
        <time>2011-03-06T10:19:14Z</time>
      </trkpt>
      <trkpt lat="43.62162" lon="6.79342">
        <ele>368.57711791992</ele>
        <time>2011-03-06T10:19:16Z</time>
      </trkpt>
      <trkpt lat="43.62152" lon="6.79334">
        <ele>368.79119873047</ele>
        <time>2011-03-06T10:19:19Z</time>
      </trkpt>
      <trkpt lat="43.62146" lon="6.79328">
        <ele>368.79104614258</ele>
        <time>2011-03-06T10:19:21Z</time>
      </trkpt>
      <trkpt lat="43.62133" lon="6.79322">
        <ele>368.61636352539</ele>
        <time>2011-03-06T10:19:25Z</time>
      </trkpt>
      <trkpt lat="43.62117" lon="6.79332">
        <ele>368.40145874023</ele>
        <time>2011-03-06T10:19:30Z</time>
      </trkpt>
      <trkpt lat="43.62105" lon="6.79348">
        <ele>368.20529174805</ele>
        <time>2011-03-06T10:19:34Z</time>
      </trkpt>
      <trkpt lat="43.62086" lon="6.79368">
        <ele>368.37811279297</ele>
        <time>2011-03-06T10:19:40Z</time>
      </trkpt>
      <trkpt lat="43.6208" lon="6.79374">
        <ele>368.73284912109</ele>
        <time>2011-03-06T10:19:42Z</time>
      </trkpt>
      <trkpt lat="43.6207" lon="6.79388">
        <ele>369.77758789062</ele>
        <time>2011-03-06T10:19:47Z</time>
      </trkpt>
      <trkpt lat="43.62069" lon="6.79391">
        <ele>370.00204467773</ele>
        <time>2011-03-06T10:19:48Z</time>
      </trkpt>
      <trkpt lat="43.62064" lon="6.79395">
        <ele>370.51995849609</ele>
        <time>2011-03-06T10:19:55Z</time>
      </trkpt>
      <trkpt lat="43.62064" lon="6.79396">
        <ele>370.46469116211</ele>
        <time>2011-03-06T10:20:35Z</time>
      </trkpt>
      <trkpt lat="43.62065" lon="6.79413">
        <ele>370.69030761719</ele>
        <time>2011-03-06T10:20:39Z</time>
      </trkpt>
      <trkpt lat="43.6207" lon="6.79458">
        <ele>370.810546875</ele>
        <time>2011-03-06T10:20:44Z</time>
      </trkpt>
      <trkpt lat="43.62072" lon="6.79468">
        <ele>370.79211425781</ele>
        <time>2011-03-06T10:20:45Z</time>
      </trkpt>
      <trkpt lat="43.62074" lon="6.79513">
        <ele>371.66659545898</ele>
        <time>2011-03-06T10:20:50Z</time>
      </trkpt>
      <trkpt lat="43.62074" lon="6.7952">
        <ele>371.96322631836</ele>
        <time>2011-03-06T10:20:51Z</time>
      </trkpt>
      <trkpt lat="43.62074" lon="6.79536">
        <ele>372.73669433594</ele>
        <time>2011-03-06T10:20:54Z</time>
      </trkpt>
      <trkpt lat="43.62072" lon="6.79549">
        <ele>373.67724609375</ele>
        <time>2011-03-06T10:20:57Z</time>
      </trkpt>
      <trkpt lat="43.62075" lon="6.79575">
        <ele>374.64501953125</ele>
        <time>2011-03-06T10:21:03Z</time>
      </trkpt>
      <trkpt lat="43.62079" lon="6.79601">
        <ele>375.12908935547</ele>
        <time>2011-03-06T10:21:08Z</time>
      </trkpt>
      <trkpt lat="43.62083" lon="6.79627">
        <ele>375.61724853516</ele>
        <time>2011-03-06T10:21:14Z</time>
      </trkpt>
      <trkpt lat="43.62086" lon="6.7965">
        <ele>376.17440795898</ele>
        <time>2011-03-06T10:21:19Z</time>
      </trkpt>
      <trkpt lat="43.62091" lon="6.79672">
        <ele>376.65060424805</ele>
        <time>2011-03-06T10:21:23Z</time>
      </trkpt>
      <trkpt lat="43.62099" lon="6.79702">
        <ele>377.02734375</ele>
        <time>2011-03-06T10:21:29Z</time>
      </trkpt>
      <trkpt lat="43.62106" lon="6.79721">
        <ele>377.19653320312</ele>
        <time>2011-03-06T10:21:33Z</time>
      </trkpt>
      <trkpt lat="43.62111" lon="6.79752">
        <ele>377.65213012695</ele>
        <time>2011-03-06T10:21:40Z</time>
      </trkpt>
      <trkpt lat="43.62113" lon="6.79781">
        <ele>377.46444702148</ele>
        <time>2011-03-06T10:21:46Z</time>
      </trkpt>
      <trkpt lat="43.62115" lon="6.79805">
        <ele>377.23782348633</ele>
        <time>2011-03-06T10:21:51Z</time>
      </trkpt>
      <trkpt lat="43.62111" lon="6.79828">
        <ele>377.73638916016</ele>
        <time>2011-03-06T10:21:56Z</time>
      </trkpt>
      <trkpt lat="43.62109" lon="6.79856">
        <ele>377.1530456543</ele>
        <time>2011-03-06T10:22:02Z</time>
      </trkpt>
      <trkpt lat="43.62109" lon="6.79871">
        <ele>376.73284912109</ele>
        <time>2011-03-06T10:22:06Z</time>
      </trkpt>
      <trkpt lat="43.6211" lon="6.79881">
        <ele>376.27447509766</ele>
        <time>2011-03-06T10:22:08Z</time>
      </trkpt>
      <trkpt lat="43.62112" lon="6.79908">
        <ele>375.09613037109</ele>
        <time>2011-03-06T10:22:14Z</time>
      </trkpt>
      <trkpt lat="43.62112" lon="6.79931">
        <ele>373.91482543945</ele>
        <time>2011-03-06T10:22:19Z</time>
      </trkpt>
      <trkpt lat="43.6211" lon="6.79956">
        <ele>372.56430053711</ele>
        <time>2011-03-06T10:22:23Z</time>
      </trkpt>
      <trkpt lat="43.62111" lon="6.79968">
        <ele>371.52816772461</ele>
        <time>2011-03-06T10:22:25Z</time>
      </trkpt>
      <trkpt lat="43.62107" lon="6.80014">
        <ele>368.81488037109</ele>
        <time>2011-03-06T10:22:32Z</time>
      </trkpt>
      <trkpt lat="43.62099" lon="6.80052">
        <ele>367.06866455078</ele>
        <time>2011-03-06T10:22:38Z</time>
      </trkpt>
      <trkpt lat="43.62097" lon="6.80095">
        <ele>364.15747070312</ele>
        <time>2011-03-06T10:22:45Z</time>
      </trkpt>
      <trkpt lat="43.62093" lon="6.80112">
        <ele>363.82592773438</ele>
        <time>2011-03-06T10:22:49Z</time>
      </trkpt>
      <trkpt lat="43.62091" lon="6.80114">
        <ele>363.94091796875</ele>
        <time>2011-03-06T10:22:50Z</time>
      </trkpt>
      <trkpt lat="43.62083" lon="6.80128">
        <ele>364.77087402344</ele>
        <time>2011-03-06T10:22:57Z</time>
      </trkpt>
      <trkpt lat="43.62079" lon="6.8014">
        <ele>364.45562744141</ele>
        <time>2011-03-06T10:23:02Z</time>
      </trkpt>
      <trkpt lat="43.62075" lon="6.8015">
        <ele>364.1657409668</ele>
        <time>2011-03-06T10:23:05Z</time>
      </trkpt>
      <trkpt lat="43.62068" lon="6.80161">
        <ele>364.31369018555</ele>
        <time>2011-03-06T10:23:09Z</time>
      </trkpt>
      <trkpt lat="43.62059" lon="6.80173">
        <ele>364.78213500977</ele>
        <time>2011-03-06T10:23:14Z</time>
      </trkpt>
      <trkpt lat="43.62049" lon="6.80184">
        <ele>365.60214233398</ele>
        <time>2011-03-06T10:23:20Z</time>
      </trkpt>
      <trkpt lat="43.62048" lon="6.80185">
        <ele>365.75045776367</ele>
        <time>2011-03-06T10:23:21Z</time>
      </trkpt>
      <trkpt lat="43.62035" lon="6.80185">
        <ele>367.2307434082</ele>
        <time>2011-03-06T10:23:28Z</time>
      </trkpt>
      <trkpt lat="43.6202" lon="6.80194">
        <ele>368.52728271484</ele>
        <time>2011-03-06T10:23:34Z</time>
      </trkpt>
      <trkpt lat="43.62004" lon="6.80197">
        <ele>370.10464477539</ele>
        <time>2011-03-06T10:23:41Z</time>
      </trkpt>
      <trkpt lat="43.61993" lon="6.80204">
        <ele>370.87585449219</ele>
        <time>2011-03-06T10:23:47Z</time>
      </trkpt>
      <trkpt lat="43.6198" lon="6.80207">
        <ele>371.8215637207</ele>
        <time>2011-03-06T10:23:53Z</time>
      </trkpt>
      <trkpt lat="43.61966" lon="6.80208">
        <ele>373.1344909668</ele>
        <time>2011-03-06T10:23:58Z</time>
      </trkpt>
      <trkpt lat="43.61952" lon="6.80211">
        <ele>374.15719604492</ele>
        <time>2011-03-06T10:24:03Z</time>
      </trkpt>
      <trkpt lat="43.61938" lon="6.80217">
        <ele>374.90649414062</ele>
        <time>2011-03-06T10:24:07Z</time>
      </trkpt>
      <trkpt lat="43.61926" lon="6.80219">
        <ele>375.84289550781</ele>
        <time>2011-03-06T10:24:12Z</time>
      </trkpt>
      <trkpt lat="43.61912" lon="6.80219">
        <ele>376.65771484375</ele>
        <time>2011-03-06T10:24:17Z</time>
      </trkpt>
      <trkpt lat="43.61899" lon="6.80219">
        <ele>376.83605957031</ele>
        <time>2011-03-06T10:24:22Z</time>
      </trkpt>
      <trkpt lat="43.61888" lon="6.80225">
        <ele>376.45010375977</ele>
        <time>2011-03-06T10:24:26Z</time>
      </trkpt>
      <trkpt lat="43.61871" lon="6.80232">
        <ele>375.91497802734</ele>
        <time>2011-03-06T10:24:31Z</time>
      </trkpt>
      <trkpt lat="43.61857" lon="6.80232">
        <ele>376.01602172852</ele>
        <time>2011-03-06T10:24:35Z</time>
      </trkpt>
      <trkpt lat="43.6184" lon="6.80234">
        <ele>375.91513061523</ele>
        <time>2011-03-06T10:24:40Z</time>
      </trkpt>
      <trkpt lat="43.61823" lon="6.80239">
        <ele>374.46734619141</ele>
        <time>2011-03-06T10:24:45Z</time>
      </trkpt>
      <trkpt lat="43.61806" lon="6.80238">
        <ele>373.15573120117</ele>
        <time>2011-03-06T10:24:50Z</time>
      </trkpt>
      <trkpt lat="43.61789" lon="6.80232">
        <ele>372.63128662109</ele>
        <time>2011-03-06T10:24:54Z</time>
      </trkpt>
      <trkpt lat="43.6178" lon="6.8022">
        <ele>373.32315063477</ele>
        <time>2011-03-06T10:24:58Z</time>
      </trkpt>
      <trkpt lat="43.6176" lon="6.8021">
        <ele>373.03607177734</ele>
        <time>2011-03-06T10:25:03Z</time>
      </trkpt>
      <trkpt lat="43.6175" lon="6.80208">
        <ele>372.54391479492</ele>
        <time>2011-03-06T10:25:05Z</time>
      </trkpt>
      <trkpt lat="43.61739" lon="6.80203">
        <ele>371.91220092773</ele>
        <time>2011-03-06T10:25:07Z</time>
      </trkpt>
      <trkpt lat="43.6172" lon="6.80196">
        <ele>370.50915527344</ele>
        <time>2011-03-06T10:25:11Z</time>
      </trkpt>
      <trkpt lat="43.61704" lon="6.80181">
        <ele>370.61328125</ele>
        <time>2011-03-06T10:25:15Z</time>
      </trkpt>
      <trkpt lat="43.61693" lon="6.80161">
        <ele>371.859375</ele>
        <time>2011-03-06T10:25:19Z</time>
      </trkpt>
      <trkpt lat="43.61689" lon="6.8015">
        <ele>372.50927734375</ele>
        <time>2011-03-06T10:25:21Z</time>
      </trkpt>
      <trkpt lat="43.61681" lon="6.80128">
        <ele>373.92639160156</ele>
        <time>2011-03-06T10:25:25Z</time>
      </trkpt>
      <trkpt lat="43.61673" lon="6.80113">
        <ele>374.6003112793</ele>
        <time>2011-03-06T10:25:28Z</time>
      </trkpt>
      <trkpt lat="43.61661" lon="6.80086">
        <ele>375.74603271484</ele>
        <time>2011-03-06T10:25:33Z</time>
      </trkpt>
      <trkpt lat="43.61657" lon="6.80081">
        <ele>375.65032958984</ele>
        <time>2011-03-06T10:25:34Z</time>
      </trkpt>
      <trkpt lat="43.61647" lon="6.8007">
        <ele>375.26123046875</ele>
        <time>2011-03-06T10:25:36Z</time>
      </trkpt>
      <trkpt lat="43.61633" lon="6.80056">
        <ele>374.26788330078</ele>
        <time>2011-03-06T10:25:39Z</time>
      </trkpt>
      <trkpt lat="43.61608" lon="6.80045">
        <ele>371.53045654297</ele>
        <time>2011-03-06T10:25:44Z</time>
      </trkpt>
      <trkpt lat="43.61604" lon="6.80041">
        <ele>371.20544433594</ele>
        <time>2011-03-06T10:25:45Z</time>
      </trkpt>
      <trkpt lat="43.61591" lon="6.8003">
        <ele>370.22125244141</ele>
        <time>2011-03-06T10:25:48Z</time>
      </trkpt>
      <trkpt lat="43.61577" lon="6.80022">
        <ele>368.48309326172</ele>
        <time>2011-03-06T10:25:51Z</time>
      </trkpt>
      <trkpt lat="43.61559" lon="6.79999">
        <ele>366.72946166992</ele>
        <time>2011-03-06T10:25:56Z</time>
      </trkpt>
      <trkpt lat="43.6155" lon="6.79977">
        <ele>367.73699951172</ele>
        <time>2011-03-06T10:26:00Z</time>
      </trkpt>
      <trkpt lat="43.61535" lon="6.79966">
        <ele>366.52520751953</ele>
        <time>2011-03-06T10:26:03Z</time>
      </trkpt>
      <trkpt lat="43.61521" lon="6.79953">
        <ele>366.22064208984</ele>
        <time>2011-03-06T10:26:06Z</time>
      </trkpt>
      <trkpt lat="43.61514" lon="6.79941">
        <ele>367.27828979492</ele>
        <time>2011-03-06T10:26:09Z</time>
      </trkpt>
      <trkpt lat="43.61509" lon="6.79932">
        <ele>368.25561523438</ele>
        <time>2011-03-06T10:26:13Z</time>
      </trkpt>
      <trkpt lat="43.61508" lon="6.79926">
        <ele>369.09851074219</ele>
        <time>2011-03-06T10:26:15Z</time>
      </trkpt>
      <trkpt lat="43.61502" lon="6.79909">
        <ele>371.03375244141</ele>
        <time>2011-03-06T10:26:22Z</time>
      </trkpt>
      <trkpt lat="43.61496" lon="6.79894">
        <ele>372.49752807617</ele>
        <time>2011-03-06T10:26:27Z</time>
      </trkpt>
      <trkpt lat="43.61488" lon="6.79868">
        <ele>375.27331542969</ele>
        <time>2011-03-06T10:26:34Z</time>
      </trkpt>
      <trkpt lat="43.61482" lon="6.7985">
        <ele>377.15298461914</ele>
        <time>2011-03-06T10:26:39Z</time>
      </trkpt>
      <trkpt lat="43.61476" lon="6.79829">
        <ele>379.048828125</ele>
        <time>2011-03-06T10:26:45Z</time>
      </trkpt>
      <trkpt lat="43.6147" lon="6.7981">
        <ele>379.27770996094</ele>
        <time>2011-03-06T10:26:51Z</time>
      </trkpt>
      <trkpt lat="43.61461" lon="6.79797">
        <ele>379.43280029297</ele>
        <time>2011-03-06T10:26:57Z</time>
      </trkpt>
      <trkpt lat="43.61451" lon="6.79788">
        <ele>379.5380859375</ele>
        <time>2011-03-06T10:27:03Z</time>
      </trkpt>
      <trkpt lat="43.61449" lon="6.79787">
        <ele>379.55810546875</ele>
        <time>2011-03-06T10:27:04Z</time>
      </trkpt>
      <trkpt lat="43.61442" lon="6.79782">
        <ele>379.61590576172</ele>
        <time>2011-03-06T10:27:09Z</time>
      </trkpt>
      <trkpt lat="43.6144" lon="6.7978">
        <ele>379.63763427734</ele>
        <time>2011-03-06T10:27:11Z</time>
      </trkpt>
      <trkpt lat="43.6143" lon="6.79775">
        <ele>379.70114135742</ele>
        <time>2011-03-06T10:27:19Z</time>
      </trkpt>
      <trkpt lat="43.61423" lon="6.79782">
        <ele>379.61990356445</ele>
        <time>2011-03-06T10:27:23Z</time>
      </trkpt>
      <trkpt lat="43.61412" lon="6.79792">
        <ele>379.4934387207</ele>
        <time>2011-03-06T10:27:30Z</time>
      </trkpt>
      <trkpt lat="43.61406" lon="6.79796">
        <ele>379.44479370117</ele>
        <time>2011-03-06T10:27:35Z</time>
      </trkpt>
      <trkpt lat="43.61399" lon="6.79799">
        <ele>379.40762329102</ele>
        <time>2011-03-06T10:28:31Z</time>
      </trkpt>
      <trkpt lat="43.61392" lon="6.79808">
        <ele>379.30462646484</ele>
        <time>2011-03-06T10:28:35Z</time>
      </trkpt>
      <trkpt lat="43.61385" lon="6.79826">
        <ele>379.08374023438</ele>
        <time>2011-03-06T10:28:41Z</time>
      </trkpt>
      <trkpt lat="43.61378" lon="6.79846">
        <ele>377.75555419922</ele>
        <time>2011-03-06T10:28:45Z</time>
      </trkpt>
      <trkpt lat="43.6137" lon="6.79882">
        <ele>374.40036010742</ele>
        <time>2011-03-06T10:28:49Z</time>
      </trkpt>
      <trkpt lat="43.61358" lon="6.79928">
        <ele>369.92852783203</ele>
        <time>2011-03-06T10:28:54Z</time>
      </trkpt>
      <trkpt lat="43.61356" lon="6.79935">
        <ele>369.04922485352</ele>
        <time>2011-03-06T10:28:55Z</time>
      </trkpt>
      <trkpt lat="43.61349" lon="6.79947">
        <ele>367.78549194336</ele>
        <time>2011-03-06T10:28:59Z</time>
      </trkpt>
      <trkpt lat="43.61347" lon="6.79946">
        <ele>368.02642822266</ele>
        <time>2011-03-06T10:29:01Z</time>
      </trkpt>
      <trkpt lat="43.6134" lon="6.79941">
        <ele>368.81665039062</ele>
        <time>2011-03-06T10:29:09Z</time>
      </trkpt>
      <trkpt lat="43.61337" lon="6.79941">
        <ele>368.97750854492</ele>
        <time>2011-03-06T10:29:15Z</time>
      </trkpt>
      <trkpt lat="43.6133" lon="6.79938">
        <ele>369.59164428711</ele>
        <time>2011-03-06T10:29:21Z</time>
      </trkpt>
      <trkpt lat="43.61328" lon="6.79939">
        <ele>369.59948730469</ele>
        <time>2011-03-06T10:29:23Z</time>
      </trkpt>
      <trkpt lat="43.61324" lon="6.7994">
        <ele>369.58981323242</ele>
        <time>2011-03-06T10:29:26Z</time>
      </trkpt>
      <trkpt lat="43.61321" lon="6.79944">
        <ele>369.32205200195</ele>
        <time>2011-03-06T10:29:30Z</time>
      </trkpt>
      <trkpt lat="43.61314" lon="6.79946">
        <ele>369.39990234375</ele>
        <time>2011-03-06T10:29:35Z</time>
      </trkpt>
      <trkpt lat="43.61304" lon="6.7994">
        <ele>370.51547241211</ele>
        <time>2011-03-06T10:29:41Z</time>
      </trkpt>
      <trkpt lat="43.61293" lon="6.79924">
        <ele>372.67822265625</ele>
        <time>2011-03-06T10:29:49Z</time>
      </trkpt>
      <trkpt lat="43.61285" lon="6.79915">
        <ele>373.92517089844</ele>
        <time>2011-03-06T10:29:55Z</time>
      </trkpt>
      <trkpt lat="43.61275" lon="6.7992">
        <ele>373.81201171875</ele>
        <time>2011-03-06T10:30:01Z</time>
      </trkpt>
      <trkpt lat="43.61266" lon="6.79925">
        <ele>373.63275146484</ele>
        <time>2011-03-06T10:30:05Z</time>
      </trkpt>
      <trkpt lat="43.61249" lon="6.79938">
        <ele>373.26318359375</ele>
        <time>2011-03-06T10:30:10Z</time>
      </trkpt>
      <trkpt lat="43.61234" lon="6.79946">
        <ele>373.58502197266</ele>
        <time>2011-03-06T10:30:14Z</time>
      </trkpt>
      <trkpt lat="43.61223" lon="6.79946">
        <ele>374.27432250977</ele>
        <time>2011-03-06T10:30:18Z</time>
      </trkpt>
      <trkpt lat="43.61219" lon="6.79946">
        <ele>374.56192016602</ele>
        <time>2011-03-06T10:30:20Z</time>
      </trkpt>
      <trkpt lat="43.61207" lon="6.79949">
        <ele>375.11306762695</ele>
        <time>2011-03-06T10:30:25Z</time>
      </trkpt>
      <trkpt lat="43.61191" lon="6.79962">
        <ele>375.56469726562</ele>
        <time>2011-03-06T10:30:31Z</time>
      </trkpt>
      <trkpt lat="43.61174" lon="6.79975">
        <ele>376.31524658203</ele>
        <time>2011-03-06T10:30:36Z</time>
      </trkpt>
      <trkpt lat="43.61158" lon="6.79984">
        <ele>375.77575683594</ele>
        <time>2011-03-06T10:30:39Z</time>
      </trkpt>
      <trkpt lat="43.61134" lon="6.79979">
        <ele>373.75674438477</ele>
        <time>2011-03-06T10:30:44Z</time>
      </trkpt>
      <trkpt lat="43.61126" lon="6.79977">
        <ele>373.16497802734</ele>
        <time>2011-03-06T10:30:46Z</time>
      </trkpt>
      <trkpt lat="43.61114" lon="6.79976">
        <ele>372.06341552734</ele>
        <time>2011-03-06T10:30:49Z</time>
      </trkpt>
      <trkpt lat="43.61097" lon="6.79968">
        <ele>371.28833007812</ele>
        <time>2011-03-06T10:30:53Z</time>
      </trkpt>
      <trkpt lat="43.61077" lon="6.79954">
        <ele>370.55068969727</ele>
        <time>2011-03-06T10:30:58Z</time>
      </trkpt>
      <trkpt lat="43.61051" lon="6.79936">
        <ele>368.36273193359</ele>
        <time>2011-03-06T10:31:05Z</time>
      </trkpt>
      <trkpt lat="43.61032" lon="6.79948">
        <ele>364.70809936523</ele>
        <time>2011-03-06T10:31:10Z</time>
      </trkpt>
      <trkpt lat="43.61026" lon="6.7996">
        <ele>362.94476318359</ele>
        <time>2011-03-06T10:31:12Z</time>
      </trkpt>
      <trkpt lat="43.61015" lon="6.7998">
        <ele>360.18716430664</ele>
        <time>2011-03-06T10:31:15Z</time>
      </trkpt>
      <trkpt lat="43.61004" lon="6.80017">
        <ele>357.67630004883</ele>
        <time>2011-03-06T10:31:19Z</time>
      </trkpt>
      <trkpt lat="43.60998" lon="6.80033">
        <ele>357.19320678711</ele>
        <time>2011-03-06T10:31:21Z</time>
      </trkpt>
      <trkpt lat="43.60987" lon="6.80071">
        <ele>356.67541503906</ele>
        <time>2011-03-06T10:31:25Z</time>
      </trkpt>
      <trkpt lat="43.60969" lon="6.80102">
        <ele>356.14584350586</ele>
        <time>2011-03-06T10:31:29Z</time>
      </trkpt>
      <trkpt lat="43.60949" lon="6.80123">
        <ele>355.80410766602</ele>
        <time>2011-03-06T10:31:32Z</time>
      </trkpt>
      <trkpt lat="43.60923" lon="6.80131">
        <ele>354.80908203125</ele>
        <time>2011-03-06T10:31:36Z</time>
      </trkpt>
      <trkpt lat="43.60914" lon="6.80123">
        <ele>353.96627807617</ele>
        <time>2011-03-06T10:31:38Z</time>
      </trkpt>
      <trkpt lat="43.60897" lon="6.8012">
        <ele>354.26974487305</ele>
        <time>2011-03-06T10:31:43Z</time>
      </trkpt>
      <trkpt lat="43.60884" lon="6.80112">
        <ele>354.23931884766</ele>
        <time>2011-03-06T10:31:48Z</time>
      </trkpt>
      <trkpt lat="43.60871" lon="6.80101">
        <ele>354.14395141602</ele>
        <time>2011-03-06T10:31:54Z</time>
      </trkpt>
      <trkpt lat="43.60856" lon="6.80093">
        <ele>354.32641601562</ele>
        <time>2011-03-06T10:32:00Z</time>
      </trkpt>
      <trkpt lat="43.60845" lon="6.80084">
        <ele>354.47439575195</ele>
        <time>2011-03-06T10:32:07Z</time>
      </trkpt>
      <trkpt lat="43.60835" lon="6.80075">
        <ele>354.32162475586</ele>
        <time>2011-03-06T10:32:13Z</time>
      </trkpt>
      <trkpt lat="43.60833" lon="6.80074">
        <ele>354.33200073242</ele>
        <time>2011-03-06T10:32:14Z</time>
      </trkpt>
      <trkpt lat="43.6082" lon="6.80067">
        <ele>355.55557250977</ele>
        <time>2011-03-06T10:32:20Z</time>
      </trkpt>
      <trkpt lat="43.60807" lon="6.80053">
        <ele>356.49127197266</ele>
        <time>2011-03-06T10:32:26Z</time>
      </trkpt>
      <trkpt lat="43.60797" lon="6.80036">
        <ele>356.90902709961</ele>
        <time>2011-03-06T10:32:31Z</time>
      </trkpt>
      <trkpt lat="43.60788" lon="6.80024">
        <ele>357.67523193359</ele>
        <time>2011-03-06T10:32:35Z</time>
      </trkpt>
      <trkpt lat="43.60765" lon="6.80008">
        <ele>360.68151855469</ele>
        <time>2011-03-06T10:32:43Z</time>
      </trkpt>
      <trkpt lat="43.60747" lon="6.80001">
        <ele>363.20712280273</ele>
        <time>2011-03-06T10:32:49Z</time>
      </trkpt>
      <trkpt lat="43.60735" lon="6.79991">
        <ele>363.50628662109</ele>
        <time>2011-03-06T10:32:54Z</time>
      </trkpt>
      <trkpt lat="43.60717" lon="6.79982">
        <ele>364.11511230469</ele>
        <time>2011-03-06T10:33:01Z</time>
      </trkpt>
      <trkpt lat="43.60709" lon="6.79978">
        <ele>364.37145996094</ele>
        <time>2011-03-06T10:33:04Z</time>
      </trkpt>
      <trkpt lat="43.60694" lon="6.79972">
        <ele>365.02606201172</ele>
        <time>2011-03-06T10:33:11Z</time>
      </trkpt>
      <trkpt lat="43.60682" lon="6.79969">
        <ele>365.56622314453</ele>
        <time>2011-03-06T10:33:17Z</time>
      </trkpt>
      <trkpt lat="43.60674" lon="6.79967">
        <ele>365.98278808594</ele>
        <time>2011-03-06T10:33:21Z</time>
      </trkpt>
      <trkpt lat="43.60663" lon="6.79965">
        <ele>366.32797241211</ele>
        <time>2011-03-06T10:33:26Z</time>
      </trkpt>
      <trkpt lat="43.60647" lon="6.79959">
        <ele>365.93005371094</ele>
        <time>2011-03-06T10:33:32Z</time>
      </trkpt>
      <trkpt lat="43.60617" lon="6.7995">
        <ele>365.10427856445</ele>
        <time>2011-03-06T10:33:39Z</time>
      </trkpt>
      <trkpt lat="43.60601" lon="6.79946">
        <ele>364.66412353516</ele>
        <time>2011-03-06T10:33:42Z</time>
      </trkpt>
      <trkpt lat="43.60575" lon="6.79952">
        <ele>365.10458374023</ele>
        <time>2011-03-06T10:33:47Z</time>
      </trkpt>
      <trkpt lat="43.6055" lon="6.79958">
        <ele>365.90341186523</ele>
        <time>2011-03-06T10:33:52Z</time>
      </trkpt>
      <trkpt lat="43.60545" lon="6.79955">
        <ele>365.81372070312</ele>
        <time>2011-03-06T10:33:53Z</time>
      </trkpt>
      <trkpt lat="43.60534" lon="6.79947">
        <ele>365.63247680664</ele>
        <time>2011-03-06T10:33:55Z</time>
      </trkpt>
      <trkpt lat="43.60513" lon="6.79939">
        <ele>365.89889526367</ele>
        <time>2011-03-06T10:33:59Z</time>
      </trkpt>
      <trkpt lat="43.60496" lon="6.79932">
        <ele>366.29959106445</ele>
        <time>2011-03-06T10:34:02Z</time>
      </trkpt>
      <trkpt lat="43.6048" lon="6.79912">
        <ele>366.63519287109</ele>
        <time>2011-03-06T10:34:06Z</time>
      </trkpt>
      <trkpt lat="43.60471" lon="6.79901">
        <ele>366.86618041992</ele>
        <time>2011-03-06T10:34:09Z</time>
      </trkpt>
      <trkpt lat="43.60462" lon="6.79905">
        <ele>367.28552246094</ele>
        <time>2011-03-06T10:34:12Z</time>
      </trkpt>
      <trkpt lat="43.60449" lon="6.7992">
        <ele>367.81100463867</ele>
        <time>2011-03-06T10:34:17Z</time>
      </trkpt>
      <trkpt lat="43.60435" lon="6.79927">
        <ele>368.15069580078</ele>
        <time>2011-03-06T10:34:20Z</time>
      </trkpt>
      <trkpt lat="43.60426" lon="6.79933">
        <ele>368.33444213867</ele>
        <time>2011-03-06T10:34:22Z</time>
      </trkpt>
      <trkpt lat="43.60403" lon="6.79953">
        <ele>367.98422241211</ele>
        <time>2011-03-06T10:34:28Z</time>
      </trkpt>
      <trkpt lat="43.60382" lon="6.79971">
        <ele>367.14138793945</ele>
        <time>2011-03-06T10:34:35Z</time>
      </trkpt>
      <trkpt lat="43.60366" lon="6.79973">
        <ele>366.82577514648</ele>
        <time>2011-03-06T10:34:40Z</time>
      </trkpt>
      <trkpt lat="43.60346" lon="6.79966">
        <ele>366.80999755859</ele>
        <time>2011-03-06T10:34:47Z</time>
      </trkpt>
      <trkpt lat="43.6033" lon="6.79964">
        <ele>366.44589233398</ele>
        <time>2011-03-06T10:34:52Z</time>
      </trkpt>
      <trkpt lat="43.6031" lon="6.79966">
        <ele>364.7966003418</ele>
        <time>2011-03-06T10:34:58Z</time>
      </trkpt>
      <trkpt lat="43.60291" lon="6.79968">
        <ele>363.23315429688</ele>
        <time>2011-03-06T10:35:03Z</time>
      </trkpt>
      <trkpt lat="43.60264" lon="6.7997">
        <ele>360.95758056641</ele>
        <time>2011-03-06T10:35:08Z</time>
      </trkpt>
      <trkpt lat="43.60244" lon="6.79969">
        <ele>358.45825195312</ele>
        <time>2011-03-06T10:35:12Z</time>
      </trkpt>
      <trkpt lat="43.60242" lon="6.79988">
        <ele>356.07168579102</ele>
        <time>2011-03-06T10:35:16Z</time>
      </trkpt>
      <trkpt lat="43.60246" lon="6.79999">
        <ele>356.10845947266</ele>
        <time>2011-03-06T10:35:18Z</time>
      </trkpt>
      <trkpt lat="43.60269" lon="6.80034">
        <ele>354.27102661133</ele>
        <time>2011-03-06T10:35:24Z</time>
      </trkpt>
      <trkpt lat="43.60282" lon="6.80073">
        <ele>351.43637084961</ele>
        <time>2011-03-06T10:35:29Z</time>
      </trkpt>
      <trkpt lat="43.60296" lon="6.80105">
        <ele>348.28872680664</ele>
        <time>2011-03-06T10:35:33Z</time>
      </trkpt>
      <trkpt lat="43.60305" lon="6.80121">
        <ele>347.1208190918</ele>
        <time>2011-03-06T10:35:35Z</time>
      </trkpt>
      <trkpt lat="43.60322" lon="6.80142">
        <ele>346.84356689453</ele>
        <time>2011-03-06T10:35:38Z</time>
      </trkpt>
      <trkpt lat="43.60347" lon="6.80168">
        <ele>346.02307128906</ele>
        <time>2011-03-06T10:35:42Z</time>
      </trkpt>
      <trkpt lat="43.60383" lon="6.8019">
        <ele>344.04696655273</ele>
        <time>2011-03-06T10:35:47Z</time>
      </trkpt>
      <trkpt lat="43.60397" lon="6.80194">
        <ele>344.3630065918</ele>
        <time>2011-03-06T10:35:49Z</time>
      </trkpt>
      <trkpt lat="43.6043" lon="6.80192">
        <ele>348.17602539062</ele>
        <time>2011-03-06T10:35:54Z</time>
      </trkpt>
      <trkpt lat="43.60435" lon="6.80192">
        <ele>348.70590209961</ele>
        <time>2011-03-06T10:35:55Z</time>
      </trkpt>
      <trkpt lat="43.60445" lon="6.80194">
        <ele>349.03323364258</ele>
        <time>2011-03-06T10:35:57Z</time>
      </trkpt>
      <trkpt lat="43.60455" lon="6.80211">
        <ele>346.59027099609</ele>
        <time>2011-03-06T10:36:01Z</time>
      </trkpt>
      <trkpt lat="43.60464" lon="6.80228">
        <ele>344.13311767578</ele>
        <time>2011-03-06T10:36:04Z</time>
      </trkpt>
      <trkpt lat="43.60475" lon="6.80256">
        <ele>340.16134643555</ele>
        <time>2011-03-06T10:36:08Z</time>
      </trkpt>
      <trkpt lat="43.60488" lon="6.80286">
        <ele>336.13079833984</ele>
        <time>2011-03-06T10:36:12Z</time>
      </trkpt>
      <trkpt lat="43.60494" lon="6.80297">
        <ele>335.08374023438</ele>
        <time>2011-03-06T10:36:14Z</time>
      </trkpt>
      <trkpt lat="43.60509" lon="6.80317">
        <ele>333.86254882812</ele>
        <time>2011-03-06T10:36:18Z</time>
      </trkpt>
      <trkpt lat="43.60529" lon="6.80336">
        <ele>334.16107177734</ele>
        <time>2011-03-06T10:36:22Z</time>
      </trkpt>
      <trkpt lat="43.60551" lon="6.8035">
        <ele>335.15573120117</ele>
        <time>2011-03-06T10:36:26Z</time>
      </trkpt>
      <trkpt lat="43.6058" lon="6.80374">
        <ele>335.21493530273</ele>
        <time>2011-03-06T10:36:32Z</time>
      </trkpt>
      <trkpt lat="43.60601" lon="6.80396">
        <ele>333.61810302734</ele>
        <time>2011-03-06T10:36:36Z</time>
      </trkpt>
      <trkpt lat="43.60624" lon="6.80419">
        <ele>332.84390258789</ele>
        <time>2011-03-06T10:36:40Z</time>
      </trkpt>
      <trkpt lat="43.60659" lon="6.80452">
        <ele>330.13412475586</ele>
        <time>2011-03-06T10:36:46Z</time>
      </trkpt>
      <trkpt lat="43.60678" lon="6.80467">
        <ele>328.27459716797</ele>
        <time>2011-03-06T10:36:49Z</time>
      </trkpt>
      <trkpt lat="43.60694" lon="6.80476">
        <ele>327.83111572266</ele>
        <time>2011-03-06T10:36:53Z</time>
      </trkpt>
      <trkpt lat="43.60703" lon="6.80486">
        <ele>326.80389404297</ele>
        <time>2011-03-06T10:36:57Z</time>
      </trkpt>
      <trkpt lat="43.60711" lon="6.80496">
        <ele>325.4821472168</ele>
        <time>2011-03-06T10:37:01Z</time>
      </trkpt>
      <trkpt lat="43.60726" lon="6.80516">
        <ele>323.47668457031</ele>
        <time>2011-03-06T10:37:07Z</time>
      </trkpt>
      <trkpt lat="43.60744" lon="6.80531">
        <ele>322.97146606445</ele>
        <time>2011-03-06T10:37:13Z</time>
      </trkpt>
      <trkpt lat="43.60761" lon="6.80541">
        <ele>323.01968383789</ele>
        <time>2011-03-06T10:37:20Z</time>
      </trkpt>
      <trkpt lat="43.60777" lon="6.80556">
        <ele>321.38607788086</ele>
        <time>2011-03-06T10:37:26Z</time>
      </trkpt>
      <trkpt lat="43.60802" lon="6.8058">
        <ele>319.55032348633</ele>
        <time>2011-03-06T10:37:32Z</time>
      </trkpt>
      <trkpt lat="43.60806" lon="6.80584">
        <ele>319.26022338867</ele>
        <time>2011-03-06T10:37:33Z</time>
      </trkpt>
      <trkpt lat="43.60835" lon="6.80607">
        <ele>318.84527587891</ele>
        <time>2011-03-06T10:37:39Z</time>
      </trkpt>
      <trkpt lat="43.60852" lon="6.80628">
        <ele>316.80395507812</ele>
        <time>2011-03-06T10:37:43Z</time>
      </trkpt>
      <trkpt lat="43.60881" lon="6.80657">
        <ele>313.89791870117</ele>
        <time>2011-03-06T10:37:48Z</time>
      </trkpt>
      <trkpt lat="43.60908" lon="6.80669">
        <ele>313.85314941406</ele>
        <time>2011-03-06T10:37:51Z</time>
      </trkpt>
      <trkpt lat="43.60936" lon="6.8068">
        <ele>312.93832397461</ele>
        <time>2011-03-06T10:37:54Z</time>
      </trkpt>
      <trkpt lat="43.60955" lon="6.80683">
        <ele>312.68981933594</ele>
        <time>2011-03-06T10:37:56Z</time>
      </trkpt>
      <trkpt lat="43.6099" lon="6.8067">
        <ele>315.34066772461</ele>
        <time>2011-03-06T10:38:00Z</time>
      </trkpt>
      <trkpt lat="43.61031" lon="6.80648">
        <ele>319.35217285156</ele>
        <time>2011-03-06T10:38:05Z</time>
      </trkpt>
      <trkpt lat="43.61053" lon="6.80661">
        <ele>316.51937866211</ele>
        <time>2011-03-06T10:38:09Z</time>
      </trkpt>
      <trkpt lat="43.6106" lon="6.80693">
        <ele>311.57803344727</ele>
        <time>2011-03-06T10:38:13Z</time>
      </trkpt>
      <trkpt lat="43.61063" lon="6.80717">
        <ele>308.22259521484</ele>
        <time>2011-03-06T10:38:16Z</time>
      </trkpt>
      <trkpt lat="43.61069" lon="6.80745">
        <ele>304.3896484375</ele>
        <time>2011-03-06T10:38:20Z</time>
      </trkpt>
      <trkpt lat="43.61073" lon="6.80753">
        <ele>303.25668334961</ele>
        <time>2011-03-06T10:38:22Z</time>
      </trkpt>
      <trkpt lat="43.61086" lon="6.80772">
        <ele>300.67953491211</ele>
        <time>2011-03-06T10:38:27Z</time>
      </trkpt>
      <trkpt lat="43.61104" lon="6.80791">
        <ele>298.35583496094</ele>
        <time>2011-03-06T10:38:31Z</time>
      </trkpt>
      <trkpt lat="43.61135" lon="6.80799">
        <ele>298.19732666016</ele>
        <time>2011-03-06T10:38:36Z</time>
      </trkpt>
      <trkpt lat="43.6114" lon="6.808">
        <ele>298.27914428711</ele>
        <time>2011-03-06T10:38:37Z</time>
      </trkpt>
      <trkpt lat="43.61161" lon="6.80798">
        <ele>299.22787475586</ele>
        <time>2011-03-06T10:38:41Z</time>
      </trkpt>
      <trkpt lat="43.61167" lon="6.80805">
        <ele>298.41165161133</ele>
        <time>2011-03-06T10:38:44Z</time>
      </trkpt>
      <trkpt lat="43.61177" lon="6.8083">
        <ele>294.6774597168</ele>
        <time>2011-03-06T10:38:50Z</time>
      </trkpt>
      <trkpt lat="43.61177" lon="6.8085">
        <ele>291.19375610352</ele>
        <time>2011-03-06T10:38:53Z</time>
      </trkpt>
      <trkpt lat="43.61176" lon="6.80869">
        <ele>287.70999145508</ele>
        <time>2011-03-06T10:38:58Z</time>
      </trkpt>
      <trkpt lat="43.61172" lon="6.80885">
        <ele>284.84289550781</ele>
        <time>2011-03-06T10:39:02Z</time>
      </trkpt>
      <trkpt lat="43.61171" lon="6.8089">
        <ele>283.86413574219</ele>
        <time>2011-03-06T10:39:03Z</time>
      </trkpt>
      <trkpt lat="43.61171" lon="6.80917">
        <ele>279.01425170898</ele>
        <time>2011-03-06T10:39:08Z</time>
      </trkpt>
      <trkpt lat="43.61168" lon="6.80931">
        <ele>276.69189453125</ele>
        <time>2011-03-06T10:39:11Z</time>
      </trkpt>
      <trkpt lat="43.61161" lon="6.80944">
        <ele>274.72665405273</ele>
        <time>2011-03-06T10:39:13Z</time>
      </trkpt>
      <trkpt lat="43.61153" lon="6.80958">
        <ele>272.65594482422</ele>
        <time>2011-03-06T10:39:15Z</time>
      </trkpt>
      <trkpt lat="43.61143" lon="6.80975">
        <ele>270.33010864258</ele>
        <time>2011-03-06T10:39:18Z</time>
      </trkpt>
      <trkpt lat="43.61145" lon="6.80991">
        <ele>267.87112426758</ele>
        <time>2011-03-06T10:39:23Z</time>
      </trkpt>
      <trkpt lat="43.61156" lon="6.80989">
        <ele>267.89590454102</ele>
        <time>2011-03-06T10:39:26Z</time>
      </trkpt>
      <trkpt lat="43.61169" lon="6.81002">
        <ele>265.55850219727</ele>
        <time>2011-03-06T10:39:30Z</time>
      </trkpt>
      <trkpt lat="43.61167" lon="6.81028">
        <ele>261.04281616211</ele>
        <time>2011-03-06T10:39:34Z</time>
      </trkpt>
      <trkpt lat="43.61164" lon="6.8105">
        <ele>257.07672119141</ele>
        <time>2011-03-06T10:39:37Z</time>
      </trkpt>
      <trkpt lat="43.61169" lon="6.81055">
        <ele>255.88031005859</ele>
        <time>2011-03-06T10:39:39Z</time>
      </trkpt>
      <trkpt lat="43.61188" lon="6.81061">
        <ele>253.39184570312</ele>
        <time>2011-03-06T10:39:43Z</time>
      </trkpt>
      <trkpt lat="43.61195" lon="6.81063">
        <ele>252.50619506836</ele>
        <time>2011-03-06T10:39:44Z</time>
      </trkpt>
      <trkpt lat="43.61216" lon="6.81077">
        <ele>248.18046569824</ele>
        <time>2011-03-06T10:39:48Z</time>
      </trkpt>
      <trkpt lat="43.61228" lon="6.81083">
        <ele>245.89933776856</ele>
        <time>2011-03-06T10:39:51Z</time>
      </trkpt>
      <trkpt lat="43.61231" lon="6.81085">
        <ele>245.36437988281</ele>
        <time>2011-03-06T10:39:55Z</time>
      </trkpt>
      <trkpt lat="43.61236" lon="6.81095">
        <ele>243.39665222168</ele>
        <time>2011-03-06T10:40:32Z</time>
      </trkpt>
      <trkpt lat="43.61237" lon="6.81091">
        <ele>243.87223815918</ele>
        <time>2011-03-06T10:40:38Z</time>
      </trkpt>
      <trkpt lat="43.61248" lon="6.81099">
        <ele>241.88720703125</ele>
        <time>2011-03-06T10:40:42Z</time>
      </trkpt>
      <trkpt lat="43.6126" lon="6.811">
        <ele>241.14579772949</ele>
        <time>2011-03-06T10:40:44Z</time>
      </trkpt>
      <trkpt lat="43.61313" lon="6.81082">
        <ele>240.49320983887</ele>
        <time>2011-03-06T10:40:51Z</time>
      </trkpt>
      <trkpt lat="43.61349" lon="6.81068">
        <ele>243.2692565918</ele>
        <time>2011-03-06T10:40:55Z</time>
      </trkpt>
      <trkpt lat="43.61379" lon="6.81055">
        <ele>246.8362121582</ele>
        <time>2011-03-06T10:40:59Z</time>
      </trkpt>
      <trkpt lat="43.61384" lon="6.81054">
        <ele>247.23483276367</ele>
        <time>2011-03-06T10:41:00Z</time>
      </trkpt>
      <trkpt lat="43.61389" lon="6.81061">
        <ele>246.54693603516</ele>
        <time>2011-03-06T10:41:03Z</time>
      </trkpt>
      <trkpt lat="43.61382" lon="6.8107">
        <ele>244.8515625</ele>
        <time>2011-03-06T10:41:06Z</time>
      </trkpt>
      <trkpt lat="43.61379" lon="6.81074">
        <ele>244.22218322754</ele>
        <time>2011-03-06T10:41:10Z</time>
      </trkpt>
      <trkpt lat="43.61379" lon="6.81073">
        <ele>244.28393554688</ele>
        <time>2011-03-06T10:41:11Z</time>
      </trkpt>
      <trkpt lat="43.61376" lon="6.81074">
        <ele>243.88514709473</ele>
        <time>2011-03-06T10:41:13Z</time>
      </trkpt>
      <trkpt lat="43.61367" lon="6.81084">
        <ele>241.78984069824</ele>
        <time>2011-03-06T10:41:18Z</time>
      </trkpt>
      <trkpt lat="43.61355" lon="6.81103">
        <ele>239.19367980957</ele>
        <time>2011-03-06T10:41:23Z</time>
      </trkpt>
      <trkpt lat="43.61351" lon="6.81118">
        <ele>237.50915527344</ele>
        <time>2011-03-06T10:41:26Z</time>
      </trkpt>
      <trkpt lat="43.61348" lon="6.8114">
        <ele>235.29460144043</ele>
        <time>2011-03-06T10:41:31Z</time>
      </trkpt>
      <trkpt lat="43.61346" lon="6.8116">
        <ele>233.22616577148</ele>
        <time>2011-03-06T10:41:36Z</time>
      </trkpt>
      <trkpt lat="43.61346" lon="6.81165">
        <ele>232.79991149902</ele>
        <time>2011-03-06T10:41:37Z</time>
      </trkpt>
      <trkpt lat="43.61344" lon="6.81174">
        <ele>231.78446960449</ele>
        <time>2011-03-06T10:41:40Z</time>
      </trkpt>
      <trkpt lat="43.61343" lon="6.81183">
        <ele>230.79801940918</ele>
        <time>2011-03-06T10:41:45Z</time>
      </trkpt>
      <trkpt lat="43.61341" lon="6.81192">
        <ele>229.73487854004</ele>
        <time>2011-03-06T10:41:51Z</time>
      </trkpt>
      <trkpt lat="43.61341" lon="6.81196">
        <ele>229.34460449219</ele>
        <time>2011-03-06T10:41:57Z</time>
      </trkpt>
      <trkpt lat="43.61341" lon="6.81197">
        <ele>229.15672302246</ele>
        <time>2011-03-06T10:41:58Z</time>
      </trkpt>
      <trkpt lat="43.61337" lon="6.8122">
        <ele>226.52275085449</ele>
        <time>2011-03-06T10:42:04Z</time>
      </trkpt>
      <trkpt lat="43.61335" lon="6.81231">
        <ele>225.13421630859</ele>
        <time>2011-03-06T10:42:07Z</time>
      </trkpt>
      <trkpt lat="43.61323" lon="6.81253">
        <ele>222.55334472656</ele>
        <time>2011-03-06T10:42:13Z</time>
      </trkpt>
      <trkpt lat="43.61311" lon="6.81263">
        <ele>221.39178466797</ele>
        <time>2011-03-06T10:42:17Z</time>
      </trkpt>
      <trkpt lat="43.61309" lon="6.81268">
        <ele>220.92289733887</ele>
        <time>2011-03-06T10:42:20Z</time>
      </trkpt>
      <trkpt lat="43.61312" lon="6.81294">
        <ele>218.92869567871</ele>
        <time>2011-03-06T10:42:25Z</time>
      </trkpt>
      <trkpt lat="43.61313" lon="6.813">
        <ele>218.48631286621</ele>
        <time>2011-03-06T10:42:26Z</time>
      </trkpt>
      <trkpt lat="43.61322" lon="6.8133">
        <ele>216.56523132324</ele>
        <time>2011-03-06T10:42:31Z</time>
      </trkpt>
      <trkpt lat="43.61337" lon="6.81371">
        <ele>215.42198181152</ele>
        <time>2011-03-06T10:42:37Z</time>
      </trkpt>
      <trkpt lat="43.61343" lon="6.81387">
        <ele>215.52635192871</ele>
        <time>2011-03-06T10:42:39Z</time>
      </trkpt>
      <trkpt lat="43.61353" lon="6.81419">
        <ele>215.1755065918</ele>
        <time>2011-03-06T10:42:43Z</time>
      </trkpt>
      <trkpt lat="43.61354" lon="6.81453">
        <ele>212.36369323731</ele>
        <time>2011-03-06T10:42:47Z</time>
      </trkpt>
      <trkpt lat="43.61341" lon="6.81475">
        <ele>208.49444580078</ele>
        <time>2011-03-06T10:42:50Z</time>
      </trkpt>
      <trkpt lat="43.61297" lon="6.81527">
        <ele>200.10133361816</ele>
        <time>2011-03-06T10:42:57Z</time>
      </trkpt>
      <trkpt lat="43.61275" lon="6.81533">
        <ele>197.98472595215</ele>
        <time>2011-03-06T10:43:01Z</time>
      </trkpt>
      <trkpt lat="43.61252" lon="6.8153">
        <ele>196.36198425293</ele>
        <time>2011-03-06T10:43:05Z</time>
      </trkpt>
      <trkpt lat="43.61237" lon="6.81546">
        <ele>194.76910400391</ele>
        <time>2011-03-06T10:43:09Z</time>
      </trkpt>
      <trkpt lat="43.6123" lon="6.81558">
        <ele>193.7780456543</ele>
        <time>2011-03-06T10:43:11Z</time>
      </trkpt>
      <trkpt lat="43.61223" lon="6.81576">
        <ele>192.48086547852</ele>
        <time>2011-03-06T10:43:17Z</time>
      </trkpt>
      <trkpt lat="43.61205" lon="6.81581">
        <ele>191.49838256836</ele>
        <time>2011-03-06T10:43:23Z</time>
      </trkpt>
      <trkpt lat="43.6119" lon="6.81581">
        <ele>190.95135498047</ele>
        <time>2011-03-06T10:43:27Z</time>
      </trkpt>
      <trkpt lat="43.61188" lon="6.81582">
        <ele>190.85466003418</ele>
        <time>2011-03-06T10:43:28Z</time>
      </trkpt>
      <trkpt lat="43.61187" lon="6.81596">
        <ele>189.97402954102</ele>
        <time>2011-03-06T10:43:33Z</time>
      </trkpt>
      <trkpt lat="43.6119" lon="6.81617">
        <ele>188.82791137695</ele>
        <time>2011-03-06T10:43:38Z</time>
      </trkpt>
      <trkpt lat="43.61191" lon="6.81627">
        <ele>188.26028442383</ele>
        <time>2011-03-06T10:43:42Z</time>
      </trkpt>
      <trkpt lat="43.61193" lon="6.81644">
        <ele>187.34704589844</ele>
        <time>2011-03-06T10:43:47Z</time>
      </trkpt>
      <trkpt lat="43.61196" lon="6.81663">
        <ele>186.27587890625</ele>
        <time>2011-03-06T10:43:52Z</time>
      </trkpt>
      <trkpt lat="43.61197" lon="6.81678">
        <ele>185.57598876953</ele>
        <time>2011-03-06T10:43:56Z</time>
      </trkpt>
      <trkpt lat="43.61201" lon="6.81707">
        <ele>184.26678466797</ele>
        <time>2011-03-06T10:44:01Z</time>
      </trkpt>
      <trkpt lat="43.61204" lon="6.81726">
        <ele>183.4931640625</ele>
        <time>2011-03-06T10:44:04Z</time>
      </trkpt>
      <trkpt lat="43.61205" lon="6.8175">
        <ele>182.37164306641</ele>
        <time>2011-03-06T10:44:08Z</time>
      </trkpt>
      <trkpt lat="43.61198" lon="6.81779">
        <ele>181.17343139648</ele>
        <time>2011-03-06T10:44:12Z</time>
      </trkpt>
      <trkpt lat="43.61201" lon="6.81807">
        <ele>180.30223083496</ele>
        <time>2011-03-06T10:44:15Z</time>
      </trkpt>
      <trkpt lat="43.61211" lon="6.81853">
        <ele>179.05787658691</ele>
        <time>2011-03-06T10:44:20Z</time>
      </trkpt>
      <trkpt lat="43.61225" lon="6.81913">
        <ele>177.41674804688</ele>
        <time>2011-03-06T10:44:27Z</time>
      </trkpt>
      <trkpt lat="43.61229" lon="6.81952">
        <ele>176.50883483887</ele>
        <time>2011-03-06T10:44:32Z</time>
      </trkpt>
      <trkpt lat="43.61224" lon="6.81978">
        <ele>176.08683776856</ele>
        <time>2011-03-06T10:44:36Z</time>
      </trkpt>
      <trkpt lat="43.61221" lon="6.81982">
        <ele>176.05505371094</ele>
        <time>2011-03-06T10:44:37Z</time>
      </trkpt>
      <trkpt lat="43.61214" lon="6.81991">
        <ele>176.01860046387</ele>
        <time>2011-03-06T10:44:39Z</time>
      </trkpt>
      <trkpt lat="43.61205" lon="6.82006">
        <ele>175.94456481934</ele>
        <time>2011-03-06T10:44:42Z</time>
      </trkpt>
      <trkpt lat="43.61176" lon="6.82035">
        <ele>176.24440002441</ele>
        <time>2011-03-06T10:44:48Z</time>
      </trkpt>
      <trkpt lat="43.61153" lon="6.82043">
        <ele>177.13540649414</ele>
        <time>2011-03-06T10:44:52Z</time>
      </trkpt>
      <trkpt lat="43.61139" lon="6.82063">
        <ele>178.08876037598</ele>
        <time>2011-03-06T10:44:56Z</time>
      </trkpt>
      <trkpt lat="43.61142" lon="6.82076">
        <ele>178.00868225098</ele>
        <time>2011-03-06T10:44:59Z</time>
      </trkpt>
      <trkpt lat="43.61146" lon="6.82096">
        <ele>178.77333068848</ele>
        <time>2011-03-06T10:45:03Z</time>
      </trkpt>
      <trkpt lat="43.61148" lon="6.82115">
        <ele>179.88984680176</ele>
        <time>2011-03-06T10:45:07Z</time>
      </trkpt>
      <trkpt lat="43.61156" lon="6.82126">
        <ele>179.55270385742</ele>
        <time>2011-03-06T10:45:11Z</time>
      </trkpt>
      <trkpt lat="43.61168" lon="6.82152">
        <ele>179.16447448731</ele>
        <time>2011-03-06T10:45:16Z</time>
      </trkpt>
      <trkpt lat="43.61187" lon="6.82186">
        <ele>179.61070251465</ele>
        <time>2011-03-06T10:45:21Z</time>
      </trkpt>
      <trkpt lat="43.61212" lon="6.82234">
        <ele>179.92233276367</ele>
        <time>2011-03-06T10:45:27Z</time>
      </trkpt>
      <trkpt lat="43.61216" lon="6.82242">
        <ele>179.8278503418</ele>
        <time>2011-03-06T10:45:28Z</time>
      </trkpt>
      <trkpt lat="43.6125" lon="6.82293">
        <ele>176.53668212891</ele>
        <time>2011-03-06T10:45:35Z</time>
      </trkpt>
      <trkpt lat="43.61269" lon="6.8232">
        <ele>177.03401184082</ele>
        <time>2011-03-06T10:45:39Z</time>
      </trkpt>
      <trkpt lat="43.61282" lon="6.82349">
        <ele>177.86508178711</ele>
        <time>2011-03-06T10:45:43Z</time>
      </trkpt>
      <trkpt lat="43.61296" lon="6.82396">
        <ele>178.96560668945</ele>
        <time>2011-03-06T10:45:49Z</time>
      </trkpt>
      <trkpt lat="43.61319" lon="6.82444">
        <ele>178.81565856934</ele>
        <time>2011-03-06T10:45:56Z</time>
      </trkpt>
      <trkpt lat="43.61341" lon="6.8248">
        <ele>177.80326843262</ele>
        <time>2011-03-06T10:46:02Z</time>
      </trkpt>
      <trkpt lat="43.61372" lon="6.82533">
        <ele>177.33715820312</ele>
        <time>2011-03-06T10:46:10Z</time>
      </trkpt>
      <trkpt lat="43.61397" lon="6.8257">
        <ele>172.83747863769</ele>
        <time>2011-03-06T10:46:16Z</time>
      </trkpt>
      <trkpt lat="43.61415" lon="6.82584">
        <ele>168.39144897461</ele>
        <time>2011-03-06T10:46:20Z</time>
      </trkpt>
      <trkpt lat="43.61422" lon="6.82583">
        <ele>168.53532409668</ele>
        <time>2011-03-06T10:46:22Z</time>
      </trkpt>
      <trkpt lat="43.61427" lon="6.8258">
        <ele>169.32312011719</ele>
        <time>2011-03-06T10:46:27Z</time>
      </trkpt>
      <trkpt lat="43.61432" lon="6.82578">
        <ele>170.12689208984</ele>
        <time>2011-03-06T10:46:33Z</time>
      </trkpt>
      <trkpt lat="43.61434" lon="6.82579">
        <ele>170.22634887695</ele>
        <time>2011-03-06T10:46:35Z</time>
      </trkpt>
      <trkpt lat="43.61444" lon="6.82591">
        <ele>170.24200439453</ele>
        <time>2011-03-06T10:46:41Z</time>
      </trkpt>
      <trkpt lat="43.61461" lon="6.82614">
        <ele>169.97358703613</ele>
        <time>2011-03-06T10:46:47Z</time>
      </trkpt>
      <trkpt lat="43.61466" lon="6.82627">
        <ele>169.20951843262</ele>
        <time>2011-03-06T10:46:49Z</time>
      </trkpt>
      <trkpt lat="43.61482" lon="6.82656">
        <ele>167.10900878906</ele>
        <time>2011-03-06T10:46:54Z</time>
      </trkpt>
      <trkpt lat="43.61489" lon="6.82682">
        <ele>165.11793518066</ele>
        <time>2011-03-06T10:46:58Z</time>
      </trkpt>
      <trkpt lat="43.6149" lon="6.82697">
        <ele>164.19125366211</ele>
        <time>2011-03-06T10:47:00Z</time>
      </trkpt>
      <trkpt lat="43.61493" lon="6.82723">
        <ele>162.47303771973</ele>
        <time>2011-03-06T10:47:03Z</time>
      </trkpt>
      <trkpt lat="43.61499" lon="6.82758">
        <ele>160.11138916016</ele>
        <time>2011-03-06T10:47:08Z</time>
      </trkpt>
      <trkpt lat="43.61497" lon="6.82785">
        <ele>160.38430786133</ele>
        <time>2011-03-06T10:47:12Z</time>
      </trkpt>
      <trkpt lat="43.61497" lon="6.82813">
        <ele>160.44223022461</ele>
        <time>2011-03-06T10:47:16Z</time>
      </trkpt>
      <trkpt lat="43.61504" lon="6.82844">
        <ele>160.55471801758</ele>
        <time>2011-03-06T10:47:21Z</time>
      </trkpt>
      <trkpt lat="43.61505" lon="6.82848">
        <ele>160.66169738769</ele>
        <time>2011-03-06T10:47:22Z</time>
      </trkpt>
      <trkpt lat="43.6151" lon="6.82864">
        <ele>161.16928100586</ele>
        <time>2011-03-06T10:47:30Z</time>
      </trkpt>
      <trkpt lat="43.61517" lon="6.82878">
        <ele>161.52494812012</ele>
        <time>2011-03-06T10:47:35Z</time>
      </trkpt>
      <trkpt lat="43.6153" lon="6.82886">
        <ele>161.7370300293</ele>
        <time>2011-03-06T10:47:39Z</time>
      </trkpt>
      <trkpt lat="43.6155" lon="6.82899">
        <ele>161.51484680176</ele>
        <time>2011-03-06T10:47:45Z</time>
      </trkpt>
      <trkpt lat="43.61567" lon="6.82918">
        <ele>160.38586425781</ele>
        <time>2011-03-06T10:47:51Z</time>
      </trkpt>
      <trkpt lat="43.61574" lon="6.82925">
        <ele>160.14225769043</ele>
        <time>2011-03-06T10:47:53Z</time>
      </trkpt>
      <trkpt lat="43.61577" lon="6.82929">
        <ele>159.96597290039</ele>
        <time>2011-03-06T10:47:54Z</time>
      </trkpt>
      <trkpt lat="43.61588" lon="6.82945">
        <ele>159.36408996582</ele>
        <time>2011-03-06T10:47:57Z</time>
      </trkpt>
      <trkpt lat="43.61611" lon="6.82975">
        <ele>157.85592651367</ele>
        <time>2011-03-06T10:48:03Z</time>
      </trkpt>
      <trkpt lat="43.61619" lon="6.82988">
        <ele>156.71971130371</ele>
        <time>2011-03-06T10:48:07Z</time>
      </trkpt>
      <trkpt lat="43.61624" lon="6.82996">
        <ele>155.85250854492</ele>
        <time>2011-03-06T10:48:11Z</time>
      </trkpt>
      <trkpt lat="43.61633" lon="6.83012">
        <ele>154.86572265625</ele>
        <time>2011-03-06T10:48:17Z</time>
      </trkpt>
      <trkpt lat="43.61647" lon="6.83032">
        <ele>152.97457885742</ele>
        <time>2011-03-06T10:48:24Z</time>
      </trkpt>
      <trkpt lat="43.61662" lon="6.83045">
        <ele>150.44213867188</ele>
        <time>2011-03-06T10:48:29Z</time>
      </trkpt>
      <trkpt lat="43.61683" lon="6.83055">
        <ele>147.96064758301</ele>
        <time>2011-03-06T10:48:35Z</time>
      </trkpt>
      <trkpt lat="43.61712" lon="6.83062">
        <ele>145.17533874512</ele>
        <time>2011-03-06T10:48:42Z</time>
      </trkpt>
      <trkpt lat="43.61725" lon="6.83072">
        <ele>142.91944885254</ele>
        <time>2011-03-06T10:48:46Z</time>
      </trkpt>
      <trkpt lat="43.61744" lon="6.83083">
        <ele>139.60217285156</ele>
        <time>2011-03-06T10:48:50Z</time>
      </trkpt>
      <trkpt lat="43.61756" lon="6.83105">
        <ele>139.05366516113</ele>
        <time>2011-03-06T10:48:54Z</time>
      </trkpt>
      <trkpt lat="43.61761" lon="6.83117">
        <ele>138.80197143555</ele>
        <time>2011-03-06T10:48:56Z</time>
      </trkpt>
      <trkpt lat="43.61774" lon="6.83136">
        <ele>137.54577636719</ele>
        <time>2011-03-06T10:49:00Z</time>
      </trkpt>
      <trkpt lat="43.61783" lon="6.83149">
        <ele>136.03068542481</ele>
        <time>2011-03-06T10:49:03Z</time>
      </trkpt>
      <trkpt lat="43.61803" lon="6.83164">
        <ele>132.39093017578</ele>
        <time>2011-03-06T10:49:08Z</time>
      </trkpt>
      <trkpt lat="43.61806" lon="6.83165">
        <ele>131.84272766113</ele>
        <time>2011-03-06T10:49:09Z</time>
      </trkpt>
      <trkpt lat="43.61812" lon="6.83169">
        <ele>130.86897277832</ele>
        <time>2011-03-06T10:49:11Z</time>
      </trkpt>
      <trkpt lat="43.61819" lon="6.83174">
        <ele>130.04835510254</ele>
        <time>2011-03-06T10:49:13Z</time>
      </trkpt>
      <trkpt lat="43.61837" lon="6.8319">
        <ele>127.64360809326</ele>
        <time>2011-03-06T10:49:18Z</time>
      </trkpt>
      <trkpt lat="43.61844" lon="6.83195">
        <ele>126.76553344727</ele>
        <time>2011-03-06T10:49:20Z</time>
      </trkpt>
      <trkpt lat="43.61852" lon="6.83202">
        <ele>125.66464233398</ele>
        <time>2011-03-06T10:49:22Z</time>
      </trkpt>
      <trkpt lat="43.61858" lon="6.83209">
        <ele>124.51540374756</ele>
        <time>2011-03-06T10:49:24Z</time>
      </trkpt>
      <trkpt lat="43.61866" lon="6.83221">
        <ele>122.84407043457</ele>
        <time>2011-03-06T10:49:27Z</time>
      </trkpt>
      <trkpt lat="43.61879" lon="6.83242">
        <ele>119.33259582519</ele>
        <time>2011-03-06T10:49:32Z</time>
      </trkpt>
      <trkpt lat="43.61896" lon="6.8326">
        <ele>115.21591949463</ele>
        <time>2011-03-06T10:49:37Z</time>
      </trkpt>
      <trkpt lat="43.61911" lon="6.8328">
        <ele>111.56858062744</ele>
        <time>2011-03-06T10:49:41Z</time>
      </trkpt>
      <trkpt lat="43.6193" lon="6.83295">
        <ele>106.91822814941</ele>
        <time>2011-03-06T10:49:45Z</time>
      </trkpt>
      <trkpt lat="43.6194" lon="6.83303">
        <ele>104.16741943359</ele>
        <time>2011-03-06T10:49:49Z</time>
      </trkpt>
      <trkpt lat="43.61953" lon="6.83318">
        <ele>100.37593078613</ele>
        <time>2011-03-06T10:49:55Z</time>
      </trkpt>
      <trkpt lat="43.61967" lon="6.83317">
        <ele>96.901184082031</ele>
        <time>2011-03-06T10:49:59Z</time>
      </trkpt>
      <trkpt lat="43.6198" lon="6.83311">
        <ele>93.916900634766</ele>
        <time>2011-03-06T10:50:03Z</time>
      </trkpt>
      <trkpt lat="43.61989" lon="6.83307">
        <ele>92.173629760742</ele>
        <time>2011-03-06T10:50:06Z</time>
      </trkpt>
      <trkpt lat="43.62003" lon="6.83297">
        <ele>90.313125610352</ele>
        <time>2011-03-06T10:50:13Z</time>
      </trkpt>
      <trkpt lat="43.62014" lon="6.8329">
        <ele>90.303695678711</ele>
        <time>2011-03-06T10:50:17Z</time>
      </trkpt>
      <trkpt lat="43.62024" lon="6.83282">
        <ele>90.226432800293</ele>
        <time>2011-03-06T10:50:21Z</time>
      </trkpt>
      <trkpt lat="43.62038" lon="6.83264">
        <ele>90.140380859375</ele>
        <time>2011-03-06T10:50:26Z</time>
      </trkpt>
      <trkpt lat="43.6205" lon="6.83246">
        <ele>89.92748260498</ele>
        <time>2011-03-06T10:50:30Z</time>
      </trkpt>
      <trkpt lat="43.62057" lon="6.83234">
        <ele>89.909736633301</ele>
        <time>2011-03-06T10:50:33Z</time>
      </trkpt>
      <trkpt lat="43.62071" lon="6.83209">
        <ele>89.644104003906</ele>
        <time>2011-03-06T10:50:39Z</time>
      </trkpt>
      <trkpt lat="43.62089" lon="6.83188">
        <ele>88.871673583984</ele>
        <time>2011-03-06T10:50:44Z</time>
      </trkpt>
      <trkpt lat="43.62093" lon="6.83183">
        <ele>88.975738525391</ele>
        <time>2011-03-06T10:50:45Z</time>
      </trkpt>
      <trkpt lat="43.62099" lon="6.83174">
        <ele>89.162391662598</ele>
        <time>2011-03-06T10:50:47Z</time>
      </trkpt>
      <trkpt lat="43.62103" lon="6.83165">
        <ele>89.404197692871</ele>
        <time>2011-03-06T10:50:49Z</time>
      </trkpt>
      <trkpt lat="43.62114" lon="6.83148">
        <ele>89.649772644043</ele>
        <time>2011-03-06T10:50:53Z</time>
      </trkpt>
      <trkpt lat="43.62124" lon="6.83128">
        <ele>89.732063293457</ele>
        <time>2011-03-06T10:50:59Z</time>
      </trkpt>
      <trkpt lat="43.62125" lon="6.83122">
        <ele>89.815879821777</ele>
        <time>2011-03-06T10:51:04Z</time>
      </trkpt>
      <trkpt lat="43.62127" lon="6.83118">
        <ele>89.751884460449</ele>
        <time>2011-03-06T10:51:10Z</time>
      </trkpt>
      <trkpt lat="43.62128" lon="6.83117">
        <ele>89.721969604492</ele>
        <time>2011-03-06T10:51:11Z</time>
      </trkpt>
      <trkpt lat="43.62131" lon="6.83116">
        <ele>89.524894714355</ele>
        <time>2011-03-06T10:51:13Z</time>
      </trkpt>
      <trkpt lat="43.62134" lon="6.83113">
        <ele>89.315055847168</ele>
        <time>2011-03-06T10:51:19Z</time>
      </trkpt>
      <trkpt lat="43.62135" lon="6.83113">
        <ele>89.218788146973</ele>
        <time>2011-03-06T10:51:20Z</time>
      </trkpt>
      <trkpt lat="43.62144" lon="6.83111">
        <ele>88.413749694824</ele>
        <time>2011-03-06T10:51:27Z</time>
      </trkpt>
      <trkpt lat="43.62151" lon="6.8311">
        <ele>87.817169189453</ele>
        <time>2011-03-06T10:51:33Z</time>
      </trkpt>
      <trkpt lat="43.62158" lon="6.83107">
        <ele>87.133346557617</ele>
        <time>2011-03-06T10:51:40Z</time>
      </trkpt>
      <trkpt lat="43.62159" lon="6.83106">
        <ele>86.983039855957</ele>
        <time>2011-03-06T10:51:42Z</time>
      </trkpt>
      <trkpt lat="43.62161" lon="6.8311">
        <ele>86.861808776855</ele>
        <time>2011-03-06T10:51:49Z</time>
      </trkpt>
      <trkpt lat="43.62159" lon="6.83115">
        <ele>87.02513885498</ele>
        <time>2011-03-06T10:51:54Z</time>
      </trkpt>
      <trkpt lat="43.62156" lon="6.83122">
        <ele>87.303871154785</ele>
        <time>2011-03-06T10:51:57Z</time>
      </trkpt>
      <trkpt lat="43.62155" lon="6.83132">
        <ele>87.428009033203</ele>
        <time>2011-03-06T10:52:02Z</time>
      </trkpt>
      <trkpt lat="43.62152" lon="6.8315">
        <ele>87.590286254883</ele>
        <time>2011-03-06T10:52:06Z</time>
      </trkpt>
      <trkpt lat="43.62146" lon="6.83173">
        <ele>87.713050842285</ele>
        <time>2011-03-06T10:52:11Z</time>
      </trkpt>
      <trkpt lat="43.62137" lon="6.83187">
        <ele>87.877388000488</ele>
        <time>2011-03-06T10:52:14Z</time>
      </trkpt>
      <trkpt lat="43.6213" lon="6.83194">
        <ele>87.92928314209</ele>
        <time>2011-03-06T10:52:16Z</time>
      </trkpt>
      <trkpt lat="43.62115" lon="6.83218">
        <ele>87.554946899414</ele>
        <time>2011-03-06T10:52:20Z</time>
      </trkpt>
      <trkpt lat="43.62094" lon="6.83271">
        <ele>86.387313842773</ele>
        <time>2011-03-06T10:52:27Z</time>
      </trkpt>
      <trkpt lat="43.62078" lon="6.83297">
        <ele>86.305068969727</ele>
        <time>2011-03-06T10:52:32Z</time>
      </trkpt>
      <trkpt lat="43.62054" lon="6.83319">
        <ele>86.815895080566</ele>
        <time>2011-03-06T10:52:37Z</time>
      </trkpt>
      <trkpt lat="43.62043" lon="6.83332">
        <ele>86.53865814209</ele>
        <time>2011-03-06T10:52:40Z</time>
      </trkpt>
      <trkpt lat="43.62024" lon="6.83365">
        <ele>86.448425292969</ele>
        <time>2011-03-06T10:52:46Z</time>
      </trkpt>
      <trkpt lat="43.62019" lon="6.83375">
        <ele>86.162445068359</ele>
        <time>2011-03-06T10:52:48Z</time>
      </trkpt>
      <trkpt lat="43.62012" lon="6.83395">
        <ele>85.498512268066</ele>
        <time>2011-03-06T10:52:51Z</time>
      </trkpt>
      <trkpt lat="43.62006" lon="6.83427">
        <ele>85.368644714355</ele>
        <time>2011-03-06T10:52:56Z</time>
      </trkpt>
      <trkpt lat="43.62007" lon="6.83432">
        <ele>85.795616149902</ele>
        <time>2011-03-06T10:52:57Z</time>
      </trkpt>
      <trkpt lat="43.62004" lon="6.8346">
        <ele>87.611267089844</ele>
        <time>2011-03-06T10:53:01Z</time>
      </trkpt>
      <trkpt lat="43.62" lon="6.83475">
        <ele>88.179969787598</ele>
        <time>2011-03-06T10:53:03Z</time>
      </trkpt>
      <trkpt lat="43.61991" lon="6.835">
        <ele>89.326446533203</ele>
        <time>2011-03-06T10:53:07Z</time>
      </trkpt>
      <trkpt lat="43.61982" lon="6.83509">
        <ele>90.420364379883</ele>
        <time>2011-03-06T10:53:09Z</time>
      </trkpt>
      <trkpt lat="43.61955" lon="6.83531">
        <ele>90.474060058594</ele>
        <time>2011-03-06T10:53:15Z</time>
      </trkpt>
      <trkpt lat="43.61937" lon="6.83534">
        <ele>87.985969543457</ele>
        <time>2011-03-06T10:53:19Z</time>
      </trkpt>
      <trkpt lat="43.61932" lon="6.83536">
        <ele>87.373390197754</ele>
        <time>2011-03-06T10:53:20Z</time>
      </trkpt>
      <trkpt lat="43.61906" lon="6.83538">
        <ele>85.43229675293</ele>
        <time>2011-03-06T10:53:26Z</time>
      </trkpt>
      <trkpt lat="43.61895" lon="6.83537">
        <ele>85.994850158691</ele>
        <time>2011-03-06T10:53:29Z</time>
      </trkpt>
      <trkpt lat="43.61878" lon="6.83537">
        <ele>86.872406005859</ele>
        <time>2011-03-06T10:53:35Z</time>
      </trkpt>
      <trkpt lat="43.61863" lon="6.83537">
        <ele>87.572052001953</ele>
        <time>2011-03-06T10:53:41Z</time>
      </trkpt>
      <trkpt lat="43.61845" lon="6.83536">
        <ele>88.61589050293</ele>
        <time>2011-03-06T10:53:48Z</time>
      </trkpt>
      <trkpt lat="43.61827" lon="6.8354">
        <ele>89.891136169434</ele>
        <time>2011-03-06T10:53:55Z</time>
      </trkpt>
      <trkpt lat="43.61811" lon="6.83551">
        <ele>91.18726348877</ele>
        <time>2011-03-06T10:53:59Z</time>
      </trkpt>
      <trkpt lat="43.61784" lon="6.83574">
        <ele>91.743431091309</ele>
        <time>2011-03-06T10:54:03Z</time>
      </trkpt>
      <trkpt lat="43.61761" lon="6.83596">
        <ele>92.106071472168</ele>
        <time>2011-03-06T10:54:06Z</time>
      </trkpt>
      <trkpt lat="43.61749" lon="6.83605">
        <ele>92.872650146484</ele>
        <time>2011-03-06T10:54:08Z</time>
      </trkpt>
      <trkpt lat="43.61741" lon="6.83619">
        <ele>94.800369262695</ele>
        <time>2011-03-06T10:54:11Z</time>
      </trkpt>
      <trkpt lat="43.61738" lon="6.83638">
        <ele>93.717575073242</ele>
        <time>2011-03-06T10:54:17Z</time>
      </trkpt>
      <trkpt lat="43.61738" lon="6.83642">
        <ele>93.270301818848</ele>
        <time>2011-03-06T10:54:18Z</time>
      </trkpt>
      <trkpt lat="43.61742" lon="6.83667">
        <ele>88.256660461426</ele>
        <time>2011-03-06T10:54:23Z</time>
      </trkpt>
      <trkpt lat="43.61749" lon="6.8369">
        <ele>84.707817077637</ele>
        <time>2011-03-06T10:54:28Z</time>
      </trkpt>
      <trkpt lat="43.61753" lon="6.83693">
        <ele>84.443939208984</ele>
        <time>2011-03-06T10:54:29Z</time>
      </trkpt>
      <trkpt lat="43.61759" lon="6.83717">
        <ele>84.384338378906</ele>
        <time>2011-03-06T10:54:33Z</time>
      </trkpt>
      <trkpt lat="43.61759" lon="6.83723">
        <ele>84.332565307617</ele>
        <time>2011-03-06T10:54:34Z</time>
      </trkpt>
      <trkpt lat="43.61756" lon="6.83753">
        <ele>83.89924621582</ele>
        <time>2011-03-06T10:54:39Z</time>
      </trkpt>
      <trkpt lat="43.61743" lon="6.8378">
        <ele>85.761489868164</ele>
        <time>2011-03-06T10:54:44Z</time>
      </trkpt>
      <trkpt lat="43.61736" lon="6.83787">
        <ele>86.781188964844</ele>
        <time>2011-03-06T10:54:46Z</time>
      </trkpt>
      <trkpt lat="43.61728" lon="6.83793">
        <ele>87.64094543457</ele>
        <time>2011-03-06T10:54:48Z</time>
      </trkpt>
      <trkpt lat="43.61698" lon="6.83816">
        <ele>87.900405883789</ele>
        <time>2011-03-06T10:54:54Z</time>
      </trkpt>
      <trkpt lat="43.6169" lon="6.83823">
        <ele>87.213798522949</ele>
        <time>2011-03-06T10:54:56Z</time>
      </trkpt>
      <trkpt lat="43.61679" lon="6.83832">
        <ele>85.60718536377</ele>
        <time>2011-03-06T10:54:59Z</time>
      </trkpt>
      <trkpt lat="43.61665" lon="6.83841">
        <ele>85.138236999512</ele>
        <time>2011-03-06T10:55:03Z</time>
      </trkpt>
      <trkpt lat="43.61652" lon="6.83854">
        <ele>86.709518432617</ele>
        <time>2011-03-06T10:55:08Z</time>
      </trkpt>
      <trkpt lat="43.61638" lon="6.83869">
        <ele>87.489112854004</ele>
        <time>2011-03-06T10:55:15Z</time>
      </trkpt>
      <trkpt lat="43.61624" lon="6.83879">
        <ele>87.814865112305</ele>
        <time>2011-03-06T10:55:22Z</time>
      </trkpt>
      <trkpt lat="43.61613" lon="6.83885">
        <ele>87.714431762695</ele>
        <time>2011-03-06T10:55:28Z</time>
      </trkpt>
      <trkpt lat="43.61601" lon="6.83895">
        <ele>86.779685974121</ele>
        <time>2011-03-06T10:55:34Z</time>
      </trkpt>
      <trkpt lat="43.61596" lon="6.83898">
        <ele>86.359405517578</ele>
        <time>2011-03-06T10:55:36Z</time>
      </trkpt>
      <trkpt lat="43.61586" lon="6.8391">
        <ele>83.768348693848</ele>
        <time>2011-03-06T10:55:42Z</time>
      </trkpt>
      <trkpt lat="43.61579" lon="6.83916">
        <ele>82.389999389648</ele>
        <time>2011-03-06T10:55:46Z</time>
      </trkpt>
      <trkpt lat="43.61567" lon="6.83928">
        <ele>83.043121337891</ele>
        <time>2011-03-06T10:55:52Z</time>
      </trkpt>
      <trkpt lat="43.61562" lon="6.83934">
        <ele>83.342231750488</ele>
        <time>2011-03-06T10:55:56Z</time>
      </trkpt>
      <trkpt lat="43.61559" lon="6.83937">
        <ele>83.462631225586</ele>
        <time>2011-03-06T10:55:58Z</time>
      </trkpt>
      <trkpt lat="43.61551" lon="6.83944">
        <ele>83.661018371582</ele>
        <time>2011-03-06T10:56:03Z</time>
      </trkpt>
      <trkpt lat="43.61544" lon="6.83951">
        <ele>83.727836608887</ele>
        <time>2011-03-06T10:56:08Z</time>
      </trkpt>
      <trkpt lat="43.6154" lon="6.83954">
        <ele>83.707489013672</ele>
        <time>2011-03-06T10:56:10Z</time>
      </trkpt>
      <trkpt lat="43.61532" lon="6.83962">
        <ele>83.54907989502</ele>
        <time>2011-03-06T10:56:15Z</time>
      </trkpt>
      <trkpt lat="43.61521" lon="6.83969">
        <ele>83.149459838867</ele>
        <time>2011-03-06T10:56:21Z</time>
      </trkpt>
      <trkpt lat="43.61508" lon="6.83962">
        <ele>83.010009765625</ele>
        <time>2011-03-06T10:56:25Z</time>
      </trkpt>
      <trkpt lat="43.61502" lon="6.83956">
        <ele>83.137962341309</ele>
        <time>2011-03-06T10:56:28Z</time>
      </trkpt>
      <trkpt lat="43.61496" lon="6.83944">
        <ele>83.484809875488</ele>
        <time>2011-03-06T10:56:32Z</time>
      </trkpt>
      <trkpt lat="43.61492" lon="6.83933">
        <ele>83.73664855957</ele>
        <time>2011-03-06T10:56:36Z</time>
      </trkpt>
      <trkpt lat="43.61483" lon="6.83904">
        <ele>86.55281829834</ele>
        <time>2011-03-06T10:56:41Z</time>
      </trkpt>
      <trkpt lat="43.6148" lon="6.83883">
        <ele>90.880432128906</ele>
        <time>2011-03-06T10:56:44Z</time>
      </trkpt>
      <trkpt lat="43.61474" lon="6.83857">
        <ele>95.76065826416</ele>
        <time>2011-03-06T10:56:48Z</time>
      </trkpt>
      <trkpt lat="43.6147" lon="6.83843">
        <ele>98.02074432373</ele>
        <time>2011-03-06T10:56:50Z</time>
      </trkpt>
      <trkpt lat="43.61462" lon="6.83823">
        <ele>100.2473526001</ele>
        <time>2011-03-06T10:56:53Z</time>
      </trkpt>
      <trkpt lat="43.61459" lon="6.83811">
        <ele>101.5387802124</ele>
        <time>2011-03-06T10:56:55Z</time>
      </trkpt>
      <trkpt lat="43.61456" lon="6.83798">
        <ele>103.18487548828</ele>
        <time>2011-03-06T10:56:58Z</time>
      </trkpt>
      <trkpt lat="43.61454" lon="6.83791">
        <ele>103.98787689209</ele>
        <time>2011-03-06T10:57:03Z</time>
      </trkpt>
      <trkpt lat="43.61453" lon="6.83788">
        <ele>104.37091827393</ele>
        <time>2011-03-06T10:57:09Z</time>
      </trkpt>
      <trkpt lat="43.61451" lon="6.83785">
        <ele>104.55827331543</ele>
        <time>2011-03-06T10:57:13Z</time>
      </trkpt>
      <trkpt lat="43.61446" lon="6.8378">
        <ele>104.71754455566</ele>
        <time>2011-03-06T10:57:18Z</time>
      </trkpt>
      <trkpt lat="43.61442" lon="6.83782">
        <ele>103.72430419922</ele>
        <time>2011-03-06T10:57:23Z</time>
      </trkpt>
      <trkpt lat="43.61438" lon="6.83784">
        <ele>102.75351715088</ele>
        <time>2011-03-06T10:57:28Z</time>
      </trkpt>
      <trkpt lat="43.61426" lon="6.83787">
        <ele>100.62153625488</ele>
        <time>2011-03-06T10:57:34Z</time>
      </trkpt>
      <trkpt lat="43.61422" lon="6.83789">
        <ele>99.728759765625</ele>
        <time>2011-03-06T10:57:36Z</time>
      </trkpt>
      <trkpt lat="43.61409" lon="6.83786">
        <ele>101.21810913086</ele>
        <time>2011-03-06T10:57:41Z</time>
      </trkpt>
      <trkpt lat="43.61404" lon="6.83784">
        <ele>102.4744644165</ele>
        <time>2011-03-06T10:57:43Z</time>
      </trkpt>
      <trkpt lat="43.61396" lon="6.83789">
        <ele>103.3567276001</ele>
        <time>2011-03-06T10:57:48Z</time>
      </trkpt>
      <trkpt lat="43.61383" lon="6.83803">
        <ele>102.62343597412</ele>
        <time>2011-03-06T10:57:55Z</time>
      </trkpt>
      <trkpt lat="43.61382" lon="6.83806">
        <ele>102.37161254883</ele>
        <time>2011-03-06T10:57:56Z</time>
      </trkpt>
      <trkpt lat="43.61373" lon="6.83816">
        <ele>101.45687103272</ele>
        <time>2011-03-06T10:58:03Z</time>
      </trkpt>
      <trkpt lat="43.61367" lon="6.83823">
        <ele>100.74137115478</ele>
        <time>2011-03-06T10:58:09Z</time>
      </trkpt>
      <trkpt lat="43.61361" lon="6.83828">
        <ele>100.52872467041</ele>
        <time>2011-03-06T10:58:14Z</time>
      </trkpt>
      <trkpt lat="43.61359" lon="6.8383">
        <ele>100.25310516357</ele>
        <time>2011-03-06T10:58:16Z</time>
      </trkpt>
      <trkpt lat="43.61354" lon="6.83843">
        <ele>97.925880432129</ele>
        <time>2011-03-06T10:58:20Z</time>
      </trkpt>
      <trkpt lat="43.61345" lon="6.83875">
        <ele>91.517349243164</ele>
        <time>2011-03-06T10:58:28Z</time>
      </trkpt>
      <trkpt lat="43.61343" lon="6.83892">
        <ele>87.684936523438</ele>
        <time>2011-03-06T10:58:32Z</time>
      </trkpt>
      <trkpt lat="43.61336" lon="6.83913">
        <ele>82.823501586914</ele>
        <time>2011-03-06T10:58:37Z</time>
      </trkpt>
      <trkpt lat="43.6132" lon="6.83925">
        <ele>84.416152954102</ele>
        <time>2011-03-06T10:58:40Z</time>
      </trkpt>
      <trkpt lat="43.61314" lon="6.83931">
        <ele>85.356803894043</ele>
        <time>2011-03-06T10:58:41Z</time>
      </trkpt>
      <trkpt lat="43.613" lon="6.83966">
        <ele>84.863082885742</ele>
        <time>2011-03-06T10:58:46Z</time>
      </trkpt>
      <trkpt lat="43.61287" lon="6.83994">
        <ele>83.786720275879</ele>
        <time>2011-03-06T10:58:50Z</time>
      </trkpt>
      <trkpt lat="43.61282" lon="6.84013">
        <ele>83.034523010254</ele>
        <time>2011-03-06T10:58:54Z</time>
      </trkpt>
      <trkpt lat="43.61279" lon="6.8403">
        <ele>82.29598236084</ele>
        <time>2011-03-06T10:59:00Z</time>
      </trkpt>
      <trkpt lat="43.61277" lon="6.8404">
        <ele>81.816390991211</ele>
        <time>2011-03-06T10:59:05Z</time>
      </trkpt>
      <trkpt lat="43.61274" lon="6.84052">
        <ele>81.289306640625</ele>
        <time>2011-03-06T10:59:11Z</time>
      </trkpt>
      <trkpt lat="43.6127" lon="6.84064">
        <ele>80.647102355957</ele>
        <time>2011-03-06T10:59:18Z</time>
      </trkpt>
      <trkpt lat="43.61269" lon="6.84069">
        <ele>80.384483337402</ele>
        <time>2011-03-06T10:59:20Z</time>
      </trkpt>
      <trkpt lat="43.61266" lon="6.84078">
        <ele>79.827995300293</ele>
        <time>2011-03-06T10:59:27Z</time>
      </trkpt>
      <trkpt lat="43.61264" lon="6.84087">
        <ele>79.368782043457</ele>
        <time>2011-03-06T10:59:31Z</time>
      </trkpt>
      <trkpt lat="43.6126" lon="6.84101">
        <ele>78.928352355957</ele>
        <time>2011-03-06T10:59:37Z</time>
      </trkpt>
      <trkpt lat="43.61253" lon="6.84116">
        <ele>78.389129638672</ele>
        <time>2011-03-06T10:59:43Z</time>
      </trkpt>
      <trkpt lat="43.61253" lon="6.84117">
        <ele>78.345458984375</ele>
        <time>2011-03-06T10:59:44Z</time>
      </trkpt>
      <trkpt lat="43.61248" lon="6.84128">
        <ele>78.519424438477</ele>
        <time>2011-03-06T10:59:49Z</time>
      </trkpt>
      <trkpt lat="43.61239" lon="6.84135">
        <ele>80.412055969238</ele>
        <time>2011-03-06T10:59:53Z</time>
      </trkpt>
      <trkpt lat="43.61222" lon="6.84146">
        <ele>84.116226196289</ele>
        <time>2011-03-06T10:59:58Z</time>
      </trkpt>
      <trkpt lat="43.61217" lon="6.84154">
        <ele>84.790451049805</ele>
        <time>2011-03-06T11:00:02Z</time>
      </trkpt>
      <trkpt lat="43.61217" lon="6.84155">
        <ele>84.784271240234</ele>
        <time>2011-03-06T11:00:03Z</time>
      </trkpt>
      <trkpt lat="43.6121" lon="6.84167">
        <ele>85.525695800781</ele>
        <time>2011-03-06T11:00:10Z</time>
      </trkpt>
      <trkpt lat="43.61208" lon="6.8417">
        <ele>85.808570861816</ele>
        <time>2011-03-06T11:00:12Z</time>
      </trkpt>
      <trkpt lat="43.612" lon="6.84183">
        <ele>86.93416595459</ele>
        <time>2011-03-06T11:00:19Z</time>
      </trkpt>
      <trkpt lat="43.61195" lon="6.84195">
        <ele>87.244255065918</ele>
        <time>2011-03-06T11:00:25Z</time>
      </trkpt>
      <trkpt lat="43.61187" lon="6.84211">
        <ele>87.57592010498</ele>
        <time>2011-03-06T11:00:31Z</time>
      </trkpt>
      <trkpt lat="43.6118" lon="6.84228">
        <ele>87.661117553711</ele>
        <time>2011-03-06T11:00:37Z</time>
      </trkpt>
      <trkpt lat="43.61177" lon="6.84242">
        <ele>86.973571777344</ele>
        <time>2011-03-06T11:00:42Z</time>
      </trkpt>
      <trkpt lat="43.61175" lon="6.84254">
        <ele>86.13493347168</ele>
        <time>2011-03-06T11:00:48Z</time>
      </trkpt>
      <trkpt lat="43.61174" lon="6.84268">
        <ele>84.897735595703</ele>
        <time>2011-03-06T11:00:53Z</time>
      </trkpt>
      <trkpt lat="43.61178" lon="6.84281">
        <ele>83.048797607422</ele>
        <time>2011-03-06T11:00:58Z</time>
      </trkpt>
      <trkpt lat="43.6119" lon="6.84294">
        <ele>80.286849975586</ele>
        <time>2011-03-06T11:01:04Z</time>
      </trkpt>
      <trkpt lat="43.61207" lon="6.84303">
        <ele>77.390380859375</ele>
        <time>2011-03-06T11:01:08Z</time>
      </trkpt>
      <trkpt lat="43.61211" lon="6.84305">
        <ele>76.680999755859</ele>
        <time>2011-03-06T11:01:09Z</time>
      </trkpt>
      <trkpt lat="43.61221" lon="6.84313">
        <ele>75.009483337402</ele>
        <time>2011-03-06T11:01:12Z</time>
      </trkpt>
      <trkpt lat="43.61232" lon="6.84335">
        <ele>72.71752166748</ele>
        <time>2011-03-06T11:01:17Z</time>
      </trkpt>
      <trkpt lat="43.61231" lon="6.84383">
        <ele>70.964775085449</ele>
        <time>2011-03-06T11:01:23Z</time>
      </trkpt>
      <trkpt lat="43.61213" lon="6.84398">
        <ele>71.296516418457</ele>
        <time>2011-03-06T11:01:26Z</time>
      </trkpt>
      <trkpt lat="43.61158" lon="6.84428">
        <ele>71.621269226074</ele>
        <time>2011-03-06T11:01:33Z</time>
      </trkpt>
      <trkpt lat="43.61125" lon="6.84447">
        <ele>71.731178283691</ele>
        <time>2011-03-06T11:01:37Z</time>
      </trkpt>
      <trkpt lat="43.61088" lon="6.84483">
        <ele>69.719032287598</ele>
        <time>2011-03-06T11:01:42Z</time>
      </trkpt>
      <trkpt lat="43.61067" lon="6.8449">
        <ele>69.042533874512</ele>
        <time>2011-03-06T11:01:46Z</time>
      </trkpt>
      <trkpt lat="43.61053" lon="6.84489">
        <ele>69.171279907227</ele>
        <time>2011-03-06T11:01:51Z</time>
      </trkpt>
      <trkpt lat="43.61052" lon="6.84489">
        <ele>69.202178955078</ele>
        <time>2011-03-06T11:01:53Z</time>
      </trkpt>
      <trkpt lat="43.61047" lon="6.84481">
        <ele>70.057052612305</ele>
        <time>2011-03-06T11:01:58Z</time>
      </trkpt>
      <trkpt lat="43.61044" lon="6.84479">
        <ele>70.268196105957</ele>
        <time>2011-03-06T11:02:00Z</time>
      </trkpt>
      <trkpt lat="43.61042" lon="6.84478">
        <ele>70.407241821289</ele>
        <time>2011-03-06T11:02:07Z</time>
      </trkpt>
      <trkpt lat="43.61039" lon="6.8448">
        <ele>70.18579864502</ele>
        <time>2011-03-06T11:02:25Z</time>
      </trkpt>
      <trkpt lat="43.61036" lon="6.84496">
        <ele>68.440002441406</ele>
        <time>2011-03-06T11:05:15Z</time>
      </trkpt>
      <trkpt lat="43.61036" lon="6.84496">
        <ele>68.455451965332</ele>
        <time>2011-03-06T11:05:16Z</time>
      </trkpt>
      <trkpt lat="43.61037" lon="6.84494">
        <ele>68.661445617676</ele>
        <time>2011-03-06T11:05:28Z</time>
      </trkpt>
      <trkpt lat="43.61037" lon="6.84494">
        <ele>68.68204498291</ele>
        <time>2011-03-06T11:05:29Z</time>
      </trkpt>
      <trkpt lat="43.61037" lon="6.84494">
        <ele>68.697494506836</ele>
        <time>2011-03-06T11:05:30Z</time>
      </trkpt>
      <trkpt lat="43.61038" lon="6.84486">
        <ele>69.469970703125</ele>
        <time>2011-03-06T11:09:34Z</time>
      </trkpt>
      <trkpt lat="43.61038" lon="6.84486">
        <ele>69.475120544434</ele>
        <time>2011-03-06T11:09:35Z</time>
      </trkpt>
      <trkpt lat="43.61037" lon="6.84489">
        <ele>69.191879272461</ele>
        <time>2011-03-06T11:10:39Z</time>
      </trkpt>
      <trkpt lat="43.61037" lon="6.8449">
        <ele>69.057983398438</ele>
        <time>2011-03-06T11:10:54Z</time>
      </trkpt>
      <trkpt lat="43.61037" lon="6.8449">
        <ele>69.052833557129</ele>
        <time>2011-03-06T11:10:55Z</time>
      </trkpt>
      <trkpt lat="43.61036" lon="6.84491">
        <ele>68.929237365723</ele>
        <time>2011-03-06T11:11:38Z</time>
      </trkpt>
      <trkpt lat="43.61036" lon="6.84491">
        <ele>68.924087524414</ele>
        <time>2011-03-06T11:11:39Z</time>
      </trkpt>
      <trkpt lat="43.61037" lon="6.84492">
        <ele>68.846839904785</ele>
        <time>2011-03-06T11:11:59Z</time>
      </trkpt>
      <trkpt lat="43.61037" lon="6.84497">
        <ele>68.275207519531</ele>
        <time>2011-03-06T11:12:17Z</time>
      </trkpt>
      <trkpt lat="43.61037" lon="6.84499">
        <ele>68.100112915039</ele>
        <time>2011-03-06T11:12:19Z</time>
      </trkpt>
      <trkpt lat="43.61036" lon="6.84503">
        <ele>67.776763916016</ele>
        <time>2011-03-06T11:12:28Z</time>
      </trkpt>
      <trkpt lat="43.61036" lon="6.84497">
        <ele>68.321556091309</ele>
        <time>2011-03-06T11:12:39Z</time>
      </trkpt>
      <trkpt lat="43.61037" lon="6.84502">
        <ele>67.829956054688</ele>
        <time>2011-03-06T11:13:07Z</time>
      </trkpt>
      <trkpt lat="43.61037" lon="6.84503">
        <ele>67.808944702148</ele>
        <time>2011-03-06T11:13:23Z</time>
      </trkpt>
      <trkpt lat="43.61037" lon="6.84506">
        <ele>67.588958740234</ele>
        <time>2011-03-06T11:13:42Z</time>
      </trkpt>
      <trkpt lat="43.61039" lon="6.84499">
        <ele>68.141311645508</ele>
        <time>2011-03-06T11:14:16Z</time>
      </trkpt>
      <trkpt lat="43.61047" lon="6.84484">
        <ele>69.763511657715</ele>
        <time>2011-03-06T11:14:56Z</time>
      </trkpt>
      <trkpt lat="43.61049" lon="6.84479">
        <ele>70.226997375488</ele>
        <time>2011-03-06T11:15:18Z</time>
      </trkpt>
      <trkpt lat="43.61052" lon="6.84474">
        <ele>70.788330078125</ele>
        <time>2011-03-06T11:15:29Z</time>
      </trkpt>
      <trkpt lat="43.61052" lon="6.84475">
        <ele>70.721382141113</ele>
        <time>2011-03-06T11:15:51Z</time>
      </trkpt>
      <trkpt lat="43.61044" lon="6.84481">
        <ele>70.07250213623</ele>
        <time>2011-03-06T11:16:13Z</time>
      </trkpt>
      <trkpt lat="43.61047" lon="6.84475">
        <ele>70.669883728027</ele>
        <time>2011-03-06T11:16:33Z</time>
      </trkpt>
      <trkpt lat="43.6105" lon="6.84463">
        <ele>71.957344055176</ele>
        <time>2011-03-06T11:17:07Z</time>
      </trkpt>
      <trkpt lat="43.6105" lon="6.84467">
        <ele>71.586555480957</ele>
        <time>2011-03-06T11:17:17Z</time>
      </trkpt>
      <trkpt lat="43.61047" lon="6.84474">
        <ele>70.839828491211</ele>
        <time>2011-03-06T11:17:53Z</time>
      </trkpt>
      <trkpt lat="43.61042" lon="6.8448">
        <ele>70.113700866699</ele>
        <time>2011-03-06T11:18:09Z</time>
      </trkpt>
      <trkpt lat="43.6104" lon="6.84484">
        <ele>69.753211975098</ele>
        <time>2011-03-06T11:18:15Z</time>
      </trkpt>
      <trkpt lat="43.61035" lon="6.84483">
        <ele>69.887107849121</ele>
        <time>2011-03-06T11:18:26Z</time>
      </trkpt>
      <trkpt lat="43.61033" lon="6.84482">
        <ele>69.907707214355</ele>
        <time>2011-03-06T11:18:27Z</time>
      </trkpt>
      <trkpt lat="43.61012" lon="6.84477">
        <ele>70.489639282227</ele>
        <time>2011-03-06T11:18:34Z</time>
      </trkpt>
      <trkpt lat="43.60986" lon="6.84475">
        <ele>70.583068847656</ele>
        <time>2011-03-06T11:18:40Z</time>
      </trkpt>
      <trkpt lat="43.60982" lon="6.84476">
        <ele>70.425140380859</ele>
        <time>2011-03-06T11:18:41Z</time>
      </trkpt>
      <trkpt lat="43.60952" lon="6.84485">
        <ele>69.038688659668</ele>
        <time>2011-03-06T11:18:48Z</time>
      </trkpt>
      <trkpt lat="43.60944" lon="6.84488">
        <ele>68.596946716309</ele>
        <time>2011-03-06T11:18:50Z</time>
      </trkpt>
      <trkpt lat="43.60934" lon="6.84498">
        <ele>67.463981628418</ele>
        <time>2011-03-06T11:18:55Z</time>
      </trkpt>
      <trkpt lat="43.60934" lon="6.84496">
        <ele>67.592155456543</ele>
        <time>2011-03-06T11:18:59Z</time>
      </trkpt>
      <trkpt lat="43.60935" lon="6.84495">
        <ele>67.760383605957</ele>
        <time>2011-03-06T11:19:07Z</time>
      </trkpt>
      <trkpt lat="43.60938" lon="6.84512">
        <ele>66.266998291016</ele>
        <time>2011-03-06T11:19:12Z</time>
      </trkpt>
      <trkpt lat="43.60941" lon="6.84547">
        <ele>63.32300567627</ele>
        <time>2011-03-06T11:19:18Z</time>
      </trkpt>
      <trkpt lat="43.60943" lon="6.84564">
        <ele>61.956581115723</ele>
        <time>2011-03-06T11:19:21Z</time>
      </trkpt>
      <trkpt lat="43.60958" lon="6.84567">
        <ele>61.834701538086</ele>
        <time>2011-03-06T11:19:26Z</time>
      </trkpt>
      <trkpt lat="43.60969" lon="6.84572">
        <ele>61.542877197266</ele>
        <time>2011-03-06T11:19:30Z</time>
      </trkpt>
      <trkpt lat="43.60976" lon="6.84588">
        <ele>60.695728302002</ele>
        <time>2011-03-06T11:19:36Z</time>
      </trkpt>
      <trkpt lat="43.60987" lon="6.8461">
        <ele>60.789417266846</ele>
        <time>2011-03-06T11:19:41Z</time>
      </trkpt>
      <trkpt lat="43.60991" lon="6.84634">
        <ele>60.831378936768</ele>
        <time>2011-03-06T11:19:44Z</time>
      </trkpt>
      <trkpt lat="43.6098" lon="6.84675">
        <ele>61.323863983154</ele>
        <time>2011-03-06T11:19:49Z</time>
      </trkpt>
      <trkpt lat="43.60958" lon="6.84703">
        <ele>62.149299621582</ele>
        <time>2011-03-06T11:19:53Z</time>
      </trkpt>
      <trkpt lat="43.60946" lon="6.84713">
        <ele>61.524337768555</ele>
        <time>2011-03-06T11:19:55Z</time>
      </trkpt>
      <trkpt lat="43.60918" lon="6.84754">
        <ele>58.809047698975</ele>
        <time>2011-03-06T11:20:01Z</time>
      </trkpt>
      <trkpt lat="43.60901" lon="6.84782">
        <ele>61.553394317627</ele>
        <time>2011-03-06T11:20:06Z</time>
      </trkpt>
      <trkpt lat="43.60889" lon="6.84799">
        <ele>62.441493988037</ele>
        <time>2011-03-06T11:20:09Z</time>
      </trkpt>
      <trkpt lat="43.60876" lon="6.84816">
        <ele>62.584007263184</ele>
        <time>2011-03-06T11:20:12Z</time>
      </trkpt>
      <trkpt lat="43.60857" lon="6.8484">
        <ele>62.129829406738</ele>
        <time>2011-03-06T11:20:17Z</time>
      </trkpt>
      <trkpt lat="43.60838" lon="6.84859">
        <ele>60.966758728027</ele>
        <time>2011-03-06T11:20:23Z</time>
      </trkpt>
      <trkpt lat="43.60822" lon="6.84877">
        <ele>60.743988037109</ele>
        <time>2011-03-06T11:20:28Z</time>
      </trkpt>
      <trkpt lat="43.60818" lon="6.84882">
        <ele>60.8727684021</ele>
        <time>2011-03-06T11:20:31Z</time>
      </trkpt>
      <trkpt lat="43.60817" lon="6.84884">
        <ele>60.950931549072</ele>
        <time>2011-03-06T11:20:34Z</time>
      </trkpt>
      <trkpt lat="43.60815" lon="6.84888">
        <ele>61.083087921143</ele>
        <time>2011-03-06T11:20:37Z</time>
      </trkpt>
      <trkpt lat="43.60811" lon="6.84891">
        <ele>60.998504638672</ele>
        <time>2011-03-06T11:20:41Z</time>
      </trkpt>
      <trkpt lat="43.60808" lon="6.84898">
        <ele>61.115737915039</ele>
        <time>2011-03-06T11:20:45Z</time>
      </trkpt>
      <trkpt lat="43.60806" lon="6.849">
        <ele>61.095588684082</ele>
        <time>2011-03-06T11:20:48Z</time>
      </trkpt>
      <trkpt lat="43.60805" lon="6.84902">
        <ele>61.094120025635</ele>
        <time>2011-03-06T11:20:49Z</time>
      </trkpt>
      <trkpt lat="43.60801" lon="6.84906">
        <ele>60.937366485596</ele>
        <time>2011-03-06T11:20:54Z</time>
      </trkpt>
      <trkpt lat="43.60799" lon="6.84905">
        <ele>60.802322387695</ele>
        <time>2011-03-06T11:20:57Z</time>
      </trkpt>
      <trkpt lat="43.6079" lon="6.84906">
        <ele>60.208866119385</ele>
        <time>2011-03-06T11:21:03Z</time>
      </trkpt>
      <trkpt lat="43.60777" lon="6.84914">
        <ele>59.231594085693</ele>
        <time>2011-03-06T11:21:08Z</time>
      </trkpt>
      <trkpt lat="43.60766" lon="6.84923">
        <ele>59.058734893799</ele>
        <time>2011-03-06T11:21:13Z</time>
      </trkpt>
      <trkpt lat="43.60756" lon="6.84923">
        <ele>58.08012008667</ele>
        <time>2011-03-06T11:21:17Z</time>
      </trkpt>
      <trkpt lat="43.60743" lon="6.8493">
        <ele>57.946155548096</ele>
        <time>2011-03-06T11:21:22Z</time>
      </trkpt>
      <trkpt lat="43.60731" lon="6.84929">
        <ele>57.864078521729</ele>
        <time>2011-03-06T11:21:26Z</time>
      </trkpt>
      <trkpt lat="43.60713" lon="6.84931">
        <ele>57.953277587891</ele>
        <time>2011-03-06T11:21:32Z</time>
      </trkpt>
      <trkpt lat="43.60709" lon="6.84932">
        <ele>57.973785400391</ele>
        <time>2011-03-06T11:21:33Z</time>
      </trkpt>
      <trkpt lat="43.60693" lon="6.84929">
        <ele>57.869770050049</ele>
        <time>2011-03-06T11:21:38Z</time>
      </trkpt>
      <trkpt lat="43.60683" lon="6.84931">
        <ele>57.870250701904</ele>
        <time>2011-03-06T11:21:44Z</time>
      </trkpt>
      <trkpt lat="43.60675" lon="6.84933">
        <ele>57.838985443115</ele>
        <time>2011-03-06T11:21:50Z</time>
      </trkpt>
      <trkpt lat="43.60663" lon="6.84937">
        <ele>58.248363494873</ele>
        <time>2011-03-06T11:21:56Z</time>
      </trkpt>
      <trkpt lat="43.60659" lon="6.84936">
        <ele>58.705768585205</ele>
        <time>2011-03-06T11:21:59Z</time>
      </trkpt>
      <trkpt lat="43.60656" lon="6.84937">
        <ele>59.052917480469</ele>
        <time>2011-03-06T11:22:03Z</time>
      </trkpt>
      <trkpt lat="43.60655" lon="6.84939">
        <ele>59.183982849121</ele>
        <time>2011-03-06T11:22:06Z</time>
      </trkpt>
      <trkpt lat="43.60644" lon="6.84942">
        <ele>60.328449249268</ele>
        <time>2011-03-06T11:22:13Z</time>
      </trkpt>
      <trkpt lat="43.60638" lon="6.84943">
        <ele>61.032871246338</ele>
        <time>2011-03-06T11:22:19Z</time>
      </trkpt>
      <trkpt lat="43.60631" lon="6.84946">
        <ele>61.470359802246</ele>
        <time>2011-03-06T11:22:23Z</time>
      </trkpt>
      <trkpt lat="43.60622" lon="6.84957">
        <ele>61.47008895874</ele>
        <time>2011-03-06T11:22:27Z</time>
      </trkpt>
      <trkpt lat="43.60614" lon="6.84956">
        <ele>62.183906555176</ele>
        <time>2011-03-06T11:22:32Z</time>
      </trkpt>
      <trkpt lat="43.6061" lon="6.84955">
        <ele>62.641635894775</ele>
        <time>2011-03-06T11:22:38Z</time>
      </trkpt>
      <trkpt lat="43.60608" lon="6.84958">
        <ele>62.518817901611</ele>
        <time>2011-03-06T11:22:43Z</time>
      </trkpt>
      <trkpt lat="43.60606" lon="6.8496">
        <ele>62.42533493042</ele>
        <time>2011-03-06T11:22:48Z</time>
      </trkpt>
      <trkpt lat="43.60605" lon="6.8496">
        <ele>62.440372467041</ele>
        <time>2011-03-06T11:22:49Z</time>
      </trkpt>
      <trkpt lat="43.60596" lon="6.8497">
        <ele>61.598808288574</ele>
        <time>2011-03-06T11:22:55Z</time>
      </trkpt>
      <trkpt lat="43.60595" lon="6.84972">
        <ele>61.384796142578</ele>
        <time>2011-03-06T11:22:57Z</time>
      </trkpt>
      <trkpt lat="43.6059" lon="6.84977">
        <ele>60.784442901611</ele>
        <time>2011-03-06T11:23:01Z</time>
      </trkpt>
      <trkpt lat="43.6058" lon="6.84989">
        <ele>59.729511260986</ele>
        <time>2011-03-06T11:23:07Z</time>
      </trkpt>
      <trkpt lat="43.60575" lon="6.84995">
        <ele>59.547492980957</ele>
        <time>2011-03-06T11:23:10Z</time>
      </trkpt>
      <trkpt lat="43.60568" lon="6.85008">
        <ele>59.672748565674</ele>
        <time>2011-03-06T11:23:15Z</time>
      </trkpt>
      <trkpt lat="43.60566" lon="6.8501">
        <ele>59.982112884521</ele>
        <time>2011-03-06T11:23:16Z</time>
      </trkpt>
      <trkpt lat="43.60551" lon="6.85031">
        <ele>60.944347381592</ele>
        <time>2011-03-06T11:23:22Z</time>
      </trkpt>
      <trkpt lat="43.60536" lon="6.85044">
        <ele>61.318302154541</ele>
        <time>2011-03-06T11:23:26Z</time>
      </trkpt>
      <trkpt lat="43.60527" lon="6.8505">
        <ele>61.307754516602</ele>
        <time>2011-03-06T11:23:30Z</time>
      </trkpt>
      <trkpt lat="43.60516" lon="6.8506">
        <ele>60.624767303467</ele>
        <time>2011-03-06T11:23:35Z</time>
      </trkpt>
      <trkpt lat="43.60508" lon="6.85067">
        <ele>59.755870819092</ele>
        <time>2011-03-06T11:23:39Z</time>
      </trkpt>
      <trkpt lat="43.60497" lon="6.8508">
        <ele>58.699119567871</ele>
        <time>2011-03-06T11:23:45Z</time>
      </trkpt>
      <trkpt lat="43.60491" lon="6.85087">
        <ele>59.629692077637</ele>
        <time>2011-03-06T11:23:48Z</time>
      </trkpt>
      <trkpt lat="43.60476" lon="6.85109">
        <ele>62.80016708374</ele>
        <time>2011-03-06T11:23:55Z</time>
      </trkpt>
      <trkpt lat="43.60468" lon="6.8512">
        <ele>63.975811004639</ele>
        <time>2011-03-06T11:24:00Z</time>
      </trkpt>
      <trkpt lat="43.60464" lon="6.85122">
        <ele>64.515594482422</ele>
        <time>2011-03-06T11:24:08Z</time>
      </trkpt>
      <trkpt lat="43.60463" lon="6.85125">
        <ele>64.450592041016</ele>
        <time>2011-03-06T11:24:19Z</time>
      </trkpt>
      <trkpt lat="43.60458" lon="6.85134">
        <ele>64.470573425293</ele>
        <time>2011-03-06T11:24:24Z</time>
      </trkpt>
      <trkpt lat="43.60456" lon="6.85142">
        <ele>64.013809204102</ele>
        <time>2011-03-06T11:24:29Z</time>
      </trkpt>
      <trkpt lat="43.60452" lon="6.85145">
        <ele>64.341522216797</ele>
        <time>2011-03-06T11:24:34Z</time>
      </trkpt>
      <trkpt lat="43.60451" lon="6.85148">
        <ele>64.24095916748</ele>
        <time>2011-03-06T11:24:36Z</time>
      </trkpt>
      <trkpt lat="43.60449" lon="6.85152">
        <ele>64.056007385254</ele>
        <time>2011-03-06T11:24:39Z</time>
      </trkpt>
      <trkpt lat="43.60448" lon="6.85161">
        <ele>62.981109619141</ele>
        <time>2011-03-06T11:24:46Z</time>
      </trkpt>
      <trkpt lat="43.60446" lon="6.85169">
        <ele>62.372097015381</ele>
        <time>2011-03-06T11:24:52Z</time>
      </trkpt>
      <trkpt lat="43.6044" lon="6.85179">
        <ele>62.505405426025</ele>
        <time>2011-03-06T11:24:57Z</time>
      </trkpt>
      <trkpt lat="43.60439" lon="6.85184">
        <ele>62.337417602539</ele>
        <time>2011-03-06T11:25:01Z</time>
      </trkpt>
      <trkpt lat="43.60437" lon="6.85186">
        <ele>62.390327453613</ele>
        <time>2011-03-06T11:25:02Z</time>
      </trkpt>
      <trkpt lat="43.60435" lon="6.85194">
        <ele>62.052169799805</ele>
        <time>2011-03-06T11:25:06Z</time>
      </trkpt>
      <trkpt lat="43.60436" lon="6.85196">
        <ele>61.858966827393</ele>
        <time>2011-03-06T11:25:08Z</time>
      </trkpt>
      <trkpt lat="43.60431" lon="6.85209">
        <ele>61.390357971191</ele>
        <time>2011-03-06T11:25:15Z</time>
      </trkpt>
      <trkpt lat="43.60427" lon="6.85214">
        <ele>61.314235687256</ele>
        <time>2011-03-06T11:25:19Z</time>
      </trkpt>
      <trkpt lat="43.60426" lon="6.8522">
        <ele>61.026660919189</ele>
        <time>2011-03-06T11:25:22Z</time>
      </trkpt>
      <trkpt lat="43.60429" lon="6.85221">
        <ele>60.724277496338</ele>
        <time>2011-03-06T11:25:25Z</time>
      </trkpt>
      <trkpt lat="43.60431" lon="6.85232">
        <ele>59.864681243896</ele>
        <time>2011-03-06T11:25:29Z</time>
      </trkpt>
      <trkpt lat="43.60433" lon="6.8524">
        <ele>59.272556304932</ele>
        <time>2011-03-06T11:25:35Z</time>
      </trkpt>
      <trkpt lat="43.60436" lon="6.85242">
        <ele>59.032188415527</ele>
        <time>2011-03-06T11:25:41Z</time>
      </trkpt>
      <trkpt lat="43.60435" lon="6.85247">
        <ele>58.735794067383</ele>
        <time>2011-03-06T11:25:45Z</time>
      </trkpt>
      <trkpt lat="43.60434" lon="6.85262">
        <ele>58.413661956787</ele>
        <time>2011-03-06T11:25:52Z</time>
      </trkpt>
      <trkpt lat="43.60431" lon="6.8527">
        <ele>58.364585876465</ele>
        <time>2011-03-06T11:25:56Z</time>
      </trkpt>
      <trkpt lat="43.60431" lon="6.85275">
        <ele>58.306510925293</ele>
        <time>2011-03-06T11:25:59Z</time>
      </trkpt>
      <trkpt lat="43.60431" lon="6.85295">
        <ele>58.040748596191</ele>
        <time>2011-03-06T11:26:06Z</time>
      </trkpt>
      <trkpt lat="43.60437" lon="6.85314">
        <ele>57.553554534912</ele>
        <time>2011-03-06T11:26:11Z</time>
      </trkpt>
      <trkpt lat="43.6044" lon="6.85321">
        <ele>57.329105377197</ele>
        <time>2011-03-06T11:26:14Z</time>
      </trkpt>
      <trkpt lat="43.60434" lon="6.85342">
        <ele>57.758857727051</ele>
        <time>2011-03-06T11:26:20Z</time>
      </trkpt>
      <trkpt lat="43.60432" lon="6.85356">
        <ele>58.554862976074</ele>
        <time>2011-03-06T11:26:24Z</time>
      </trkpt>
      <trkpt lat="43.60425" lon="6.85367">
        <ele>59.532997131348</ele>
        <time>2011-03-06T11:26:33Z</time>
      </trkpt>
      <trkpt lat="43.60423" lon="6.85369">
        <ele>59.758762359619</ele>
        <time>2011-03-06T11:26:39Z</time>
      </trkpt>
      <trkpt lat="43.60423" lon="6.85369">
        <ele>59.717174530029</ele>
        <time>2011-03-06T11:26:40Z</time>
      </trkpt>
      <trkpt lat="43.60427" lon="6.85371">
        <ele>59.577743530273</ele>
        <time>2011-03-06T11:26:43Z</time>
      </trkpt>
      <trkpt lat="43.60429" lon="6.85376">
        <ele>59.741703033447</ele>
        <time>2011-03-06T11:26:46Z</time>
      </trkpt>
      <trkpt lat="43.60431" lon="6.85378">
        <ele>59.731986999512</ele>
        <time>2011-03-06T11:26:50Z</time>
      </trkpt>
      <trkpt lat="43.60438" lon="6.85384">
        <ele>59.511665344238</ele>
        <time>2011-03-06T11:26:56Z</time>
      </trkpt>
      <trkpt lat="43.60446" lon="6.85389">
        <ele>59.111381530762</ele>
        <time>2011-03-06T11:27:00Z</time>
      </trkpt>
      <trkpt lat="43.60453" lon="6.85389">
        <ele>58.573020935059</ele>
        <time>2011-03-06T11:27:05Z</time>
      </trkpt>
      <trkpt lat="43.60453" lon="6.85393">
        <ele>58.736961364746</ele>
        <time>2011-03-06T11:27:08Z</time>
      </trkpt>
      <trkpt lat="43.60456" lon="6.85392">
        <ele>58.420761108398</ele>
        <time>2011-03-06T11:27:11Z</time>
      </trkpt>
      <trkpt lat="43.60454" lon="6.85392">
        <ele>58.61967086792</ele>
        <time>2011-03-06T11:27:16Z</time>
      </trkpt>
      <trkpt lat="43.60448" lon="6.85397">
        <ele>59.215026855469</ele>
        <time>2011-03-06T11:27:21Z</time>
      </trkpt>
      <trkpt lat="43.60453" lon="6.85397">
        <ele>58.832626342773</ele>
        <time>2011-03-06T11:27:25Z</time>
      </trkpt>
      <trkpt lat="43.60454" lon="6.854">
        <ele>58.867130279541</ele>
        <time>2011-03-06T11:27:28Z</time>
      </trkpt>
      <trkpt lat="43.6046" lon="6.85408">
        <ele>58.591701507568</ele>
        <time>2011-03-06T11:27:34Z</time>
      </trkpt>
      <trkpt lat="43.60468" lon="6.85413">
        <ele>58.026515960693</ele>
        <time>2011-03-06T11:27:38Z</time>
      </trkpt>
      <trkpt lat="43.60475" lon="6.85421">
        <ele>58.821266174316</ele>
        <time>2011-03-06T11:27:43Z</time>
      </trkpt>
      <trkpt lat="43.60484" lon="6.85426">
        <ele>59.361885070801</ele>
        <time>2011-03-06T11:27:46Z</time>
      </trkpt>
      <trkpt lat="43.60487" lon="6.85427">
        <ele>59.309177398682</ele>
        <time>2011-03-06T11:27:47Z</time>
      </trkpt>
      <trkpt lat="43.60495" lon="6.85429">
        <ele>59.120212554932</ele>
        <time>2011-03-06T11:27:52Z</time>
      </trkpt>
      <trkpt lat="43.60498" lon="6.85432">
        <ele>59.513008117676</ele>
        <time>2011-03-06T11:27:56Z</time>
      </trkpt>
      <trkpt lat="43.60498" lon="6.85436">
        <ele>60.643779754639</ele>
        <time>2011-03-06T11:28:00Z</time>
      </trkpt>
      <trkpt lat="43.60509" lon="6.85434">
        <ele>60.279109954834</ele>
        <time>2011-03-06T11:28:04Z</time>
      </trkpt>
      <trkpt lat="43.60526" lon="6.85432">
        <ele>60.066902160645</ele>
        <time>2011-03-06T11:28:10Z</time>
      </trkpt>
      <trkpt lat="43.60529" lon="6.85433">
        <ele>60.409294128418</ele>
        <time>2011-03-06T11:28:11Z</time>
      </trkpt>
      <trkpt lat="43.6054" lon="6.85436">
        <ele>61.658340454102</ele>
        <time>2011-03-06T11:28:17Z</time>
      </trkpt>
      <trkpt lat="43.60547" lon="6.85437">
        <ele>62.097053527832</ele>
        <time>2011-03-06T11:28:21Z</time>
      </trkpt>
      <trkpt lat="43.60551" lon="6.85437">
        <ele>62.476280212402</ele>
        <time>2011-03-06T11:28:23Z</time>
      </trkpt>
      <trkpt lat="43.60563" lon="6.85437">
        <ele>62.636798858643</ele>
        <time>2011-03-06T11:28:28Z</time>
      </trkpt>
      <trkpt lat="43.60564" lon="6.85436">
        <ele>62.463626861572</ele>
        <time>2011-03-06T11:28:29Z</time>
      </trkpt>
      <trkpt lat="43.60577" lon="6.85431">
        <ele>60.90100479126</ele>
        <time>2011-03-06T11:28:35Z</time>
      </trkpt>
      <trkpt lat="43.60588" lon="6.8543">
        <ele>60.836269378662</ele>
        <time>2011-03-06T11:28:40Z</time>
      </trkpt>
      <trkpt lat="43.60601" lon="6.85426">
        <ele>60.137844085693</ele>
        <time>2011-03-06T11:28:46Z</time>
      </trkpt>
      <trkpt lat="43.60611" lon="6.85422">
        <ele>58.888740539551</ele>
        <time>2011-03-06T11:28:50Z</time>
      </trkpt>
      <trkpt lat="43.60618" lon="6.85418">
        <ele>57.581203460693</ele>
        <time>2011-03-06T11:28:54Z</time>
      </trkpt>
      <trkpt lat="43.60621" lon="6.85414">
        <ele>57.211486816406</ele>
        <time>2011-03-06T11:28:57Z</time>
      </trkpt>
      <trkpt lat="43.60635" lon="6.85407">
        <ele>57.736068725586</ele>
        <time>2011-03-06T11:29:02Z</time>
      </trkpt>
      <trkpt lat="43.60641" lon="6.85404">
        <ele>57.865177154541</ele>
        <time>2011-03-06T11:29:07Z</time>
      </trkpt>
      <trkpt lat="43.60649" lon="6.85397">
        <ele>57.909847259521</ele>
        <time>2011-03-06T11:29:12Z</time>
      </trkpt>
      <trkpt lat="43.60653" lon="6.85393">
        <ele>57.79349899292</ele>
        <time>2011-03-06T11:29:20Z</time>
      </trkpt>
      <trkpt lat="43.60664" lon="6.85389">
        <ele>57.879703521729</ele>
        <time>2011-03-06T11:29:35Z</time>
      </trkpt>
      <trkpt lat="43.60675" lon="6.8538">
        <ele>57.638900756836</ele>
        <time>2011-03-06T11:29:41Z</time>
      </trkpt>
      <trkpt lat="43.60678" lon="6.85375">
        <ele>57.380390167236</ele>
        <time>2011-03-06T11:29:43Z</time>
      </trkpt>
      <trkpt lat="43.6069" lon="6.85369">
        <ele>57.149272918701</ele>
        <time>2011-03-06T11:29:48Z</time>
      </trkpt>
      <trkpt lat="43.60698" lon="6.85366">
        <ele>56.97297668457</ele>
        <time>2011-03-06T11:29:52Z</time>
      </trkpt>
      <trkpt lat="43.60698" lon="6.85364">
        <ele>56.797515869141</ele>
        <time>2011-03-06T11:29:54Z</time>
      </trkpt>
      <trkpt lat="43.60701" lon="6.8536">
        <ele>56.43155670166</ele>
        <time>2011-03-06T11:30:02Z</time>
      </trkpt>
      <trkpt lat="43.60703" lon="6.85357">
        <ele>56.123020172119</ele>
        <time>2011-03-06T11:30:04Z</time>
      </trkpt>
      <trkpt lat="43.60706" lon="6.85355">
        <ele>55.946048736572</ele>
        <time>2011-03-06T11:30:10Z</time>
      </trkpt>
      <trkpt lat="43.60713" lon="6.85354">
        <ele>55.934467315674</ele>
        <time>2011-03-06T11:30:15Z</time>
      </trkpt>
      <trkpt lat="43.60723" lon="6.85347">
        <ele>55.119178771973</ele>
        <time>2011-03-06T11:30:20Z</time>
      </trkpt>
      <trkpt lat="43.60725" lon="6.85345">
        <ele>54.842330932617</ele>
        <time>2011-03-06T11:30:21Z</time>
      </trkpt>
      <trkpt lat="43.60734" lon="6.85338">
        <ele>53.792869567871</ele>
        <time>2011-03-06T11:30:26Z</time>
      </trkpt>
      <trkpt lat="43.60736" lon="6.85336">
        <ele>53.60901260376</ele>
        <time>2011-03-06T11:30:27Z</time>
      </trkpt>
      <trkpt lat="43.60738" lon="6.85331">
        <ele>53.315757751465</ele>
        <time>2011-03-06T11:30:34Z</time>
      </trkpt>
      <trkpt lat="43.60741" lon="6.85329">
        <ele>53.431549072266</ele>
        <time>2011-03-06T11:30:41Z</time>
      </trkpt>
      <trkpt lat="43.60744" lon="6.85326">
        <ele>53.602146148682</ele>
        <time>2011-03-06T11:30:46Z</time>
      </trkpt>
      <trkpt lat="43.60749" lon="6.85324">
        <ele>53.71460723877</ele>
        <time>2011-03-06T11:30:50Z</time>
      </trkpt>
      <trkpt lat="43.6076" lon="6.85316">
        <ele>54.141216278076</ele>
        <time>2011-03-06T11:30:56Z</time>
      </trkpt>
      <trkpt lat="43.60761" lon="6.85314">
        <ele>54.239803314209</ele>
        <time>2011-03-06T11:30:57Z</time>
      </trkpt>
      <trkpt lat="43.60771" lon="6.85303">
        <ele>54.835590362549</ele>
        <time>2011-03-06T11:31:03Z</time>
      </trkpt>
      <trkpt lat="43.60775" lon="6.853">
        <ele>54.93998336792</ele>
        <time>2011-03-06T11:31:11Z</time>
      </trkpt>
      <trkpt lat="43.60783" lon="6.85297">
        <ele>55.065841674805</ele>
        <time>2011-03-06T11:31:16Z</time>
      </trkpt>
      <trkpt lat="43.60787" lon="6.85294">
        <ele>55.190612792969</ele>
        <time>2011-03-06T11:31:23Z</time>
      </trkpt>
      <trkpt lat="43.60794" lon="6.85291">
        <ele>55.269065856934</ele>
        <time>2011-03-06T11:31:29Z</time>
      </trkpt>
      <trkpt lat="43.60799" lon="6.85291">
        <ele>55.198440551758</ele>
        <time>2011-03-06T11:31:36Z</time>
      </trkpt>
      <trkpt lat="43.608" lon="6.85291">
        <ele>55.152191162109</ele>
        <time>2011-03-06T11:31:45Z</time>
      </trkpt>
      <trkpt lat="43.60794" lon="6.85295">
        <ele>55.006523132324</ele>
        <time>2011-03-06T11:32:14Z</time>
      </trkpt>
      <trkpt lat="43.60796" lon="6.853">
        <ele>54.601455688477</ele>
        <time>2011-03-06T11:32:26Z</time>
      </trkpt>
      <trkpt lat="43.60801" lon="6.85301">
        <ele>54.472507476807</ele>
        <time>2011-03-06T11:32:35Z</time>
      </trkpt>
      <trkpt lat="43.60814" lon="6.853">
        <ele>54.313407897949</ele>
        <time>2011-03-06T11:32:41Z</time>
      </trkpt>
      <trkpt lat="43.60829" lon="6.85298">
        <ele>54.193328857422</ele>
        <time>2011-03-06T11:32:48Z</time>
      </trkpt>
      <trkpt lat="43.60843" lon="6.85294">
        <ele>54.472122192383</ele>
        <time>2011-03-06T11:32:54Z</time>
      </trkpt>
      <trkpt lat="43.60854" lon="6.85297">
        <ele>54.376140594482</ele>
        <time>2011-03-06T11:32:59Z</time>
      </trkpt>
      <trkpt lat="43.60857" lon="6.85305">
        <ele>53.910717010498</ele>
        <time>2011-03-06T11:33:04Z</time>
      </trkpt>
      <trkpt lat="43.60858" lon="6.85315">
        <ele>53.202968597412</ele>
        <time>2011-03-06T11:33:09Z</time>
      </trkpt>
      <trkpt lat="43.60859" lon="6.85331">
        <ele>52.163154602051</ele>
        <time>2011-03-06T11:33:17Z</time>
      </trkpt>
      <trkpt lat="43.60861" lon="6.85347">
        <ele>53.412128448486</ele>
        <time>2011-03-06T11:33:24Z</time>
      </trkpt>
      <trkpt lat="43.60861" lon="6.85349">
        <ele>53.666347503662</ele>
        <time>2011-03-06T11:33:25Z</time>
      </trkpt>
      <trkpt lat="43.60857" lon="6.85349">
        <ele>53.790828704834</ele>
        <time>2011-03-06T11:33:30Z</time>
      </trkpt>
      <trkpt lat="43.60855" lon="6.85345">
        <ele>53.38399887085</ele>
        <time>2011-03-06T11:33:32Z</time>
      </trkpt>
      <trkpt lat="43.60845" lon="6.85334">
        <ele>52.104518890381</ele>
        <time>2011-03-06T11:33:39Z</time>
      </trkpt>
      <trkpt lat="43.60835" lon="6.85331">
        <ele>52.1259765625</ele>
        <time>2011-03-06T11:33:45Z</time>
      </trkpt>
      <trkpt lat="43.60823" lon="6.85333">
        <ele>52.138355255127</ele>
        <time>2011-03-06T11:33:53Z</time>
      </trkpt>
      <trkpt lat="43.60815" lon="6.85339">
        <ele>53.129119873047</ele>
        <time>2011-03-06T11:34:00Z</time>
      </trkpt>
      <trkpt lat="43.60805" lon="6.85344">
        <ele>54.029197692871</ele>
        <time>2011-03-06T11:34:08Z</time>
      </trkpt>
      <trkpt lat="43.60795" lon="6.85347">
        <ele>54.520149230957</ele>
        <time>2011-03-06T11:34:16Z</time>
      </trkpt>
      <trkpt lat="43.60786" lon="6.85351">
        <ele>55.27717590332</ele>
        <time>2011-03-06T11:34:24Z</time>
      </trkpt>
      <trkpt lat="43.60772" lon="6.85358">
        <ele>56.624717712402</ele>
        <time>2011-03-06T11:34:35Z</time>
      </trkpt>
      <trkpt lat="43.60764" lon="6.85366">
        <ele>57.920188903809</ele>
        <time>2011-03-06T11:34:43Z</time>
      </trkpt>
      <trkpt lat="43.60757" lon="6.85376">
        <ele>59.552688598633</ele>
        <time>2011-03-06T11:34:51Z</time>
      </trkpt>
      <trkpt lat="43.60754" lon="6.85381">
        <ele>60.315437316895</ele>
        <time>2011-03-06T11:34:55Z</time>
      </trkpt>
      <trkpt lat="43.60751" lon="6.85385">
        <ele>61.006660461426</ele>
        <time>2011-03-06T11:34:59Z</time>
      </trkpt>
      <trkpt lat="43.60747" lon="6.85394">
        <ele>62.301998138428</ele>
        <time>2011-03-06T11:35:08Z</time>
      </trkpt>
      <trkpt lat="43.60745" lon="6.85404">
        <ele>63.771957397461</ele>
        <time>2011-03-06T11:35:17Z</time>
      </trkpt>
      <trkpt lat="43.60743" lon="6.8541">
        <ele>64.49609375</ele>
        <time>2011-03-06T11:35:24Z</time>
      </trkpt>
      <trkpt lat="43.60744" lon="6.85419">
        <ele>66.613739013672</ele>
        <time>2011-03-06T11:35:32Z</time>
      </trkpt>
      <trkpt lat="43.60746" lon="6.85427">
        <ele>69.903900146484</ele>
        <time>2011-03-06T11:35:40Z</time>
      </trkpt>
      <trkpt lat="43.60748" lon="6.8543">
        <ele>71.098205566406</ele>
        <time>2011-03-06T11:35:46Z</time>
      </trkpt>
      <trkpt lat="43.60749" lon="6.85439">
        <ele>74.965675354004</ele>
        <time>2011-03-06T11:35:55Z</time>
      </trkpt>
      <trkpt lat="43.60751" lon="6.85446">
        <ele>77.651596069336</ele>
        <time>2011-03-06T11:36:03Z</time>
      </trkpt>
      <trkpt lat="43.60754" lon="6.85453">
        <ele>79.655502319336</ele>
        <time>2011-03-06T11:36:11Z</time>
      </trkpt>
      <trkpt lat="43.60756" lon="6.85454">
        <ele>80.171852111816</ele>
        <time>2011-03-06T11:36:16Z</time>
      </trkpt>
      <trkpt lat="43.60754" lon="6.85457">
        <ele>81.401626586914</ele>
        <time>2011-03-06T11:36:46Z</time>
      </trkpt>
      <trkpt lat="43.60754" lon="6.85459">
        <ele>82.274681091309</ele>
        <time>2011-03-06T11:37:04Z</time>
      </trkpt>
      <trkpt lat="43.60755" lon="6.85465">
        <ele>84.210159301758</ele>
        <time>2011-03-06T11:37:08Z</time>
      </trkpt>
      <trkpt lat="43.6076" lon="6.85479">
        <ele>88.429840087891</ele>
        <time>2011-03-06T11:37:15Z</time>
      </trkpt>
      <trkpt lat="43.60763" lon="6.85492">
        <ele>92.33324432373</ele>
        <time>2011-03-06T11:37:23Z</time>
      </trkpt>
      <trkpt lat="43.60763" lon="6.85495">
        <ele>93.479949951172</ele>
        <time>2011-03-06T11:37:25Z</time>
      </trkpt>
      <trkpt lat="43.6076" lon="6.855">
        <ele>95.839454650879</ele>
        <time>2011-03-06T11:37:31Z</time>
      </trkpt>
      <trkpt lat="43.60759" lon="6.85497">
        <ele>95.491027832031</ele>
        <time>2011-03-06T11:37:37Z</time>
      </trkpt>
      <trkpt lat="43.60756" lon="6.85491">
        <ele>93.787147521973</ele>
        <time>2011-03-06T11:37:47Z</time>
      </trkpt>
      <trkpt lat="43.60754" lon="6.85488">
        <ele>93.282722473145</ele>
        <time>2011-03-06T11:37:52Z</time>
      </trkpt>
      <trkpt lat="43.60748" lon="6.85485">
        <ele>92.866569519043</ele>
        <time>2011-03-06T11:37:58Z</time>
      </trkpt>
      <trkpt lat="43.60747" lon="6.85484">
        <ele>92.593109130859</ele>
        <time>2011-03-06T11:37:59Z</time>
      </trkpt>
      <trkpt lat="43.60738" lon="6.85479">
        <ele>90.283126831055</ele>
        <time>2011-03-06T11:38:07Z</time>
      </trkpt>
      <trkpt lat="43.60732" lon="6.85477">
        <ele>88.99210357666</ele>
        <time>2011-03-06T11:38:14Z</time>
      </trkpt>
      <trkpt lat="43.6072" lon="6.85474">
        <ele>87.138412475586</ele>
        <time>2011-03-06T11:38:23Z</time>
      </trkpt>
      <trkpt lat="43.60715" lon="6.85473">
        <ele>86.491828918457</ele>
        <time>2011-03-06T11:38:27Z</time>
      </trkpt>
      <trkpt lat="43.60711" lon="6.85473">
        <ele>86.372741699219</ele>
        <time>2011-03-06T11:38:31Z</time>
      </trkpt>
      <trkpt lat="43.60703" lon="6.85474">
        <ele>86.542839050293</ele>
        <time>2011-03-06T11:38:37Z</time>
      </trkpt>
      <trkpt lat="43.60698" lon="6.85474">
        <ele>86.189163208008</ele>
        <time>2011-03-06T11:38:41Z</time>
      </trkpt>
      <trkpt lat="43.60689" lon="6.85476">
        <ele>86.72257232666</ele>
        <time>2011-03-06T11:38:48Z</time>
      </trkpt>
      <trkpt lat="43.6068" lon="6.85482">
        <ele>88.672904968262</ele>
        <time>2011-03-06T11:38:55Z</time>
      </trkpt>
      <trkpt lat="43.60673" lon="6.85488">
        <ele>91.015083312988</ele>
        <time>2011-03-06T11:39:02Z</time>
      </trkpt>
      <trkpt lat="43.60672" lon="6.85489">
        <ele>91.27522277832</ele>
        <time>2011-03-06T11:39:03Z</time>
      </trkpt>
      <trkpt lat="43.60663" lon="6.85494">
        <ele>93.039810180664</ele>
        <time>2011-03-06T11:39:10Z</time>
      </trkpt>
      <trkpt lat="43.60659" lon="6.85498">
        <ele>94.42552947998</ele>
        <time>2011-03-06T11:39:14Z</time>
      </trkpt>
      <trkpt lat="43.60654" lon="6.85502">
        <ele>95.326515197754</ele>
        <time>2011-03-06T11:39:19Z</time>
      </trkpt>
      <trkpt lat="43.60651" lon="6.85502">
        <ele>95.267692565918</ele>
        <time>2011-03-06T11:39:32Z</time>
      </trkpt>
      <trkpt lat="43.60653" lon="6.855">
        <ele>94.916206359863</ele>
        <time>2011-03-06T11:39:58Z</time>
      </trkpt>
      <trkpt lat="43.60651" lon="6.85504">
        <ele>95.583969116211</ele>
        <time>2011-03-06T11:40:13Z</time>
      </trkpt>
      <trkpt lat="43.6065" lon="6.85505">
        <ele>95.799583435059</ele>
        <time>2011-03-06T11:40:14Z</time>
      </trkpt>
      <trkpt lat="43.60644" lon="6.85512">
        <ele>97.020286560059</ele>
        <time>2011-03-06T11:40:18Z</time>
      </trkpt>
      <trkpt lat="43.60635" lon="6.85522">
        <ele>98.901077270508</ele>
        <time>2011-03-06T11:40:24Z</time>
      </trkpt>
      <trkpt lat="43.60623" lon="6.8553">
        <ele>100.07497406006</ele>
        <time>2011-03-06T11:40:30Z</time>
      </trkpt>
      <trkpt lat="43.60603" lon="6.85535">
        <ele>100.30861663818</ele>
        <time>2011-03-06T11:40:34Z</time>
      </trkpt>
      <trkpt lat="43.60583" lon="6.85537">
        <ele>99.597984313965</ele>
        <time>2011-03-06T11:40:37Z</time>
      </trkpt>
      <trkpt lat="43.60537" lon="6.85532">
        <ele>94.99153137207</ele>
        <time>2011-03-06T11:40:43Z</time>
      </trkpt>
      <trkpt lat="43.60513" lon="6.85538">
        <ele>95.884208679199</ele>
        <time>2011-03-06T11:40:47Z</time>
      </trkpt>
      <trkpt lat="43.60505" lon="6.85543">
        <ele>97.35945892334</ele>
        <time>2011-03-06T11:40:50Z</time>
      </trkpt>
      <trkpt lat="43.60485" lon="6.85557">
        <ele>104.50489807129</ele>
        <time>2011-03-06T11:40:59Z</time>
      </trkpt>
      <trkpt lat="43.60473" lon="6.85565">
        <ele>109.1466217041</ele>
        <time>2011-03-06T11:41:05Z</time>
      </trkpt>
      <trkpt lat="43.60463" lon="6.85569">
        <ele>111.88004302978</ele>
        <time>2011-03-06T11:41:12Z</time>
      </trkpt>
      <trkpt lat="43.60454" lon="6.85569">
        <ele>112.96894836426</ele>
        <time>2011-03-06T11:41:20Z</time>
      </trkpt>
      <trkpt lat="43.60445" lon="6.85566">
        <ele>112.53693389893</ele>
        <time>2011-03-06T11:41:29Z</time>
      </trkpt>
      <trkpt lat="43.60443" lon="6.85565">
        <ele>112.46025848389</ele>
        <time>2011-03-06T11:41:30Z</time>
      </trkpt>
      <trkpt lat="43.60436" lon="6.85562">
        <ele>112.02137756348</ele>
        <time>2011-03-06T11:41:38Z</time>
      </trkpt>
      <trkpt lat="43.60428" lon="6.85559">
        <ele>111.64601135254</ele>
        <time>2011-03-06T11:41:46Z</time>
      </trkpt>
      <trkpt lat="43.6042" lon="6.85556">
        <ele>111.06922912598</ele>
        <time>2011-03-06T11:41:53Z</time>
      </trkpt>
      <trkpt lat="43.60411" lon="6.85551">
        <ele>110.64692687988</ele>
        <time>2011-03-06T11:42:01Z</time>
      </trkpt>
      <trkpt lat="43.6041" lon="6.8555">
        <ele>110.48711395264</ele>
        <time>2011-03-06T11:42:02Z</time>
      </trkpt>
      <trkpt lat="43.604" lon="6.85548">
        <ele>111.6671295166</ele>
        <time>2011-03-06T11:42:11Z</time>
      </trkpt>
      <trkpt lat="43.6039" lon="6.85545">
        <ele>112.2124710083</ele>
        <time>2011-03-06T11:42:19Z</time>
      </trkpt>
      <trkpt lat="43.60382" lon="6.85544">
        <ele>113.59513854981</ele>
        <time>2011-03-06T11:42:26Z</time>
      </trkpt>
      <trkpt lat="43.60372" lon="6.85542">
        <ele>115.29326629639</ele>
        <time>2011-03-06T11:42:35Z</time>
      </trkpt>
      <trkpt lat="43.60365" lon="6.85539">
        <ele>115.70937347412</ele>
        <time>2011-03-06T11:42:41Z</time>
      </trkpt>
      <trkpt lat="43.60355" lon="6.85536">
        <ele>116.94653320312</ele>
        <time>2011-03-06T11:42:49Z</time>
      </trkpt>
      <trkpt lat="43.60349" lon="6.85535">
        <ele>118.25067138672</ele>
        <time>2011-03-06T11:42:55Z</time>
      </trkpt>
      <trkpt lat="43.60339" lon="6.85535">
        <ele>120.32538604736</ele>
        <time>2011-03-06T11:43:04Z</time>
      </trkpt>
      <trkpt lat="43.60331" lon="6.85535">
        <ele>122.64334106445</ele>
        <time>2011-03-06T11:43:12Z</time>
      </trkpt>
      <trkpt lat="43.60322" lon="6.85537">
        <ele>125.68256378174</ele>
        <time>2011-03-06T11:43:19Z</time>
      </trkpt>
      <trkpt lat="43.60321" lon="6.85537">
        <ele>126.05205535889</ele>
        <time>2011-03-06T11:43:20Z</time>
      </trkpt>
      <trkpt lat="43.60313" lon="6.85537">
        <ele>128.53161621094</ele>
        <time>2011-03-06T11:43:28Z</time>
      </trkpt>
      <trkpt lat="43.60304" lon="6.85537">
        <ele>131.21362304688</ele>
        <time>2011-03-06T11:43:36Z</time>
      </trkpt>
      <trkpt lat="43.60295" lon="6.85537">
        <ele>133.81289672852</ele>
        <time>2011-03-06T11:43:44Z</time>
      </trkpt>
      <trkpt lat="43.60294" lon="6.85537">
        <ele>134.44525146484</ele>
        <time>2011-03-06T11:43:46Z</time>
      </trkpt>
      <trkpt lat="43.60289" lon="6.85536">
        <ele>135.49664306641</ele>
        <time>2011-03-06T11:43:50Z</time>
      </trkpt>
      <trkpt lat="43.60281" lon="6.85534">
        <ele>137.68748474121</ele>
        <time>2011-03-06T11:43:59Z</time>
      </trkpt>
      <trkpt lat="43.60272" lon="6.85529">
        <ele>139.61042785644</ele>
        <time>2011-03-06T11:44:08Z</time>
      </trkpt>
      <trkpt lat="43.60268" lon="6.85526">
        <ele>140.24687194824</ele>
        <time>2011-03-06T11:44:12Z</time>
      </trkpt>
      <trkpt lat="43.60263" lon="6.85522">
        <ele>141.14904785156</ele>
        <time>2011-03-06T11:44:17Z</time>
      </trkpt>
      <trkpt lat="43.60256" lon="6.85516">
        <ele>142.52955627441</ele>
        <time>2011-03-06T11:44:26Z</time>
      </trkpt>
      <trkpt lat="43.60249" lon="6.8551">
        <ele>143.94987487793</ele>
        <time>2011-03-06T11:44:33Z</time>
      </trkpt>
      <trkpt lat="43.60241" lon="6.85503">
        <ele>145.54991149902</ele>
        <time>2011-03-06T11:44:41Z</time>
      </trkpt>
      <trkpt lat="43.60233" lon="6.855">
        <ele>147.64233398438</ele>
        <time>2011-03-06T11:44:49Z</time>
      </trkpt>
      <trkpt lat="43.60228" lon="6.85496">
        <ele>149.35914611816</ele>
        <time>2011-03-06T11:44:56Z</time>
      </trkpt>
      <trkpt lat="43.60223" lon="6.85494">
        <ele>150.97277832031</ele>
        <time>2011-03-06T11:45:02Z</time>
      </trkpt>
      <trkpt lat="43.60216" lon="6.85491">
        <ele>153.17724609375</ele>
        <time>2011-03-06T11:45:09Z</time>
      </trkpt>
      <trkpt lat="43.6021" lon="6.85489">
        <ele>155.31903076172</ele>
        <time>2011-03-06T11:45:15Z</time>
      </trkpt>
      <trkpt lat="43.60203" lon="6.85485">
        <ele>157.81076049805</ele>
        <time>2011-03-06T11:45:23Z</time>
      </trkpt>
      <trkpt lat="43.60194" lon="6.85482">
        <ele>161.11814880371</ele>
        <time>2011-03-06T11:45:30Z</time>
      </trkpt>
      <trkpt lat="43.60192" lon="6.85482">
        <ele>161.9723815918</ele>
        <time>2011-03-06T11:45:32Z</time>
      </trkpt>
      <trkpt lat="43.60178" lon="6.85485">
        <ele>166.97563171387</ele>
        <time>2011-03-06T11:45:44Z</time>
      </trkpt>
      <trkpt lat="43.60169" lon="6.85487">
        <ele>170.15240478516</ele>
        <time>2011-03-06T11:45:52Z</time>
      </trkpt>
      <trkpt lat="43.60161" lon="6.85489">
        <ele>172.63758850098</ele>
        <time>2011-03-06T11:45:58Z</time>
      </trkpt>
      <trkpt lat="43.60159" lon="6.8549">
        <ele>173.30087280273</ele>
        <time>2011-03-06T11:46:00Z</time>
      </trkpt>
      <trkpt lat="43.60157" lon="6.8549">
        <ele>174.03994750977</ele>
        <time>2011-03-06T11:46:02Z</time>
      </trkpt>
      <trkpt lat="43.60152" lon="6.85492">
        <ele>175.46455383301</ele>
        <time>2011-03-06T11:46:06Z</time>
      </trkpt>
      <trkpt lat="43.6015" lon="6.85493">
        <ele>175.86286926269</ele>
        <time>2011-03-06T11:46:14Z</time>
      </trkpt>
      <trkpt lat="43.6015" lon="6.85492">
        <ele>175.88116455078</ele>
        <time>2011-03-06T11:46:22Z</time>
      </trkpt>
      <trkpt lat="43.6015" lon="6.85493">
        <ele>175.86744689941</ele>
        <time>2011-03-06T11:46:23Z</time>
      </trkpt>
      <trkpt lat="43.6015" lon="6.85492">
        <ele>175.88116455078</ele>
        <time>2011-03-06T11:46:24Z</time>
      </trkpt>
      <trkpt lat="43.60149" lon="6.85492">
        <ele>176.13716125488</ele>
        <time>2011-03-06T11:46:25Z</time>
      </trkpt>
      <trkpt lat="43.60149" lon="6.85492">
        <ele>176.37481689453</ele>
        <time>2011-03-06T11:46:26Z</time>
      </trkpt>
      <trkpt lat="43.60148" lon="6.85493">
        <ele>176.59381103516</ele>
        <time>2011-03-06T11:46:27Z</time>
      </trkpt>
      <trkpt lat="43.60147" lon="6.85494">
        <ele>176.73303222656</ele>
        <time>2011-03-06T11:46:28Z</time>
      </trkpt>
      <trkpt lat="43.60146" lon="6.85496">
        <ele>176.78642272949</ele>
        <time>2011-03-06T11:46:29Z</time>
      </trkpt>
      <trkpt lat="43.60145" lon="6.85499">
        <ele>176.96304321289</ele>
        <time>2011-03-06T11:46:31Z</time>
      </trkpt>
      <trkpt lat="43.60144" lon="6.855">
        <ele>177.05871582031</ele>
        <time>2011-03-06T11:46:32Z</time>
      </trkpt>
      <trkpt lat="43.60143" lon="6.85502">
        <ele>177.39709472656</ele>
        <time>2011-03-06T11:46:33Z</time>
      </trkpt>
      <trkpt lat="43.60136" lon="6.85512">
        <ele>180.17530822754</ele>
        <time>2011-03-06T11:46:41Z</time>
      </trkpt>
      <trkpt lat="43.60133" lon="6.85518">
        <ele>181.51831054688</ele>
        <time>2011-03-06T11:46:45Z</time>
      </trkpt>
      <trkpt lat="43.6013" lon="6.8552">
        <ele>182.71556091309</ele>
        <time>2011-03-06T11:46:48Z</time>
      </trkpt>
      <trkpt lat="43.60122" lon="6.85524">
        <ele>185.32756042481</ele>
        <time>2011-03-06T11:46:55Z</time>
      </trkpt>
      <trkpt lat="43.60115" lon="6.85529">
        <ele>187.64276123047</ele>
        <time>2011-03-06T11:47:01Z</time>
      </trkpt>
      <trkpt lat="43.60107" lon="6.85535">
        <ele>190.32858276367</ele>
        <time>2011-03-06T11:47:08Z</time>
      </trkpt>
      <trkpt lat="43.60099" lon="6.85538">
        <ele>192.83738708496</ele>
        <time>2011-03-06T11:47:15Z</time>
      </trkpt>
      <trkpt lat="43.60095" lon="6.85538">
        <ele>193.86410522461</ele>
        <time>2011-03-06T11:47:18Z</time>
      </trkpt>
      <trkpt lat="43.60094" lon="6.85539">
        <ele>194.10316467285</ele>
        <time>2011-03-06T11:47:19Z</time>
      </trkpt>
      <trkpt lat="43.60086" lon="6.85539">
        <ele>196.71572875977</ele>
        <time>2011-03-06T11:47:28Z</time>
      </trkpt>
      <trkpt lat="43.60077" lon="6.85537">
        <ele>199.56088256836</ele>
        <time>2011-03-06T11:47:36Z</time>
      </trkpt>
      <trkpt lat="43.60075" lon="6.85531">
        <ele>200.16169738769</ele>
        <time>2011-03-06T11:47:40Z</time>
      </trkpt>
      <trkpt lat="43.60078" lon="6.85528">
        <ele>198.85363769531</ele>
        <time>2011-03-06T11:47:46Z</time>
      </trkpt>
      <trkpt lat="43.60085" lon="6.8553">
        <ele>196.72608947754</ele>
        <time>2011-03-06T11:47:53Z</time>
      </trkpt>
      <trkpt lat="43.60088" lon="6.85529">
        <ele>195.55281066894</ele>
        <time>2011-03-06T11:47:58Z</time>
      </trkpt>
      <trkpt lat="43.60094" lon="6.85525">
        <ele>193.56811523438</ele>
        <time>2011-03-06T11:48:04Z</time>
      </trkpt>
      <trkpt lat="43.60096" lon="6.85524">
        <ele>193.04948425293</ele>
        <time>2011-03-06T11:48:06Z</time>
      </trkpt>
      <trkpt lat="43.60101" lon="6.85517">
        <ele>191.12132263184</ele>
        <time>2011-03-06T11:48:12Z</time>
      </trkpt>
      <trkpt lat="43.60109" lon="6.8551">
        <ele>188.34880065918</ele>
        <time>2011-03-06T11:48:21Z</time>
      </trkpt>
      <trkpt lat="43.60112" lon="6.85507">
        <ele>187.26132202148</ele>
        <time>2011-03-06T11:48:24Z</time>
      </trkpt>
      <trkpt lat="43.60118" lon="6.85498">
        <ele>185.56631469727</ele>
        <time>2011-03-06T11:48:31Z</time>
      </trkpt>
      <trkpt lat="43.6012" lon="6.8549">
        <ele>185.67799377441</ele>
        <time>2011-03-06T11:48:36Z</time>
      </trkpt>
      <trkpt lat="43.60121" lon="6.85483">
        <ele>186.16497802734</ele>
        <time>2011-03-06T11:48:41Z</time>
      </trkpt>
      <trkpt lat="43.60125" lon="6.85475">
        <ele>185.75410461426</ele>
        <time>2011-03-06T11:48:49Z</time>
      </trkpt>
      <trkpt lat="43.60126" lon="6.85474">
        <ele>185.49476623535</ele>
        <time>2011-03-06T11:48:50Z</time>
      </trkpt>
      <trkpt lat="43.60134" lon="6.85467">
        <ele>183.72337341309</ele>
        <time>2011-03-06T11:48:58Z</time>
      </trkpt>
      <trkpt lat="43.60144" lon="6.85459">
        <ele>181.07415771484</ele>
        <time>2011-03-06T11:49:06Z</time>
      </trkpt>
      <trkpt lat="43.60152" lon="6.85452">
        <ele>179.26606750488</ele>
        <time>2011-03-06T11:49:13Z</time>
      </trkpt>
      <trkpt lat="43.60158" lon="6.85446">
        <ele>177.69223022461</ele>
        <time>2011-03-06T11:49:19Z</time>
      </trkpt>
      <trkpt lat="43.60166" lon="6.8544">
        <ele>175.25595092773</ele>
        <time>2011-03-06T11:49:26Z</time>
      </trkpt>
      <trkpt lat="43.60167" lon="6.85439">
        <ele>175.03886413574</ele>
        <time>2011-03-06T11:49:27Z</time>
      </trkpt>
      <trkpt lat="43.60173" lon="6.8543">
        <ele>172.75390625</ele>
        <time>2011-03-06T11:49:33Z</time>
      </trkpt>
      <trkpt lat="43.60177" lon="6.85415">
        <ele>171.61828613281</ele>
        <time>2011-03-06T11:49:42Z</time>
      </trkpt>
      <trkpt lat="43.60177" lon="6.85414">
        <ele>171.71315002441</ele>
        <time>2011-03-06T11:49:43Z</time>
      </trkpt>
      <trkpt lat="43.60176" lon="6.85401">
        <ele>173.02487182617</ele>
        <time>2011-03-06T11:49:50Z</time>
      </trkpt>
      <trkpt lat="43.60176" lon="6.85399">
        <ele>173.33010864258</ele>
        <time>2011-03-06T11:49:51Z</time>
      </trkpt>
      <trkpt lat="43.60169" lon="6.85387">
        <ele>177.89097595215</ele>
        <time>2011-03-06T11:49:59Z</time>
      </trkpt>
      <trkpt lat="43.60168" lon="6.85386">
        <ele>178.63198852539</ele>
        <time>2011-03-06T11:50:00Z</time>
      </trkpt>
      <trkpt lat="43.60164" lon="6.85379">
        <ele>180.66912841797</ele>
        <time>2011-03-06T11:50:05Z</time>
      </trkpt>
      <trkpt lat="43.60164" lon="6.85377">
        <ele>180.95408630371</ele>
        <time>2011-03-06T11:50:14Z</time>
      </trkpt>
      <trkpt lat="43.60163" lon="6.85376">
        <ele>181.41741943359</ele>
        <time>2011-03-06T11:50:26Z</time>
      </trkpt>
      <trkpt lat="43.60161" lon="6.85375">
        <ele>182.10453796387</ele>
        <time>2011-03-06T11:50:38Z</time>
      </trkpt>
      <trkpt lat="43.60163" lon="6.85375">
        <ele>181.18035888672</ele>
        <time>2011-03-06T11:50:49Z</time>
      </trkpt>
      <trkpt lat="43.60163" lon="6.85375">
        <ele>181.5185546875</ele>
        <time>2011-03-06T11:50:58Z</time>
      </trkpt>
      <trkpt lat="43.60159" lon="6.85373">
        <ele>183.09326171875</ele>
        <time>2011-03-06T11:51:12Z</time>
      </trkpt>
      <trkpt lat="43.60152" lon="6.85368">
        <ele>186.0001373291</ele>
        <time>2011-03-06T11:51:20Z</time>
      </trkpt>
      <trkpt lat="43.60147" lon="6.85362">
        <ele>188.35440063477</ele>
        <time>2011-03-06T11:51:27Z</time>
      </trkpt>
      <trkpt lat="43.60141" lon="6.85356">
        <ele>191.19306945801</ele>
        <time>2011-03-06T11:51:33Z</time>
      </trkpt>
      <trkpt lat="43.60136" lon="6.8535">
        <ele>193.66284179688</ele>
        <time>2011-03-06T11:51:39Z</time>
      </trkpt>
      <trkpt lat="43.60132" lon="6.85344">
        <ele>195.94300842285</ele>
        <time>2011-03-06T11:51:45Z</time>
      </trkpt>
      <trkpt lat="43.6013" lon="6.85341">
        <ele>196.93676757812</ele>
        <time>2011-03-06T11:51:48Z</time>
      </trkpt>
      <trkpt lat="43.60124" lon="6.85331">
        <ele>199.95358276367</ele>
        <time>2011-03-06T11:51:57Z</time>
      </trkpt>
      <trkpt lat="43.60122" lon="6.85329">
        <ele>200.96182250977</ele>
        <time>2011-03-06T11:51:59Z</time>
      </trkpt>
      <trkpt lat="43.60118" lon="6.85323">
        <ele>202.58261108398</ele>
        <time>2011-03-06T11:52:03Z</time>
      </trkpt>
      <trkpt lat="43.60116" lon="6.85319">
        <ele>203.81703186035</ele>
        <time>2011-03-06T11:52:10Z</time>
      </trkpt>
      <trkpt lat="43.60114" lon="6.85313">
        <ele>204.67701721191</ele>
        <time>2011-03-06T11:52:17Z</time>
      </trkpt>
      <trkpt lat="43.60111" lon="6.85307">
        <ele>206.10391235352</ele>
        <time>2011-03-06T11:52:25Z</time>
      </trkpt>
      <trkpt lat="43.6011" lon="6.853">
        <ele>206.6989440918</ele>
        <time>2011-03-06T11:52:33Z</time>
      </trkpt>
      <trkpt lat="43.60111" lon="6.85294">
        <ele>206.82861328125</ele>
        <time>2011-03-06T11:52:40Z</time>
      </trkpt>
      <trkpt lat="43.60113" lon="6.85285">
        <ele>206.40777587891</ele>
        <time>2011-03-06T11:52:49Z</time>
      </trkpt>
      <trkpt lat="43.60115" lon="6.85273">
        <ele>206.13198852539</ele>
        <time>2011-03-06T11:53:00Z</time>
      </trkpt>
      <trkpt lat="43.60118" lon="6.85262">
        <ele>205.74472045898</ele>
        <time>2011-03-06T11:53:08Z</time>
      </trkpt>
      <trkpt lat="43.60118" lon="6.8526">
        <ele>205.80551147461</ele>
        <time>2011-03-06T11:53:09Z</time>
      </trkpt>
      <trkpt lat="43.6012" lon="6.8525">
        <ele>205.55480957031</ele>
        <time>2011-03-06T11:53:18Z</time>
      </trkpt>
      <trkpt lat="43.60118" lon="6.85249">
        <ele>206.35362243652</ele>
        <time>2011-03-06T11:53:24Z</time>
      </trkpt>
      <trkpt lat="43.60117" lon="6.85247">
        <ele>206.67846679688</ele>
        <time>2011-03-06T11:53:30Z</time>
      </trkpt>
      <trkpt lat="43.60115" lon="6.85249">
        <ele>207.51580810547</ele>
        <time>2011-03-06T11:53:35Z</time>
      </trkpt>
      <trkpt lat="43.60107" lon="6.85257">
        <ele>209.85929870606</ele>
        <time>2011-03-06T11:53:44Z</time>
      </trkpt>
      <trkpt lat="43.60099" lon="6.85263">
        <ele>212.24983215332</ele>
        <time>2011-03-06T11:53:52Z</time>
      </trkpt>
      <trkpt lat="43.60095" lon="6.8527">
        <ele>213.5050201416</ele>
        <time>2011-03-06T11:53:58Z</time>
      </trkpt>
      <trkpt lat="43.60088" lon="6.85278">
        <ele>215.54747009277</ele>
        <time>2011-03-06T11:54:05Z</time>
      </trkpt>
      <trkpt lat="43.60086" lon="6.8528">
        <ele>216.30166625977</ele>
        <time>2011-03-06T11:54:07Z</time>
      </trkpt>
      <trkpt lat="43.60079" lon="6.8529">
        <ele>218.04722595215</ele>
        <time>2011-03-06T11:54:14Z</time>
      </trkpt>
      <trkpt lat="43.60076" lon="6.85293">
        <ele>218.66441345215</ele>
        <time>2011-03-06T11:54:17Z</time>
      </trkpt>
      <trkpt lat="43.60066" lon="6.85303">
        <ele>220.67030334473</ele>
        <time>2011-03-06T11:54:25Z</time>
      </trkpt>
      <trkpt lat="43.60057" lon="6.85311">
        <ele>222.64494323731</ele>
        <time>2011-03-06T11:54:33Z</time>
      </trkpt>
      <trkpt lat="43.60052" lon="6.85319">
        <ele>223.98243713379</ele>
        <time>2011-03-06T11:54:39Z</time>
      </trkpt>
      <trkpt lat="43.60044" lon="6.8533">
        <ele>225.96798706055</ele>
        <time>2011-03-06T11:54:45Z</time>
      </trkpt>
      <trkpt lat="43.60033" lon="6.85341">
        <ele>228.08618164062</ele>
        <time>2011-03-06T11:54:52Z</time>
      </trkpt>
      <trkpt lat="43.60021" lon="6.85356">
        <ele>230.10415649414</ele>
        <time>2011-03-06T11:55:00Z</time>
      </trkpt>
      <trkpt lat="43.60014" lon="6.85364">
        <ele>231.44984436035</ele>
        <time>2011-03-06T11:55:05Z</time>
      </trkpt>
      <trkpt lat="43.60002" lon="6.85375">
        <ele>233.89567565918</ele>
        <time>2011-03-06T11:55:13Z</time>
      </trkpt>
      <trkpt lat="43.59993" lon="6.8538">
        <ele>235.01893615723</ele>
        <time>2011-03-06T11:55:19Z</time>
      </trkpt>
      <trkpt lat="43.59988" lon="6.85383">
        <ele>235.42822265625</ele>
        <time>2011-03-06T11:55:22Z</time>
      </trkpt>
      <trkpt lat="43.59986" lon="6.85385">
        <ele>235.5530090332</ele>
        <time>2011-03-06T11:55:23Z</time>
      </trkpt>
      <trkpt lat="43.59976" lon="6.85394">
        <ele>236.50115966797</ele>
        <time>2011-03-06T11:55:30Z</time>
      </trkpt>
      <trkpt lat="43.59968" lon="6.85401">
        <ele>237.54643249512</ele>
        <time>2011-03-06T11:55:36Z</time>
      </trkpt>
      <trkpt lat="43.59954" lon="6.85415">
        <ele>239.62861633301</ele>
        <time>2011-03-06T11:55:45Z</time>
      </trkpt>
      <trkpt lat="43.59943" lon="6.85423">
        <ele>241.73806762695</ele>
        <time>2011-03-06T11:55:52Z</time>
      </trkpt>
      <trkpt lat="43.59933" lon="6.85425">
        <ele>243.58454895019</ele>
        <time>2011-03-06T11:55:58Z</time>
      </trkpt>
      <trkpt lat="43.59923" lon="6.85427">
        <ele>245.39923095703</ele>
        <time>2011-03-06T11:56:04Z</time>
      </trkpt>
      <trkpt lat="43.59911" lon="6.85427">
        <ele>246.52687072754</ele>
        <time>2011-03-06T11:56:11Z</time>
      </trkpt>
      <trkpt lat="43.599" lon="6.8543">
        <ele>246.52021789551</ele>
        <time>2011-03-06T11:56:18Z</time>
      </trkpt>
      <trkpt lat="43.59895" lon="6.85433">
        <ele>246.74412536621</ele>
        <time>2011-03-06T11:56:21Z</time>
      </trkpt>
      <trkpt lat="43.59888" lon="6.85441">
        <ele>247.42422485352</ele>
        <time>2011-03-06T11:56:26Z</time>
      </trkpt>
      <trkpt lat="43.59875" lon="6.85454">
        <ele>249.01777648926</ele>
        <time>2011-03-06T11:56:34Z</time>
      </trkpt>
      <trkpt lat="43.59863" lon="6.85463">
        <ele>250.43676757812</ele>
        <time>2011-03-06T11:56:41Z</time>
      </trkpt>
      <trkpt lat="43.59853" lon="6.85468">
        <ele>251.51034545898</ele>
        <time>2011-03-06T11:56:47Z</time>
      </trkpt>
      <trkpt lat="43.59843" lon="6.85475">
        <ele>253.10946655273</ele>
        <time>2011-03-06T11:56:53Z</time>
      </trkpt>
      <trkpt lat="43.59836" lon="6.85488">
        <ele>255.70550537109</ele>
        <time>2011-03-06T11:56:59Z</time>
      </trkpt>
      <trkpt lat="43.59834" lon="6.85503">
        <ele>258.25436401367</ele>
        <time>2011-03-06T11:57:05Z</time>
      </trkpt>
      <trkpt lat="43.59837" lon="6.85521">
        <ele>259.83187866211</ele>
        <time>2011-03-06T11:57:13Z</time>
      </trkpt>
      <trkpt lat="43.59843" lon="6.8554">
        <ele>261.08416748047</ele>
        <time>2011-03-06T11:57:21Z</time>
      </trkpt>
      <trkpt lat="43.59848" lon="6.85553">
        <ele>261.82452392578</ele>
        <time>2011-03-06T11:57:27Z</time>
      </trkpt>
      <trkpt lat="43.59853" lon="6.85573">
        <ele>262.95141601562</ele>
        <time>2011-03-06T11:57:35Z</time>
      </trkpt>
      <trkpt lat="43.59856" lon="6.85593">
        <ele>264.46640014648</ele>
        <time>2011-03-06T11:57:43Z</time>
      </trkpt>
      <trkpt lat="43.59858" lon="6.85615">
        <ele>266.23361206055</ele>
        <time>2011-03-06T11:57:52Z</time>
      </trkpt>
      <trkpt lat="43.59858" lon="6.8563">
        <ele>267.73989868164</ele>
        <time>2011-03-06T11:57:59Z</time>
      </trkpt>
      <trkpt lat="43.59858" lon="6.85635">
        <ele>268.18099975586</ele>
        <time>2011-03-06T11:58:01Z</time>
      </trkpt>
      <trkpt lat="43.59855" lon="6.8565">
        <ele>270.43591308594</ele>
        <time>2011-03-06T11:58:07Z</time>
      </trkpt>
      <trkpt lat="43.5985" lon="6.8566">
        <ele>272.53475952148</ele>
        <time>2011-03-06T11:58:12Z</time>
      </trkpt>
      <trkpt lat="43.59844" lon="6.85671">
        <ele>274.7375793457</ele>
        <time>2011-03-06T11:58:18Z</time>
      </trkpt>
      <trkpt lat="43.59833" lon="6.85691">
        <ele>278.19326782227</ele>
        <time>2011-03-06T11:58:28Z</time>
      </trkpt>
      <trkpt lat="43.59818" lon="6.85704">
        <ele>279.31857299805</ele>
        <time>2011-03-06T11:58:37Z</time>
      </trkpt>
      <trkpt lat="43.59807" lon="6.8571">
        <ele>280.29016113281</ele>
        <time>2011-03-06T11:58:44Z</time>
      </trkpt>
      <trkpt lat="43.59798" lon="6.85714">
        <ele>281.14898681641</ele>
        <time>2011-03-06T11:58:50Z</time>
      </trkpt>
      <trkpt lat="43.59788" lon="6.85714">
        <ele>281.6708984375</ele>
        <time>2011-03-06T11:58:56Z</time>
      </trkpt>
      <trkpt lat="43.59779" lon="6.85713">
        <ele>282.046875</ele>
        <time>2011-03-06T11:59:02Z</time>
      </trkpt>
      <trkpt lat="43.59764" lon="6.85714">
        <ele>282.8278503418</ele>
        <time>2011-03-06T11:59:09Z</time>
      </trkpt>
      <trkpt lat="43.59749" lon="6.85716">
        <ele>284.14242553711</ele>
        <time>2011-03-06T11:59:16Z</time>
      </trkpt>
      <trkpt lat="43.59736" lon="6.85724">
        <ele>285.5412902832</ele>
        <time>2011-03-06T11:59:23Z</time>
      </trkpt>
      <trkpt lat="43.59722" lon="6.85737">
        <ele>288.28521728516</ele>
        <time>2011-03-06T11:59:31Z</time>
      </trkpt>
      <trkpt lat="43.59708" lon="6.85746">
        <ele>290.5458984375</ele>
        <time>2011-03-06T11:59:38Z</time>
      </trkpt>
      <trkpt lat="43.59689" lon="6.85753">
        <ele>291.86859130859</ele>
        <time>2011-03-06T11:59:47Z</time>
      </trkpt>
      <trkpt lat="43.59674" lon="6.85762">
        <ele>292.56268310547</ele>
        <time>2011-03-06T11:59:55Z</time>
      </trkpt>
      <trkpt lat="43.59663" lon="6.85777">
        <ele>293.23477172852</ele>
        <time>2011-03-06T12:00:03Z</time>
      </trkpt>
      <trkpt lat="43.59649" lon="6.8579">
        <ele>292.49792480469</ele>
        <time>2011-03-06T12:00:11Z</time>
      </trkpt>
      <trkpt lat="43.59636" lon="6.85798">
        <ele>291.60787963867</ele>
        <time>2011-03-06T12:00:18Z</time>
      </trkpt>
      <trkpt lat="43.5963" lon="6.85801">
        <ele>291.22875976562</ele>
        <time>2011-03-06T12:00:21Z</time>
      </trkpt>
      <trkpt lat="43.59624" lon="6.85807">
        <ele>291.04263305664</ele>
        <time>2011-03-06T12:00:25Z</time>
      </trkpt>
      <trkpt lat="43.59612" lon="6.8582">
        <ele>290.73001098633</ele>
        <time>2011-03-06T12:00:33Z</time>
      </trkpt>
      <trkpt lat="43.59598" lon="6.85829">
        <ele>290.06799316406</ele>
        <time>2011-03-06T12:00:40Z</time>
      </trkpt>
      <trkpt lat="43.59586" lon="6.85837">
        <ele>288.71923828125</ele>
        <time>2011-03-06T12:00:47Z</time>
      </trkpt>
      <trkpt lat="43.59577" lon="6.85848">
        <ele>286.435546875</ele>
        <time>2011-03-06T12:00:53Z</time>
      </trkpt>
      <trkpt lat="43.59569" lon="6.85869">
        <ele>283.54718017578</ele>
        <time>2011-03-06T12:01:01Z</time>
      </trkpt>
      <trkpt lat="43.59562" lon="6.85886">
        <ele>281.66738891602</ele>
        <time>2011-03-06T12:01:08Z</time>
      </trkpt>
      <trkpt lat="43.59551" lon="6.85902">
        <ele>280.49566650391</ele>
        <time>2011-03-06T12:01:16Z</time>
      </trkpt>
      <trkpt lat="43.59542" lon="6.85912">
        <ele>280.26696777344</ele>
        <time>2011-03-06T12:01:22Z</time>
      </trkpt>
      <trkpt lat="43.59534" lon="6.8592">
        <ele>279.78341674805</ele>
        <time>2011-03-06T12:01:27Z</time>
      </trkpt>
      <trkpt lat="43.59524" lon="6.85928">
        <ele>278.89688110352</ele>
        <time>2011-03-06T12:01:33Z</time>
      </trkpt>
      <trkpt lat="43.59509" lon="6.85939">
        <ele>278.64013671875</ele>
        <time>2011-03-06T12:01:41Z</time>
      </trkpt>
      <trkpt lat="43.59496" lon="6.85947">
        <ele>279.99838256836</ele>
        <time>2011-03-06T12:01:48Z</time>
      </trkpt>
      <trkpt lat="43.59484" lon="6.85956">
        <ele>283.45184326172</ele>
        <time>2011-03-06T12:01:55Z</time>
      </trkpt>
      <trkpt lat="43.59469" lon="6.85967">
        <ele>288.87966918945</ele>
        <time>2011-03-06T12:02:04Z</time>
      </trkpt>
      <trkpt lat="43.59457" lon="6.85976">
        <ele>294.22570800781</ele>
        <time>2011-03-06T12:02:11Z</time>
      </trkpt>
      <trkpt lat="43.59447" lon="6.85985">
        <ele>299.75039672852</ele>
        <time>2011-03-06T12:02:17Z</time>
      </trkpt>
      <trkpt lat="43.59438" lon="6.85994">
        <ele>305.46182250977</ele>
        <time>2011-03-06T12:02:22Z</time>
      </trkpt>
      <trkpt lat="43.59424" lon="6.86011">
        <ele>311.16799926758</ele>
        <time>2011-03-06T12:02:29Z</time>
      </trkpt>
      <trkpt lat="43.59413" lon="6.86027">
        <ele>312.80276489258</ele>
        <time>2011-03-06T12:02:35Z</time>
      </trkpt>
      <trkpt lat="43.594" lon="6.86042">
        <ele>313.57952880859</ele>
        <time>2011-03-06T12:02:42Z</time>
      </trkpt>
      <trkpt lat="43.5938" lon="6.86057">
        <ele>317.79214477539</ele>
        <time>2011-03-06T12:02:51Z</time>
      </trkpt>
      <trkpt lat="43.59369" lon="6.86073">
        <ele>319.29370117188</ele>
        <time>2011-03-06T12:02:57Z</time>
      </trkpt>
      <trkpt lat="43.59359" lon="6.86091">
        <ele>319.51370239258</ele>
        <time>2011-03-06T12:03:03Z</time>
      </trkpt>
      <trkpt lat="43.59346" lon="6.86116">
        <ele>319.06915283203</ele>
        <time>2011-03-06T12:03:11Z</time>
      </trkpt>
      <trkpt lat="43.59341" lon="6.86126">
        <ele>319.17114257812</ele>
        <time>2011-03-06T12:03:15Z</time>
      </trkpt>
      <trkpt lat="43.5933" lon="6.86141">
        <ele>320.28604125977</ele>
        <time>2011-03-06T12:03:21Z</time>
      </trkpt>
      <trkpt lat="43.5932" lon="6.86153">
        <ele>319.75201416016</ele>
        <time>2011-03-06T12:03:27Z</time>
      </trkpt>
      <trkpt lat="43.59303" lon="6.86168">
        <ele>320.90933227539</ele>
        <time>2011-03-06T12:03:35Z</time>
      </trkpt>
      <trkpt lat="43.59287" lon="6.8618">
        <ele>321.73056030273</ele>
        <time>2011-03-06T12:03:43Z</time>
      </trkpt>
      <trkpt lat="43.5927" lon="6.86197">
        <ele>322.73806762695</ele>
        <time>2011-03-06T12:03:51Z</time>
      </trkpt>
      <trkpt lat="43.59257" lon="6.86219">
        <ele>323.03421020508</ele>
        <time>2011-03-06T12:03:58Z</time>
      </trkpt>
      <trkpt lat="43.59242" lon="6.86246">
        <ele>320.15414428711</ele>
        <time>2011-03-06T12:04:07Z</time>
      </trkpt>
      <trkpt lat="43.59227" lon="6.86265">
        <ele>315.62292480469</ele>
        <time>2011-03-06T12:04:15Z</time>
      </trkpt>
      <trkpt lat="43.59215" lon="6.86287">
        <ele>312.72848510742</ele>
        <time>2011-03-06T12:04:23Z</time>
      </trkpt>
      <trkpt lat="43.59211" lon="6.86307">
        <ele>311.52642822266</ele>
        <time>2011-03-06T12:04:29Z</time>
      </trkpt>
      <trkpt lat="43.59208" lon="6.86334">
        <ele>310.54833984375</ele>
        <time>2011-03-06T12:04:37Z</time>
      </trkpt>
      <trkpt lat="43.59206" lon="6.86354">
        <ele>311.85452270508</ele>
        <time>2011-03-06T12:04:44Z</time>
      </trkpt>
      <trkpt lat="43.59208" lon="6.86375">
        <ele>313.06317138672</ele>
        <time>2011-03-06T12:04:51Z</time>
      </trkpt>
      <trkpt lat="43.59212" lon="6.86407">
        <ele>314.57290649414</ele>
        <time>2011-03-06T12:05:02Z</time>
      </trkpt>
      <trkpt lat="43.59214" lon="6.86431">
        <ele>316.01943969727</ele>
        <time>2011-03-06T12:05:11Z</time>
      </trkpt>
      <trkpt lat="43.59217" lon="6.86457">
        <ele>317.98648071289</ele>
        <time>2011-03-06T12:05:21Z</time>
      </trkpt>
      <trkpt lat="43.59221" lon="6.86489">
        <ele>320.67922973633</ele>
        <time>2011-03-06T12:05:33Z</time>
      </trkpt>
      <trkpt lat="43.59223" lon="6.86514">
        <ele>322.45358276367</ele>
        <time>2011-03-06T12:05:42Z</time>
      </trkpt>
      <trkpt lat="43.59228" lon="6.8653">
        <ele>323.57385253906</ele>
        <time>2011-03-06T12:05:49Z</time>
      </trkpt>
      <trkpt lat="43.59241" lon="6.86547">
        <ele>325.40856933594</ele>
        <time>2011-03-06T12:05:57Z</time>
      </trkpt>
      <trkpt lat="43.59251" lon="6.8656">
        <ele>326.95098876953</ele>
        <time>2011-03-06T12:06:04Z</time>
      </trkpt>
      <trkpt lat="43.59258" lon="6.86576">
        <ele>327.57901000977</ele>
        <time>2011-03-06T12:06:12Z</time>
      </trkpt>
      <trkpt lat="43.59263" lon="6.86591">
        <ele>328.59777832031</ele>
        <time>2011-03-06T12:06:18Z</time>
      </trkpt>
      <trkpt lat="43.59274" lon="6.86599">
        <ele>328.51080322266</ele>
        <time>2011-03-06T12:06:24Z</time>
      </trkpt>
      <trkpt lat="43.59299" lon="6.8661">
        <ele>327.45794677734</ele>
        <time>2011-03-06T12:06:34Z</time>
      </trkpt>
      <trkpt lat="43.59318" lon="6.86623">
        <ele>327.11920166016</ele>
        <time>2011-03-06T12:06:43Z</time>
      </trkpt>
      <trkpt lat="43.59331" lon="6.86635">
        <ele>327.20159912109</ele>
        <time>2011-03-06T12:06:50Z</time>
      </trkpt>
      <trkpt lat="43.59345" lon="6.86647">
        <ele>325.40243530273</ele>
        <time>2011-03-06T12:06:58Z</time>
      </trkpt>
      <trkpt lat="43.59359" lon="6.86656">
        <ele>323.13693237305</ele>
        <time>2011-03-06T12:07:05Z</time>
      </trkpt>
      <trkpt lat="43.59372" lon="6.86664">
        <ele>320.80487060547</ele>
        <time>2011-03-06T12:07:12Z</time>
      </trkpt>
      <trkpt lat="43.59383" lon="6.86675">
        <ele>318.39776611328</ele>
        <time>2011-03-06T12:07:18Z</time>
      </trkpt>
      <trkpt lat="43.59391" lon="6.86692">
        <ele>315.62896728516</ele>
        <time>2011-03-06T12:07:25Z</time>
      </trkpt>
      <trkpt lat="43.59388" lon="6.8671">
        <ele>315.60202026367</ele>
        <time>2011-03-06T12:07:32Z</time>
      </trkpt>
      <trkpt lat="43.59378" lon="6.86722">
        <ele>318.48547363281</ele>
        <time>2011-03-06T12:07:39Z</time>
      </trkpt>
      <trkpt lat="43.59364" lon="6.86734">
        <ele>323.20602416992</ele>
        <time>2011-03-06T12:07:47Z</time>
      </trkpt>
      <trkpt lat="43.59351" lon="6.86748">
        <ele>328.32037353516</ele>
        <time>2011-03-06T12:07:55Z</time>
      </trkpt>
      <trkpt lat="43.59342" lon="6.86768">
        <ele>334.09753417969</ele>
        <time>2011-03-06T12:08:03Z</time>
      </trkpt>
      <trkpt lat="43.59338" lon="6.86789">
        <ele>338.97689819336</ele>
        <time>2011-03-06T12:08:11Z</time>
      </trkpt>
      <trkpt lat="43.59336" lon="6.86808">
        <ele>342.48022460938</ele>
        <time>2011-03-06T12:08:18Z</time>
      </trkpt>
      <trkpt lat="43.5934" lon="6.86839">
        <ele>345.09710693359</ele>
        <time>2011-03-06T12:08:28Z</time>
      </trkpt>
      <trkpt lat="43.59334" lon="6.86865">
        <ele>350.58285522461</ele>
        <time>2011-03-06T12:08:37Z</time>
      </trkpt>
      <trkpt lat="43.59333" lon="6.86884">
        <ele>353.13079833984</ele>
        <time>2011-03-06T12:08:44Z</time>
      </trkpt>
      <trkpt lat="43.5934" lon="6.869">
        <ele>351.05255126953</ele>
        <time>2011-03-06T12:08:50Z</time>
      </trkpt>
      <trkpt lat="43.59352" lon="6.86915">
        <ele>347.02569580078</ele>
        <time>2011-03-06T12:08:57Z</time>
      </trkpt>
      <trkpt lat="43.59361" lon="6.86929">
        <ele>342.20230102539</ele>
        <time>2011-03-06T12:09:03Z</time>
      </trkpt>
      <trkpt lat="43.59367" lon="6.86946">
        <ele>338.21765136719</ele>
        <time>2011-03-06T12:09:10Z</time>
      </trkpt>
      <trkpt lat="43.5937" lon="6.86966">
        <ele>335.55459594727</ele>
        <time>2011-03-06T12:09:17Z</time>
      </trkpt>
      <trkpt lat="43.59368" lon="6.86991">
        <ele>334.67034912109</ele>
        <time>2011-03-06T12:09:25Z</time>
      </trkpt>
      <trkpt lat="43.5936" lon="6.87004">
        <ele>336.39443969727</ele>
        <time>2011-03-06T12:09:31Z</time>
      </trkpt>
      <trkpt lat="43.59348" lon="6.87012">
        <ele>339.37133789062</ele>
        <time>2011-03-06T12:09:38Z</time>
      </trkpt>
      <trkpt lat="43.59336" lon="6.8702">
        <ele>342.72860717773</ele>
        <time>2011-03-06T12:09:46Z</time>
      </trkpt>
      <trkpt lat="43.59319" lon="6.87028">
        <ele>349.00131225586</ele>
        <time>2011-03-06T12:09:54Z</time>
      </trkpt>
      <trkpt lat="43.59303" lon="6.87046">
        <ele>353.55337524414</ele>
        <time>2011-03-06T12:10:03Z</time>
      </trkpt>
      <trkpt lat="43.59295" lon="6.87061">
        <ele>354.52658081055</ele>
        <time>2011-03-06T12:10:09Z</time>
      </trkpt>
      <trkpt lat="43.59288" lon="6.8708">
        <ele>354.15884399414</ele>
        <time>2011-03-06T12:10:16Z</time>
      </trkpt>
      <trkpt lat="43.59285" lon="6.871">
        <ele>351.64361572266</ele>
        <time>2011-03-06T12:10:23Z</time>
      </trkpt>
      <trkpt lat="43.59283" lon="6.87121">
        <ele>348.15249633789</ele>
        <time>2011-03-06T12:10:30Z</time>
      </trkpt>
      <trkpt lat="43.59282" lon="6.87142">
        <ele>344.54968261719</ele>
        <time>2011-03-06T12:10:37Z</time>
      </trkpt>
      <trkpt lat="43.5928" lon="6.87167">
        <ele>340.0578918457</ele>
        <time>2011-03-06T12:10:45Z</time>
      </trkpt>
      <trkpt lat="43.59272" lon="6.87191">
        <ele>338.12350463867</ele>
        <time>2011-03-06T12:10:53Z</time>
      </trkpt>
      <trkpt lat="43.5926" lon="6.8721">
        <ele>338.55697631836</ele>
        <time>2011-03-06T12:11:02Z</time>
      </trkpt>
      <trkpt lat="43.59251" lon="6.87222">
        <ele>339.20272827148</ele>
        <time>2011-03-06T12:11:09Z</time>
      </trkpt>
      <trkpt lat="43.5924" lon="6.87232">
        <ele>340.61322021484</ele>
        <time>2011-03-06T12:11:17Z</time>
      </trkpt>
      <trkpt lat="43.59225" lon="6.8724">
        <ele>343.79800415039</ele>
        <time>2011-03-06T12:11:25Z</time>
      </trkpt>
      <trkpt lat="43.5921" lon="6.87241">
        <ele>348.84457397461</ele>
        <time>2011-03-06T12:11:33Z</time>
      </trkpt>
      <trkpt lat="43.59193" lon="6.87246">
        <ele>353.40344238281</ele>
        <time>2011-03-06T12:11:41Z</time>
      </trkpt>
      <trkpt lat="43.59184" lon="6.87255">
        <ele>355.54006958008</ele>
        <time>2011-03-06T12:11:47Z</time>
      </trkpt>
      <trkpt lat="43.59166" lon="6.87272">
        <ele>359.65368652344</ele>
        <time>2011-03-06T12:11:55Z</time>
      </trkpt>
      <trkpt lat="43.59157" lon="6.87289">
        <ele>359.43789672852</ele>
        <time>2011-03-06T12:12:01Z</time>
      </trkpt>
      <trkpt lat="43.59148" lon="6.87308">
        <ele>359.26724243164</ele>
        <time>2011-03-06T12:12:07Z</time>
      </trkpt>
      <trkpt lat="43.59137" lon="6.87334">
        <ele>359.05865478516</ele>
        <time>2011-03-06T12:12:15Z</time>
      </trkpt>
      <trkpt lat="43.59127" lon="6.87358">
        <ele>359.34497070312</ele>
        <time>2011-03-06T12:12:22Z</time>
      </trkpt>
      <trkpt lat="43.59121" lon="6.87385">
        <ele>359.1110534668</ele>
        <time>2011-03-06T12:12:30Z</time>
      </trkpt>
      <trkpt lat="43.59118" lon="6.87413">
        <ele>357.92669677734</ele>
        <time>2011-03-06T12:12:38Z</time>
      </trkpt>
      <trkpt lat="43.59115" lon="6.87438">
        <ele>356.7024230957</ele>
        <time>2011-03-06T12:12:45Z</time>
      </trkpt>
      <trkpt lat="43.59109" lon="6.8747">
        <ele>355.93774414062</ele>
        <time>2011-03-06T12:12:54Z</time>
      </trkpt>
      <trkpt lat="43.59103" lon="6.87486">
        <ele>356.7405090332</ele>
        <time>2011-03-06T12:13:00Z</time>
      </trkpt>
      <trkpt lat="43.59095" lon="6.875">
        <ele>358.37069702148</ele>
        <time>2011-03-06T12:13:07Z</time>
      </trkpt>
      <trkpt lat="43.59083" lon="6.87515">
        <ele>361.11407470703</ele>
        <time>2011-03-06T12:13:15Z</time>
      </trkpt>
      <trkpt lat="43.5907" lon="6.87531">
        <ele>360.90539550781</ele>
        <time>2011-03-06T12:13:24Z</time>
      </trkpt>
      <trkpt lat="43.59061" lon="6.87539">
        <ele>361.19064331055</ele>
        <time>2011-03-06T12:13:30Z</time>
      </trkpt>
      <trkpt lat="43.59056" lon="6.87544">
        <ele>361.41665649414</ele>
        <time>2011-03-06T12:13:34Z</time>
      </trkpt>
      <trkpt lat="43.5905" lon="6.87553">
        <ele>361.80120849609</ele>
        <time>2011-03-06T12:13:40Z</time>
      </trkpt>
      <trkpt lat="43.59048" lon="6.87555">
        <ele>361.88327026367</ele>
        <time>2011-03-06T12:13:46Z</time>
      </trkpt>
      <trkpt lat="43.5905" lon="6.87556">
        <ele>361.76416015625</ele>
        <time>2011-03-06T12:13:55Z</time>
      </trkpt>
      <trkpt lat="43.5905" lon="6.87556">
        <ele>361.68923950195</ele>
        <time>2011-03-06T12:15:45Z</time>
      </trkpt>
      <trkpt lat="43.5905" lon="6.87556">
        <ele>361.68923950195</ele>
        <time>2011-03-06T12:15:46Z</time>
      </trkpt>
      <trkpt lat="43.5905" lon="6.87556">
        <ele>361.68984985352</ele>
        <time>2011-03-06T12:15:47Z</time>
      </trkpt>
      <trkpt lat="43.5905" lon="6.87556">
        <ele>361.68984985352</ele>
        <time>2011-03-06T12:15:48Z</time>
      </trkpt>
      <trkpt lat="43.5905" lon="6.87556">
        <ele>361.68923950195</ele>
        <time>2011-03-06T12:16:07Z</time>
      </trkpt>
      <trkpt lat="43.5905" lon="6.87556">
        <ele>361.68865966797</ele>
        <time>2011-03-06T12:16:08Z</time>
      </trkpt>
      <trkpt lat="43.5905" lon="6.87558">
        <ele>361.70935058594</ele>
        <time>2011-03-06T12:17:24Z</time>
      </trkpt>
      <trkpt lat="43.5905" lon="6.87558">
        <ele>361.70880126953</ele>
        <time>2011-03-06T12:17:25Z</time>
      </trkpt>
      <trkpt lat="43.59046" lon="6.87557">
        <ele>362.07739257812</ele>
        <time>2011-03-06T12:17:43Z</time>
      </trkpt>
      <trkpt lat="43.59046" lon="6.87557">
        <ele>362.11315917969</ele>
        <time>2011-03-06T12:17:44Z</time>
      </trkpt>
      <trkpt lat="43.59045" lon="6.87557">
        <ele>362.18563842773</ele>
        <time>2011-03-06T12:17:50Z</time>
      </trkpt>
      <trkpt lat="43.59045" lon="6.87557">
        <ele>362.14868164062</ele>
        <time>2011-03-06T12:17:54Z</time>
      </trkpt>
      <trkpt lat="43.59046" lon="6.87557">
        <ele>362.11260986328</ele>
        <time>2011-03-06T12:17:55Z</time>
      </trkpt>
      <trkpt lat="43.59046" lon="6.87557">
        <ele>362.1120300293</ele>
        <time>2011-03-06T12:17:56Z</time>
      </trkpt>
      <trkpt lat="43.59045" lon="6.87555">
        <ele>362.19165039062</ele>
        <time>2011-03-06T12:18:43Z</time>
      </trkpt>
      <trkpt lat="43.59049" lon="6.87557">
        <ele>361.79223632812</ele>
        <time>2011-03-06T12:19:01Z</time>
      </trkpt>
      <trkpt lat="43.5905" lon="6.87557">
        <ele>361.75543212891</ele>
        <time>2011-03-06T12:19:02Z</time>
      </trkpt>
      <trkpt lat="43.59051" lon="6.87557">
        <ele>361.60388183594</ele>
        <time>2011-03-06T12:19:14Z</time>
      </trkpt>
      <trkpt lat="43.59055" lon="6.87558">
        <ele>361.23815917969</ele>
        <time>2011-03-06T12:19:41Z</time>
      </trkpt>
      <trkpt lat="43.5905" lon="6.87555">
        <ele>361.77615356445</ele>
        <time>2011-03-06T12:20:49Z</time>
      </trkpt>
      <trkpt lat="43.59047" lon="6.87554">
        <ele>362.06042480469</ele>
        <time>2011-03-06T12:21:18Z</time>
      </trkpt>
      <trkpt lat="43.59046" lon="6.87554">
        <ele>362.0947265625</ele>
        <time>2011-03-06T12:21:19Z</time>
      </trkpt>
      <trkpt lat="43.59045" lon="6.87554">
        <ele>362.19696044922</ele>
        <time>2011-03-06T12:21:31Z</time>
      </trkpt>
      <trkpt lat="43.59045" lon="6.87555">
        <ele>362.19580078125</ele>
        <time>2011-03-06T12:21:38Z</time>
      </trkpt>
      <trkpt lat="43.59045" lon="6.87555">
        <ele>362.15896606445</ele>
        <time>2011-03-06T12:21:51Z</time>
      </trkpt>
      <trkpt lat="43.59045" lon="6.87555">
        <ele>362.19232177734</ele>
        <time>2011-03-06T12:22:00Z</time>
      </trkpt>
      <trkpt lat="43.59047" lon="6.87554">
        <ele>361.99139404297</ele>
        <time>2011-03-06T12:24:18Z</time>
      </trkpt>
      <trkpt lat="43.59048" lon="6.87555">
        <ele>361.94921875</ele>
        <time>2011-03-06T12:24:42Z</time>
      </trkpt>
      <trkpt lat="43.59049" lon="6.87556">
        <ele>361.79690551758</ele>
        <time>2011-03-06T12:24:57Z</time>
      </trkpt>
      <trkpt lat="43.59049" lon="6.87559">
        <ele>361.76940917969</ele>
        <time>2011-03-06T12:25:27Z</time>
      </trkpt>
      <trkpt lat="43.59049" lon="6.87559">
        <ele>361.76889038086</ele>
        <time>2011-03-06T12:25:28Z</time>
      </trkpt>
      <trkpt lat="43.59055" lon="6.87559">
        <ele>361.25051879883</ele>
        <time>2011-03-06T12:25:57Z</time>
      </trkpt>
      <trkpt lat="43.59055" lon="6.87557">
        <ele>361.28060913086</ele>
        <time>2011-03-06T12:26:23Z</time>
      </trkpt>
      <trkpt lat="43.59055" lon="6.87557">
        <ele>361.28149414062</ele>
        <time>2011-03-06T12:26:24Z</time>
      </trkpt>
      <trkpt lat="43.59052" lon="6.87558">
        <ele>361.52743530273</ele>
        <time>2011-03-06T12:26:48Z</time>
      </trkpt>
      <trkpt lat="43.59047" lon="6.87559">
        <ele>361.98776245117</ele>
        <time>2011-03-06T12:27:24Z</time>
      </trkpt>
      <trkpt lat="43.59047" lon="6.87559">
        <ele>361.98776245117</ele>
        <time>2011-03-06T12:27:25Z</time>
      </trkpt>
      <trkpt lat="43.59049" lon="6.8756">
        <ele>361.79840087891</ele>
        <time>2011-03-06T12:27:39Z</time>
      </trkpt>
      <trkpt lat="43.59053" lon="6.8756">
        <ele>361.37487792969</ele>
        <time>2011-03-06T12:28:36Z</time>
      </trkpt>
      <trkpt lat="43.59053" lon="6.8756">
        <ele>361.41262817383</ele>
        <time>2011-03-06T12:28:38Z</time>
      </trkpt>
      <trkpt lat="43.59053" lon="6.8756">
        <ele>361.41339111328</ele>
        <time>2011-03-06T12:28:40Z</time>
      </trkpt>
      <trkpt lat="43.59053" lon="6.8756">
        <ele>361.33877563477</ele>
        <time>2011-03-06T12:28:50Z</time>
      </trkpt>
      <trkpt lat="43.59052" lon="6.87559">
        <ele>361.54611206055</ele>
        <time>2011-03-06T12:30:00Z</time>
      </trkpt>
      <trkpt lat="43.59045" lon="6.87559">
        <ele>362.17364501953</ele>
        <time>2011-03-06T12:30:58Z</time>
      </trkpt>
      <trkpt lat="43.59047" lon="6.87559">
        <ele>361.95220947266</ele>
        <time>2011-03-06T12:31:18Z</time>
      </trkpt>
      <trkpt lat="43.59047" lon="6.87558">
        <ele>362.03323364258</ele>
        <time>2011-03-06T12:32:28Z</time>
      </trkpt>
      <trkpt lat="43.5904" lon="6.87558">
        <ele>362.65228271484</ele>
        <time>2011-03-06T12:33:25Z</time>
      </trkpt>
      <trkpt lat="43.59042" lon="6.87558">
        <ele>362.47024536133</ele>
        <time>2011-03-06T12:34:00Z</time>
      </trkpt>
      <trkpt lat="43.59042" lon="6.87559">
        <ele>362.43341064453</ele>
        <time>2011-03-06T12:34:03Z</time>
      </trkpt>
      <trkpt lat="43.59045" lon="6.8756">
        <ele>362.13327026367</ele>
        <time>2011-03-06T12:34:26Z</time>
      </trkpt>
      <trkpt lat="43.59047" lon="6.8756">
        <ele>362.01879882812</ele>
        <time>2011-03-06T12:35:08Z</time>
      </trkpt>
      <trkpt lat="43.59047" lon="6.8756">
        <ele>362.01879882812</ele>
        <time>2011-03-06T12:35:09Z</time>
      </trkpt>
      <trkpt lat="43.59041" lon="6.87555">
        <ele>362.541015625</ele>
        <time>2011-03-06T12:38:11Z</time>
      </trkpt>
      <trkpt lat="43.59041" lon="6.87555">
        <ele>362.541015625</ele>
        <time>2011-03-06T12:38:12Z</time>
      </trkpt>
      <trkpt lat="43.59041" lon="6.87558">
        <ele>362.54299926758</ele>
        <time>2011-03-06T12:38:29Z</time>
      </trkpt>
      <trkpt lat="43.59032" lon="6.87575">
        <ele>363.65371704102</ele>
        <time>2011-03-06T12:38:37Z</time>
      </trkpt>
      <trkpt lat="43.59023" lon="6.87588">
        <ele>364.30130004883</ele>
        <time>2011-03-06T12:38:43Z</time>
      </trkpt>
      <trkpt lat="43.59006" lon="6.87608">
        <ele>363.66641235352</ele>
        <time>2011-03-06T12:38:51Z</time>
      </trkpt>
      <trkpt lat="43.58992" lon="6.87625">
        <ele>363.02130126953</ele>
        <time>2011-03-06T12:38:58Z</time>
      </trkpt>
      <trkpt lat="43.58975" lon="6.87643">
        <ele>362.94165039062</ele>
        <time>2011-03-06T12:39:06Z</time>
      </trkpt>
      <trkpt lat="43.58963" lon="6.87655">
        <ele>363.20343017578</ele>
        <time>2011-03-06T12:39:12Z</time>
      </trkpt>
      <trkpt lat="43.58962" lon="6.87657">
        <ele>363.015625</ele>
        <time>2011-03-06T12:39:17Z</time>
      </trkpt>
      <trkpt lat="43.58961" lon="6.87662">
        <ele>362.54391479492</ele>
        <time>2011-03-06T12:39:22Z</time>
      </trkpt>
      <trkpt lat="43.58954" lon="6.87673">
        <ele>361.43377685547</ele>
        <time>2011-03-06T12:39:26Z</time>
      </trkpt>
      <trkpt lat="43.58946" lon="6.87705">
        <ele>354.12503051758</ele>
        <time>2011-03-06T12:39:32Z</time>
      </trkpt>
      <trkpt lat="43.58943" lon="6.87721">
        <ele>350.47482299805</ele>
        <time>2011-03-06T12:39:34Z</time>
      </trkpt>
      <trkpt lat="43.58926" lon="6.87762">
        <ele>345.50219726562</ele>
        <time>2011-03-06T12:39:39Z</time>
      </trkpt>
      <trkpt lat="43.58913" lon="6.87776">
        <ele>347.41293334961</ele>
        <time>2011-03-06T12:39:41Z</time>
      </trkpt>
      <trkpt lat="43.58883" lon="6.87805">
        <ele>353.65487670898</ele>
        <time>2011-03-06T12:39:45Z</time>
      </trkpt>
      <trkpt lat="43.58864" lon="6.87846">
        <ele>356.56860351562</ele>
        <time>2011-03-06T12:39:49Z</time>
      </trkpt>
      <trkpt lat="43.58871" lon="6.87872">
        <ele>351.50390625</ele>
        <time>2011-03-06T12:39:51Z</time>
      </trkpt>
      <trkpt lat="43.58877" lon="6.87884">
        <ele>348.05911254883</ele>
        <time>2011-03-06T12:39:52Z</time>
      </trkpt>
      <trkpt lat="43.58897" lon="6.87942">
        <ele>333.62286376953</ele>
        <time>2011-03-06T12:39:57Z</time>
      </trkpt>
      <trkpt lat="43.58888" lon="6.87976">
        <ele>332.96267700195</ele>
        <time>2011-03-06T12:40:00Z</time>
      </trkpt>
      <trkpt lat="43.58881" lon="6.87985">
        <ele>334.54162597656</ele>
        <time>2011-03-06T12:40:01Z</time>
      </trkpt>
      <trkpt lat="43.58858" lon="6.88011">
        <ele>338.59439086914</ele>
        <time>2011-03-06T12:40:04Z</time>
      </trkpt>
      <trkpt lat="43.58821" lon="6.88036">
        <ele>345.67489624023</ele>
        <time>2011-03-06T12:40:08Z</time>
      </trkpt>
      <trkpt lat="43.58765" lon="6.88066">
        <ele>353.56777954102</ele>
        <time>2011-03-06T12:40:13Z</time>
      </trkpt>
      <trkpt lat="43.58734" lon="6.88085">
        <ele>357.88403320312</ele>
        <time>2011-03-06T12:40:16Z</time>
      </trkpt>
      <trkpt lat="43.58711" lon="6.88125">
        <ele>357.21954345703</ele>
        <time>2011-03-06T12:40:20Z</time>
      </trkpt>
      <trkpt lat="43.58717" lon="6.88154">
        <ele>348.90472412109</ele>
        <time>2011-03-06T12:40:22Z</time>
      </trkpt>
      <trkpt lat="43.58737" lon="6.88212">
        <ele>332.7385559082</ele>
        <time>2011-03-06T12:40:26Z</time>
      </trkpt>
      <trkpt lat="43.58754" lon="6.88237">
        <ele>323.03042602539</ele>
        <time>2011-03-06T12:40:28Z</time>
      </trkpt>
      <trkpt lat="43.5878" lon="6.8827">
        <ele>310.55163574219</ele>
        <time>2011-03-06T12:40:31Z</time>
      </trkpt>
      <trkpt lat="43.58801" lon="6.88323">
        <ele>301.35482788086</ele>
        <time>2011-03-06T12:40:35Z</time>
      </trkpt>
      <trkpt lat="43.58791" lon="6.88347">
        <ele>302.31433105469</ele>
        <time>2011-03-06T12:40:37Z</time>
      </trkpt>
      <trkpt lat="43.58772" lon="6.88396">
        <ele>300.53979492188</ele>
        <time>2011-03-06T12:40:41Z</time>
      </trkpt>
      <trkpt lat="43.58742" lon="6.88441">
        <ele>298.91064453125</ele>
        <time>2011-03-06T12:40:45Z</time>
      </trkpt>
      <trkpt lat="43.58722" lon="6.88455">
        <ele>299.72369384766</ele>
        <time>2011-03-06T12:40:47Z</time>
      </trkpt>
      <trkpt lat="43.5867" lon="6.88477">
        <ele>304.29125976562</ele>
        <time>2011-03-06T12:40:52Z</time>
      </trkpt>
      <trkpt lat="43.58629" lon="6.88504">
        <ele>303.2653503418</ele>
        <time>2011-03-06T12:40:56Z</time>
      </trkpt>
      <trkpt lat="43.58608" lon="6.88541">
        <ele>297.10955810547</ele>
        <time>2011-03-06T12:40:59Z</time>
      </trkpt>
      <trkpt lat="43.58588" lon="6.88573">
        <ele>292.02038574219</ele>
        <time>2011-03-06T12:41:02Z</time>
      </trkpt>
      <trkpt lat="43.58571" lon="6.88586">
        <ele>290.83270263672</ele>
        <time>2011-03-06T12:41:04Z</time>
      </trkpt>
      <trkpt lat="43.58534" lon="6.88608">
        <ele>290.78079223633</ele>
        <time>2011-03-06T12:41:08Z</time>
      </trkpt>
      <trkpt lat="43.58487" lon="6.88623">
        <ele>292.6374206543</ele>
        <time>2011-03-06T12:41:13Z</time>
      </trkpt>
      <trkpt lat="43.58477" lon="6.88625">
        <ele>292.12084960938</ele>
        <time>2011-03-06T12:41:14Z</time>
      </trkpt>
      <trkpt lat="43.58455" lon="6.88647">
        <ele>288.63153076172</ele>
        <time>2011-03-06T12:41:18Z</time>
      </trkpt>
      <trkpt lat="43.58458" lon="6.88679">
        <ele>284.86242675781</ele>
        <time>2011-03-06T12:41:21Z</time>
      </trkpt>
      <trkpt lat="43.58454" lon="6.88695">
        <ele>283.5739440918</ele>
        <time>2011-03-06T12:41:23Z</time>
      </trkpt>
      <trkpt lat="43.58451" lon="6.88718">
        <ele>281.75665283203</ele>
        <time>2011-03-06T12:41:27Z</time>
      </trkpt>
      <trkpt lat="43.58448" lon="6.88747">
        <ele>279.57159423828</ele>
        <time>2011-03-06T12:41:34Z</time>
      </trkpt>
      <trkpt lat="43.58448" lon="6.88751">
        <ele>279.38900756836</ele>
        <time>2011-03-06T12:41:35Z</time>
      </trkpt>
      <trkpt lat="43.58439" lon="6.88767">
        <ele>281.166015625</ele>
        <time>2011-03-06T12:41:42Z</time>
      </trkpt>
      <trkpt lat="43.58436" lon="6.88769">
        <ele>281.65460205078</ele>
        <time>2011-03-06T12:41:44Z</time>
      </trkpt>
      <trkpt lat="43.58434" lon="6.88771">
        <ele>281.92666625977</ele>
        <time>2011-03-06T12:41:45Z</time>
      </trkpt>
      <trkpt lat="43.58423" lon="6.88778">
        <ele>283.93688964844</ele>
        <time>2011-03-06T12:41:51Z</time>
      </trkpt>
      <trkpt lat="43.58409" lon="6.8879">
        <ele>286.71371459961</ele>
        <time>2011-03-06T12:41:59Z</time>
      </trkpt>
      <trkpt lat="43.58401" lon="6.88799">
        <ele>288.83413696289</ele>
        <time>2011-03-06T12:42:05Z</time>
      </trkpt>
      <trkpt lat="43.58394" lon="6.8881">
        <ele>291.36215209961</ele>
        <time>2011-03-06T12:42:11Z</time>
      </trkpt>
      <trkpt lat="43.58392" lon="6.88812">
        <ele>291.82348632812</ele>
        <time>2011-03-06T12:42:12Z</time>
      </trkpt>
      <trkpt lat="43.5838" lon="6.88818">
        <ele>294.80029296875</ele>
        <time>2011-03-06T12:42:20Z</time>
      </trkpt>
      <trkpt lat="43.58367" lon="6.88822">
        <ele>297.83084106445</ele>
        <time>2011-03-06T12:42:29Z</time>
      </trkpt>
      <trkpt lat="43.58355" lon="6.8883">
        <ele>301.70562744141</ele>
        <time>2011-03-06T12:42:37Z</time>
      </trkpt>
      <trkpt lat="43.58344" lon="6.88844">
        <ele>307.21923828125</ele>
        <time>2011-03-06T12:42:46Z</time>
      </trkpt>
      <trkpt lat="43.58338" lon="6.8886">
        <ele>312.59896850586</ele>
        <time>2011-03-06T12:42:54Z</time>
      </trkpt>
      <trkpt lat="43.58332" lon="6.88883">
        <ele>319.69567871094</ele>
        <time>2011-03-06T12:43:04Z</time>
      </trkpt>
      <trkpt lat="43.58329" lon="6.88903">
        <ele>325.36376953125</ele>
        <time>2011-03-06T12:43:12Z</time>
      </trkpt>
      <trkpt lat="43.58327" lon="6.88925">
        <ele>330.97381591797</ele>
        <time>2011-03-06T12:43:21Z</time>
      </trkpt>
      <trkpt lat="43.58323" lon="6.88941">
        <ele>334.99456787109</ele>
        <time>2011-03-06T12:43:29Z</time>
      </trkpt>
      <trkpt lat="43.58322" lon="6.88948">
        <ele>336.64300537109</ele>
        <time>2011-03-06T12:43:32Z</time>
      </trkpt>
      <trkpt lat="43.58322" lon="6.88951">
        <ele>337.10290527344</ele>
        <time>2011-03-06T12:43:33Z</time>
      </trkpt>
      <trkpt lat="43.58321" lon="6.88958">
        <ele>338.89572143555</ele>
        <time>2011-03-06T12:43:38Z</time>
      </trkpt>
      <trkpt lat="43.58327" lon="6.88964">
        <ele>338.7229309082</ele>
        <time>2011-03-06T12:43:45Z</time>
      </trkpt>
      <trkpt lat="43.5833" lon="6.88962">
        <ele>337.49566650391</ele>
        <time>2011-03-06T12:43:48Z</time>
      </trkpt>
      <trkpt lat="43.58332" lon="6.88958">
        <ele>336.23153686523</ele>
        <time>2011-03-06T12:43:51Z</time>
      </trkpt>
      <trkpt lat="43.58342" lon="6.88951">
        <ele>330.88943481445</ele>
        <time>2011-03-06T12:43:59Z</time>
      </trkpt>
      <trkpt lat="43.58345" lon="6.88947">
        <ele>328.55920410156</ele>
        <time>2011-03-06T12:44:03Z</time>
      </trkpt>
      <trkpt lat="43.58349" lon="6.88937">
        <ele>325.09967041016</ele>
        <time>2011-03-06T12:44:10Z</time>
      </trkpt>
      <trkpt lat="43.58356" lon="6.88927">
        <ele>320.38989257812</ele>
        <time>2011-03-06T12:44:17Z</time>
      </trkpt>
      <trkpt lat="43.58366" lon="6.88916">
        <ele>314.56307983398</ele>
        <time>2011-03-06T12:44:25Z</time>
      </trkpt>
      <trkpt lat="43.58372" lon="6.88916">
        <ele>311.88958740234</ele>
        <time>2011-03-06T12:44:30Z</time>
      </trkpt>
      <trkpt lat="43.58381" lon="6.88918">
        <ele>308.91696166992</ele>
        <time>2011-03-06T12:44:38Z</time>
      </trkpt>
      <trkpt lat="43.58387" lon="6.88923">
        <ele>306.92620849609</ele>
        <time>2011-03-06T12:44:45Z</time>
      </trkpt>
      <trkpt lat="43.58392" lon="6.88929">
        <ele>305.2958984375</ele>
        <time>2011-03-06T12:44:51Z</time>
      </trkpt>
      <trkpt lat="43.58395" lon="6.88936">
        <ele>304.8818359375</ele>
        <time>2011-03-06T12:44:57Z</time>
      </trkpt>
      <trkpt lat="43.58395" lon="6.88943">
        <ele>305.94799804688</ele>
        <time>2011-03-06T12:45:02Z</time>
      </trkpt>
      <trkpt lat="43.58391" lon="6.88949">
        <ele>308.33456420898</ele>
        <time>2011-03-06T12:45:09Z</time>
      </trkpt>
      <trkpt lat="43.58385" lon="6.88953">
        <ele>311.23480224609</ele>
        <time>2011-03-06T12:45:14Z</time>
      </trkpt>
      <trkpt lat="43.58383" lon="6.88955">
        <ele>312.74234008789</ele>
        <time>2011-03-06T12:45:17Z</time>
      </trkpt>
      <trkpt lat="43.58379" lon="6.88962">
        <ele>315.52203369141</ele>
        <time>2011-03-06T12:45:21Z</time>
      </trkpt>
      <trkpt lat="43.58375" lon="6.88967">
        <ele>317.86511230469</ele>
        <time>2011-03-06T12:45:25Z</time>
      </trkpt>
      <trkpt lat="43.58374" lon="6.88971">
        <ele>319.08700561523</ele>
        <time>2011-03-06T12:45:27Z</time>
      </trkpt>
      <trkpt lat="43.58372" lon="6.88974">
        <ele>320.30953979492</ele>
        <time>2011-03-06T12:45:29Z</time>
      </trkpt>
      <trkpt lat="43.58371" lon="6.88976">
        <ele>320.92938232422</ele>
        <time>2011-03-06T12:45:30Z</time>
      </trkpt>
      <trkpt lat="43.58369" lon="6.88984">
        <ele>323.04461669922</ele>
        <time>2011-03-06T12:45:35Z</time>
      </trkpt>
      <trkpt lat="43.58372" lon="6.89001">
        <ele>324.14477539062</ele>
        <time>2011-03-06T12:45:43Z</time>
      </trkpt>
      <trkpt lat="43.58373" lon="6.89014">
        <ele>324.95416259766</ele>
        <time>2011-03-06T12:45:51Z</time>
      </trkpt>
      <trkpt lat="43.58374" lon="6.89025">
        <ele>325.65612792969</ele>
        <time>2011-03-06T12:45:59Z</time>
      </trkpt>
      <trkpt lat="43.58374" lon="6.89035">
        <ele>327.04626464844</ele>
        <time>2011-03-06T12:46:05Z</time>
      </trkpt>
      <trkpt lat="43.58374" lon="6.89037">
        <ele>327.39208984375</ele>
        <time>2011-03-06T12:46:06Z</time>
      </trkpt>
      <trkpt lat="43.58373" lon="6.89039">
        <ele>328.06774902344</ele>
        <time>2011-03-06T12:46:08Z</time>
      </trkpt>
      <trkpt lat="43.58372" lon="6.89042">
        <ele>329.04681396484</ele>
        <time>2011-03-06T12:46:10Z</time>
      </trkpt>
      <trkpt lat="43.58366" lon="6.8905">
        <ele>332.88101196289</ele>
        <time>2011-03-06T12:46:17Z</time>
      </trkpt>
      <trkpt lat="43.58361" lon="6.89051">
        <ele>335.66909790039</ele>
        <time>2011-03-06T12:46:23Z</time>
      </trkpt>
      <trkpt lat="43.58358" lon="6.89056">
        <ele>337.74951171875</ele>
        <time>2011-03-06T12:46:29Z</time>
      </trkpt>
      <trkpt lat="43.58354" lon="6.8906">
        <ele>340.22265625</ele>
        <time>2011-03-06T12:46:35Z</time>
      </trkpt>
      <trkpt lat="43.5835" lon="6.89062">
        <ele>342.93823242188</ele>
        <time>2011-03-06T12:46:42Z</time>
      </trkpt>
      <trkpt lat="43.58343" lon="6.89064">
        <ele>346.50671386719</ele>
        <time>2011-03-06T12:46:49Z</time>
      </trkpt>
      <trkpt lat="43.58337" lon="6.89065">
        <ele>350.03787231445</ele>
        <time>2011-03-06T12:46:56Z</time>
      </trkpt>
      <trkpt lat="43.58331" lon="6.89066">
        <ele>352.67614746094</ele>
        <time>2011-03-06T12:47:03Z</time>
      </trkpt>
      <trkpt lat="43.58325" lon="6.89069">
        <ele>354.67318725586</ele>
        <time>2011-03-06T12:47:09Z</time>
      </trkpt>
      <trkpt lat="43.58319" lon="6.89071">
        <ele>356.77938842773</ele>
        <time>2011-03-06T12:47:15Z</time>
      </trkpt>
      <trkpt lat="43.5831" lon="6.89071">
        <ele>359.55816650391</ele>
        <time>2011-03-06T12:47:24Z</time>
      </trkpt>
      <trkpt lat="43.58302" lon="6.89071">
        <ele>362.07934570312</ele>
        <time>2011-03-06T12:47:32Z</time>
      </trkpt>
      <trkpt lat="43.58297" lon="6.8907">
        <ele>363.45108032227</ele>
        <time>2011-03-06T12:47:38Z</time>
      </trkpt>
      <trkpt lat="43.58294" lon="6.8907">
        <ele>364.36260986328</ele>
        <time>2011-03-06T12:47:43Z</time>
      </trkpt>
      <trkpt lat="43.58289" lon="6.89068">
        <ele>365.48443603516</ele>
        <time>2011-03-06T12:47:50Z</time>
      </trkpt>
      <trkpt lat="43.58285" lon="6.89066">
        <ele>366.42538452148</ele>
        <time>2011-03-06T12:47:55Z</time>
      </trkpt>
      <trkpt lat="43.58279" lon="6.89065">
        <ele>368.12673950195</ele>
        <time>2011-03-06T12:48:02Z</time>
      </trkpt>
      <trkpt lat="43.58275" lon="6.89062">
        <ele>368.74844360352</ele>
        <time>2011-03-06T12:48:08Z</time>
      </trkpt>
      <trkpt lat="43.58271" lon="6.8906">
        <ele>369.56488037109</ele>
        <time>2011-03-06T12:48:13Z</time>
      </trkpt>
      <trkpt lat="43.5827" lon="6.8906">
        <ele>369.91836547852</ele>
        <time>2011-03-06T12:48:19Z</time>
      </trkpt>
      <trkpt lat="43.58264" lon="6.89055">
        <ele>370.84609985352</ele>
        <time>2011-03-06T12:48:25Z</time>
      </trkpt>
      <trkpt lat="43.58259" lon="6.89048">
        <ele>371.0471496582</ele>
        <time>2011-03-06T12:48:34Z</time>
      </trkpt>
      <trkpt lat="43.58252" lon="6.89043">
        <ele>372.16397094727</ele>
        <time>2011-03-06T12:48:43Z</time>
      </trkpt>
      <trkpt lat="43.58249" lon="6.89042">
        <ele>372.53015136719</ele>
        <time>2011-03-06T12:48:46Z</time>
      </trkpt>
      <trkpt lat="43.58241" lon="6.89038">
        <ele>372.07363891602</ele>
        <time>2011-03-06T12:48:53Z</time>
      </trkpt>
      <trkpt lat="43.58238" lon="6.89037">
        <ele>372.02255249023</ele>
        <time>2011-03-06T12:48:55Z</time>
      </trkpt>
      <trkpt lat="43.58231" lon="6.89035">
        <ele>372.01205444336</ele>
        <time>2011-03-06T12:49:00Z</time>
      </trkpt>
      <trkpt lat="43.58224" lon="6.89034">
        <ele>372.04983520508</ele>
        <time>2011-03-06T12:49:05Z</time>
      </trkpt>
      <trkpt lat="43.58213" lon="6.89035">
        <ele>372.53872680664</ele>
        <time>2011-03-06T12:49:13Z</time>
      </trkpt>
      <trkpt lat="43.58206" lon="6.89035">
        <ele>372.74496459961</ele>
        <time>2011-03-06T12:49:18Z</time>
      </trkpt>
      <trkpt lat="43.58195" lon="6.89036">
        <ele>373.31350708008</ele>
        <time>2011-03-06T12:49:26Z</time>
      </trkpt>
      <trkpt lat="43.58186" lon="6.89037">
        <ele>373.78265380859</ele>
        <time>2011-03-06T12:49:32Z</time>
      </trkpt>
      <trkpt lat="43.58171" lon="6.89038">
        <ele>374.61514282227</ele>
        <time>2011-03-06T12:49:37Z</time>
      </trkpt>
      <trkpt lat="43.58155" lon="6.8904">
        <ele>374.22271728516</ele>
        <time>2011-03-06T12:49:42Z</time>
      </trkpt>
      <trkpt lat="43.58143" lon="6.8904">
        <ele>373.36633300781</ele>
        <time>2011-03-06T12:49:47Z</time>
      </trkpt>
      <trkpt lat="43.58131" lon="6.89039">
        <ele>372.21795654297</ele>
        <time>2011-03-06T12:49:54Z</time>
      </trkpt>
      <trkpt lat="43.5812" lon="6.89038">
        <ele>371.12606811523</ele>
        <time>2011-03-06T12:49:59Z</time>
      </trkpt>
      <trkpt lat="43.58107" lon="6.89036">
        <ele>369.93035888672</ele>
        <time>2011-03-06T12:50:04Z</time>
      </trkpt>
      <trkpt lat="43.58104" lon="6.89035">
        <ele>369.43084716797</ele>
        <time>2011-03-06T12:50:06Z</time>
      </trkpt>
      <trkpt lat="43.58089" lon="6.89045">
        <ele>370.04193115234</ele>
        <time>2011-03-06T12:50:12Z</time>
      </trkpt>
      <trkpt lat="43.58081" lon="6.89059">
        <ele>371.51495361328</ele>
        <time>2011-03-06T12:50:16Z</time>
      </trkpt>
      <trkpt lat="43.58075" lon="6.8908">
        <ele>373.61465454102</ele>
        <time>2011-03-06T12:50:22Z</time>
      </trkpt>
      <trkpt lat="43.5807" lon="6.89092">
        <ele>375.08984375</ele>
        <time>2011-03-06T12:50:27Z</time>
      </trkpt>
      <trkpt lat="43.58061" lon="6.89109">
        <ele>376.60568237305</ele>
        <time>2011-03-06T12:50:33Z</time>
      </trkpt>
      <trkpt lat="43.58052" lon="6.89128">
        <ele>378.72357177734</ele>
        <time>2011-03-06T12:50:37Z</time>
      </trkpt>
      <trkpt lat="43.58039" lon="6.89155">
        <ele>382.06015014648</ele>
        <time>2011-03-06T12:50:43Z</time>
      </trkpt>
      <trkpt lat="43.58037" lon="6.89158">
        <ele>382.43286132812</ele>
        <time>2011-03-06T12:50:44Z</time>
      </trkpt>
      <trkpt lat="43.58027" lon="6.89159">
        <ele>380.90173339844</ele>
        <time>2011-03-06T12:50:49Z</time>
      </trkpt>
      <trkpt lat="43.58022" lon="6.89159">
        <ele>380.11791992188</ele>
        <time>2011-03-06T12:50:51Z</time>
      </trkpt>
      <trkpt lat="43.58011" lon="6.89155">
        <ele>377.25332641602</ele>
        <time>2011-03-06T12:50:57Z</time>
      </trkpt>
      <trkpt lat="43.58001" lon="6.89157">
        <ele>375.87356567383</ele>
        <time>2011-03-06T12:51:03Z</time>
      </trkpt>
      <trkpt lat="43.57996" lon="6.89157">
        <ele>375.36587524414</ele>
        <time>2011-03-06T12:51:07Z</time>
      </trkpt>
      <trkpt lat="43.57994" lon="6.89158">
        <ele>375.19598388672</ele>
        <time>2011-03-06T12:51:16Z</time>
      </trkpt>
      <trkpt lat="43.57993" lon="6.89158">
        <ele>375.02484130859</ele>
        <time>2011-03-06T12:51:20Z</time>
      </trkpt>
      <trkpt lat="43.57986" lon="6.89158">
        <ele>374.17822265625</ele>
        <time>2011-03-06T12:51:27Z</time>
      </trkpt>
      <trkpt lat="43.57982" lon="6.8916">
        <ele>374.01010131836</ele>
        <time>2011-03-06T12:51:32Z</time>
      </trkpt>
      <trkpt lat="43.5798" lon="6.89161">
        <ele>373.90484619141</ele>
        <time>2011-03-06T12:51:34Z</time>
      </trkpt>
      <trkpt lat="43.57969" lon="6.89165">
        <ele>373.12091064453</ele>
        <time>2011-03-06T12:51:41Z</time>
      </trkpt>
      <trkpt lat="43.5796" lon="6.89173">
        <ele>373.8503112793</ele>
        <time>2011-03-06T12:51:48Z</time>
      </trkpt>
      <trkpt lat="43.57952" lon="6.89181">
        <ele>374.79443359375</ele>
        <time>2011-03-06T12:51:54Z</time>
      </trkpt>
      <trkpt lat="43.57946" lon="6.89187">
        <ele>375.30255126953</ele>
        <time>2011-03-06T12:51:59Z</time>
      </trkpt>
      <trkpt lat="43.57939" lon="6.89191">
        <ele>375.40728759766</ele>
        <time>2011-03-06T12:52:05Z</time>
      </trkpt>
      <trkpt lat="43.57937" lon="6.89194">
        <ele>375.78149414062</ele>
        <time>2011-03-06T12:52:07Z</time>
      </trkpt>
      <trkpt lat="43.57933" lon="6.892">
        <ele>376.75823974609</ele>
        <time>2011-03-06T12:52:12Z</time>
      </trkpt>
      <trkpt lat="43.57933" lon="6.89202">
        <ele>377.3212890625</ele>
        <time>2011-03-06T12:52:14Z</time>
      </trkpt>
      <trkpt lat="43.57927" lon="6.89207">
        <ele>377.53073120117</ele>
        <time>2011-03-06T12:52:19Z</time>
      </trkpt>
      <trkpt lat="43.57915" lon="6.8921">
        <ele>376.78518676758</ele>
        <time>2011-03-06T12:52:25Z</time>
      </trkpt>
      <trkpt lat="43.57903" lon="6.89216">
        <ele>377.62573242188</ele>
        <time>2011-03-06T12:52:31Z</time>
      </trkpt>
      <trkpt lat="43.57889" lon="6.89226">
        <ele>378.89651489258</ele>
        <time>2011-03-06T12:52:38Z</time>
      </trkpt>
      <trkpt lat="43.57877" lon="6.89232">
        <ele>379.49459838867</ele>
        <time>2011-03-06T12:52:42Z</time>
      </trkpt>
      <trkpt lat="43.57866" lon="6.89233">
        <ele>378.89981079102</ele>
        <time>2011-03-06T12:52:46Z</time>
      </trkpt>
      <trkpt lat="43.5786" lon="6.89224">
        <ele>376.62362670898</ele>
        <time>2011-03-06T12:52:51Z</time>
      </trkpt>
      <trkpt lat="43.57856" lon="6.89215">
        <ele>374.23571777344</ele>
        <time>2011-03-06T12:52:56Z</time>
      </trkpt>
      <trkpt lat="43.57854" lon="6.89211">
        <ele>373.40026855469</ele>
        <time>2011-03-06T12:52:59Z</time>
      </trkpt>
      <trkpt lat="43.57848" lon="6.89199">
        <ele>370.48147583008</ele>
        <time>2011-03-06T12:53:06Z</time>
      </trkpt>
      <trkpt lat="43.57841" lon="6.89195">
        <ele>369.09020996094</ele>
        <time>2011-03-06T12:53:10Z</time>
      </trkpt>
      <trkpt lat="43.5783" lon="6.89191">
        <ele>368.22579956055</ele>
        <time>2011-03-06T12:53:15Z</time>
      </trkpt>
      <trkpt lat="43.57827" lon="6.89189">
        <ele>367.97924804688</ele>
        <time>2011-03-06T12:53:17Z</time>
      </trkpt>
      <trkpt lat="43.57818" lon="6.89188">
        <ele>368.18835449219</ele>
        <time>2011-03-06T12:53:23Z</time>
      </trkpt>
      <trkpt lat="43.5781" lon="6.89185">
        <ele>368.1418762207</ele>
        <time>2011-03-06T12:53:31Z</time>
      </trkpt>
      <trkpt lat="43.57807" lon="6.89183">
        <ele>368.11215209961</ele>
        <time>2011-03-06T12:53:33Z</time>
      </trkpt>
      <trkpt lat="43.57801" lon="6.89182">
        <ele>368.19522094727</ele>
        <time>2011-03-06T12:53:37Z</time>
      </trkpt>
      <trkpt lat="43.57792" lon="6.8918">
        <ele>368.58898925781</ele>
        <time>2011-03-06T12:53:44Z</time>
      </trkpt>
      <trkpt lat="43.57783" lon="6.89179">
        <ele>369.10095214844</ele>
        <time>2011-03-06T12:53:52Z</time>
      </trkpt>
      <trkpt lat="43.57779" lon="6.89179">
        <ele>369.33825683594</ele>
        <time>2011-03-06T12:53:55Z</time>
      </trkpt>
      <trkpt lat="43.5777" lon="6.89181">
        <ele>370.1242980957</ele>
        <time>2011-03-06T12:54:02Z</time>
      </trkpt>
      <trkpt lat="43.57764" lon="6.89189">
        <ele>371.599609375</ele>
        <time>2011-03-06T12:54:09Z</time>
      </trkpt>
      <trkpt lat="43.57763" lon="6.89191">
        <ele>371.89276123047</ele>
        <time>2011-03-06T12:54:10Z</time>
      </trkpt>
      <trkpt lat="43.57761" lon="6.89194">
        <ele>372.37850952148</ele>
        <time>2011-03-06T12:54:13Z</time>
      </trkpt>
      <trkpt lat="43.57759" lon="6.89203">
        <ele>373.53884887695</ele>
        <time>2011-03-06T12:54:20Z</time>
      </trkpt>
      <trkpt lat="43.57759" lon="6.89206">
        <ele>373.89605712891</ele>
        <time>2011-03-06T12:54:22Z</time>
      </trkpt>
      <trkpt lat="43.5776" lon="6.8921">
        <ele>374.36514282227</ele>
        <time>2011-03-06T12:54:25Z</time>
      </trkpt>
      <trkpt lat="43.57761" lon="6.89223">
        <ele>375.91891479492</ele>
        <time>2011-03-06T12:54:33Z</time>
      </trkpt>
      <trkpt lat="43.57763" lon="6.89236">
        <ele>377.38049316406</ele>
        <time>2011-03-06T12:54:40Z</time>
      </trkpt>
      <trkpt lat="43.57764" lon="6.89246">
        <ele>378.68801879883</ele>
        <time>2011-03-06T12:54:47Z</time>
      </trkpt>
      <trkpt lat="43.57766" lon="6.89262">
        <ele>379.30395507812</ele>
        <time>2011-03-06T12:54:55Z</time>
      </trkpt>
      <trkpt lat="43.57769" lon="6.89271">
        <ele>379.50927734375</ele>
        <time>2011-03-06T12:55:01Z</time>
      </trkpt>
      <trkpt lat="43.57771" lon="6.8928">
        <ele>379.82995605469</ele>
        <time>2011-03-06T12:55:07Z</time>
      </trkpt>
      <trkpt lat="43.57772" lon="6.89282">
        <ele>379.91796875</ele>
        <time>2011-03-06T12:55:08Z</time>
      </trkpt>
      <trkpt lat="43.57777" lon="6.89291">
        <ele>380.61004638672</ele>
        <time>2011-03-06T12:55:14Z</time>
      </trkpt>
      <trkpt lat="43.57785" lon="6.893">
        <ele>381.71157836914</ele>
        <time>2011-03-06T12:55:21Z</time>
      </trkpt>
      <trkpt lat="43.57789" lon="6.89307">
        <ele>382.5739440918</ele>
        <time>2011-03-06T12:55:25Z</time>
      </trkpt>
      <trkpt lat="43.57793" lon="6.89315">
        <ele>383.64169311523</ele>
        <time>2011-03-06T12:55:30Z</time>
      </trkpt>
      <trkpt lat="43.57798" lon="6.8932">
        <ele>384.69412231445</ele>
        <time>2011-03-06T12:55:35Z</time>
      </trkpt>
      <trkpt lat="43.57805" lon="6.89329">
        <ele>386.49758911133</ele>
        <time>2011-03-06T12:55:43Z</time>
      </trkpt>
      <trkpt lat="43.57807" lon="6.89333">
        <ele>387.27221679688</ele>
        <time>2011-03-06T12:55:46Z</time>
      </trkpt>
      <trkpt lat="43.57812" lon="6.89344">
        <ele>387.88265991211</ele>
        <time>2011-03-06T12:55:53Z</time>
      </trkpt>
      <trkpt lat="43.57813" lon="6.89348">
        <ele>388.09173583984</ele>
        <time>2011-03-06T12:55:56Z</time>
      </trkpt>
      <trkpt lat="43.57817" lon="6.89356">
        <ele>388.76177978516</ele>
        <time>2011-03-06T12:56:01Z</time>
      </trkpt>
      <trkpt lat="43.57823" lon="6.89371">
        <ele>389.92718505859</ele>
        <time>2011-03-06T12:56:09Z</time>
      </trkpt>
      <trkpt lat="43.57824" lon="6.89386">
        <ele>390.15759277344</ele>
        <time>2011-03-06T12:56:15Z</time>
      </trkpt>
      <trkpt lat="43.57829" lon="6.89396">
        <ele>391.41036987305</ele>
        <time>2011-03-06T12:56:20Z</time>
      </trkpt>
      <trkpt lat="43.57835" lon="6.89401">
        <ele>393.32473754883</ele>
        <time>2011-03-06T12:56:25Z</time>
      </trkpt>
      <trkpt lat="43.57854" lon="6.89414">
        <ele>399.51483154297</ele>
        <time>2011-03-06T12:56:33Z</time>
      </trkpt>
      <trkpt lat="43.57862" lon="6.89428">
        <ele>401.92294311523</ele>
        <time>2011-03-06T12:56:38Z</time>
      </trkpt>
      <trkpt lat="43.57867" lon="6.89441">
        <ele>403.22357177734</ele>
        <time>2011-03-06T12:56:43Z</time>
      </trkpt>
      <trkpt lat="43.57875" lon="6.8946">
        <ele>405.22546386719</ele>
        <time>2011-03-06T12:56:49Z</time>
      </trkpt>
      <trkpt lat="43.57882" lon="6.89477">
        <ele>407.10308837891</ele>
        <time>2011-03-06T12:56:55Z</time>
      </trkpt>
      <trkpt lat="43.57887" lon="6.8949">
        <ele>408.39611816406</ele>
        <time>2011-03-06T12:56:59Z</time>
      </trkpt>
      <trkpt lat="43.57894" lon="6.89501">
        <ele>410.88562011719</ele>
        <time>2011-03-06T12:57:03Z</time>
      </trkpt>
      <trkpt lat="43.57904" lon="6.89518">
        <ele>414.47784423828</ele>
        <time>2011-03-06T12:57:08Z</time>
      </trkpt>
      <trkpt lat="43.57906" lon="6.89533">
        <ele>415.03167724609</ele>
        <time>2011-03-06T12:57:13Z</time>
      </trkpt>
      <trkpt lat="43.57904" lon="6.89548">
        <ele>414.01290893555</ele>
        <time>2011-03-06T12:57:18Z</time>
      </trkpt>
      <trkpt lat="43.57903" lon="6.89566">
        <ele>413.52059936523</ele>
        <time>2011-03-06T12:57:23Z</time>
      </trkpt>
      <trkpt lat="43.57902" lon="6.89594">
        <ele>413.52471923828</ele>
        <time>2011-03-06T12:57:31Z</time>
      </trkpt>
      <trkpt lat="43.57903" lon="6.89619">
        <ele>414.81085205078</ele>
        <time>2011-03-06T12:57:38Z</time>
      </trkpt>
      <trkpt lat="43.57906" lon="6.89639">
        <ele>416.33303833008</ele>
        <time>2011-03-06T12:57:45Z</time>
      </trkpt>
      <trkpt lat="43.5791" lon="6.89656">
        <ele>417.91955566406</ele>
        <time>2011-03-06T12:57:53Z</time>
      </trkpt>
      <trkpt lat="43.57909" lon="6.89667">
        <ele>417.89288330078</ele>
        <time>2011-03-06T12:57:59Z</time>
      </trkpt>
      <trkpt lat="43.57907" lon="6.89677">
        <ele>417.615234375</ele>
        <time>2011-03-06T12:58:06Z</time>
      </trkpt>
      <trkpt lat="43.57903" lon="6.89685">
        <ele>416.98129272461</ele>
        <time>2011-03-06T12:58:12Z</time>
      </trkpt>
      <trkpt lat="43.57897" lon="6.89698">
        <ele>415.99609375</ele>
        <time>2011-03-06T12:58:21Z</time>
      </trkpt>
      <trkpt lat="43.57895" lon="6.89706">
        <ele>415.88208007812</ele>
        <time>2011-03-06T12:58:26Z</time>
      </trkpt>
      <trkpt lat="43.57898" lon="6.89722">
        <ele>417.29257202148</ele>
        <time>2011-03-06T12:58:35Z</time>
      </trkpt>
      <trkpt lat="43.57901" lon="6.89728">
        <ele>418.0263671875</ele>
        <time>2011-03-06T12:58:39Z</time>
      </trkpt>
      <trkpt lat="43.57904" lon="6.89736">
        <ele>418.98315429688</ele>
        <time>2011-03-06T12:58:45Z</time>
      </trkpt>
      <trkpt lat="43.57909" lon="6.89745">
        <ele>420.36706542969</ele>
        <time>2011-03-06T12:58:52Z</time>
      </trkpt>
      <trkpt lat="43.57909" lon="6.89746">
        <ele>420.47964477539</ele>
        <time>2011-03-06T12:58:53Z</time>
      </trkpt>
      <trkpt lat="43.57913" lon="6.89758">
        <ele>421.38192749023</ele>
        <time>2011-03-06T12:59:00Z</time>
      </trkpt>
      <trkpt lat="43.57915" lon="6.89761">
        <ele>421.66394042969</ele>
        <time>2011-03-06T12:59:02Z</time>
      </trkpt>
      <trkpt lat="43.5792" lon="6.89771">
        <ele>422.26577758789</ele>
        <time>2011-03-06T12:59:09Z</time>
      </trkpt>
      <trkpt lat="43.57927" lon="6.89778">
        <ele>422.67098999023</ele>
        <time>2011-03-06T12:59:15Z</time>
      </trkpt>
      <trkpt lat="43.57928" lon="6.89785">
        <ele>422.68692016602</ele>
        <time>2011-03-06T12:59:23Z</time>
      </trkpt>
      <trkpt lat="43.5793" lon="6.89785">
        <ele>422.74554443359</ele>
        <time>2011-03-06T12:59:27Z</time>
      </trkpt>
      <trkpt lat="43.57933" lon="6.89789">
        <ele>422.83673095703</ele>
        <time>2011-03-06T12:59:54Z</time>
      </trkpt>
      <trkpt lat="43.57936" lon="6.89793">
        <ele>422.86688232422</ele>
        <time>2011-03-06T13:00:33Z</time>
      </trkpt>
      <trkpt lat="43.57933" lon="6.89792">
        <ele>422.7712097168</ele>
        <time>2011-03-06T13:00:46Z</time>
      </trkpt>
      <trkpt lat="43.57935" lon="6.89794">
        <ele>422.82211303711</ele>
        <time>2011-03-06T13:01:51Z</time>
      </trkpt>
      <trkpt lat="43.57935" lon="6.89794">
        <ele>422.82211303711</ele>
        <time>2011-03-06T13:01:52Z</time>
      </trkpt>
      <trkpt lat="43.57931" lon="6.89794">
        <ele>422.63766479492</ele>
        <time>2011-03-06T13:05:21Z</time>
      </trkpt>
      <trkpt lat="43.57932" lon="6.89801">
        <ele>422.50457763672</ele>
        <time>2011-03-06T13:05:27Z</time>
      </trkpt>
      <trkpt lat="43.5794" lon="6.89811">
        <ele>422.47061157227</ele>
        <time>2011-03-06T13:05:34Z</time>
      </trkpt>
      <trkpt lat="43.57943" lon="6.89821">
        <ele>422.162109375</ele>
        <time>2011-03-06T13:05:40Z</time>
      </trkpt>
      <trkpt lat="43.57949" lon="6.89833">
        <ele>421.61236572266</ele>
        <time>2011-03-06T13:05:47Z</time>
      </trkpt>
      <trkpt lat="43.57957" lon="6.8985">
        <ele>418.99935913086</ele>
        <time>2011-03-06T13:05:54Z</time>
      </trkpt>
      <trkpt lat="43.5796" lon="6.89861">
        <ele>417.26931762695</ele>
        <time>2011-03-06T13:05:58Z</time>
      </trkpt>
      <trkpt lat="43.57965" lon="6.89875">
        <ele>414.74801635742</ele>
        <time>2011-03-06T13:06:02Z</time>
      </trkpt>
      <trkpt lat="43.57966" lon="6.89878">
        <ele>414.18002319336</ele>
        <time>2011-03-06T13:06:03Z</time>
      </trkpt>
      <trkpt lat="43.57959" lon="6.89888">
        <ele>413.12582397461</ele>
        <time>2011-03-06T13:06:08Z</time>
      </trkpt>
      <trkpt lat="43.57941" lon="6.89908">
        <ele>412.52990722656</ele>
        <time>2011-03-06T13:06:17Z</time>
      </trkpt>
      <trkpt lat="43.57933" lon="6.89921">
        <ele>411.47015380859</ele>
        <time>2011-03-06T13:06:22Z</time>
      </trkpt>
      <trkpt lat="43.57916" lon="6.89943">
        <ele>408.50921630859</ele>
        <time>2011-03-06T13:06:31Z</time>
      </trkpt>
      <trkpt lat="43.57902" lon="6.89955">
        <ele>406.69244384766</ele>
        <time>2011-03-06T13:06:39Z</time>
      </trkpt>
      <trkpt lat="43.5789" lon="6.89962">
        <ele>406.11547851562</ele>
        <time>2011-03-06T13:06:46Z</time>
      </trkpt>
      <trkpt lat="43.57879" lon="6.89967">
        <ele>405.96716308594</ele>
        <time>2011-03-06T13:06:52Z</time>
      </trkpt>
      <trkpt lat="43.57863" lon="6.89973">
        <ele>406.2516784668</ele>
        <time>2011-03-06T13:06:59Z</time>
      </trkpt>
      <trkpt lat="43.5784" lon="6.89981">
        <ele>406.88034057617</ele>
        <time>2011-03-06T13:07:08Z</time>
      </trkpt>
      <trkpt lat="43.57827" lon="6.89991">
        <ele>406.75625610352</ele>
        <time>2011-03-06T13:07:14Z</time>
      </trkpt>
      <trkpt lat="43.57811" lon="6.90008">
        <ele>405.61227416992</ele>
        <time>2011-03-06T13:07:22Z</time>
      </trkpt>
      <trkpt lat="43.57795" lon="6.90028">
        <ele>402.21569824219</ele>
        <time>2011-03-06T13:07:31Z</time>
      </trkpt>
      <trkpt lat="43.57788" lon="6.90042">
        <ele>399.35336303711</ele>
        <time>2011-03-06T13:07:36Z</time>
      </trkpt>
      <trkpt lat="43.57785" lon="6.90048">
        <ele>397.78677368164</ele>
        <time>2011-03-06T13:07:38Z</time>
      </trkpt>
      <trkpt lat="43.57779" lon="6.90064">
        <ele>393.64227294922</ele>
        <time>2011-03-06T13:07:43Z</time>
      </trkpt>
      <trkpt lat="43.57777" lon="6.90067">
        <ele>392.86538696289</ele>
        <time>2011-03-06T13:07:44Z</time>
      </trkpt>
      <trkpt lat="43.57767" lon="6.90086">
        <ele>388.12908935547</ele>
        <time>2011-03-06T13:07:51Z</time>
      </trkpt>
      <trkpt lat="43.57758" lon="6.90097">
        <ele>386.34555053711</ele>
        <time>2011-03-06T13:07:57Z</time>
      </trkpt>
      <trkpt lat="43.57745" lon="6.90103">
        <ele>387.37680053711</ele>
        <time>2011-03-06T13:08:03Z</time>
      </trkpt>
      <trkpt lat="43.57732" lon="6.9011">
        <ele>389.53414916992</ele>
        <time>2011-03-06T13:08:09Z</time>
      </trkpt>
      <trkpt lat="43.57719" lon="6.9012">
        <ele>390.70928955078</ele>
        <time>2011-03-06T13:08:15Z</time>
      </trkpt>
      <trkpt lat="43.57709" lon="6.90137">
        <ele>389.53982543945</ele>
        <time>2011-03-06T13:08:21Z</time>
      </trkpt>
      <trkpt lat="43.57695" lon="6.90156">
        <ele>388.99130249023</ele>
        <time>2011-03-06T13:08:27Z</time>
      </trkpt>
      <trkpt lat="43.5767" lon="6.90182">
        <ele>392.00421142578</ele>
        <time>2011-03-06T13:08:36Z</time>
      </trkpt>
      <trkpt lat="43.57648" lon="6.90201">
        <ele>397.89892578125</ele>
        <time>2011-03-06T13:08:41Z</time>
      </trkpt>
      <trkpt lat="43.57615" lon="6.9022">
        <ele>407.26971435547</ele>
        <time>2011-03-06T13:08:46Z</time>
      </trkpt>
      <trkpt lat="43.57579" lon="6.90258">
        <ele>414.30950927734</ele>
        <time>2011-03-06T13:08:52Z</time>
      </trkpt>
      <trkpt lat="43.57548" lon="6.90275">
        <ele>415.0246887207</ele>
        <time>2011-03-06T13:08:57Z</time>
      </trkpt>
      <trkpt lat="43.57524" lon="6.90283">
        <ele>416.62274169922</ele>
        <time>2011-03-06T13:09:02Z</time>
      </trkpt>
      <trkpt lat="43.57514" lon="6.90287">
        <ele>417.31213378906</ele>
        <time>2011-03-06T13:09:05Z</time>
      </trkpt>
      <trkpt lat="43.57492" lon="6.903">
        <ele>418.12283325195</ele>
        <time>2011-03-06T13:09:12Z</time>
      </trkpt>
      <trkpt lat="43.57475" lon="6.90316">
        <ele>417.79931640625</ele>
        <time>2011-03-06T13:09:18Z</time>
      </trkpt>
      <trkpt lat="43.57464" lon="6.90331">
        <ele>417.77151489258</ele>
        <time>2011-03-06T13:09:23Z</time>
      </trkpt>
      <trkpt lat="43.57449" lon="6.90356">
        <ele>416.15423583984</ele>
        <time>2011-03-06T13:09:30Z</time>
      </trkpt>
      <trkpt lat="43.57431" lon="6.90379">
        <ele>415.69845581055</ele>
        <time>2011-03-06T13:09:38Z</time>
      </trkpt>
      <trkpt lat="43.57412" lon="6.90403">
        <ele>416.07330322266</ele>
        <time>2011-03-06T13:09:47Z</time>
      </trkpt>
      <trkpt lat="43.57397" lon="6.90428">
        <ele>414.93048095703</ele>
        <time>2011-03-06T13:09:55Z</time>
      </trkpt>
      <trkpt lat="43.57386" lon="6.90448">
        <ele>413.85855102539</ele>
        <time>2011-03-06T13:10:02Z</time>
      </trkpt>
      <trkpt lat="43.57374" lon="6.90466">
        <ele>413.73272705078</ele>
        <time>2011-03-06T13:10:08Z</time>
      </trkpt>
      <trkpt lat="43.57355" lon="6.9049">
        <ele>415.19918823242</ele>
        <time>2011-03-06T13:10:17Z</time>
      </trkpt>
      <trkpt lat="43.57336" lon="6.90499">
        <ele>418.4892578125</ele>
        <time>2011-03-06T13:10:24Z</time>
      </trkpt>
      <trkpt lat="43.57317" lon="6.90503">
        <ele>421.08941650391</ele>
        <time>2011-03-06T13:10:31Z</time>
      </trkpt>
      <trkpt lat="43.57292" lon="6.905">
        <ele>424.48910522461</ele>
        <time>2011-03-06T13:10:41Z</time>
      </trkpt>
      <trkpt lat="43.57272" lon="6.905">
        <ele>427.1178894043</ele>
        <time>2011-03-06T13:10:48Z</time>
      </trkpt>
      <trkpt lat="43.57244" lon="6.90506">
        <ele>431.06304931641</ele>
        <time>2011-03-06T13:10:57Z</time>
      </trkpt>
      <trkpt lat="43.57229" lon="6.90496">
        <ele>431.92532348633</ele>
        <time>2011-03-06T13:11:03Z</time>
      </trkpt>
      <trkpt lat="43.57209" lon="6.90484">
        <ele>432.5100402832</ele>
        <time>2011-03-06T13:11:11Z</time>
      </trkpt>
      <trkpt lat="43.5719" lon="6.90481">
        <ele>433.89468383789</ele>
        <time>2011-03-06T13:11:18Z</time>
      </trkpt>
      <trkpt lat="43.57166" lon="6.90482">
        <ele>436.22180175781</ele>
        <time>2011-03-06T13:11:27Z</time>
      </trkpt>
      <trkpt lat="43.57148" lon="6.90479">
        <ele>437.28268432617</ele>
        <time>2011-03-06T13:11:33Z</time>
      </trkpt>
      <trkpt lat="43.57124" lon="6.9047">
        <ele>437.73519897461</ele>
        <time>2011-03-06T13:11:42Z</time>
      </trkpt>
      <trkpt lat="43.57105" lon="6.90462">
        <ele>437.70874023438</ele>
        <time>2011-03-06T13:11:49Z</time>
      </trkpt>
      <trkpt lat="43.57084" lon="6.90454">
        <ele>437.6755065918</ele>
        <time>2011-03-06T13:11:57Z</time>
      </trkpt>
      <trkpt lat="43.5706" lon="6.90448">
        <ele>440.64392089844</ele>
        <time>2011-03-06T13:12:05Z</time>
      </trkpt>
      <trkpt lat="43.57042" lon="6.9044">
        <ele>442.60455322266</ele>
        <time>2011-03-06T13:12:12Z</time>
      </trkpt>
      <trkpt lat="43.57021" lon="6.90428">
        <ele>444.56130981445</ele>
        <time>2011-03-06T13:12:20Z</time>
      </trkpt>
      <trkpt lat="43.57005" lon="6.9041">
        <ele>444.80554199219</ele>
        <time>2011-03-06T13:12:27Z</time>
      </trkpt>
      <trkpt lat="43.5699" lon="6.90393">
        <ele>443.15765380859</ele>
        <time>2011-03-06T13:12:34Z</time>
      </trkpt>
      <trkpt lat="43.56972" lon="6.90388">
        <ele>442.07415771484</ele>
        <time>2011-03-06T13:12:41Z</time>
      </trkpt>
      <trkpt lat="43.5695" lon="6.90399">
        <ele>443.53894042969</ele>
        <time>2011-03-06T13:12:49Z</time>
      </trkpt>
      <trkpt lat="43.56932" lon="6.90416">
        <ele>446.06677246094</ele>
        <time>2011-03-06T13:12:56Z</time>
      </trkpt>
      <trkpt lat="43.56911" lon="6.90436">
        <ele>448.31060791016</ele>
        <time>2011-03-06T13:13:04Z</time>
      </trkpt>
      <trkpt lat="43.56895" lon="6.90453">
        <ele>449.21630859375</ele>
        <time>2011-03-06T13:13:11Z</time>
      </trkpt>
      <trkpt lat="43.56874" lon="6.90469">
        <ele>449.74435424805</ele>
        <time>2011-03-06T13:13:19Z</time>
      </trkpt>
      <trkpt lat="43.56858" lon="6.90485">
        <ele>450.79803466797</ele>
        <time>2011-03-06T13:13:26Z</time>
      </trkpt>
      <trkpt lat="43.56849" lon="6.90502">
        <ele>452.76473999023</ele>
        <time>2011-03-06T13:13:32Z</time>
      </trkpt>
      <trkpt lat="43.56837" lon="6.90516">
        <ele>454.86633300781</ele>
        <time>2011-03-06T13:13:37Z</time>
      </trkpt>
      <trkpt lat="43.56821" lon="6.90521">
        <ele>455.91241455078</ele>
        <time>2011-03-06T13:13:43Z</time>
      </trkpt>
      <trkpt lat="43.56803" lon="6.9052">
        <ele>456.22247314453</ele>
        <time>2011-03-06T13:13:50Z</time>
      </trkpt>
      <trkpt lat="43.56786" lon="6.90518">
        <ele>456.07348632812</ele>
        <time>2011-03-06T13:13:57Z</time>
      </trkpt>
      <trkpt lat="43.5677" lon="6.90515">
        <ele>455.64868164062</ele>
        <time>2011-03-06T13:14:03Z</time>
      </trkpt>
      <trkpt lat="43.5675" lon="6.90504">
        <ele>453.87731933594</ele>
        <time>2011-03-06T13:14:10Z</time>
      </trkpt>
      <trkpt lat="43.5673" lon="6.90493">
        <ele>454.14276123047</ele>
        <time>2011-03-06T13:14:18Z</time>
      </trkpt>
      <trkpt lat="43.567" lon="6.90487">
        <ele>456.662109375</ele>
        <time>2011-03-06T13:14:28Z</time>
      </trkpt>
      <trkpt lat="43.56679" lon="6.90486">
        <ele>458.93203735352</ele>
        <time>2011-03-06T13:14:35Z</time>
      </trkpt>
      <trkpt lat="43.56659" lon="6.90481">
        <ele>460.33236694336</ele>
        <time>2011-03-06T13:14:42Z</time>
      </trkpt>
      <trkpt lat="43.56638" lon="6.90468">
        <ele>459.90286254883</ele>
        <time>2011-03-06T13:14:50Z</time>
      </trkpt>
      <trkpt lat="43.56623" lon="6.90456">
        <ele>458.451171875</ele>
        <time>2011-03-06T13:14:57Z</time>
      </trkpt>
      <trkpt lat="43.56608" lon="6.90436">
        <ele>454.63244628906</ele>
        <time>2011-03-06T13:15:03Z</time>
      </trkpt>
      <trkpt lat="43.56591" lon="6.90412">
        <ele>449.72723388672</ele>
        <time>2011-03-06T13:15:09Z</time>
      </trkpt>
      <trkpt lat="43.56588" lon="6.90411">
        <ele>449.52926635742</ele>
        <time>2011-03-06T13:15:14Z</time>
      </trkpt>
      <trkpt lat="43.56588" lon="6.90409">
        <ele>449.30908203125</ele>
        <time>2011-03-06T13:15:29Z</time>
      </trkpt>
      <trkpt lat="43.56591" lon="6.9041">
        <ele>449.49774169922</ele>
        <time>2011-03-06T13:16:16Z</time>
      </trkpt>
      <trkpt lat="43.56592" lon="6.90409">
        <ele>449.33279418945</ele>
        <time>2011-03-06T13:16:30Z</time>
      </trkpt>
      <trkpt lat="43.56591" lon="6.90409">
        <ele>449.33905029297</ele>
        <time>2011-03-06T13:16:55Z</time>
      </trkpt>
      <trkpt lat="43.56579" lon="6.90406">
        <ele>447.2353515625</ele>
        <time>2011-03-06T13:16:59Z</time>
      </trkpt>
      <trkpt lat="43.5656" lon="6.90404">
        <ele>440.39755249023</ele>
        <time>2011-03-06T13:17:04Z</time>
      </trkpt>
      <trkpt lat="43.56541" lon="6.90401">
        <ele>433.65530395508</ele>
        <time>2011-03-06T13:17:08Z</time>
      </trkpt>
      <trkpt lat="43.56504" lon="6.90411">
        <ele>421.69540405273</ele>
        <time>2011-03-06T13:17:16Z</time>
      </trkpt>
      <trkpt lat="43.56499" lon="6.90413">
        <ele>420.40942382812</ele>
        <time>2011-03-06T13:17:17Z</time>
      </trkpt>
      <trkpt lat="43.56482" lon="6.90427">
        <ele>419.98818969727</ele>
        <time>2011-03-06T13:17:22Z</time>
      </trkpt>
      <trkpt lat="43.5645" lon="6.90466">
        <ele>424.30642700195</ele>
        <time>2011-03-06T13:17:29Z</time>
      </trkpt>
      <trkpt lat="43.56421" lon="6.9052">
        <ele>430.61114501953</ele>
        <time>2011-03-06T13:17:36Z</time>
      </trkpt>
      <trkpt lat="43.56386" lon="6.90575">
        <ele>437.19091796875</ele>
        <time>2011-03-06T13:17:43Z</time>
      </trkpt>
      <trkpt lat="43.56377" lon="6.9059">
        <ele>437.86325073242</ele>
        <time>2011-03-06T13:17:45Z</time>
      </trkpt>
      <trkpt lat="43.56352" lon="6.9061">
        <ele>433.75500488281</ele>
        <time>2011-03-06T13:17:49Z</time>
      </trkpt>
      <trkpt lat="43.56345" lon="6.9061">
        <ele>431.92315673828</ele>
        <time>2011-03-06T13:17:50Z</time>
      </trkpt>
      <trkpt lat="43.56332" lon="6.90611">
        <ele>428.43450927734</ele>
        <time>2011-03-06T13:17:52Z</time>
      </trkpt>
      <trkpt lat="43.56308" lon="6.90627">
        <ele>426.10369873047</ele>
        <time>2011-03-06T13:17:56Z</time>
      </trkpt>
      <trkpt lat="43.56294" lon="6.90651">
        <ele>427.65744018555</ele>
        <time>2011-03-06T13:17:59Z</time>
      </trkpt>
      <trkpt lat="43.56274" lon="6.90663">
        <ele>426.77590942383</ele>
        <time>2011-03-06T13:18:02Z</time>
      </trkpt>
      <trkpt lat="43.56244" lon="6.90664">
        <ele>422.32336425781</ele>
        <time>2011-03-06T13:18:06Z</time>
      </trkpt>
      <trkpt lat="43.56226" lon="6.90683">
        <ele>420.26055908203</ele>
        <time>2011-03-06T13:18:09Z</time>
      </trkpt>
      <trkpt lat="43.56223" lon="6.90707">
        <ele>420.26513671875</ele>
        <time>2011-03-06T13:18:11Z</time>
      </trkpt>
      <trkpt lat="43.56236" lon="6.90739">
        <ele>423.56112670898</ele>
        <time>2011-03-06T13:18:14Z</time>
      </trkpt>
      <trkpt lat="43.56242" lon="6.90747">
        <ele>425.10040283203</ele>
        <time>2011-03-06T13:18:15Z</time>
      </trkpt>
      <trkpt lat="43.56267" lon="6.90779">
        <ele>427.68676757812</ele>
        <time>2011-03-06T13:18:19Z</time>
      </trkpt>
      <trkpt lat="43.56297" lon="6.908">
        <ele>429.5002746582</ele>
        <time>2011-03-06T13:18:23Z</time>
      </trkpt>
      <trkpt lat="43.56322" lon="6.90793">
        <ele>432.2751159668</ele>
        <time>2011-03-06T13:18:26Z</time>
      </trkpt>
      <trkpt lat="43.56337" lon="6.90785">
        <ele>434.74816894531</ele>
        <time>2011-03-06T13:18:28Z</time>
      </trkpt>
      <trkpt lat="43.56361" lon="6.9078">
        <ele>439.76058959961</ele>
        <time>2011-03-06T13:18:31Z</time>
      </trkpt>
      <trkpt lat="43.56375" lon="6.90803">
        <ele>439.11138916016</ele>
        <time>2011-03-06T13:18:34Z</time>
      </trkpt>
      <trkpt lat="43.56376" lon="6.90838">
        <ele>434.20639038086</ele>
        <time>2011-03-06T13:18:37Z</time>
      </trkpt>
      <trkpt lat="43.5637" lon="6.90888">
        <ele>424.27548217773</ele>
        <time>2011-03-06T13:18:41Z</time>
      </trkpt>
      <trkpt lat="43.56352" lon="6.90936">
        <ele>414.78421020508</ele>
        <time>2011-03-06T13:18:45Z</time>
      </trkpt>
      <trkpt lat="43.56345" lon="6.90945">
        <ele>413.18838500977</ele>
        <time>2011-03-06T13:18:46Z</time>
      </trkpt>
      <trkpt lat="43.56313" lon="6.90977">
        <ele>411.05801391602</ele>
        <time>2011-03-06T13:18:50Z</time>
      </trkpt>
      <trkpt lat="43.5629" lon="6.91021">
        <ele>411.09100341797</ele>
        <time>2011-03-06T13:18:54Z</time>
      </trkpt>
      <trkpt lat="43.56288" lon="6.91034">
        <ele>410.80215454102</ele>
        <time>2011-03-06T13:18:55Z</time>
      </trkpt>
      <trkpt lat="43.56274" lon="6.91114">
        <ele>413.82711791992</ele>
        <time>2011-03-06T13:19:01Z</time>
      </trkpt>
      <trkpt lat="43.56274" lon="6.91176">
        <ele>416.75332641602</ele>
        <time>2011-03-06T13:19:06Z</time>
      </trkpt>
      <trkpt lat="43.56276" lon="6.91188">
        <ele>417.06756591797</ele>
        <time>2011-03-06T13:19:07Z</time>
      </trkpt>
      <trkpt lat="43.56269" lon="6.91231">
        <ele>423.80987548828</ele>
        <time>2011-03-06T13:19:11Z</time>
      </trkpt>
      <trkpt lat="43.56265" lon="6.9124">
        <ele>426.60229492188</ele>
        <time>2011-03-06T13:19:12Z</time>
      </trkpt>
      <trkpt lat="43.56255" lon="6.91257">
        <ele>431.76123046875</ele>
        <time>2011-03-06T13:19:14Z</time>
      </trkpt>
      <trkpt lat="43.56244" lon="6.91294">
        <ele>433.81405639648</ele>
        <time>2011-03-06T13:19:18Z</time>
      </trkpt>
      <trkpt lat="43.56254" lon="6.91326">
        <ele>429.91638183594</ele>
        <time>2011-03-06T13:19:21Z</time>
      </trkpt>
      <trkpt lat="43.56264" lon="6.91343">
        <ele>425.51113891602</ele>
        <time>2011-03-06T13:19:23Z</time>
      </trkpt>
      <trkpt lat="43.56297" lon="6.91393">
        <ele>412.49230957031</ele>
        <time>2011-03-06T13:19:29Z</time>
      </trkpt>
      <trkpt lat="43.5631" lon="6.91436">
        <ele>407.57278442383</ele>
        <time>2011-03-06T13:19:33Z</time>
      </trkpt>
      <trkpt lat="43.56305" lon="6.91474">
        <ele>407.49166870117</ele>
        <time>2011-03-06T13:19:36Z</time>
      </trkpt>
      <trkpt lat="43.56298" lon="6.91496">
        <ele>407.95391845703</ele>
        <time>2011-03-06T13:19:38Z</time>
      </trkpt>
      <trkpt lat="43.56284" lon="6.91519">
        <ele>410.17135620117</ele>
        <time>2011-03-06T13:19:42Z</time>
      </trkpt>
      <trkpt lat="43.56274" lon="6.91527">
        <ele>411.60852050781</ele>
        <time>2011-03-06T13:19:46Z</time>
      </trkpt>
      <trkpt lat="43.56266" lon="6.91533">
        <ele>412.53039550781</ele>
        <time>2011-03-06T13:19:49Z</time>
      </trkpt>
      <trkpt lat="43.56249" lon="6.91544">
        <ele>413.68267822266</ele>
        <time>2011-03-06T13:19:57Z</time>
      </trkpt>
      <trkpt lat="43.56248" lon="6.91545">
        <ele>413.33984375</ele>
        <time>2011-03-06T13:19:58Z</time>
      </trkpt>
      <trkpt lat="43.56248" lon="6.91555">
        <ele>412.67385864258</ele>
        <time>2011-03-06T13:20:02Z</time>
      </trkpt>
      <trkpt lat="43.5625" lon="6.91557">
        <ele>412.87353515625</ele>
        <time>2011-03-06T13:20:05Z</time>
      </trkpt>
      <trkpt lat="43.56249" lon="6.91559">
        <ele>412.58489990234</ele>
        <time>2011-03-06T13:20:16Z</time>
      </trkpt>
      <trkpt lat="43.5625" lon="6.91561">
        <ele>412.60919189453</ele>
        <time>2011-03-06T13:20:32Z</time>
      </trkpt>
      <trkpt lat="43.56253" lon="6.91561">
        <ele>412.33529663086</ele>
        <time>2011-03-06T13:21:13Z</time>
      </trkpt>
      <trkpt lat="43.56252" lon="6.91559">
        <ele>412.55044555664</ele>
        <time>2011-03-06T13:21:27Z</time>
      </trkpt>
      <trkpt lat="43.5625" lon="6.91552">
        <ele>413.28894042969</ele>
        <time>2011-03-06T13:22:16Z</time>
      </trkpt>
      <trkpt lat="43.5625" lon="6.91551">
        <ele>413.30267333984</ele>
        <time>2011-03-06T13:22:20Z</time>
      </trkpt>
      <trkpt lat="43.56247" lon="6.91548">
        <ele>412.93600463867</ele>
        <time>2011-03-06T13:23:38Z</time>
      </trkpt>
      <trkpt lat="43.56247" lon="6.91548">
        <ele>412.93600463867</ele>
        <time>2011-03-06T13:23:39Z</time>
      </trkpt>
      <trkpt lat="43.56244" lon="6.91545">
        <ele>412.74932861328</ele>
        <time>2011-03-06T13:25:25Z</time>
      </trkpt>
      <trkpt lat="43.56244" lon="6.91545">
        <ele>412.74542236328</ele>
        <time>2011-03-06T13:25:26Z</time>
      </trkpt>
      <trkpt lat="43.56245" lon="6.91545">
        <ele>412.80026245117</ele>
        <time>2011-03-06T13:26:06Z</time>
      </trkpt>
      <trkpt lat="43.56243" lon="6.91549">
        <ele>412.13705444336</ele>
        <time>2011-03-06T13:26:57Z</time>
      </trkpt>
      <trkpt lat="43.56242" lon="6.91546">
        <ele>412.23492431641</ele>
        <time>2011-03-06T13:27:29Z</time>
      </trkpt>
      <trkpt lat="43.56245" lon="6.91552">
        <ele>412.34429931641</ele>
        <time>2011-03-06T13:27:43Z</time>
      </trkpt>
      <trkpt lat="43.56248" lon="6.91556">
        <ele>412.60565185547</ele>
        <time>2011-03-06T13:27:54Z</time>
      </trkpt>
      <trkpt lat="43.56251" lon="6.91558">
        <ele>412.75204467773</ele>
        <time>2011-03-06T13:28:03Z</time>
      </trkpt>
      <trkpt lat="43.56251" lon="6.91559">
        <ele>412.69812011719</ele>
        <time>2011-03-06T13:28:04Z</time>
      </trkpt>
      <trkpt lat="43.56249" lon="6.91558">
        <ele>412.68276977539</ele>
        <time>2011-03-06T13:28:10Z</time>
      </trkpt>
      <trkpt lat="43.56245" lon="6.91555">
        <ele>411.99459838867</ele>
        <time>2011-03-06T13:28:16Z</time>
      </trkpt>
      <trkpt lat="43.56234" lon="6.91559">
        <ele>409.62008666992</ele>
        <time>2011-03-06T13:28:20Z</time>
      </trkpt>
      <trkpt lat="43.56231" lon="6.91559">
        <ele>409.07376098633</ele>
        <time>2011-03-06T13:28:21Z</time>
      </trkpt>
      <trkpt lat="43.56219" lon="6.91552">
        <ele>407.48690795898</ele>
        <time>2011-03-06T13:28:24Z</time>
      </trkpt>
      <trkpt lat="43.56203" lon="6.91561">
        <ele>403.20803833008</ele>
        <time>2011-03-06T13:28:28Z</time>
      </trkpt>
      <trkpt lat="43.56188" lon="6.91566">
        <ele>399.20614624023</ele>
        <time>2011-03-06T13:28:32Z</time>
      </trkpt>
      <trkpt lat="43.56174" lon="6.91556">
        <ele>398.24230957031</ele>
        <time>2011-03-06T13:28:35Z</time>
      </trkpt>
      <trkpt lat="43.56152" lon="6.91531">
        <ele>400.02319335938</ele>
        <time>2011-03-06T13:28:40Z</time>
      </trkpt>
      <trkpt lat="43.56131" lon="6.91525">
        <ele>398.09115600586</ele>
        <time>2011-03-06T13:28:44Z</time>
      </trkpt>
      <trkpt lat="43.56103" lon="6.91525">
        <ele>393.78060913086</ele>
        <time>2011-03-06T13:28:49Z</time>
      </trkpt>
      <trkpt lat="43.56095" lon="6.91528">
        <ele>391.76007080078</ele>
        <time>2011-03-06T13:28:51Z</time>
      </trkpt>
      <trkpt lat="43.56089" lon="6.91534">
        <ele>388.78042602539</ele>
        <time>2011-03-06T13:28:54Z</time>
      </trkpt>
      <trkpt lat="43.56071" lon="6.91548">
        <ele>381.96420288086</ele>
        <time>2011-03-06T13:29:01Z</time>
      </trkpt>
      <trkpt lat="43.56058" lon="6.91559">
        <ele>377.04022216797</ele>
        <time>2011-03-06T13:29:06Z</time>
      </trkpt>
      <trkpt lat="43.56051" lon="6.91564">
        <ele>374.63824462891</ele>
        <time>2011-03-06T13:29:09Z</time>
      </trkpt>
      <trkpt lat="43.56038" lon="6.91563">
        <ele>373.69714355469</ele>
        <time>2011-03-06T13:29:14Z</time>
      </trkpt>
      <trkpt lat="43.56034" lon="6.91558">
        <ele>374.68765258789</ele>
        <time>2011-03-06T13:29:19Z</time>
      </trkpt>
      <trkpt lat="43.56026" lon="6.9156">
        <ele>373.28128051758</ele>
        <time>2011-03-06T13:29:24Z</time>
      </trkpt>
      <trkpt lat="43.56023" lon="6.9156">
        <ele>373.12924194336</ele>
        <time>2011-03-06T13:29:25Z</time>
      </trkpt>
      <trkpt lat="43.56007" lon="6.91547">
        <ele>375.77786254883</ele>
        <time>2011-03-06T13:29:30Z</time>
      </trkpt>
      <trkpt lat="43.55984" lon="6.91537">
        <ele>376.44061279297</ele>
        <time>2011-03-06T13:29:35Z</time>
      </trkpt>
      <trkpt lat="43.55968" lon="6.91526">
        <ele>377.84838867188</ele>
        <time>2011-03-06T13:29:39Z</time>
      </trkpt>
      <trkpt lat="43.55966" lon="6.91521">
        <ele>379.27551269531</ele>
        <time>2011-03-06T13:29:43Z</time>
      </trkpt>
      <trkpt lat="43.55962" lon="6.91519">
        <ele>379.4866027832</ele>
        <time>2011-03-06T13:29:48Z</time>
      </trkpt>
      <trkpt lat="43.55954" lon="6.9151">
        <ele>381.26675415039</ele>
        <time>2011-03-06T13:29:52Z</time>
      </trkpt>
      <trkpt lat="43.55949" lon="6.91504">
        <ele>382.55987548828</ele>
        <time>2011-03-06T13:29:54Z</time>
      </trkpt>
      <trkpt lat="43.55933" lon="6.91505">
        <ele>379.65225219727</ele>
        <time>2011-03-06T13:29:58Z</time>
      </trkpt>
      <trkpt lat="43.55925" lon="6.91509">
        <ele>377.26892089844</ele>
        <time>2011-03-06T13:30:00Z</time>
      </trkpt>
      <trkpt lat="43.55918" lon="6.91504">
        <ele>377.72442626953</ele>
        <time>2011-03-06T13:30:04Z</time>
      </trkpt>
      <trkpt lat="43.55907" lon="6.91498">
        <ele>376.76654052734</ele>
        <time>2011-03-06T13:30:09Z</time>
      </trkpt>
      <trkpt lat="43.55892" lon="6.91504">
        <ele>371.53411865234</ele>
        <time>2011-03-06T13:30:13Z</time>
      </trkpt>
      <trkpt lat="43.55881" lon="6.91527">
        <ele>362.47708129883</ele>
        <time>2011-03-06T13:30:18Z</time>
      </trkpt>
      <trkpt lat="43.55872" lon="6.91535">
        <ele>358.38851928711</ele>
        <time>2011-03-06T13:30:21Z</time>
      </trkpt>
      <trkpt lat="43.55863" lon="6.91547">
        <ele>353.689453125</ele>
        <time>2011-03-06T13:30:24Z</time>
      </trkpt>
      <trkpt lat="43.55857" lon="6.9155">
        <ele>352.05319213867</ele>
        <time>2011-03-06T13:30:26Z</time>
      </trkpt>
      <trkpt lat="43.55845" lon="6.91555">
        <ele>349.29443359375</ele>
        <time>2011-03-06T13:30:30Z</time>
      </trkpt>
      <trkpt lat="43.55838" lon="6.91549">
        <ele>349.23013305664</ele>
        <time>2011-03-06T13:30:34Z</time>
      </trkpt>
      <trkpt lat="43.55832" lon="6.91541">
        <ele>349.77935791016</ele>
        <time>2011-03-06T13:30:38Z</time>
      </trkpt>
      <trkpt lat="43.55829" lon="6.91543">
        <ele>348.90911865234</ele>
        <time>2011-03-06T13:30:39Z</time>
      </trkpt>
      <trkpt lat="43.55812" lon="6.91565">
        <ele>342.86996459961</ele>
        <time>2011-03-06T13:30:44Z</time>
      </trkpt>
      <trkpt lat="43.55803" lon="6.91557">
        <ele>342.58151245117</ele>
        <time>2011-03-06T13:30:48Z</time>
      </trkpt>
      <trkpt lat="43.55791" lon="6.9156">
        <ele>340.5778503418</ele>
        <time>2011-03-06T13:30:51Z</time>
      </trkpt>
      <trkpt lat="43.5578" lon="6.91573">
        <ele>338.56161499023</ele>
        <time>2011-03-06T13:30:54Z</time>
      </trkpt>
      <trkpt lat="43.55779" lon="6.91579">
        <ele>338.19644165039</ele>
        <time>2011-03-06T13:30:55Z</time>
      </trkpt>
      <trkpt lat="43.55773" lon="6.91604">
        <ele>333.40118408203</ele>
        <time>2011-03-06T13:30:59Z</time>
      </trkpt>
      <trkpt lat="43.55766" lon="6.91633">
        <ele>327.16799926758</ele>
        <time>2011-03-06T13:31:03Z</time>
      </trkpt>
      <trkpt lat="43.55752" lon="6.91656">
        <ele>322.95562744141</ele>
        <time>2011-03-06T13:31:06Z</time>
      </trkpt>
      <trkpt lat="43.55745" lon="6.91682">
        <ele>317.3147277832</ele>
        <time>2011-03-06T13:31:10Z</time>
      </trkpt>
      <trkpt lat="43.55741" lon="6.91697">
        <ele>313.82382202148</ele>
        <time>2011-03-06T13:31:13Z</time>
      </trkpt>
      <trkpt lat="43.55733" lon="6.91706">
        <ele>311.71527099609</ele>
        <time>2011-03-06T13:31:15Z</time>
      </trkpt>
      <trkpt lat="43.5571" lon="6.91719">
        <ele>308.62326049805</ele>
        <time>2011-03-06T13:31:19Z</time>
      </trkpt>
      <trkpt lat="43.55682" lon="6.9173">
        <ele>306.84173583984</ele>
        <time>2011-03-06T13:31:23Z</time>
      </trkpt>
      <trkpt lat="43.55663" lon="6.91734">
        <ele>306.01788330078</ele>
        <time>2011-03-06T13:31:26Z</time>
      </trkpt>
      <trkpt lat="43.55632" lon="6.91723">
        <ele>303.32360839844</ele>
        <time>2011-03-06T13:31:31Z</time>
      </trkpt>
      <trkpt lat="43.55615" lon="6.91725">
        <ele>301.31756591797</ele>
        <time>2011-03-06T13:31:35Z</time>
      </trkpt>
      <trkpt lat="43.55612" lon="6.91728">
        <ele>300.98468017578</ele>
        <time>2011-03-06T13:31:36Z</time>
      </trkpt>
      <trkpt lat="43.55594" lon="6.91743">
        <ele>299.55282592773</ele>
        <time>2011-03-06T13:31:40Z</time>
      </trkpt>
      <trkpt lat="43.55581" lon="6.91759">
        <ele>297.18228149414</ele>
        <time>2011-03-06T13:31:43Z</time>
      </trkpt>
      <trkpt lat="43.55569" lon="6.91789">
        <ele>290.65441894531</ele>
        <time>2011-03-06T13:31:47Z</time>
      </trkpt>
      <trkpt lat="43.55557" lon="6.91805">
        <ele>286.80218505859</ele>
        <time>2011-03-06T13:31:51Z</time>
      </trkpt>
      <trkpt lat="43.55544" lon="6.91809">
        <ele>284.38656616211</ele>
        <time>2011-03-06T13:31:55Z</time>
      </trkpt>
      <trkpt lat="43.55543" lon="6.91813">
        <ele>283.87435913086</ele>
        <time>2011-03-06T13:31:56Z</time>
      </trkpt>
      <trkpt lat="43.55539" lon="6.91834">
        <ele>281.06378173828</ele>
        <time>2011-03-06T13:32:01Z</time>
      </trkpt>
      <trkpt lat="43.55534" lon="6.91845">
        <ele>278.64202880859</ele>
        <time>2011-03-06T13:32:04Z</time>
      </trkpt>
      <trkpt lat="43.55525" lon="6.91846">
        <ele>277.57434082031</ele>
        <time>2011-03-06T13:32:08Z</time>
      </trkpt>
      <trkpt lat="43.55517" lon="6.91841">
        <ele>277.70034790039</ele>
        <time>2011-03-06T13:32:12Z</time>
      </trkpt>
      <trkpt lat="43.55511" lon="6.9185">
        <ele>275.84826660156</ele>
        <time>2011-03-06T13:32:16Z</time>
      </trkpt>
      <trkpt lat="43.5551" lon="6.91863">
        <ele>274.01312255859</ele>
        <time>2011-03-06T13:32:21Z</time>
      </trkpt>
      <trkpt lat="43.55505" lon="6.91873">
        <ele>272.36801147461</ele>
        <time>2011-03-06T13:32:25Z</time>
      </trkpt>
      <trkpt lat="43.55493" lon="6.91894">
        <ele>269.71691894531</ele>
        <time>2011-03-06T13:32:29Z</time>
      </trkpt>
      <trkpt lat="43.55479" lon="6.91918">
        <ele>267.58157348633</ele>
        <time>2011-03-06T13:32:34Z</time>
      </trkpt>
      <trkpt lat="43.55478" lon="6.91935">
        <ele>264.84121704102</ele>
        <time>2011-03-06T13:32:39Z</time>
      </trkpt>
      <trkpt lat="43.55482" lon="6.91956">
        <ele>261.24963378906</ele>
        <time>2011-03-06T13:32:44Z</time>
      </trkpt>
      <trkpt lat="43.55485" lon="6.91979">
        <ele>257.29013061523</ele>
        <time>2011-03-06T13:32:48Z</time>
      </trkpt>
      <trkpt lat="43.55489" lon="6.91993">
        <ele>254.47131347656</ele>
        <time>2011-03-06T13:32:50Z</time>
      </trkpt>
      <trkpt lat="43.5549" lon="6.92033">
        <ele>244.54530334473</ele>
        <time>2011-03-06T13:32:55Z</time>
      </trkpt>
      <trkpt lat="43.55486" lon="6.92072">
        <ele>234.8132019043</ele>
        <time>2011-03-06T13:33:00Z</time>
      </trkpt>
      <trkpt lat="43.55488" lon="6.92099">
        <ele>228.0265045166</ele>
        <time>2011-03-06T13:33:05Z</time>
      </trkpt>
      <trkpt lat="43.55488" lon="6.92101">
        <ele>227.55584716797</ele>
        <time>2011-03-06T13:33:08Z</time>
      </trkpt>
      <trkpt lat="43.55487" lon="6.92107">
        <ele>226.1778717041</ele>
        <time>2011-03-06T13:33:13Z</time>
      </trkpt>
      <trkpt lat="43.55494" lon="6.92128">
        <ele>220.32374572754</ele>
        <time>2011-03-06T13:33:17Z</time>
      </trkpt>
      <trkpt lat="43.55496" lon="6.92139">
        <ele>217.70101928711</ele>
        <time>2011-03-06T13:33:19Z</time>
      </trkpt>
      <trkpt lat="43.55508" lon="6.92135">
        <ele>216.82550048828</ele>
        <time>2011-03-06T13:33:23Z</time>
      </trkpt>
      <trkpt lat="43.55527" lon="6.92105">
        <ele>220.39549255371</ele>
        <time>2011-03-06T13:33:27Z</time>
      </trkpt>
      <trkpt lat="43.55531" lon="6.92099">
        <ele>221.39398193359</ele>
        <time>2011-03-06T13:33:28Z</time>
      </trkpt>
      <trkpt lat="43.55538" lon="6.92077">
        <ele>225.30081176758</ele>
        <time>2011-03-06T13:33:31Z</time>
      </trkpt>
      <trkpt lat="43.55555" lon="6.92058">
        <ele>227.82369995117</ele>
        <time>2011-03-06T13:33:35Z</time>
      </trkpt>
      <trkpt lat="43.5556" lon="6.92057">
        <ele>226.96160888672</ele>
        <time>2011-03-06T13:33:36Z</time>
      </trkpt>
      <trkpt lat="43.55573" lon="6.9206">
        <ele>224.28913879394</ele>
        <time>2011-03-06T13:33:38Z</time>
      </trkpt>
      <trkpt lat="43.55605" lon="6.92063">
        <ele>221.4256439209</ele>
        <time>2011-03-06T13:33:43Z</time>
      </trkpt>
      <trkpt lat="43.55632" lon="6.92068">
        <ele>219.98446655273</ele>
        <time>2011-03-06T13:33:48Z</time>
      </trkpt>
      <trkpt lat="43.55643" lon="6.92086">
        <ele>216.30653381348</ele>
        <time>2011-03-06T13:33:52Z</time>
      </trkpt>
      <trkpt lat="43.55637" lon="6.92092">
        <ele>214.93026733398</ele>
        <time>2011-03-06T13:33:55Z</time>
      </trkpt>
      <trkpt lat="43.55637" lon="6.92091">
        <ele>215.19410705566</ele>
        <time>2011-03-06T13:34:00Z</time>
      </trkpt>
      <trkpt lat="43.55632" lon="6.9209">
        <ele>215.21113586426</ele>
        <time>2011-03-06T13:34:08Z</time>
      </trkpt>
      <trkpt lat="43.55619" lon="6.92101">
        <ele>212.77749633789</ele>
        <time>2011-03-06T13:34:12Z</time>
      </trkpt>
      <trkpt lat="43.55614" lon="6.92129">
        <ele>206.87423706055</ele>
        <time>2011-03-06T13:34:16Z</time>
      </trkpt>
      <trkpt lat="43.5562" lon="6.92164">
        <ele>200.21415710449</ele>
        <time>2011-03-06T13:34:21Z</time>
      </trkpt>
      <trkpt lat="43.55622" lon="6.9217">
        <ele>199.21733093262</ele>
        <time>2011-03-06T13:34:22Z</time>
      </trkpt>
      <trkpt lat="43.55637" lon="6.92206">
        <ele>195.00456237793</ele>
        <time>2011-03-06T13:34:27Z</time>
      </trkpt>
      <trkpt lat="43.55646" lon="6.9222">
        <ele>194.12509155273</ele>
        <time>2011-03-06T13:34:30Z</time>
      </trkpt>
      <trkpt lat="43.5565" lon="6.9224">
        <ele>192.09822082519</ele>
        <time>2011-03-06T13:34:34Z</time>
      </trkpt>
      <trkpt lat="43.55655" lon="6.92258">
        <ele>190.63087463379</ele>
        <time>2011-03-06T13:34:37Z</time>
      </trkpt>
      <trkpt lat="43.55666" lon="6.92281">
        <ele>190.11978149414</ele>
        <time>2011-03-06T13:34:41Z</time>
      </trkpt>
      <trkpt lat="43.55661" lon="6.92291">
        <ele>188.00242614746</ele>
        <time>2011-03-06T13:34:43Z</time>
      </trkpt>
      <trkpt lat="43.55647" lon="6.92307">
        <ele>183.07609558106</ele>
        <time>2011-03-06T13:34:46Z</time>
      </trkpt>
      <trkpt lat="43.55636" lon="6.92315">
        <ele>179.72105407715</ele>
        <time>2011-03-06T13:34:48Z</time>
      </trkpt>
      <trkpt lat="43.55631" lon="6.92311">
        <ele>179.30863952637</ele>
        <time>2011-03-06T13:34:51Z</time>
      </trkpt>
      <trkpt lat="43.55631" lon="6.92298">
        <ele>180.89797973633</ele>
        <time>2011-03-06T13:34:53Z</time>
      </trkpt>
      <trkpt lat="43.5563" lon="6.92282">
        <ele>182.79090881348</ele>
        <time>2011-03-06T13:34:55Z</time>
      </trkpt>
      <trkpt lat="43.55617" lon="6.92256">
        <ele>183.62165832519</ele>
        <time>2011-03-06T13:34:59Z</time>
      </trkpt>
      <trkpt lat="43.55607" lon="6.9226">
        <ele>181.23817443848</ele>
        <time>2011-03-06T13:35:01Z</time>
      </trkpt>
      <trkpt lat="43.55597" lon="6.92276">
        <ele>177.00708007812</ele>
        <time>2011-03-06T13:35:04Z</time>
      </trkpt>
      <trkpt lat="43.55574" lon="6.92305">
        <ele>170.78663635254</ele>
        <time>2011-03-06T13:35:10Z</time>
      </trkpt>
      <trkpt lat="43.55553" lon="6.92332">
        <ele>167.65924072266</ele>
        <time>2011-03-06T13:35:14Z</time>
      </trkpt>
      <trkpt lat="43.55539" lon="6.92347">
        <ele>165.89979553223</ele>
        <time>2011-03-06T13:35:18Z</time>
      </trkpt>
      <trkpt lat="43.55531" lon="6.92346">
        <ele>166.45959472656</ele>
        <time>2011-03-06T13:35:20Z</time>
      </trkpt>
      <trkpt lat="43.55521" lon="6.92342">
        <ele>167.5841217041</ele>
        <time>2011-03-06T13:35:22Z</time>
      </trkpt>
      <trkpt lat="43.555" lon="6.92342">
        <ele>168.30821228027</ele>
        <time>2011-03-06T13:35:26Z</time>
      </trkpt>
      <trkpt lat="43.55486" lon="6.92344">
        <ele>169.35229492188</ele>
        <time>2011-03-06T13:35:29Z</time>
      </trkpt>
      <trkpt lat="43.55478" lon="6.92339">
        <ele>171.0177154541</ele>
        <time>2011-03-06T13:35:32Z</time>
      </trkpt>
      <trkpt lat="43.55459" lon="6.92338">
        <ele>173.005859375</ele>
        <time>2011-03-06T13:35:36Z</time>
      </trkpt>
      <trkpt lat="43.55449" lon="6.92346">
        <ele>172.60057067871</ele>
        <time>2011-03-06T13:35:39Z</time>
      </trkpt>
      <trkpt lat="43.55441" lon="6.92362">
        <ele>170.42114257812</ele>
        <time>2011-03-06T13:35:45Z</time>
      </trkpt>
      <trkpt lat="43.55435" lon="6.92385">
        <ele>166.81457519531</ele>
        <time>2011-03-06T13:35:51Z</time>
      </trkpt>
      <trkpt lat="43.55426" lon="6.92411">
        <ele>163.06759643555</ele>
        <time>2011-03-06T13:35:55Z</time>
      </trkpt>
      <trkpt lat="43.55421" lon="6.92417">
        <ele>162.36947631836</ele>
        <time>2011-03-06T13:35:56Z</time>
      </trkpt>
      <trkpt lat="43.55395" lon="6.92462">
        <ele>155.79803466797</ele>
        <time>2011-03-06T13:36:01Z</time>
      </trkpt>
      <trkpt lat="43.55381" lon="6.92496">
        <ele>151.12980651856</ele>
        <time>2011-03-06T13:36:04Z</time>
      </trkpt>
      <trkpt lat="43.55367" lon="6.92541">
        <ele>145.18902587891</ele>
        <time>2011-03-06T13:36:09Z</time>
      </trkpt>
      <trkpt lat="43.55358" lon="6.92549">
        <ele>145.09477233887</ele>
        <time>2011-03-06T13:36:11Z</time>
      </trkpt>
      <trkpt lat="43.55336" lon="6.92567">
        <ele>146.34204101562</ele>
        <time>2011-03-06T13:36:17Z</time>
      </trkpt>
      <trkpt lat="43.55321" lon="6.92581">
        <ele>146.4620513916</ele>
        <time>2011-03-06T13:36:22Z</time>
      </trkpt>
      <trkpt lat="43.55317" lon="6.92582">
        <ele>146.72869873047</ele>
        <time>2011-03-06T13:36:25Z</time>
      </trkpt>
      <trkpt lat="43.55317" lon="6.92582">
        <ele>146.71153259277</ele>
        <time>2011-03-06T13:36:31Z</time>
      </trkpt>
      <trkpt lat="43.55322" lon="6.92597">
        <ele>143.78387451172</ele>
        <time>2011-03-06T13:36:34Z</time>
      </trkpt>
      <trkpt lat="43.55331" lon="6.92602">
        <ele>142.14010620117</ele>
        <time>2011-03-06T13:36:37Z</time>
      </trkpt>
      <trkpt lat="43.55329" lon="6.92609">
        <ele>141.15893554688</ele>
        <time>2011-03-06T13:36:40Z</time>
      </trkpt>
      <trkpt lat="43.55334" lon="6.92619">
        <ele>138.90940856934</ele>
        <time>2011-03-06T13:36:43Z</time>
      </trkpt>
      <trkpt lat="43.55326" lon="6.92629">
        <ele>138.21395874023</ele>
        <time>2011-03-06T13:36:46Z</time>
      </trkpt>
      <trkpt lat="43.55323" lon="6.9263">
        <ele>138.35620117188</ele>
        <time>2011-03-06T13:36:47Z</time>
      </trkpt>
      <trkpt lat="43.5532" lon="6.92642">
        <ele>136.80758666992</ele>
        <time>2011-03-06T13:36:52Z</time>
      </trkpt>
      <trkpt lat="43.55334" lon="6.92653">
        <ele>133.08253479004</ele>
        <time>2011-03-06T13:36:56Z</time>
      </trkpt>
      <trkpt lat="43.55338" lon="6.92654">
        <ele>131.89239501953</ele>
        <time>2011-03-06T13:36:57Z</time>
      </trkpt>
      <trkpt lat="43.55336" lon="6.92666">
        <ele>130.19111633301</ele>
        <time>2011-03-06T13:37:01Z</time>
      </trkpt>
      <trkpt lat="43.55336" lon="6.92679">
        <ele>128.62567138672</ele>
        <time>2011-03-06T13:37:04Z</time>
      </trkpt>
      <trkpt lat="43.5534" lon="6.92683">
        <ele>127.17024993897</ele>
        <time>2011-03-06T13:37:07Z</time>
      </trkpt>
      <trkpt lat="43.55342" lon="6.92697">
        <ele>124.89739227295</ele>
        <time>2011-03-06T13:37:11Z</time>
      </trkpt>
      <trkpt lat="43.55348" lon="6.92699">
        <ele>122.74967193603</ele>
        <time>2011-03-06T13:37:14Z</time>
      </trkpt>
      <trkpt lat="43.55343" lon="6.92708">
        <ele>123.28631591797</ele>
        <time>2011-03-06T13:37:17Z</time>
      </trkpt>
      <trkpt lat="43.55339" lon="6.92716">
        <ele>123.39670562744</ele>
        <time>2011-03-06T13:37:19Z</time>
      </trkpt>
      <trkpt lat="43.55335" lon="6.92722">
        <ele>123.84602355957</ele>
        <time>2011-03-06T13:37:21Z</time>
      </trkpt>
      <trkpt lat="43.55343" lon="6.92735">
        <ele>119.94570159912</ele>
        <time>2011-03-06T13:37:25Z</time>
      </trkpt>
      <trkpt lat="43.55352" lon="6.92737">
        <ele>117.05972290039</ele>
        <time>2011-03-06T13:37:28Z</time>
      </trkpt>
      <trkpt lat="43.55358" lon="6.92746">
        <ele>114.38946533203</ele>
        <time>2011-03-06T13:37:31Z</time>
      </trkpt>
      <trkpt lat="43.55368" lon="6.92764">
        <ele>110.22072601318</ele>
        <time>2011-03-06T13:37:34Z</time>
      </trkpt>
      <trkpt lat="43.5538" lon="6.92793">
        <ele>105.07913970947</ele>
        <time>2011-03-06T13:37:39Z</time>
      </trkpt>
      <trkpt lat="43.55382" lon="6.92796">
        <ele>104.29081726074</ele>
        <time>2011-03-06T13:37:42Z</time>
      </trkpt>
      <trkpt lat="43.55382" lon="6.92796">
        <ele>104.35137176514</ele>
        <time>2011-03-06T13:37:58Z</time>
      </trkpt>
      <trkpt lat="43.55379" lon="6.92795">
        <ele>105.08909606934</ele>
        <time>2011-03-06T13:38:40Z</time>
      </trkpt>
      <trkpt lat="43.55379" lon="6.92796">
        <ele>105.09309387207</ele>
        <time>2011-03-06T13:39:12Z</time>
      </trkpt>
      <trkpt lat="43.55379" lon="6.92797">
        <ele>105.04821777344</ele>
        <time>2011-03-06T13:39:19Z</time>
      </trkpt>
      <trkpt lat="43.55379" lon="6.92797">
        <ele>105.04261016846</ele>
        <time>2011-03-06T13:39:20Z</time>
      </trkpt>
      <trkpt lat="43.55379" lon="6.92797">
        <ele>105.03980255127</ele>
        <time>2011-03-06T13:39:21Z</time>
      </trkpt>
      <trkpt lat="43.55379" lon="6.92797">
        <ele>104.92673492432</ele>
        <time>2011-03-06T13:39:23Z</time>
      </trkpt>
      <trkpt lat="43.55379" lon="6.92797">
        <ele>104.92393493652</ele>
        <time>2011-03-06T13:39:24Z</time>
      </trkpt>
      <trkpt lat="43.55379" lon="6.92797">
        <ele>104.92393493652</ele>
        <time>2011-03-06T13:39:25Z</time>
      </trkpt>
      <trkpt lat="43.55379" lon="6.92797">
        <ele>104.92113494873</ele>
        <time>2011-03-06T13:39:26Z</time>
      </trkpt>
      <trkpt lat="43.55379" lon="6.92798">
        <ele>104.91833496094</ele>
        <time>2011-03-06T13:39:28Z</time>
      </trkpt>
      <trkpt lat="43.55379" lon="6.92798">
        <ele>104.90993499756</ele>
        <time>2011-03-06T13:39:29Z</time>
      </trkpt>
      <trkpt lat="43.55379" lon="6.928">
        <ele>104.79515838623</ele>
        <time>2011-03-06T13:39:40Z</time>
      </trkpt>
      <trkpt lat="43.55381" lon="6.92819">
        <ele>103.14994049072</ele>
        <time>2011-03-06T13:39:45Z</time>
      </trkpt>
      <trkpt lat="43.55381" lon="6.92826">
        <ele>102.86880493164</ele>
        <time>2011-03-06T13:39:46Z</time>
      </trkpt>
      <trkpt lat="43.55378" lon="6.92858">
        <ele>101.89780426025</ele>
        <time>2011-03-06T13:39:50Z</time>
      </trkpt>
      <trkpt lat="43.55381" lon="6.92884">
        <ele>99.510276794434</ele>
        <time>2011-03-06T13:39:53Z</time>
      </trkpt>
      <trkpt lat="43.55386" lon="6.92924">
        <ele>95.991485595703</ele>
        <time>2011-03-06T13:39:57Z</time>
      </trkpt>
      <trkpt lat="43.55385" lon="6.92958">
        <ele>94.598175048828</ele>
        <time>2011-03-06T13:40:01Z</time>
      </trkpt>
      <trkpt lat="43.55381" lon="6.92973">
        <ele>94.768379211426</ele>
        <time>2011-03-06T13:40:04Z</time>
      </trkpt>
      <trkpt lat="43.55384" lon="6.92973">
        <ele>94.107299804688</ele>
        <time>2011-03-06T13:40:10Z</time>
      </trkpt>
      <trkpt lat="43.55383" lon="6.92981">
        <ele>94.025230407715</ele>
        <time>2011-03-06T13:40:17Z</time>
      </trkpt>
      <trkpt lat="43.55383" lon="6.92989">
        <ele>93.502532958984</ele>
        <time>2011-03-06T13:40:25Z</time>
      </trkpt>
      <trkpt lat="43.55383" lon="6.92996">
        <ele>93.134536743164</ele>
        <time>2011-03-06T13:40:28Z</time>
      </trkpt>
      <trkpt lat="43.55383" lon="6.93017">
        <ele>91.695175170898</ele>
        <time>2011-03-06T13:40:34Z</time>
      </trkpt>
      <trkpt lat="43.55381" lon="6.93026">
        <ele>91.407928466797</ele>
        <time>2011-03-06T13:40:36Z</time>
      </trkpt>
      <trkpt lat="43.5538" lon="6.93051">
        <ele>90.056381225586</ele>
        <time>2011-03-06T13:40:40Z</time>
      </trkpt>
      <trkpt lat="43.55377" lon="6.93088">
        <ele>87.704780578613</ele>
        <time>2011-03-06T13:40:45Z</time>
      </trkpt>
      <trkpt lat="43.55379" lon="6.93109">
        <ele>84.403213500977</ele>
        <time>2011-03-06T13:40:49Z</time>
      </trkpt>
      <trkpt lat="43.55379" lon="6.93125">
        <ele>82.003204345703</ele>
        <time>2011-03-06T13:40:52Z</time>
      </trkpt>
      <trkpt lat="43.55389" lon="6.93134">
        <ele>78.877754211426</ele>
        <time>2011-03-06T13:40:56Z</time>
      </trkpt>
      <trkpt lat="43.55398" lon="6.93135">
        <ele>76.812240600586</ele>
        <time>2011-03-06T13:40:59Z</time>
      </trkpt>
      <trkpt lat="43.554" lon="6.93141">
        <ele>75.628158569336</ele>
        <time>2011-03-06T13:41:01Z</time>
      </trkpt>
      <trkpt lat="43.55402" lon="6.93146">
        <ele>74.694305419922</ele>
        <time>2011-03-06T13:41:03Z</time>
      </trkpt>
      <trkpt lat="43.55416" lon="6.93157">
        <ele>71.059005737305</ele>
        <time>2011-03-06T13:41:07Z</time>
      </trkpt>
      <trkpt lat="43.55429" lon="6.93169">
        <ele>67.767539978027</ele>
        <time>2011-03-06T13:41:10Z</time>
      </trkpt>
      <trkpt lat="43.55424" lon="6.93183">
        <ele>66.440719604492</ele>
        <time>2011-03-06T13:41:14Z</time>
      </trkpt>
      <trkpt lat="43.55424" lon="6.93192">
        <ele>64.898162841797</ele>
        <time>2011-03-06T13:41:16Z</time>
      </trkpt>
      <trkpt lat="43.55435" lon="6.93202">
        <ele>61.675567626953</ele>
        <time>2011-03-06T13:41:18Z</time>
      </trkpt>
      <trkpt lat="43.55439" lon="6.93205">
        <ele>60.685634613037</ele>
        <time>2011-03-06T13:41:19Z</time>
      </trkpt>
      <trkpt lat="43.55446" lon="6.9321">
        <ele>58.812572479248</ele>
        <time>2011-03-06T13:41:21Z</time>
      </trkpt>
      <trkpt lat="43.55449" lon="6.93219">
        <ele>57.069915771484</ele>
        <time>2011-03-06T13:41:25Z</time>
      </trkpt>
      <trkpt lat="43.5545" lon="6.9323">
        <ele>55.208526611328</ele>
        <time>2011-03-06T13:41:29Z</time>
      </trkpt>
      <trkpt lat="43.55449" lon="6.93245">
        <ele>53.120655059814</ele>
        <time>2011-03-06T13:41:33Z</time>
      </trkpt>
      <trkpt lat="43.55447" lon="6.93259">
        <ele>51.197414398193</ele>
        <time>2011-03-06T13:41:37Z</time>
      </trkpt>
      <trkpt lat="43.5545" lon="6.93269">
        <ele>49.335018157959</ele>
        <time>2011-03-06T13:41:40Z</time>
      </trkpt>
      <trkpt lat="43.5545" lon="6.93269">
        <ele>49.335018157959</ele>
        <time>2011-03-06T13:41:45Z</time>
      </trkpt>
      <trkpt lat="43.5545" lon="6.93269">
        <ele>49.302417755127</ele>
        <time>2011-03-06T13:41:58Z</time>
      </trkpt>
      <trkpt lat="43.55452" lon="6.93271">
        <ele>48.730766296387</ele>
        <time>2011-03-06T13:42:00Z</time>
      </trkpt>
      <trkpt lat="43.55448" lon="6.9328">
        <ele>47.896213531494</ele>
        <time>2011-03-06T13:42:04Z</time>
      </trkpt>
      <trkpt lat="43.55446" lon="6.9328">
        <ele>48.191528320312</ele>
        <time>2011-03-06T13:42:06Z</time>
      </trkpt>
      <trkpt lat="43.55444" lon="6.93285">
        <ele>47.696842193604</ele>
        <time>2011-03-06T13:42:12Z</time>
      </trkpt>
      <trkpt lat="43.55446" lon="6.93288">
        <ele>46.975952148438</ele>
        <time>2011-03-06T13:42:15Z</time>
      </trkpt>
      <trkpt lat="43.55452" lon="6.93292">
        <ele>45.490200042725</ele>
        <time>2011-03-06T13:42:18Z</time>
      </trkpt>
      <trkpt lat="43.55457" lon="6.93301">
        <ele>43.531841278076</ele>
        <time>2011-03-06T13:42:22Z</time>
      </trkpt>
      <trkpt lat="43.55465" lon="6.93301">
        <ele>42.460506439209</ele>
        <time>2011-03-06T13:42:24Z</time>
      </trkpt>
      <trkpt lat="43.55479" lon="6.93285">
        <ele>42.872959136963</ele>
        <time>2011-03-06T13:42:28Z</time>
      </trkpt>
      <trkpt lat="43.55482" lon="6.9328">
        <ele>43.13646697998</ele>
        <time>2011-03-06T13:42:29Z</time>
      </trkpt>
      <trkpt lat="43.555" lon="6.93281">
        <ele>40.562442779541</ele>
        <time>2011-03-06T13:42:34Z</time>
      </trkpt>
      <trkpt lat="43.55502" lon="6.93268">
        <ele>42.587261199951</ele>
        <time>2011-03-06T13:42:37Z</time>
      </trkpt>
      <trkpt lat="43.55499" lon="6.93249">
        <ele>45.251415252686</ele>
        <time>2011-03-06T13:42:41Z</time>
      </trkpt>
      <trkpt lat="43.55494" lon="6.93226">
        <ele>49.363777160645</ele>
        <time>2011-03-06T13:42:46Z</time>
      </trkpt>
      <trkpt lat="43.555" lon="6.93203">
        <ele>51.797409057617</ele>
        <time>2011-03-06T13:42:50Z</time>
      </trkpt>
      <trkpt lat="43.55503" lon="6.93186">
        <ele>54.776412963867</ele>
        <time>2011-03-06T13:42:55Z</time>
      </trkpt>
      <trkpt lat="43.55501" lon="6.93169">
        <ele>56.808528900146</ele>
        <time>2011-03-06T13:43:01Z</time>
      </trkpt>
      <trkpt lat="43.55496" lon="6.93149">
        <ele>60.056037902832</ele>
        <time>2011-03-06T13:43:06Z</time>
      </trkpt>
      <trkpt lat="43.55492" lon="6.93133">
        <ele>62.93533706665</ele>
        <time>2011-03-06T13:43:11Z</time>
      </trkpt>
      <trkpt lat="43.55489" lon="6.93121">
        <ele>65.05876159668</ele>
        <time>2011-03-06T13:43:15Z</time>
      </trkpt>
      <trkpt lat="43.55487" lon="6.93106">
        <ele>67.219314575195</ele>
        <time>2011-03-06T13:43:19Z</time>
      </trkpt>
      <trkpt lat="43.55486" lon="6.93082">
        <ele>70.750289916992</ele>
        <time>2011-03-06T13:43:24Z</time>
      </trkpt>
      <trkpt lat="43.55484" lon="6.93071">
        <ele>72.322334289551</ele>
        <time>2011-03-06T13:43:27Z</time>
      </trkpt>
      <trkpt lat="43.55486" lon="6.93067">
        <ele>72.738037109375</ele>
        <time>2011-03-06T13:43:34Z</time>
      </trkpt>
      <trkpt lat="43.55491" lon="6.93068">
        <ele>71.974136352539</ele>
        <time>2011-03-06T13:43:38Z</time>
      </trkpt>
      <trkpt lat="43.55497" lon="6.93085">
        <ele>69.149833679199</ele>
        <time>2011-03-06T13:43:42Z</time>
      </trkpt>
      <trkpt lat="43.55504" lon="6.93106">
        <ele>66.457206726074</ele>
        <time>2011-03-06T13:43:47Z</time>
      </trkpt>
      <trkpt lat="43.55509" lon="6.93127">
        <ele>64.313575744629</ele>
        <time>2011-03-06T13:43:51Z</time>
      </trkpt>
      <trkpt lat="43.55515" lon="6.9315">
        <ele>61.934677124023</ele>
        <time>2011-03-06T13:43:55Z</time>
      </trkpt>
      <trkpt lat="43.55524" lon="6.93158">
        <ele>62.243633270264</ele>
        <time>2011-03-06T13:43:59Z</time>
      </trkpt>
      <trkpt lat="43.55529" lon="6.9316">
        <ele>62.5465965271</ele>
        <time>2011-03-06T13:44:02Z</time>
      </trkpt>
      <trkpt lat="43.55529" lon="6.93172">
        <ele>60.562843322754</ele>
        <time>2011-03-06T13:44:08Z</time>
      </trkpt>
      <trkpt lat="43.55528" lon="6.93189">
        <ele>57.871246337891</ele>
        <time>2011-03-06T13:44:14Z</time>
      </trkpt>
      <trkpt lat="43.55528" lon="6.93196">
        <ele>56.832141876221</ele>
        <time>2011-03-06T13:44:19Z</time>
      </trkpt>
      <trkpt lat="43.55529" lon="6.93201">
        <ele>56.217468261719</ele>
        <time>2011-03-06T13:44:26Z</time>
      </trkpt>
      <trkpt lat="43.55528" lon="6.93211">
        <ele>54.426250457764</ele>
        <time>2011-03-06T13:44:31Z</time>
      </trkpt>
      <trkpt lat="43.55532" lon="6.93226">
        <ele>52.694110870361</ele>
        <time>2011-03-06T13:44:35Z</time>
      </trkpt>
      <trkpt lat="43.55542" lon="6.9325">
        <ele>50.034488677979</ele>
        <time>2011-03-06T13:44:41Z</time>
      </trkpt>
      <trkpt lat="43.55553" lon="6.93266">
        <ele>48.726905822754</ele>
        <time>2011-03-06T13:44:45Z</time>
      </trkpt>
      <trkpt lat="43.55565" lon="6.93288">
        <ele>46.682392120361</ele>
        <time>2011-03-06T13:44:49Z</time>
      </trkpt>
      <trkpt lat="43.55576" lon="6.93307">
        <ele>44.671264648438</ele>
        <time>2011-03-06T13:44:52Z</time>
      </trkpt>
      <trkpt lat="43.55579" lon="6.93328">
        <ele>41.504783630371</ele>
        <time>2011-03-06T13:44:55Z</time>
      </trkpt>
      <trkpt lat="43.55569" lon="6.93354">
        <ele>37.36990737915</ele>
        <time>2011-03-06T13:45:00Z</time>
      </trkpt>
      <trkpt lat="43.55563" lon="6.93366">
        <ele>35.393466949463</ele>
        <time>2011-03-06T13:45:02Z</time>
      </trkpt>
      <trkpt lat="43.55556" lon="6.9338">
        <ele>33.116271972656</ele>
        <time>2011-03-06T13:45:04Z</time>
      </trkpt>
      <trkpt lat="43.55553" lon="6.93397">
        <ele>30.953296661377</ele>
        <time>2011-03-06T13:45:07Z</time>
      </trkpt>
      <trkpt lat="43.55553" lon="6.93408">
        <ele>29.732328414917</ele>
        <time>2011-03-06T13:45:10Z</time>
      </trkpt>
      <trkpt lat="43.55545" lon="6.93423">
        <ele>27.371780395508</ele>
        <time>2011-03-06T13:45:14Z</time>
      </trkpt>
      <trkpt lat="43.55544" lon="6.93425">
        <ele>27.138315200806</ele>
        <time>2011-03-06T13:45:17Z</time>
      </trkpt>
      <trkpt lat="43.55545" lon="6.93426">
        <ele>27.161287307739</ele>
        <time>2011-03-06T13:45:22Z</time>
      </trkpt>
      <trkpt lat="43.55548" lon="6.93437">
        <ele>26.650392532349</ele>
        <time>2011-03-06T13:46:36Z</time>
      </trkpt>
      <trkpt lat="43.55548" lon="6.93437">
        <ele>26.646793365479</ele>
        <time>2011-03-06T13:46:37Z</time>
      </trkpt>
      <trkpt lat="43.5555" lon="6.93437">
        <ele>26.827211380005</ele>
        <time>2011-03-06T13:47:25Z</time>
      </trkpt>
      <trkpt lat="43.55548" lon="6.93435">
        <ele>26.82179069519</ele>
        <time>2011-03-06T13:47:56Z</time>
      </trkpt>
      <trkpt lat="43.55548" lon="6.93435">
        <ele>26.784683227539</ele>
        <time>2011-03-06T13:47:58Z</time>
      </trkpt>
      <trkpt lat="43.55548" lon="6.93435">
        <ele>26.781072616577</ele>
        <time>2011-03-06T13:47:59Z</time>
      </trkpt>
      <trkpt lat="43.55548" lon="6.93435">
        <ele>26.777462005615</ele>
        <time>2011-03-06T13:48:00Z</time>
      </trkpt>
      <trkpt lat="43.55548" lon="6.93435">
        <ele>26.777462005615</ele>
        <time>2011-03-06T13:48:01Z</time>
      </trkpt>
      <trkpt lat="43.55548" lon="6.93435">
        <ele>26.773853302002</ele>
        <time>2011-03-06T13:48:02Z</time>
      </trkpt>
      <trkpt lat="43.55548" lon="6.93435">
        <ele>26.77024269104</ele>
        <time>2011-03-06T13:48:03Z</time>
      </trkpt>
      <trkpt lat="43.55548" lon="6.93435">
        <ele>26.77024269104</ele>
        <time>2011-03-06T13:48:04Z</time>
      </trkpt>
      <trkpt lat="43.55547" lon="6.93432">
        <ele>26.929388046265</ele>
        <time>2011-03-06T13:49:39Z</time>
      </trkpt>
      <trkpt lat="43.55547" lon="6.93431">
        <ele>27.013305664062</ele>
        <time>2011-03-06T13:49:51Z</time>
      </trkpt>
      <trkpt lat="43.55549" lon="6.9343">
        <ele>27.254650115967</ele>
        <time>2011-03-06T13:50:07Z</time>
      </trkpt>
      <trkpt lat="43.55547" lon="6.93422">
        <ele>27.613857269287</ele>
        <time>2011-03-06T13:51:07Z</time>
      </trkpt>
      <trkpt lat="43.55555" lon="6.93434">
        <ele>27.58935546875</ele>
        <time>2011-03-06T13:53:18Z</time>
      </trkpt>
      <trkpt lat="43.55556" lon="6.9343">
        <ele>28.015853881836</ele>
        <time>2011-03-06T13:56:01Z</time>
      </trkpt>
      <trkpt lat="43.55554" lon="6.93431">
        <ele>27.748588562012</ele>
        <time>2011-03-06T13:56:10Z</time>
      </trkpt>
      <trkpt lat="43.55553" lon="6.93431">
        <ele>27.638511657715</ele>
        <time>2011-03-06T13:56:16Z</time>
      </trkpt>
      <trkpt lat="43.55556" lon="6.93432">
        <ele>27.85117149353</ele>
        <time>2011-03-06T13:56:35Z</time>
      </trkpt>
      <trkpt lat="43.55553" lon="6.93434">
        <ele>27.379457473755</ele>
        <time>2011-03-06T13:57:07Z</time>
      </trkpt>
      <trkpt lat="43.55552" lon="6.93434">
        <ele>27.285764694214</ele>
        <time>2011-03-06T13:57:16Z</time>
      </trkpt>
      <trkpt lat="43.55551" lon="6.9343">
        <ele>27.502613067627</ele>
        <time>2011-03-06T13:58:02Z</time>
      </trkpt>
      <trkpt lat="43.55554" lon="6.93433">
        <ele>27.597490310669</ele>
        <time>2011-03-06T13:58:08Z</time>
      </trkpt>
      <trkpt lat="43.55555" lon="6.93434">
        <ele>27.566564559936</ele>
        <time>2011-03-06T13:58:09Z</time>
      </trkpt>
      <trkpt lat="43.55561" lon="6.93457">
        <ele>26.274122238159</ele>
        <time>2011-03-06T13:58:17Z</time>
      </trkpt>
      <trkpt lat="43.55568" lon="6.9348">
        <ele>24.829679489136</ele>
        <time>2011-03-06T13:58:24Z</time>
      </trkpt>
      <trkpt lat="43.55581" lon="6.93506">
        <ele>23.592462539673</ele>
        <time>2011-03-06T13:58:31Z</time>
      </trkpt>
      <trkpt lat="43.55584" lon="6.93508">
        <ele>23.707025527954</ele>
        <time>2011-03-06T13:58:32Z</time>
      </trkpt>
      <trkpt lat="43.55598" lon="6.93506">
        <ele>27.992435455322</ele>
        <time>2011-03-06T13:58:37Z</time>
      </trkpt>
      <trkpt lat="43.55611" lon="6.93514">
        <ele>31.322074890137</ele>
        <time>2011-03-06T13:58:41Z</time>
      </trkpt>
      <trkpt lat="43.55609" lon="6.93529">
        <ele>29.788236618042</ele>
        <time>2011-03-06T13:58:44Z</time>
      </trkpt>
      <trkpt lat="43.55601" lon="6.93539">
        <ele>26.944759368896</ele>
        <time>2011-03-06T13:58:46Z</time>
      </trkpt>
      <trkpt lat="43.55573" lon="6.93598">
        <ele>19.422145843506</ele>
        <time>2011-03-06T13:58:53Z</time>
      </trkpt>
      <trkpt lat="43.55563" lon="6.93643">
        <ele>18.242446899414</ele>
        <time>2011-03-06T13:58:57Z</time>
      </trkpt>
      <trkpt lat="43.5554" lon="6.93681">
        <ele>17.226821899414</ele>
        <time>2011-03-06T13:59:01Z</time>
      </trkpt>
      <trkpt lat="43.55533" lon="6.93689">
        <ele>16.972595214844</ele>
        <time>2011-03-06T13:59:02Z</time>
      </trkpt>
      <trkpt lat="43.55503" lon="6.93733">
        <ele>15.478343009949</ele>
        <time>2011-03-06T13:59:07Z</time>
      </trkpt>
      <trkpt lat="43.5549" lon="6.93767">
        <ele>14.889281272888</ele>
        <time>2011-03-06T13:59:10Z</time>
      </trkpt>
      <trkpt lat="43.5549" lon="6.93795">
        <ele>14.518670082092</ele>
        <time>2011-03-06T13:59:13Z</time>
      </trkpt>
      <trkpt lat="43.55502" lon="6.93803">
        <ele>14.383932113648</ele>
        <time>2011-03-06T13:59:15Z</time>
      </trkpt>
      <trkpt lat="43.55526" lon="6.9381">
        <ele>14.678206443787</ele>
        <time>2011-03-06T13:59:18Z</time>
      </trkpt>
      <trkpt lat="43.55547" lon="6.93831">
        <ele>14.599535942078</ele>
        <time>2011-03-06T13:59:21Z</time>
      </trkpt>
      <trkpt lat="43.55548" lon="6.93867">
        <ele>14.183258056641</ele>
        <time>2011-03-06T13:59:24Z</time>
      </trkpt>
      <trkpt lat="43.55537" lon="6.93894">
        <ele>13.721488952637</ele>
        <time>2011-03-06T13:59:27Z</time>
      </trkpt>
      <trkpt lat="43.55531" lon="6.93907">
        <ele>13.492034912109</ele>
        <time>2011-03-06T13:59:30Z</time>
      </trkpt>
      <trkpt lat="43.55534" lon="6.93911">
        <ele>13.470863342285</ele>
        <time>2011-03-06T13:59:31Z</time>
      </trkpt>
      <trkpt lat="43.55542" lon="6.9392">
        <ele>13.458274841309</ele>
        <time>2011-03-06T13:59:33Z</time>
      </trkpt>
      <trkpt lat="43.55553" lon="6.93948">
        <ele>13.263153076172</ele>
        <time>2011-03-06T13:59:37Z</time>
      </trkpt>
      <trkpt lat="43.5555" lon="6.93985">
        <ele>12.787651062012</ele>
        <time>2011-03-06T13:59:41Z</time>
      </trkpt>
      <trkpt lat="43.55551" lon="6.93993">
        <ele>12.689231872559</ele>
        <time>2011-03-06T13:59:42Z</time>
      </trkpt>
      <trkpt lat="43.55552" lon="6.9401">
        <ele>12.385894775391</ele>
        <time>2011-03-06T13:59:44Z</time>
      </trkpt>
      <trkpt lat="43.55553" lon="6.94026">
        <ele>12.015106201172</ele>
        <time>2011-03-06T13:59:46Z</time>
      </trkpt>
      <trkpt lat="43.55551" lon="6.94055">
        <ele>11.298706054688</ele>
        <time>2011-03-06T13:59:50Z</time>
      </trkpt>
      <trkpt lat="43.55545" lon="6.94092">
        <ele>10.426376342773</ele>
        <time>2011-03-06T13:59:56Z</time>
      </trkpt>
      <trkpt lat="43.55539" lon="6.94111">
        <ele>10.133407592773</ele>
        <time>2011-03-06T13:59:59Z</time>
      </trkpt>
      <trkpt lat="43.55526" lon="6.94131">
        <ele>9.7437362670898</ele>
        <time>2011-03-06T14:00:04Z</time>
      </trkpt>
      <trkpt lat="43.5552" lon="6.94144">
        <ele>9.5148544311523</ele>
        <time>2011-03-06T14:00:08Z</time>
      </trkpt>
      <trkpt lat="43.55517" lon="6.94143">
        <ele>9.4879608154297</ele>
        <time>2011-03-06T14:00:09Z</time>
      </trkpt>
      <trkpt lat="43.55486" lon="6.94142">
        <ele>9.2987670898438</ele>
        <time>2011-03-06T14:00:17Z</time>
      </trkpt>
      <trkpt lat="43.55456" lon="6.94143">
        <ele>9.2793121337891</ele>
        <time>2011-03-06T14:00:25Z</time>
      </trkpt>
      <trkpt lat="43.55445" lon="6.94145">
        <ele>9.2627182006836</ele>
        <time>2011-03-06T14:00:29Z</time>
      </trkpt>
      <trkpt lat="43.5544" lon="6.94166">
        <ele>9.0075149536133</ele>
        <time>2011-03-06T14:00:35Z</time>
      </trkpt>
      <trkpt lat="43.55435" lon="6.94195">
        <ele>8.6636199951172</ele>
        <time>2011-03-06T14:00:40Z</time>
      </trkpt>
      <trkpt lat="43.55424" lon="6.94243">
        <ele>8.078254699707</ele>
        <time>2011-03-06T14:00:47Z</time>
      </trkpt>
      <trkpt lat="43.55416" lon="6.94285">
        <ele>7.1518707275391</ele>
        <time>2011-03-06T14:00:54Z</time>
      </trkpt>
      <trkpt lat="43.5541" lon="6.94323">
        <ele>6.1791229248047</ele>
        <time>2011-03-06T14:01:01Z</time>
      </trkpt>
      <trkpt lat="43.55407" lon="6.94337">
        <ele>5.8490719795227</ele>
        <time>2011-03-06T14:01:04Z</time>
      </trkpt>
      <trkpt lat="43.55394" lon="6.94346">
        <ele>5.6130065917969</ele>
        <time>2011-03-06T14:01:08Z</time>
      </trkpt>
      <trkpt lat="43.55378" lon="6.94347">
        <ele>5.4438691139221</ele>
        <time>2011-03-06T14:01:11Z</time>
      </trkpt>
      <trkpt lat="43.55323" lon="6.94335">
        <ele>4.8809204101562</ele>
        <time>2011-03-06T14:01:19Z</time>
      </trkpt>
      <trkpt lat="43.5529" lon="6.94334">
        <ele>4.482666015625</ele>
        <time>2011-03-06T14:01:24Z</time>
      </trkpt>
      <trkpt lat="43.55268" lon="6.94323">
        <ele>4.4705200195312</ele>
        <time>2011-03-06T14:01:28Z</time>
      </trkpt>
      <trkpt lat="43.55238" lon="6.94315">
        <ele>4.431884765625</ele>
        <time>2011-03-06T14:01:34Z</time>
      </trkpt>
      <trkpt lat="43.55235" lon="6.94315">
        <ele>4.4467620849609</ele>
        <time>2011-03-06T14:01:35Z</time>
      </trkpt>
      <trkpt lat="43.55209" lon="6.94312">
        <ele>4.5200042724609</ele>
        <time>2011-03-06T14:01:40Z</time>
      </trkpt>
      <trkpt lat="43.55158" lon="6.94301">
        <ele>4.7425026893616</ele>
        <time>2011-03-06T14:01:49Z</time>
      </trkpt>
      <trkpt lat="43.5513" lon="6.94295">
        <ele>4.7144832611084</ele>
        <time>2011-03-06T14:01:55Z</time>
      </trkpt>
      <trkpt lat="43.55112" lon="6.94288">
        <ele>4.729238986969</ele>
        <time>2011-03-06T14:02:01Z</time>
      </trkpt>
      <trkpt lat="43.55112" lon="6.94289">
        <ele>4.7189230918884</ele>
        <time>2011-03-06T14:02:02Z</time>
      </trkpt>
      <trkpt lat="43.55108" lon="6.94299">
        <ele>4.5325403213501</ele>
        <time>2011-03-06T14:02:09Z</time>
      </trkpt>
      <trkpt lat="43.55105" lon="6.94308">
        <ele>4.3773798942566</ele>
        <time>2011-03-06T14:02:15Z</time>
      </trkpt>
      <trkpt lat="43.55103" lon="6.94321">
        <ele>4.1819248199463</ele>
        <time>2011-03-06T14:02:22Z</time>
      </trkpt>
      <trkpt lat="43.551" lon="6.94339">
        <ele>4</ele>
        <time>2011-03-06T14:02:26Z</time>
      </trkpt>
      <trkpt lat="43.55096" lon="6.9434">
        <ele>4</ele>
        <time>2011-03-06T14:02:31Z</time>
      </trkpt>
      <trkpt lat="43.55082" lon="6.94336">
        <ele>4</ele>
        <time>2011-03-06T14:02:35Z</time>
      </trkpt>
      <trkpt lat="43.55048" lon="6.94328">
        <ele>4.0683135986328</ele>
        <time>2011-03-06T14:02:42Z</time>
      </trkpt>
      <trkpt lat="43.55028" lon="6.94324">
        <ele>4.1118011474609</ele>
        <time>2011-03-06T14:02:46Z</time>
      </trkpt>
      <trkpt lat="43.55017" lon="6.94324">
        <ele>4.107795715332</ele>
        <time>2011-03-06T14:02:49Z</time>
      </trkpt>
      <trkpt lat="43.55005" lon="6.9433">
        <ele>4.0397033691406</ele>
        <time>2011-03-06T14:02:54Z</time>
      </trkpt>
      <trkpt lat="43.54999" lon="6.94334">
        <ele>4</ele>
        <time>2011-03-06T14:02:56Z</time>
      </trkpt>
      <trkpt lat="43.54981" lon="6.94344">
        <ele>4</ele>
        <time>2011-03-06T14:03:00Z</time>
      </trkpt>
      <trkpt lat="43.54956" lon="6.94346">
        <ele>4</ele>
        <time>2011-03-06T14:03:05Z</time>
      </trkpt>
      <trkpt lat="43.54953" lon="6.94346">
        <ele>4</ele>
        <time>2011-03-06T14:03:06Z</time>
      </trkpt>
      <trkpt lat="43.5494" lon="6.94349">
        <ele>4</ele>
        <time>2011-03-06T14:03:09Z</time>
      </trkpt>
      <trkpt lat="43.54922" lon="6.94355">
        <ele>4</ele>
        <time>2011-03-06T14:03:13Z</time>
      </trkpt>
      <trkpt lat="43.5491" lon="6.94354">
        <ele>3.9141845703125</ele>
        <time>2011-03-06T14:03:16Z</time>
      </trkpt>
      <trkpt lat="43.54901" lon="6.94355">
        <ele>3.8088989257812</ele>
        <time>2011-03-06T14:03:18Z</time>
      </trkpt>
      <trkpt lat="43.54891" lon="6.94355">
        <ele>3.6898803710938</ele>
        <time>2011-03-06T14:03:21Z</time>
      </trkpt>
      <trkpt lat="43.54869" lon="6.94351">
        <ele>3.4335327148438</ele>
        <time>2011-03-06T14:03:27Z</time>
      </trkpt>
      <trkpt lat="43.54842" lon="6.94344">
        <ele>3.099365234375</ele>
        <time>2011-03-06T14:03:32Z</time>
      </trkpt>
      <trkpt lat="43.54826" lon="6.94337">
        <ele>3</ele>
        <time>2011-03-06T14:03:35Z</time>
      </trkpt>
      <trkpt lat="43.54801" lon="6.94317">
        <ele>3.3849639892578</ele>
        <time>2011-03-06T14:03:41Z</time>
      </trkpt>
      <trkpt lat="43.54792" lon="6.9431">
        <ele>3.5554809570312</ele>
        <time>2011-03-06T14:03:43Z</time>
      </trkpt>
      <trkpt lat="43.5477" lon="6.94307">
        <ele>3.6298675537109</ele>
        <time>2011-03-06T14:03:47Z</time>
      </trkpt>
      <trkpt lat="43.54754" lon="6.94315">
        <ele>3.4376068115234</ele>
        <time>2011-03-06T14:03:50Z</time>
      </trkpt>
      <trkpt lat="43.54729" lon="6.94353">
        <ele>3.1913368701935</ele>
        <time>2011-03-06T14:03:55Z</time>
      </trkpt>
      <trkpt lat="43.54725" lon="6.94357">
        <ele>3.2136588096619</ele>
        <time>2011-03-06T14:03:58Z</time>
      </trkpt>
      <trkpt lat="43.54708" lon="6.94363">
        <ele>3.3222377300262</ele>
        <time>2011-03-06T14:04:02Z</time>
      </trkpt>
      <trkpt lat="43.547" lon="6.94374">
        <ele>3.3104603290558</ele>
        <time>2011-03-06T14:04:04Z</time>
      </trkpt>
      <trkpt lat="43.54694" lon="6.94378">
        <ele>3.307519197464</ele>
        <time>2011-03-06T14:04:05Z</time>
      </trkpt>
      <trkpt lat="43.54663" lon="6.94403">
        <ele>3.1696412563324</ele>
        <time>2011-03-06T14:04:11Z</time>
      </trkpt>
      <trkpt lat="43.54658" lon="6.94407">
        <ele>3.1286013126373</ele>
        <time>2011-03-06T14:04:12Z</time>
      </trkpt>
      <trkpt lat="43.54648" lon="6.94414">
        <ele>3.0364906787872</ele>
        <time>2011-03-06T14:04:14Z</time>
      </trkpt>
      <trkpt lat="43.54634" lon="6.94425">
        <ele>3</ele>
        <time>2011-03-06T14:04:17Z</time>
      </trkpt>
      <trkpt lat="43.54618" lon="6.94438">
        <ele>3</ele>
        <time>2011-03-06T14:04:21Z</time>
      </trkpt>
      <trkpt lat="43.54603" lon="6.94449">
        <ele>3</ele>
        <time>2011-03-06T14:04:25Z</time>
      </trkpt>
      <trkpt lat="43.54595" lon="6.94465">
        <ele>3</ele>
        <time>2011-03-06T14:04:29Z</time>
      </trkpt>
      <trkpt lat="43.54581" lon="6.94495">
        <ele>3.0017349720001</ele>
        <time>2011-03-06T14:04:35Z</time>
      </trkpt>
      <trkpt lat="43.54578" lon="6.94498">
        <ele>3.001433134079</ele>
        <time>2011-03-06T14:04:36Z</time>
      </trkpt>
      <trkpt lat="43.54541" lon="6.94534">
        <ele>3</ele>
        <time>2011-03-06T14:04:46Z</time>
      </trkpt>
      <trkpt lat="43.54529" lon="6.94544">
        <ele>3</ele>
        <time>2011-03-06T14:04:49Z</time>
      </trkpt>
      <trkpt lat="43.54522" lon="6.94564">
        <ele>3</ele>
        <time>2011-03-06T14:04:53Z</time>
      </trkpt>
      <trkpt lat="43.54523" lon="6.9457">
        <ele>3</ele>
        <time>2011-03-06T14:04:54Z</time>
      </trkpt>
      <trkpt lat="43.54525" lon="6.94595">
        <ele>3</ele>
        <time>2011-03-06T14:04:58Z</time>
      </trkpt>
      <trkpt lat="43.54525" lon="6.94601">
        <ele>3</ele>
        <time>2011-03-06T14:04:59Z</time>
      </trkpt>
      <trkpt lat="43.54523" lon="6.94627">
        <ele>3</ele>
        <time>2011-03-06T14:05:03Z</time>
      </trkpt>
      <trkpt lat="43.54534" lon="6.94675">
        <ele>3</ele>
        <time>2011-03-06T14:05:11Z</time>
      </trkpt>
      <trkpt lat="43.54535" lon="6.94681">
        <ele>3</ele>
        <time>2011-03-06T14:05:12Z</time>
      </trkpt>
      <trkpt lat="43.5455" lon="6.94705">
        <ele>3</ele>
        <time>2011-03-06T14:05:17Z</time>
      </trkpt>
      <trkpt lat="43.54559" lon="6.94715">
        <ele>3</ele>
        <time>2011-03-06T14:05:20Z</time>
      </trkpt>
      <trkpt lat="43.54583" lon="6.94732">
        <ele>3</ele>
        <time>2011-03-06T14:05:27Z</time>
      </trkpt>
      <trkpt lat="43.54585" lon="6.94734">
        <ele>3.0113911628723</ele>
        <time>2011-03-06T14:05:28Z</time>
      </trkpt>
      <trkpt lat="43.54585" lon="6.94736">
        <ele>3.0194172859192</ele>
        <time>2011-03-06T14:05:35Z</time>
      </trkpt>
      <trkpt lat="43.54586" lon="6.94745">
        <ele>3.0348234176636</ele>
        <time>2011-03-06T14:05:42Z</time>
      </trkpt>
      <trkpt lat="43.54585" lon="6.94774">
        <ele>3.2969589233398</ele>
        <time>2011-03-06T14:05:48Z</time>
      </trkpt>
      <trkpt lat="43.54582" lon="6.94823">
        <ele>3.8588557243347</ele>
        <time>2011-03-06T14:05:56Z</time>
      </trkpt>
      <trkpt lat="43.54579" lon="6.94873">
        <ele>3.9453735351562</ele>
        <time>2011-03-06T14:06:04Z</time>
      </trkpt>
      <trkpt lat="43.54575" lon="6.94932">
        <ele>3.9041748046875</ele>
        <time>2011-03-06T14:06:13Z</time>
      </trkpt>
      <trkpt lat="43.54574" lon="6.94943">
        <ele>3.8858642578125</ele>
        <time>2011-03-06T14:06:15Z</time>
      </trkpt>
      <trkpt lat="43.54559" lon="6.94951">
        <ele>3.7119140625</ele>
        <time>2011-03-06T14:06:20Z</time>
      </trkpt>
      <trkpt lat="43.54551" lon="6.94952">
        <ele>3.6112060546875</ele>
        <time>2011-03-06T14:06:22Z</time>
      </trkpt>
      <trkpt lat="43.54546" lon="6.94952">
        <ele>3.5562744140625</ele>
        <time>2011-03-06T14:06:23Z</time>
      </trkpt>
      <trkpt lat="43.54533" lon="6.94951">
        <ele>3.3914794921875</ele>
        <time>2011-03-06T14:06:26Z</time>
      </trkpt>
      <trkpt lat="43.54513" lon="6.94943">
        <ele>3.1534423828125</ele>
        <time>2011-03-06T14:06:30Z</time>
      </trkpt>
      <trkpt lat="43.54464" lon="6.94914">
        <ele>2.5675048828125</ele>
        <time>2011-03-06T14:06:39Z</time>
      </trkpt>
      <trkpt lat="43.54416" lon="6.94886">
        <ele>2</ele>
        <time>2011-03-06T14:06:47Z</time>
      </trkpt>
      <trkpt lat="43.5437" lon="6.9486">
        <ele>2</ele>
        <time>2011-03-06T14:06:55Z</time>
      </trkpt>
      <trkpt lat="43.54333" lon="6.94847">
        <ele>2</ele>
        <time>2011-03-06T14:07:01Z</time>
      </trkpt>
      <trkpt lat="43.543" lon="6.94821">
        <ele>2</ele>
        <time>2011-03-06T14:07:07Z</time>
      </trkpt>
      <trkpt lat="43.54294" lon="6.94817">
        <ele>2</ele>
        <time>2011-03-06T14:07:08Z</time>
      </trkpt>
      <trkpt lat="43.54255" lon="6.94784">
        <ele>2</ele>
        <time>2011-03-06T14:07:15Z</time>
      </trkpt>
      <trkpt lat="43.54214" lon="6.94759">
        <ele>2</ele>
        <time>2011-03-06T14:07:22Z</time>
      </trkpt>
      <trkpt lat="43.54202" lon="6.94754">
        <ele>2</ele>
        <time>2011-03-06T14:07:24Z</time>
      </trkpt>
      <trkpt lat="43.54196" lon="6.94752">
        <ele>2</ele>
        <time>2011-03-06T14:07:25Z</time>
      </trkpt>
      <trkpt lat="43.5414" lon="6.94729">
        <ele>2</ele>
        <time>2011-03-06T14:07:34Z</time>
      </trkpt>
      <trkpt lat="43.54095" lon="6.94713">
        <ele>2</ele>
        <time>2011-03-06T14:07:41Z</time>
      </trkpt>
      <trkpt lat="43.54043" lon="6.94698">
        <ele>1.5183715820312</ele>
        <time>2011-03-06T14:07:49Z</time>
      </trkpt>
      <trkpt lat="43.53997" lon="6.94688">
        <ele>1</ele>
        <time>2011-03-06T14:07:56Z</time>
      </trkpt>
      <trkpt lat="43.53944" lon="6.94679">
        <ele>1</ele>
        <time>2011-03-06T14:08:04Z</time>
      </trkpt>
      <trkpt lat="43.53911" lon="6.94676">
        <ele>1</ele>
        <time>2011-03-06T14:08:09Z</time>
      </trkpt>
      <trkpt lat="43.53871" lon="6.94688">
        <ele>1</ele>
        <time>2011-03-06T14:08:15Z</time>
      </trkpt>
      <trkpt lat="43.53844" lon="6.94699">
        <ele>1</ele>
        <time>2011-03-06T14:08:19Z</time>
      </trkpt>
      <trkpt lat="43.53804" lon="6.94711">
        <ele>1</ele>
        <time>2011-03-06T14:08:25Z</time>
      </trkpt>
      <trkpt lat="43.53759" lon="6.94722">
        <ele>1</ele>
        <time>2011-03-06T14:08:32Z</time>
      </trkpt>
      <trkpt lat="43.5374" lon="6.9472">
        <ele>1</ele>
        <time>2011-03-06T14:08:35Z</time>
      </trkpt>
      <trkpt lat="43.53718" lon="6.94706">
        <ele>1</ele>
        <time>2011-03-06T14:08:39Z</time>
      </trkpt>
      <trkpt lat="43.53704" lon="6.94684">
        <ele>1</ele>
        <time>2011-03-06T14:08:43Z</time>
      </trkpt>
      <trkpt lat="43.5369" lon="6.94681">
        <ele>1</ele>
        <time>2011-03-06T14:08:46Z</time>
      </trkpt>
      <trkpt lat="43.5368" lon="6.94691">
        <ele>1</ele>
        <time>2011-03-06T14:08:49Z</time>
      </trkpt>
      <trkpt lat="43.53673" lon="6.94694">
        <ele>1</ele>
        <time>2011-03-06T14:08:52Z</time>
      </trkpt>
      <trkpt lat="43.53674" lon="6.94691">
        <ele>1</ele>
        <time>2011-03-06T14:08:55Z</time>
      </trkpt>
      <trkpt lat="43.53675" lon="6.94689">
        <ele>1</ele>
        <time>2011-03-06T14:08:59Z</time>
      </trkpt>
      <trkpt lat="43.53672" lon="6.94686">
        <ele>1</ele>
        <time>2011-03-06T14:09:02Z</time>
      </trkpt>
      <trkpt lat="43.53665" lon="6.94674">
        <ele>1</ele>
        <time>2011-03-06T14:09:05Z</time>
      </trkpt>
      <trkpt lat="43.53644" lon="6.94649">
        <ele>1</ele>
        <time>2011-03-06T14:09:12Z</time>
      </trkpt>
      <trkpt lat="43.53629" lon="6.94633">
        <ele>1</ele>
        <time>2011-03-06T14:09:17Z</time>
      </trkpt>
      <trkpt lat="43.53614" lon="6.94627">
        <ele>1</ele>
        <time>2011-03-06T14:09:21Z</time>
      </trkpt>
      <trkpt lat="43.53611" lon="6.94625">
        <ele>1</ele>
        <time>2011-03-06T14:09:23Z</time>
      </trkpt>
    </trkseg>
  </trk>
</gpx>